<?xml version='1.0' encoding='UTF-8'?><gpx version="1.1" creator="JPX - https://github.com/jenetics/jpx" xmlns="http://www.topografix.com/GPX/1/1"><trk><trkseg><trkpt lat="45.7027131451675" lon="8.447641372592049"><ele>316.0</ele><time>2026-04-11T14:32:09.998Z</time></trkpt><trkpt lat="45.70270207821665" lon="8.447732495912161"><ele>316.0</ele><time>2026-04-11T14:32:10.998Z</time></trkpt><trkpt lat="45.70272012137221" lon="8.44782563153052"><ele>316.0</ele><time>2026-04-11T14:32:11.998Z</time></trkpt><trkpt lat="45.702757292630714" lon="8.447973858486582"><ele>316.0</ele><time>2026-04-11T14:32:13.998Z</time></trkpt><trkpt lat="45.702787613256774" lon="8.448116416909896"><ele>316.0</ele><time>2026-04-11T14:32:14.998Z</time></trkpt><trkpt lat="45.70281765801943" lon="8.448299474789831"><ele>316.0</ele><time>2026-04-11T14:32:15.998Z</time></trkpt><trkpt lat="45.7028448396473" lon="8.44848313286597"><ele>316.0</ele><time>2026-04-11T14:32:16.998Z</time></trkpt><trkpt lat="45.70286957259903" lon="8.448639521090485"><ele>316.0</ele><time>2026-04-11T14:32:17.998Z</time></trkpt><trkpt lat="45.70289054034303" lon="8.44878151642582"><ele>316.0</ele><time>2026-04-11T14:32:18.998Z</time></trkpt><trkpt lat="45.70291337899596" lon="8.448927992905112"><ele>316.0</ele><time>2026-04-11T14:32:19.998Z</time></trkpt><trkpt lat="45.70293775194432" lon="8.449089370703668"><ele>316.2</ele><time>2026-04-11T14:32:20.998Z</time></trkpt><trkpt lat="45.702961656875345" lon="8.449239485599056"><ele>316.40000000000003</ele><time>2026-04-11T14:32:21.998Z</time></trkpt><trkpt lat="45.70298060834283" lon="8.449386012820796"><ele>316.6</ele><time>2026-04-11T14:32:22.998Z</time></trkpt><trkpt lat="45.70299713518857" lon="8.449529780790764"><ele>316.8</ele><time>2026-04-11T14:32:23.998Z</time></trkpt><trkpt lat="45.703015147604866" lon="8.449674711543807"><ele>317.0</ele><time>2026-04-11T14:32:24.998Z</time></trkpt><trkpt lat="45.7030372268776" lon="8.449858530864292"><ele>317.0</ele><time>2026-04-11T14:32:25.997Z</time></trkpt><trkpt lat="45.703063027244504" lon="8.450056060654932"><ele>317.0</ele><time>2026-04-11T14:32:26.997Z</time></trkpt><trkpt lat="45.70308282952964" lon="8.450231455027978"><ele>317.0</ele><time>2026-04-11T14:32:27.997Z</time></trkpt><trkpt lat="45.70310190509777" lon="8.450402395763213"><ele>317.0</ele><time>2026-04-11T14:32:28.997Z</time></trkpt><trkpt lat="45.703113247506074" lon="8.450551322900203"><ele>317.0</ele><time>2026-04-11T14:32:29.997Z</time></trkpt><trkpt lat="45.70312622013181" lon="8.45069422043452"><ele>317.0</ele><time>2026-04-11T14:32:30.997Z</time></trkpt><trkpt lat="45.70313567302442" lon="8.450809999604566"><ele>317.0</ele><time>2026-04-11T14:32:31.997Z</time></trkpt><trkpt lat="45.70314421230758" lon="8.450908065830221"><ele>317.0</ele><time>2026-04-11T14:32:32.997Z</time></trkpt><trkpt lat="45.70316642283737" lon="8.451044681317263"><ele>317.0</ele><time>2026-04-11T14:32:34.997Z</time></trkpt><trkpt lat="45.70337921636294" lon="8.451007846463048"><ele>317.0</ele><time>2026-04-11T14:32:37.997Z</time></trkpt><trkpt lat="45.70351180761531" lon="8.450934804456711"><ele>317.0</ele><time>2026-04-11T14:32:38.997Z</time></trkpt><trkpt lat="45.70365524937539" lon="8.45085591556347"><ele>317.0</ele><time>2026-04-11T14:32:39.997Z</time></trkpt><trkpt lat="45.70376988347986" lon="8.450766548977914"><ele>317.0</ele><time>2026-04-11T14:32:40.997Z</time></trkpt><trkpt lat="45.70386402609492" lon="8.450682114613185"><ele>317.4</ele><time>2026-04-11T14:32:41.997Z</time></trkpt><trkpt lat="45.70395767158687" lon="8.450613906686293"><ele>317.79999999999995</ele><time>2026-04-11T14:32:42.997Z</time></trkpt><trkpt lat="45.70405284243175" lon="8.45057074131295"><ele>318.2</ele><time>2026-04-11T14:32:43.997Z</time></trkpt><trkpt lat="45.70415108715103" lon="8.450601154925948"><ele>318.59999999999997</ele><time>2026-04-11T14:32:44.997Z</time></trkpt><trkpt lat="45.704254450983996" lon="8.450603709650453"><ele>319.0</ele><time>2026-04-11T14:32:45.997Z</time></trkpt><trkpt lat="45.70436048896475" lon="8.450677764361329"><ele>318.25</ele><time>2026-04-11T14:32:46.997Z</time></trkpt><trkpt lat="45.704467395277256" lon="8.450752802240181"><ele>317.5</ele><time>2026-04-11T14:32:47.997Z</time></trkpt><trkpt lat="45.70456313475134" lon="8.450781309102139"><ele>316.75</ele><time>2026-04-11T14:32:48.997Z</time></trkpt><trkpt lat="45.70466568782707" lon="8.45076193038414"><ele>316.0</ele><time>2026-04-11T14:32:49.998Z</time></trkpt><trkpt lat="45.70480404149394" lon="8.450705017010288"><ele>316.0</ele><time>2026-04-11T14:32:50.998Z</time></trkpt><trkpt lat="45.704988926416014" lon="8.450664427311109"><ele>316.0</ele><time>2026-04-11T14:32:51.998Z</time></trkpt><trkpt lat="45.70519244281073" lon="8.450595502423967"><ele>316.0</ele><time>2026-04-11T14:32:52.998Z</time></trkpt><trkpt lat="45.70537061329871" lon="8.450531775603078"><ele>316.0</ele><time>2026-04-11T14:32:53.998Z</time></trkpt><trkpt lat="45.70553789141259" lon="8.450470063091426"><ele>316.0</ele><time>2026-04-11T14:32:54.998Z</time></trkpt><trkpt lat="45.705668958562796" lon="8.450419437080617"><ele>316.0</ele><time>2026-04-11T14:32:55.998Z</time></trkpt><trkpt lat="45.7057966132226" lon="8.45037335022456"><ele>316.0</ele><time>2026-04-11T14:32:56.998Z</time></trkpt><trkpt lat="45.705907449466416" lon="8.450353077940226"><ele>316.0</ele><time>2026-04-11T14:32:57.998Z</time></trkpt><trkpt lat="45.70601244748743" lon="8.45035816911003"><ele>316.0</ele><time>2026-04-11T14:32:58.998Z</time></trkpt><trkpt lat="45.70614599785635" lon="8.450465215474518"><ele>316.0</ele><time>2026-04-11T14:32:59.998Z</time></trkpt><trkpt lat="45.706313267115085" lon="8.45046508807766"><ele>316.0</ele><time>2026-04-11T14:33:00.998Z</time></trkpt><trkpt lat="45.706501640258246" lon="8.45046369278248"><ele>316.75</ele><time>2026-04-11T14:33:01.998Z</time></trkpt><trkpt lat="45.7066569136437" lon="8.450451753199285"><ele>317.5</ele><time>2026-04-11T14:33:02.998Z</time></trkpt><trkpt lat="45.70679420146207" lon="8.450439692384961"><ele>318.25</ele><time>2026-04-11T14:33:03.998Z</time></trkpt><trkpt lat="45.7069245876833" lon="8.450436249904238"><ele>319.0</ele><time>2026-04-11T14:33:04.998Z</time></trkpt><trkpt lat="45.70705264122894" lon="8.450432614434686"><ele>318.59999999999997</ele><time>2026-04-11T14:33:05.998Z</time></trkpt><trkpt lat="45.707168406040196" lon="8.450462015416184"><ele>318.2</ele><time>2026-04-11T14:33:06.998Z</time></trkpt><trkpt lat="45.707230988432435" lon="8.450477052868397"><ele>317.79999999999995</ele><time>2026-04-11T14:33:07.998Z</time></trkpt><trkpt lat="45.70734407898822" lon="8.450509564630178"><ele>317.4</ele><time>2026-04-11T14:33:11.998Z</time></trkpt><trkpt lat="45.70742489282329" lon="8.450491137752074"><ele>317.0</ele><time>2026-04-11T14:33:13.999Z</time></trkpt><trkpt lat="45.70751808585083" lon="8.45048656837462"><ele>317.0</ele><time>2026-04-11T14:33:14.999Z</time></trkpt><trkpt lat="45.70765688392351" lon="8.450494448355094"><ele>317.0</ele><time>2026-04-11T14:33:15.999Z</time></trkpt><trkpt lat="45.70782440901408" lon="8.450486406497586"><ele>317.0</ele><time>2026-04-11T14:33:16.999Z</time></trkpt><trkpt lat="45.70800261462113" lon="8.450520697233209"><ele>318.0</ele><time>2026-04-11T14:33:17.999Z</time></trkpt><trkpt lat="45.70818107431246" lon="8.450540940434264"><ele>319.0</ele><time>2026-04-11T14:33:18.999Z</time></trkpt><trkpt lat="45.70835226407997" lon="8.450545698253624"><ele>320.0</ele><time>2026-04-11T14:33:19.999Z</time></trkpt><trkpt lat="45.708542307716066" lon="8.450539177008972"><ele>320.33333333333337</ele><time>2026-04-11T14:33:20.999Z</time></trkpt><trkpt lat="45.708730114724105" lon="8.450512287797782"><ele>320.6666666666667</ele><time>2026-04-11T14:33:21.999Z</time></trkpt><trkpt lat="45.70892423244416" lon="8.450460677048849"><ele>321.0</ele><time>2026-04-11T14:33:22.999Z</time></trkpt><trkpt lat="45.70910035277558" lon="8.450408279583225"><ele>321.25</ele><time>2026-04-11T14:33:23.999Z</time></trkpt><trkpt lat="45.70925644101757" lon="8.45036565802332"><ele>321.5</ele><time>2026-04-11T14:33:24.999Z</time></trkpt><trkpt lat="45.7094035310862" lon="8.450330117511708"><ele>321.75</ele><time>2026-04-11T14:33:25.999Z</time></trkpt><trkpt lat="45.70952917335802" lon="8.450289449346759"><ele>322.0</ele><time>2026-04-11T14:33:26.999Z</time></trkpt><trkpt lat="45.70964365456885" lon="8.450251334671242"><ele>322.20000000000005</ele><time>2026-04-11T14:33:27.999Z</time></trkpt><trkpt lat="45.70973817917615" lon="8.45019193797612"><ele>322.4</ele><time>2026-04-11T14:33:28.999Z</time></trkpt><trkpt lat="45.7098356712201" lon="8.450126392470162"><ele>322.6</ele><time>2026-04-11T14:33:29.999Z</time></trkpt><trkpt lat="45.70994303317928" lon="8.450064075516122"><ele>322.79999999999995</ele><time>2026-04-11T14:33:30.999Z</time></trkpt><trkpt lat="45.71004588929952" lon="8.449978418556595"><ele>323.0</ele><time>2026-04-11T14:33:31.999Z</time></trkpt><trkpt lat="45.7101280832712" lon="8.449903028187718"><ele>323.0</ele><time>2026-04-11T14:33:32.999Z</time></trkpt><trkpt lat="45.71020097109141" lon="8.449842340780881"><ele>323.0</ele><time>2026-04-11T14:33:34.999Z</time></trkpt><trkpt lat="45.710264806927626" lon="8.450080784758256"><ele>323.0</ele><time>2026-04-11T14:33:37.999Z</time></trkpt><trkpt lat="45.71035243140483" lon="8.450290123981295"><ele>323.0</ele><time>2026-04-11T14:33:38.999Z</time></trkpt><trkpt lat="45.71042643870099" lon="8.450464819394789"><ele>323.0</ele><time>2026-04-11T14:33:39.999Z</time></trkpt><trkpt lat="45.71046698816285" lon="8.45056053697777"><ele>323.0</ele><time>2026-04-11T14:33:40.999Z</time></trkpt><trkpt lat="45.71050699573976" lon="8.45066926556201"><ele>323.0</ele><time>2026-04-11T14:33:41.999Z</time></trkpt><trkpt lat="45.71055450497389" lon="8.450735853493036"><ele>323.0</ele><time>2026-04-11T14:33:43.999Z</time></trkpt><trkpt lat="45.71049956671382" lon="8.450805217580639"><ele>323.0</ele><time>2026-04-11T14:33:45.999Z</time></trkpt><trkpt lat="45.710457718826206" lon="8.45089264716212"><ele>323.0</ele><time>2026-04-11T14:33:46.999Z</time></trkpt><trkpt lat="45.71049409993318" lon="8.451065653876835"><ele>323.0</ele><time>2026-04-11T14:33:48.999Z</time></trkpt><trkpt lat="45.7105730424674" lon="8.451256229448779"><ele>323.0</ele><time>2026-04-11T14:33:49.999Z</time></trkpt><trkpt lat="45.71064942741796" lon="8.451449447940632"><ele>323.0</ele><time>2026-04-11T14:33:50.999Z</time></trkpt><trkpt lat="45.710705003391425" lon="8.451590030642542"><ele>323.0</ele><time>2026-04-11T14:33:51.999Z</time></trkpt><trkpt lat="45.710760589299284" lon="8.45169124278269"><ele>323.0</ele><time>2026-04-11T14:33:52.999Z</time></trkpt><trkpt lat="45.710801008293664" lon="8.451765132351278"><ele>323.0</ele><time>2026-04-11T14:33:53.998Z</time></trkpt><trkpt lat="45.71086798937015" lon="8.45184111796403"><ele>323.0</ele><time>2026-04-11T14:33:54.998Z</time></trkpt><trkpt lat="45.71102045039561" lon="8.45189255915963"><ele>323.0</ele><time>2026-04-11T14:33:55.998Z</time></trkpt><trkpt lat="45.71115207627918" lon="8.451935912295477"><ele>323.0</ele><time>2026-04-11T14:33:56.998Z</time></trkpt><trkpt lat="45.711322564003694" lon="8.451993810053683"><ele>323.0</ele><time>2026-04-11T14:33:57.998Z</time></trkpt><trkpt lat="45.71147693509068" lon="8.452068677433425"><ele>323.0</ele><time>2026-04-11T14:33:58.998Z</time></trkpt><trkpt lat="45.71161081199581" lon="8.452144934879458"><ele>323.0</ele><time>2026-04-11T14:33:59.998Z</time></trkpt><trkpt lat="45.7117439554304" lon="8.452215491569412"><ele>323.0</ele><time>2026-04-11T14:34:00.998Z</time></trkpt><trkpt lat="45.71188604047366" lon="8.452300815158221"><ele>322.6666666666667</ele><time>2026-04-11T14:34:01.998Z</time></trkpt><trkpt lat="45.71203477502607" lon="8.452393493240313"><ele>322.3333333333333</ele><time>2026-04-11T14:34:02.998Z</time></trkpt><trkpt lat="45.71218534249943" lon="8.452482028935739"><ele>322.0</ele><time>2026-04-11T14:34:03.998Z</time></trkpt><trkpt lat="45.71232007443306" lon="8.452559778664533"><ele>322.0</ele><time>2026-04-11T14:34:04.998Z</time></trkpt><trkpt lat="45.71243117857892" lon="8.452604019220605"><ele>322.0</ele><time>2026-04-11T14:34:05.998Z</time></trkpt><trkpt lat="45.712511660516085" lon="8.452663009624679"><ele>322.0</ele><time>2026-04-11T14:34:06.998Z</time></trkpt><trkpt lat="45.71255648877081" lon="8.452727806019428"><ele>322.0</ele><time>2026-04-11T14:34:07.998Z</time></trkpt><trkpt lat="45.7125516695837" lon="8.452824748659962"><ele>322.0</ele><time>2026-04-11T14:34:09.998Z</time></trkpt><trkpt lat="45.712537150192475" lon="8.452959200011966"><ele>322.0</ele><time>2026-04-11T14:34:12.998Z</time></trkpt><trkpt lat="45.71254098507204" lon="8.45307813932002"><ele>322.0</ele><time>2026-04-11T14:34:13.998Z</time></trkpt><trkpt lat="45.71258962756792" lon="8.453176238861996"><ele>322.0</ele><time>2026-04-11T14:34:14.998Z</time></trkpt><trkpt lat="45.712665473073805" lon="8.453202513280146"><ele>322.0</ele><time>2026-04-11T14:34:15.998Z</time></trkpt><trkpt lat="45.71272901429996" lon="8.453182807237477"><ele>322.0</ele><time>2026-04-11T14:34:16.998Z</time></trkpt><trkpt lat="45.71279124805278" lon="8.453093235399932"><ele>322.0</ele><time>2026-04-11T14:34:18.998Z</time></trkpt><trkpt lat="45.71287081930266" lon="8.452931505111621"><ele>322.75</ele><time>2026-04-11T14:34:20.998Z</time></trkpt><trkpt lat="45.71298784321213" lon="8.452885533633145"><ele>323.5</ele><time>2026-04-11T14:34:21.998Z</time></trkpt><trkpt lat="45.71309959444002" lon="8.452836531440125"><ele>324.25</ele><time>2026-04-11T14:34:22.998Z</time></trkpt><trkpt lat="45.71322574832787" lon="8.452783042663716"><ele>325.0</ele><time>2026-04-11T14:34:23.998Z</time></trkpt><trkpt lat="45.71336391500761" lon="8.452712747930574"><ele>325.0</ele><time>2026-04-11T14:34:24.998Z</time></trkpt><trkpt lat="45.71346903187988" lon="8.452657259867587"><ele>325.0</ele><time>2026-04-11T14:34:25.998Z</time></trkpt><trkpt lat="45.71356099424282" lon="8.452604403152266"><ele>325.0</ele><time>2026-04-11T14:34:26.998Z</time></trkpt><trkpt lat="45.71366902568663" lon="8.452543284885603"><ele>325.0</ele><time>2026-04-11T14:34:27.998Z</time></trkpt><trkpt lat="45.713797365898635" lon="8.452471162045706"><ele>325.3333333333333</ele><time>2026-04-11T14:34:28.998Z</time></trkpt><trkpt lat="45.71394514970994" lon="8.45239295659529"><ele>325.6666666666667</ele><time>2026-04-11T14:34:29.998Z</time></trkpt><trkpt lat="45.71410260990271" lon="8.452316240693374"><ele>326.0</ele><time>2026-04-11T14:34:30.998Z</time></trkpt><trkpt lat="45.714270782652655" lon="8.452238542854605"><ele>326.0</ele><time>2026-04-11T14:34:31.998Z</time></trkpt><trkpt lat="45.71443789450606" lon="8.452160517619863"><ele>326.0</ele><time>2026-04-11T14:34:32.998Z</time></trkpt><trkpt lat="45.71459193389045" lon="8.45209143186466"><ele>326.0</ele><time>2026-04-11T14:34:33.998Z</time></trkpt><trkpt lat="45.71472820779006" lon="8.452033693676132"><ele>326.0</ele><time>2026-04-11T14:34:34.998Z</time></trkpt><trkpt lat="45.71485802087722" lon="8.451975310072152"><ele>326.0</ele><time>2026-04-11T14:34:35.998Z</time></trkpt><trkpt lat="45.71498780212638" lon="8.451913858601447"><ele>326.0</ele><time>2026-04-11T14:34:36.998Z</time></trkpt><trkpt lat="45.71512830136178" lon="8.451846453645354"><ele>326.0</ele><time>2026-04-11T14:34:37.998Z</time></trkpt><trkpt lat="45.71526839238346" lon="8.45178271311033"><ele>326.5</ele><time>2026-04-11T14:34:38.998Z</time></trkpt><trkpt lat="45.71540784384487" lon="8.45172055108809"><ele>327.0</ele><time>2026-04-11T14:34:39.998Z</time></trkpt><trkpt lat="45.715527649585354" lon="8.451667708359468"><ele>327.5</ele><time>2026-04-11T14:34:40.998Z</time></trkpt><trkpt lat="45.71564334256312" lon="8.451615205965714"><ele>328.0</ele><time>2026-04-11T14:34:41.998Z</time></trkpt><trkpt lat="45.715749895105276" lon="8.451565733076157"><ele>328.0</ele><time>2026-04-11T14:34:42.998Z</time></trkpt><trkpt lat="45.71585051190489" lon="8.451522245156086"><ele>328.0</ele><time>2026-04-11T14:34:43.998Z</time></trkpt><trkpt lat="45.71594957489778" lon="8.45147789521475"><ele>328.0</ele><time>2026-04-11T14:34:44.998Z</time></trkpt><trkpt lat="45.716044708971616" lon="8.45143440919446"><ele>328.0</ele><time>2026-04-11T14:34:45.998Z</time></trkpt><trkpt lat="45.7161415788512" lon="8.451392908286557"><ele>328.0</ele><time>2026-04-11T14:34:46.998Z</time></trkpt><trkpt lat="45.71623903440462" lon="8.451356685155087"><ele>328.0</ele><time>2026-04-11T14:34:47.998Z</time></trkpt><trkpt lat="45.716330359211774" lon="8.451340160512405"><ele>328.0</ele><time>2026-04-11T14:34:48.998Z</time></trkpt><trkpt lat="45.71641557552931" lon="8.451361124886676"><ele>328.0</ele><time>2026-04-11T14:34:49.998Z</time></trkpt><trkpt lat="45.71650747485952" lon="8.451423768055484"><ele>328.0</ele><time>2026-04-11T14:34:50.998Z</time></trkpt><trkpt lat="45.716592984959995" lon="8.45152089474702"><ele>328.0</ele><time>2026-04-11T14:34:51.998Z</time></trkpt><trkpt lat="45.71667903879147" lon="8.451643343625525"><ele>328.0</ele><time>2026-04-11T14:34:52.998Z</time></trkpt><trkpt lat="45.71671341719217" lon="8.45189756171068"><ele>328.0</ele><time>2026-04-11T14:34:53.998Z</time></trkpt><trkpt lat="45.71676306649866" lon="8.452131386762112"><ele>328.0</ele><time>2026-04-11T14:34:54.998Z</time></trkpt><trkpt lat="45.716822797690156" lon="8.452387156778556"><ele>328.0</ele><time>2026-04-11T14:34:55.999Z</time></trkpt><trkpt lat="45.71689270631455" lon="8.452655175588152"><ele>328.0</ele><time>2026-04-11T14:34:56.999Z</time></trkpt><trkpt lat="45.71695807197664" lon="8.452912942092478"><ele>328.0</ele><time>2026-04-11T14:34:57.999Z</time></trkpt><trkpt lat="45.717012606256" lon="8.453143645947673"><ele>328.3333333333333</ele><time>2026-04-11T14:34:58.999Z</time></trkpt><trkpt lat="45.717062619142176" lon="8.453355498221644"><ele>328.6666666666667</ele><time>2026-04-11T14:34:59.999Z</time></trkpt><trkpt lat="45.717118730666336" lon="8.45358602550995"><ele>329.0</ele><time>2026-04-11T14:35:00.999Z</time></trkpt><trkpt lat="45.717178479841955" lon="8.453822857303038"><ele>329.0</ele><time>2026-04-11T14:35:01.999Z</time></trkpt><trkpt lat="45.71723862208827" lon="8.454066720707766"><ele>329.0</ele><time>2026-04-11T14:35:02.999Z</time></trkpt><trkpt lat="45.71730126045262" lon="8.454315928174111"><ele>329.0</ele><time>2026-04-11T14:35:03.999Z</time></trkpt><trkpt lat="45.71736190030991" lon="8.454563287317638"><ele>329.33333333333337</ele><time>2026-04-11T14:35:04.999Z</time></trkpt><trkpt lat="45.717419571874714" lon="8.454793522468327"><ele>329.6666666666667</ele><time>2026-04-11T14:35:05.999Z</time></trkpt><trkpt lat="45.717474112442105" lon="8.45501167175022"><ele>330.0</ele><time>2026-04-11T14:35:06.999Z</time></trkpt><trkpt lat="45.71752988739307" lon="8.455230312166456"><ele>330.0</ele><time>2026-04-11T14:35:07.999Z</time></trkpt><trkpt lat="45.71757656135808" lon="8.455424802482918"><ele>330.0</ele><time>2026-04-11T14:35:08.999Z</time></trkpt><trkpt lat="45.71762634825069" lon="8.455624310305009"><ele>330.0</ele><time>2026-04-11T14:35:09.999Z</time></trkpt><trkpt lat="45.71767314870986" lon="8.455820462304384"><ele>330.0</ele><time>2026-04-11T14:35:10.999Z</time></trkpt><trkpt lat="45.71771717766463" lon="8.45600825867754"><ele>329.8</ele><time>2026-04-11T14:35:11.999Z</time></trkpt><trkpt lat="45.7177529117591" lon="8.456180481108044"><ele>329.6</ele><time>2026-04-11T14:35:12.999Z</time></trkpt><trkpt lat="45.717786107468946" lon="8.456323910811022"><ele>329.4</ele><time>2026-04-11T14:35:13.999Z</time></trkpt><trkpt lat="45.71781690217738" lon="8.4564487279151"><ele>329.2</ele><time>2026-04-11T14:35:14.999Z</time></trkpt><trkpt lat="45.71783233049694" lon="8.45653978405423"><ele>329.0</ele><time>2026-04-11T14:35:15.999Z</time></trkpt><trkpt lat="45.71783300076189" lon="8.456637401757343"><ele>328.75</ele><time>2026-04-11T14:35:17.999Z</time></trkpt><trkpt lat="45.717712444500876" lon="8.456699237286026"><ele>328.5</ele><time>2026-04-11T14:35:18.999Z</time></trkpt><trkpt lat="45.71759188852329" lon="8.45676343460317"><ele>328.25</ele><time>2026-04-11T14:35:19.999Z</time></trkpt><trkpt lat="45.717450321543936" lon="8.456845048702059"><ele>328.0</ele><time>2026-04-11T14:35:20.999Z</time></trkpt><trkpt lat="45.71731561233634" lon="8.456922498266655"><ele>328.0</ele><time>2026-04-11T14:35:21.999Z</time></trkpt><trkpt lat="45.717203226155206" lon="8.456984964714259"><ele>328.0</ele><time>2026-04-11T14:35:22.999Z</time></trkpt><trkpt lat="45.71710028285109" lon="8.457035062907735"><ele>328.0</ele><time>2026-04-11T14:35:23.999Z</time></trkpt><trkpt lat="45.71702063919565" lon="8.457075007521487"><ele>328.0</ele><time>2026-04-11T14:35:24.999Z</time></trkpt><trkpt lat="45.71694030156802" lon="8.457101960297631"><ele>328.0</ele><time>2026-04-11T14:35:26.999Z</time></trkpt><trkpt lat="45.716901248040216" lon="8.457250339393697"><ele>327.66666666666663</ele><time>2026-04-11T14:35:30.999Z</time></trkpt><trkpt lat="45.71692120695084" lon="8.457438616181516"><ele>327.3333333333333</ele><time>2026-04-11T14:35:31.999Z</time></trkpt><trkpt lat="45.71692223707841" lon="8.457658011105515"><ele>327.0</ele><time>2026-04-11T14:35:32.999Z</time></trkpt><trkpt lat="45.716918684903135" lon="8.457920256102625"><ele>327.3333333333333</ele><time>2026-04-11T14:35:33.999Z</time></trkpt><trkpt lat="45.71692090442354" lon="8.458202652161294"><ele>327.66666666666663</ele><time>2026-04-11T14:35:34.999Z</time></trkpt><trkpt lat="45.71692040011019" lon="8.458492679151531"><ele>328.0</ele><time>2026-04-11T14:35:35.999Z</time></trkpt><trkpt lat="45.71691942984203" lon="8.458749242150194"><ele>328.0</ele><time>2026-04-11T14:35:36.999Z</time></trkpt><trkpt lat="45.71691766829534" lon="8.458973571939199"><ele>328.0</ele><time>2026-04-11T14:35:37.999Z</time></trkpt><trkpt lat="45.7169114619088" lon="8.459190782727559"><ele>328.0</ele><time>2026-04-11T14:35:38.999Z</time></trkpt><trkpt lat="45.7169038378968" lon="8.459417519765688"><ele>327.75</ele><time>2026-04-11T14:35:39.999Z</time></trkpt><trkpt lat="45.716895988169405" lon="8.459629007364212"><ele>327.5</ele><time>2026-04-11T14:35:40.999Z</time></trkpt><trkpt lat="45.71688654097004" lon="8.459813680734014"><ele>327.25</ele><time>2026-04-11T14:35:41.999Z</time></trkpt><trkpt lat="45.71688318126299" lon="8.45998574649689"><ele>327.0</ele><time>2026-04-11T14:35:42.999Z</time></trkpt><trkpt lat="45.71688706185933" lon="8.460153190165514"><ele>326.75</ele><time>2026-04-11T14:35:43.999Z</time></trkpt><trkpt lat="45.71690516806759" lon="8.46032955334288"><ele>326.5</ele><time>2026-04-11T14:35:44.999Z</time></trkpt><trkpt lat="45.71694683162481" lon="8.460507792886006"><ele>326.25</ele><time>2026-04-11T14:35:45.999Z</time></trkpt><trkpt lat="45.71698927218963" lon="8.460669536135919"><ele>326.0</ele><time>2026-04-11T14:35:46.999Z</time></trkpt><trkpt lat="45.717017735944395" lon="8.46081404527334"><ele>326.0</ele><time>2026-04-11T14:35:47.999Z</time></trkpt><trkpt lat="45.71703972035165" lon="8.460943475932321"><ele>326.0</ele><time>2026-04-11T14:35:48.999Z</time></trkpt><trkpt lat="45.7170629168461" lon="8.46106247323199"><ele>326.0</ele><time>2026-04-11T14:35:49.999Z</time></trkpt><trkpt lat="45.71709494968551" lon="8.461163230748632"><ele>326.0</ele><time>2026-04-11T14:35:50.999Z</time></trkpt><trkpt lat="45.7171430635976" lon="8.461273074773025"><ele>326.0</ele><time>2026-04-11T14:35:51.999Z</time></trkpt><trkpt lat="45.717180298418356" lon="8.461347224223609"><ele>326.0</ele><time>2026-04-11T14:35:52.999Z</time></trkpt><trkpt lat="45.717280344039835" lon="8.461275355413251"><ele>326.0</ele><time>2026-04-11T14:35:56.999Z</time></trkpt><trkpt lat="45.7173500213435" lon="8.461223032263776"><ele>326.0</ele><time>2026-04-11T14:35:57.998Z</time></trkpt><trkpt lat="45.71740290424992" lon="8.461171633915065"><ele>326.0</ele><time>2026-04-11T14:35:58.998Z</time></trkpt><trkpt lat="45.7174501819256" lon="8.461104003710277"><ele>326.0</ele><time>2026-04-11T14:35:59.998Z</time></trkpt><trkpt lat="45.71751533675526" lon="8.46104710391319"><ele>326.0</ele><time>2026-04-11T14:36:00.998Z</time></trkpt><trkpt lat="45.717596877757096" lon="8.461002505135715"><ele>326.0</ele><time>2026-04-11T14:36:01.998Z</time></trkpt><trkpt lat="45.71765235161611" lon="8.460955398960103"><ele>326.0</ele><time>2026-04-11T14:36:02.998Z</time></trkpt><trkpt lat="45.71770156215546" lon="8.460891667315895"><ele>326.0</ele><time>2026-04-11T14:36:03.998Z</time></trkpt><trkpt lat="45.71779443449758" lon="8.460821636427513"><ele>326.0</ele><time>2026-04-11T14:36:05.998Z</time></trkpt><trkpt lat="45.7178709266775" lon="8.460766667383654"><ele>326.0</ele><time>2026-04-11T14:36:07.998Z</time></trkpt><trkpt lat="45.71796768543745" lon="8.460709000981362"><ele>326.0</ele><time>2026-04-11T14:36:09.998Z</time></trkpt><trkpt lat="45.71809330543869" lon="8.460635839864413"><ele>326.0</ele><time>2026-04-11T14:36:11.998Z</time></trkpt><trkpt lat="45.718169145686616" lon="8.460590673386212"><ele>326.0</ele><time>2026-04-11T14:36:12.998Z</time></trkpt><trkpt lat="45.71824954901323" lon="8.460575013998833"><ele>326.0</ele><time>2026-04-11T14:36:13.998Z</time></trkpt><trkpt lat="45.71833006425925" lon="8.460520905883467"><ele>326.0</ele><time>2026-04-11T14:36:14.998Z</time></trkpt><trkpt lat="45.7183938550383" lon="8.46046462980799"><ele>326.0</ele><time>2026-04-11T14:36:15.998Z</time></trkpt><trkpt lat="45.718475379366126" lon="8.460363291640304"><ele>326.0</ele><time>2026-04-11T14:36:17.998Z</time></trkpt><trkpt lat="45.718550633242735" lon="8.460297269557785"><ele>326.0</ele><time>2026-04-11T14:36:19.998Z</time></trkpt><trkpt lat="45.71864166200195" lon="8.460213233909352"><ele>326.20000000000005</ele><time>2026-04-11T14:36:21.998Z</time></trkpt><trkpt lat="45.71871592038455" lon="8.460137787837763"><ele>326.40000000000003</ele><time>2026-04-11T14:36:23.998Z</time></trkpt><trkpt lat="45.718872478308036" lon="8.460302624872014"><ele>326.6</ele><time>2026-04-11T14:36:24.998Z</time></trkpt><trkpt lat="45.718943300011716" lon="8.460341802849795"><ele>326.8</ele><time>2026-04-11T14:36:25.998Z</time></trkpt><trkpt lat="45.71900099205474" lon="8.460405582108528"><ele>327.0</ele><time>2026-04-11T14:36:26.998Z</time></trkpt><trkpt lat="45.7190527749233" lon="8.460463628722643"><ele>327.5</ele><time>2026-04-11T14:36:27.998Z</time></trkpt><trkpt lat="45.71913555892325" lon="8.460508332448638"><ele>328.0</ele><time>2026-04-11T14:36:29.998Z</time></trkpt><trkpt lat="45.719426398876905" lon="8.46090072513408"><ele>328.0</ele><time>2026-04-11T14:36:31.998Z</time></trkpt><trkpt lat="45.719513802074935" lon="8.460876049259953"><ele>328.0</ele><time>2026-04-11T14:36:32.998Z</time></trkpt><trkpt lat="45.71966544382533" lon="8.460856052767083"><ele>328.0</ele><time>2026-04-11T14:36:34.998Z</time></trkpt><trkpt lat="45.7198186878891" lon="8.46077582515475"><ele>328.0</ele><time>2026-04-11T14:36:36.998Z</time></trkpt><trkpt lat="45.71990507514887" lon="8.460739393359"><ele>328.0</ele><time>2026-04-11T14:36:37.998Z</time></trkpt><trkpt lat="45.71997643276746" lon="8.460702699197423"><ele>328.0</ele><time>2026-04-11T14:36:38.998Z</time></trkpt><trkpt lat="45.720035476936204" lon="8.460664220053165"><ele>328.0</ele><time>2026-04-11T14:36:39.998Z</time></trkpt><trkpt lat="45.72005113247868" lon="8.459742869849514"><ele>328.0</ele><time>2026-04-11T14:36:40.998Z</time></trkpt><trkpt lat="45.72014018981691" lon="8.459662256498815"><ele>328.0</ele><time>2026-04-11T14:36:42.998Z</time></trkpt><trkpt lat="45.720253542582554" lon="8.459564621721718"><ele>328.0</ele><time>2026-04-11T14:36:44.998Z</time></trkpt><trkpt lat="45.72030850018877" lon="8.459509015282341"><ele>328.0</ele><time>2026-04-11T14:36:45.998Z</time></trkpt><trkpt lat="45.72036475031133" lon="8.459441875556033"><ele>328.0</ele><time>2026-04-11T14:36:46.998Z</time></trkpt><trkpt lat="45.720420108728014" lon="8.459358543523258"><ele>328.16666666666663</ele><time>2026-04-11T14:36:47.998Z</time></trkpt><trkpt lat="45.72048490932479" lon="8.459260387329117"><ele>328.3333333333333</ele><time>2026-04-11T14:36:48.998Z</time></trkpt><trkpt lat="45.72055262827298" lon="8.45917958323332"><ele>328.5</ele><time>2026-04-11T14:36:49.998Z</time></trkpt><trkpt lat="45.72061933913769" lon="8.459132537961391"><ele>328.6666666666667</ele><time>2026-04-11T14:36:50.998Z</time></trkpt><trkpt lat="45.72069588679815" lon="8.459092033060019"><ele>328.83333333333337</ele><time>2026-04-11T14:36:51.998Z</time></trkpt><trkpt lat="45.72077590517703" lon="8.459080788161488"><ele>329.0</ele><time>2026-04-11T14:36:52.998Z</time></trkpt><trkpt lat="45.72086602393005" lon="8.459095534198685"><ele>329.0</ele><time>2026-04-11T14:36:53.998Z</time></trkpt><trkpt lat="45.720993516155815" lon="8.459078489371247"><ele>329.0</ele><time>2026-04-11T14:36:54.998Z</time></trkpt><trkpt lat="45.72112369496049" lon="8.45904349963809"><ele>329.0</ele><time>2026-04-11T14:36:55.998Z</time></trkpt><trkpt lat="45.7212329083283" lon="8.458990058264586"><ele>329.0</ele><time>2026-04-11T14:36:56.998Z</time></trkpt><trkpt lat="45.72135855040199" lon="8.458917773674843"><ele>329.5</ele><time>2026-04-11T14:36:57.998Z</time></trkpt><trkpt lat="45.72147099255105" lon="8.458840503992917"><ele>330.0</ele><time>2026-04-11T14:36:58.998Z</time></trkpt><trkpt lat="45.72156347828653" lon="8.458778777925911"><ele>330.5</ele><time>2026-04-11T14:36:59.998Z</time></trkpt><trkpt lat="45.72169309052185" lon="8.458722382123073"><ele>331.0</ele><time>2026-04-11T14:37:00.998Z</time></trkpt><trkpt lat="45.72184246248232" lon="8.458677299270233"><ele>331.0</ele><time>2026-04-11T14:37:01.999Z</time></trkpt><trkpt lat="45.72200958136186" lon="8.458638611469725"><ele>331.0</ele><time>2026-04-11T14:37:02.999Z</time></trkpt><trkpt lat="45.72216648121609" lon="8.458610258020933"><ele>331.0</ele><time>2026-04-11T14:37:03.999Z</time></trkpt><trkpt lat="45.722291280969834" lon="8.458572669847124"><ele>331.0</ele><time>2026-04-11T14:37:04.999Z</time></trkpt><trkpt lat="45.722417543918326" lon="8.458542918904877"><ele>331.0</ele><time>2026-04-11T14:37:05.999Z</time></trkpt><trkpt lat="45.72252358245523" lon="8.458509353475737"><ele>331.0</ele><time>2026-04-11T14:37:06.999Z</time></trkpt><trkpt lat="45.72261503675566" lon="8.458468664724014"><ele>331.0</ele><time>2026-04-11T14:37:07.999Z</time></trkpt><trkpt lat="45.72269743704069" lon="8.458435409964181"><ele>331.0</ele><time>2026-04-11T14:37:08.999Z</time></trkpt><trkpt lat="45.72275934643151" lon="8.458400457553951"><ele>331.4</ele><time>2026-04-11T14:37:09.999Z</time></trkpt><trkpt lat="45.72280080871763" lon="8.458276836711363"><ele>331.8</ele><time>2026-04-11T14:37:11.999Z</time></trkpt><trkpt lat="45.72275227383632" lon="8.45809944770676"><ele>332.2</ele><time>2026-04-11T14:37:13.999Z</time></trkpt><trkpt lat="45.722782708519574" lon="8.457968549803615"><ele>332.59999999999997</ele><time>2026-04-11T14:37:15.999Z</time></trkpt><trkpt lat="45.72286382497585" lon="8.45795498486772"><ele>333.0</ele><time>2026-04-11T14:37:17.999Z</time></trkpt><trkpt lat="45.722995158710646" lon="8.457895102672587"><ele>333.0</ele><time>2026-04-11T14:37:19.999Z</time></trkpt><trkpt lat="45.723091332157075" lon="8.457859233878986"><ele>333.0</ele><time>2026-04-11T14:37:20.999Z</time></trkpt><trkpt lat="45.72318312796337" lon="8.457808856181463"><ele>333.0</ele><time>2026-04-11T14:37:21.999Z</time></trkpt><trkpt lat="45.72327341423964" lon="8.457765411180127"><ele>333.0</ele><time>2026-04-11T14:37:22.999Z</time></trkpt><trkpt lat="45.723352920061316" lon="8.45772104987989"><ele>333.0</ele><time>2026-04-11T14:37:23.999Z</time></trkpt><trkpt lat="45.7234188307015" lon="8.457692027465507"><ele>333.0</ele><time>2026-04-11T14:37:24.999Z</time></trkpt><trkpt lat="45.7235086534879" lon="8.457652717713188"><ele>333.4</ele><time>2026-04-11T14:37:25.999Z</time></trkpt><trkpt lat="45.72360911810151" lon="8.457602884197811"><ele>333.79999999999995</ele><time>2026-04-11T14:37:26.999Z</time></trkpt><trkpt lat="45.723703304345364" lon="8.457544471689712"><ele>334.2</ele><time>2026-04-11T14:37:27.999Z</time></trkpt><trkpt lat="45.72378507671386" lon="8.457489727114634"><ele>334.6</ele><time>2026-04-11T14:37:28.999Z</time></trkpt><trkpt lat="45.723855672504165" lon="8.457454840277498"><ele>335.0</ele><time>2026-04-11T14:37:29.999Z</time></trkpt><trkpt lat="45.723935454535706" lon="8.457508123367171"><ele>335.0</ele><time>2026-04-11T14:37:32.999Z</time></trkpt><trkpt lat="45.723939192436866" lon="8.457669685323447"><ele>335.0</ele><time>2026-04-11T14:37:34.999Z</time></trkpt><trkpt lat="45.72393571247592" lon="8.457796731380386"><ele>335.0</ele><time>2026-04-11T14:37:35.999Z</time></trkpt><trkpt lat="45.723940772664015" lon="8.4579381283995"><ele>335.0</ele><time>2026-04-11T14:37:36.999Z</time></trkpt><trkpt lat="45.723768016883355" lon="8.458115445092126"><ele>334.5</ele><time>2026-04-11T14:37:37.999Z</time></trkpt><trkpt lat="45.72378131798943" lon="8.458280826829045"><ele>334.0</ele><time>2026-04-11T14:37:38.999Z</time></trkpt><trkpt lat="45.723796449005995" lon="8.458468961668789"><ele>333.5</ele><time>2026-04-11T14:37:39.999Z</time></trkpt><trkpt lat="45.72380868817336" lon="8.45862114017359"><ele>333.0</ele><time>2026-04-11T14:37:40.999Z</time></trkpt><trkpt lat="45.72382017971662" lon="8.45876402290293"><ele>333.79999999999995</ele><time>2026-04-11T14:37:41.999Z</time></trkpt><trkpt lat="45.723831804496946" lon="8.458908561639397"><ele>334.6</ele><time>2026-04-11T14:37:42.999Z</time></trkpt><trkpt lat="45.72383986184164" lon="8.459029229635341"><ele>335.4</ele><time>2026-04-11T14:37:43.999Z</time></trkpt><trkpt lat="45.72384820517544" lon="8.459170909884945"><ele>336.20000000000005</ele><time>2026-04-11T14:37:44.999Z</time></trkpt><trkpt lat="45.72385535292577" lon="8.45929859224691"><ele>337.0</ele><time>2026-04-11T14:37:45.999Z</time></trkpt><trkpt lat="45.723860800911346" lon="8.459428522953495"><ele>337.0</ele><time>2026-04-11T14:37:46.999Z</time></trkpt><trkpt lat="45.7238641201546" lon="8.459584427221914"><ele>337.0</ele><time>2026-04-11T14:37:47.999Z</time></trkpt><trkpt lat="45.72386605342996" lon="8.459748889999913"><ele>337.0</ele><time>2026-04-11T14:37:48.999Z</time></trkpt><trkpt lat="45.72386455782754" lon="8.459908813931868"><ele>337.0</ele><time>2026-04-11T14:37:49.999Z</time></trkpt><trkpt lat="45.723859481033394" lon="8.460072490791001"><ele>337.25</ele><time>2026-04-11T14:37:50.999Z</time></trkpt><trkpt lat="45.72385262747277" lon="8.460211612458462"><ele>337.5</ele><time>2026-04-11T14:37:51.999Z</time></trkpt><trkpt lat="45.723841985332086" lon="8.460384810751508"><ele>337.75</ele><time>2026-04-11T14:37:52.999Z</time></trkpt><trkpt lat="45.723824000082935" lon="8.460596950313876"><ele>338.0</ele><time>2026-04-11T14:37:53.999Z</time></trkpt><trkpt lat="45.723804151239136" lon="8.460794391110037"><ele>337.0</ele><time>2026-04-11T14:37:54.999Z</time></trkpt><trkpt lat="45.72377929773275" lon="8.460998427252994"><ele>336.0</ele><time>2026-04-11T14:37:55.999Z</time></trkpt><trkpt lat="45.72375468831976" lon="8.461156245691727"><ele>335.0</ele><time>2026-04-11T14:37:56.999Z</time></trkpt><trkpt lat="45.72372981457764" lon="8.461305828330016"><ele>334.0</ele><time>2026-04-11T14:37:57.999Z</time></trkpt><trkpt lat="45.723709125849645" lon="8.461414189651302"><ele>333.0</ele><time>2026-04-11T14:37:58.999Z</time></trkpt><trkpt lat="45.72368825832684" lon="8.461525484232466"><ele>331.3333333333333</ele><time>2026-04-11T14:37:59.999Z</time></trkpt><trkpt lat="45.72365707976325" lon="8.461683364631991"><ele>329.66666666666663</ele><time>2026-04-11T14:38:01.999Z</time></trkpt><trkpt lat="45.723641562730805" lon="8.461803749617378"><ele>328.0</ele><time>2026-04-11T14:38:03.999Z</time></trkpt><trkpt lat="45.72405236116156" lon="8.462031865222256"><ele>328.0</ele><time>2026-04-11T14:38:04.999Z</time></trkpt><trkpt lat="45.724079031096984" lon="8.462140410783299"><ele>328.0</ele><time>2026-04-11T14:38:05.999Z</time></trkpt><trkpt lat="45.724086156049694" lon="8.462243856530527"><ele>328.0</ele><time>2026-04-11T14:38:06.999Z</time></trkpt><trkpt lat="45.7240833221683" lon="8.46238599774398"><ele>328.0</ele><time>2026-04-11T14:38:07.999Z</time></trkpt><trkpt lat="45.724061890828715" lon="8.462477966830752"><ele>328.0</ele><time>2026-04-11T14:38:08.999Z</time></trkpt><trkpt lat="45.72401321551408" lon="8.462560776931534"><ele>328.0</ele><time>2026-04-11T14:38:09.999Z</time></trkpt><trkpt lat="45.723950855690866" lon="8.462615457121142"><ele>328.0</ele><time>2026-04-11T14:38:10.999Z</time></trkpt><trkpt lat="45.72389009814536" lon="8.462647898239197"><ele>328.0</ele><time>2026-04-11T14:38:11.999Z</time></trkpt><trkpt lat="45.7238251162148" lon="8.462702834752786"><ele>328.0</ele><time>2026-04-11T14:38:12.999Z</time></trkpt><trkpt lat="45.72374409946642" lon="8.462779909410848"><ele>328.0</ele><time>2026-04-11T14:38:13.999Z</time></trkpt><trkpt lat="45.72364571006105" lon="8.462845227406474"><ele>328.0</ele><time>2026-04-11T14:38:14.999Z</time></trkpt><trkpt lat="45.72356865130985" lon="8.462903572116772"><ele>328.0</ele><time>2026-04-11T14:38:15.999Z</time></trkpt><trkpt lat="45.723518178670766" lon="8.462969369970313"><ele>327.75</ele><time>2026-04-11T14:38:16.999Z</time></trkpt><trkpt lat="45.723478906979324" lon="8.463085771816557"><ele>327.5</ele><time>2026-04-11T14:38:17.999Z</time></trkpt><trkpt lat="45.72331284325765" lon="8.46320935245022"><ele>327.25</ele><time>2026-04-11T14:38:18.999Z</time></trkpt><trkpt lat="45.7232712083205" lon="8.463393318234859"><ele>327.0</ele><time>2026-04-11T14:38:19.999Z</time></trkpt><trkpt lat="45.72323175566815" lon="8.46356722264959"><ele>327.0</ele><time>2026-04-11T14:38:20.999Z</time></trkpt><trkpt lat="45.723189651218185" lon="8.463749947077032"><ele>327.0</ele><time>2026-04-11T14:38:21.999Z</time></trkpt><trkpt lat="45.723145991731535" lon="8.463939420314246"><ele>327.0</ele><time>2026-04-11T14:38:22.999Z</time></trkpt><trkpt lat="45.723100418139516" lon="8.464137199950802"><ele>327.0</ele><time>2026-04-11T14:38:23.999Z</time></trkpt><trkpt lat="45.72305244031569" lon="8.464345413906335"><ele>327.0</ele><time>2026-04-11T14:38:24.999Z</time></trkpt><trkpt lat="45.72300983521528" lon="8.464532862513675"><ele>327.0</ele><time>2026-04-11T14:38:25.999Z</time></trkpt><trkpt lat="45.72296497896679" lon="8.464730686583556"><ele>327.0</ele><time>2026-04-11T14:38:26.999Z</time></trkpt><trkpt lat="45.7229239653419" lon="8.464911564668524"><ele>327.0</ele><time>2026-04-11T14:38:27.999Z</time></trkpt><trkpt lat="45.722882735305994" lon="8.465093621582227"><ele>327.0</ele><time>2026-04-11T14:38:28.999Z</time></trkpt><trkpt lat="45.72284672964527" lon="8.465252782514057"><ele>327.0</ele><time>2026-04-11T14:38:29.999Z</time></trkpt><trkpt lat="45.72281356058629" lon="8.465399403900209"><ele>327.0</ele><time>2026-04-11T14:38:30.999Z</time></trkpt><trkpt lat="45.72277870454153" lon="8.46555347073776"><ele>327.0</ele><time>2026-04-11T14:38:31.999Z</time></trkpt><trkpt lat="45.72270567799955" lon="8.465699465709648"><ele>326.5</ele><time>2026-04-11T14:38:33.999Z</time></trkpt><trkpt lat="45.72267160341235" lon="8.465802154627275"><ele>326.0</ele><time>2026-04-11T14:38:35.999Z</time></trkpt><trkpt lat="45.72302386794134" lon="8.466222316300538"><ele>326.6</ele><time>2026-04-11T14:38:36.999Z</time></trkpt><trkpt lat="45.72310593354926" lon="8.46630567312352"><ele>327.20000000000005</ele><time>2026-04-11T14:38:37.999Z</time></trkpt><trkpt lat="45.72319427429359" lon="8.466351320605744"><ele>327.79999999999995</ele><time>2026-04-11T14:38:38.999Z</time></trkpt><trkpt lat="45.72328497900932" lon="8.466348424349174"><ele>328.4</ele><time>2026-04-11T14:38:39.999Z</time></trkpt><trkpt lat="45.72337015839111" lon="8.466323302175557"><ele>329.0</ele><time>2026-04-11T14:38:40.999Z</time></trkpt><trkpt lat="45.72344800634118" lon="8.466290452002692"><ele>328.79999999999995</ele><time>2026-04-11T14:38:41.999Z</time></trkpt><trkpt lat="45.72351444152802" lon="8.46625647194188"><ele>328.59999999999997</ele><time>2026-04-11T14:38:42.999Z</time></trkpt><trkpt lat="45.72360493799589" lon="8.466452689704614"><ele>328.4</ele><time>2026-04-11T14:38:43.999Z</time></trkpt><trkpt lat="45.723689998237184" lon="8.466405601812808"><ele>328.2</ele><time>2026-04-11T14:38:49.999Z</time></trkpt><trkpt lat="45.7237763023886" lon="8.466377046563341"><ele>328.0</ele><time>2026-04-11T14:38:50.999Z</time></trkpt><trkpt lat="45.72384122497185" lon="8.466327555773672"><ele>328.2</ele><time>2026-04-11T14:38:51.999Z</time></trkpt><trkpt lat="45.72394418536636" lon="8.466261666055308"><ele>328.4</ele><time>2026-04-11T14:38:53.999Z</time></trkpt><trkpt lat="45.724025463639954" lon="8.46619834497721"><ele>328.59999999999997</ele><time>2026-04-11T14:38:55.999Z</time></trkpt><trkpt lat="45.72409122283746" lon="8.466144050094133"><ele>328.79999999999995</ele><time>2026-04-11T14:38:57.999Z</time></trkpt><trkpt lat="45.72414335850389" lon="8.466325924259213"><ele>329.0</ele><time>2026-04-11T14:39:00.999Z</time></trkpt><trkpt lat="45.724081319662865" lon="8.466462948473092"><ele>329.33333333333337</ele><time>2026-04-11T14:39:01.999Z</time></trkpt><trkpt lat="45.72396012303173" lon="8.466545146694175"><ele>329.6666666666667</ele><time>2026-04-11T14:39:02.999Z</time></trkpt><trkpt lat="45.72382990185949" lon="8.466635432038087"><ele>330.0</ele><time>2026-04-11T14:39:03.999Z</time></trkpt><trkpt lat="45.7236746920837" lon="8.466758422185094"><ele>329.6666666666667</ele><time>2026-04-11T14:39:04.999Z</time></trkpt><trkpt lat="45.72348855060137" lon="8.46688606149987"><ele>329.33333333333337</ele><time>2026-04-11T14:39:05.999Z</time></trkpt><trkpt lat="45.723310889336084" lon="8.467017822160246"><ele>329.0</ele><time>2026-04-11T14:39:06.999Z</time></trkpt><trkpt lat="45.723160438873855" lon="8.467127839459032"><ele>328.75</ele><time>2026-04-11T14:39:08Z</time></trkpt><trkpt lat="45.72302884967173" lon="8.467225278545124"><ele>328.5</ele><time>2026-04-11T14:39:09Z</time></trkpt><trkpt lat="45.722897440840185" lon="8.467315674878757"><ele>328.25</ele><time>2026-04-11T14:39:10Z</time></trkpt><trkpt lat="45.72278588386296" lon="8.467400272055507"><ele>328.0</ele><time>2026-04-11T14:39:11Z</time></trkpt><trkpt lat="45.72267740411371" lon="8.467494382030651"><ele>328.25</ele><time>2026-04-11T14:39:12Z</time></trkpt><trkpt lat="45.72258193488074" lon="8.46761949377182"><ele>328.5</ele><time>2026-04-11T14:39:13Z</time></trkpt><trkpt lat="45.722508051190744" lon="8.467790764670402"><ele>328.75</ele><time>2026-04-11T14:39:14Z</time></trkpt><trkpt lat="45.72245552869227" lon="8.46798454436402"><ele>329.0</ele><time>2026-04-11T14:39:15Z</time></trkpt><trkpt lat="45.72242690413569" lon="8.468180351512757"><ele>329.0</ele><time>2026-04-11T14:39:16Z</time></trkpt><trkpt lat="45.722381941921206" lon="8.468343641139885"><ele>329.0</ele><time>2026-04-11T14:39:17Z</time></trkpt><trkpt lat="45.72235079111452" lon="8.468496910749968"><ele>329.0</ele><time>2026-04-11T14:39:18Z</time></trkpt><trkpt lat="45.72232398052146" lon="8.468628825402018"><ele>329.0</ele><time>2026-04-11T14:39:19Z</time></trkpt><trkpt lat="45.72229485997852" lon="8.468762802230168"><ele>329.0</ele><time>2026-04-11T14:39:20Z</time></trkpt><trkpt lat="45.72226534096327" lon="8.468919725861742"><ele>329.25</ele><time>2026-04-11T14:39:21Z</time></trkpt><trkpt lat="45.722227848206934" lon="8.469095165182582"><ele>329.5</ele><time>2026-04-11T14:39:22Z</time></trkpt><trkpt lat="45.722186519166" lon="8.469275597061252"><ele>329.75</ele><time>2026-04-11T14:39:23Z</time></trkpt><trkpt lat="45.72215011734858" lon="8.469461495694079"><ele>330.0</ele><time>2026-04-11T14:39:24Z</time></trkpt><trkpt lat="45.722112196597024" lon="8.469627648065265"><ele>329.6</ele><time>2026-04-11T14:39:25Z</time></trkpt><trkpt lat="45.72206043736906" lon="8.469772026523405"><ele>329.2</ele><time>2026-04-11T14:39:26Z</time></trkpt><trkpt lat="45.72198694702137" lon="8.46988424784115"><ele>328.79999999999995</ele><time>2026-04-11T14:39:27Z</time></trkpt><trkpt lat="45.72195323883626" lon="8.470011880071471"><ele>328.4</ele><time>2026-04-11T14:39:28Z</time></trkpt><trkpt lat="45.7219142293433" lon="8.470120387510205"><ele>328.0</ele><time>2026-04-11T14:39:29Z</time></trkpt><trkpt lat="45.72187075582208" lon="8.470250019747244"><ele>327.79999999999995</ele><time>2026-04-11T14:39:31Z</time></trkpt><trkpt lat="45.72195422572331" lon="8.470105760584596"><ele>327.6</ele><time>2026-04-11T14:39:42Z</time></trkpt><trkpt lat="45.72197044764396" lon="8.469994531892956"><ele>327.4</ele><time>2026-04-11T14:39:43Z</time></trkpt><trkpt lat="45.7220085284985" lon="8.469858901356174"><ele>327.20000000000005</ele><time>2026-04-11T14:39:44Z</time></trkpt><trkpt lat="45.722042093926994" lon="8.469757661912377"><ele>327.0</ele><time>2026-04-11T14:39:45Z</time></trkpt><trkpt lat="45.72210858856981" lon="8.469770624641871"><ele>327.0</ele><time>2026-04-11T14:39:47Z</time></trkpt><trkpt lat="45.72215987462258" lon="8.469908749104656"><ele>327.0</ele><time>2026-04-11T14:39:49Z</time></trkpt><trkpt lat="45.72212350941483" lon="8.47012885215148"><ele>327.0</ele><time>2026-04-11T14:39:51Z</time></trkpt><trkpt lat="45.722074623835056" lon="8.470273851004134"><ele>327.0</ele><time>2026-04-11T14:39:52Z</time></trkpt><trkpt lat="45.72202479853995" lon="8.47042794932097"><ele>328.40000000000003</ele><time>2026-04-11T14:39:53Z</time></trkpt><trkpt lat="45.72198040179709" lon="8.470561059380795"><ele>329.8</ele><time>2026-04-11T14:39:54Z</time></trkpt><trkpt lat="45.72194101650986" lon="8.470664612111474"><ele>331.2</ele><time>2026-04-11T14:39:55Z</time></trkpt><trkpt lat="45.72190865438386" lon="8.470756015973809"><ele>332.6</ele><time>2026-04-11T14:39:56Z</time></trkpt><trkpt lat="45.721865597608975" lon="8.470856643139479"><ele>334.0</ele><time>2026-04-11T14:39:58Z</time></trkpt><trkpt lat="45.721909595220374" lon="8.471023185792253"><ele>334.0</ele><time>2026-04-11T14:40:00Z</time></trkpt><trkpt lat="45.722016077621355" lon="8.471042289914688"><ele>334.0</ele><time>2026-04-11T14:40:02Z</time></trkpt><trkpt lat="45.72207455657272" lon="8.471102349469977"><ele>334.0</ele><time>2026-04-11T14:40:03Z</time></trkpt><trkpt lat="45.72215577194035" lon="8.471165146964017"><ele>334.0</ele><time>2026-04-11T14:40:04Z</time></trkpt><trkpt lat="45.72223006765764" lon="8.471240250160085"><ele>334.0</ele><time>2026-04-11T14:40:05Z</time></trkpt><trkpt lat="45.72231669418411" lon="8.471331050151896"><ele>335.5</ele><time>2026-04-11T14:40:06Z</time></trkpt><trkpt lat="45.722387850758615" lon="8.471374389370814"><ele>337.0</ele><time>2026-04-11T14:40:07Z</time></trkpt><trkpt lat="45.722445229814014" lon="8.471448802677402"><ele>338.5</ele><time>2026-04-11T14:40:08Z</time></trkpt><trkpt lat="45.72251648574376" lon="8.471512311138127"><ele>340.0</ele><time>2026-04-11T14:40:09Z</time></trkpt><trkpt lat="45.722586361359895" lon="8.471591664893692"><ele>341.5</ele><time>2026-04-11T14:40:10Z</time></trkpt><trkpt lat="45.72263298601563" lon="8.47169896205791"><ele>343.0</ele><time>2026-04-11T14:40:11Z</time></trkpt><trkpt lat="45.72266092792952" lon="8.471818288316944"><ele>343.0</ele><time>2026-04-11T14:40:12Z</time></trkpt><trkpt lat="45.72270675851775" lon="8.471911280896023"><ele>343.0</ele><time>2026-04-11T14:40:13Z</time></trkpt><trkpt lat="45.72273955956817" lon="8.472064418261333"><ele>343.0</ele><time>2026-04-11T14:40:15Z</time></trkpt><trkpt lat="45.722807766727236" lon="8.472177197146367"><ele>343.0</ele><time>2026-04-11T14:40:17Z</time></trkpt><trkpt lat="45.72286806678842" lon="8.472208664368878"><ele>343.0</ele><time>2026-04-11T14:40:18Z</time></trkpt><trkpt lat="45.722964460258964" lon="8.472270614177942"><ele>343.8333333333333</ele><time>2026-04-11T14:40:19Z</time></trkpt><trkpt lat="45.72300466655328" lon="8.472342860610382"><ele>344.66666666666663</ele><time>2026-04-11T14:40:20Z</time></trkpt><trkpt lat="45.723007170004735" lon="8.472447976417925"><ele>345.5</ele><time>2026-04-11T14:40:21Z</time></trkpt><trkpt lat="45.72303764994745" lon="8.472538133260105"><ele>346.3333333333333</ele><time>2026-04-11T14:40:22Z</time></trkpt><trkpt lat="45.72309698605415" lon="8.47266814906189"><ele>347.1666666666667</ele><time>2026-04-11T14:40:23Z</time></trkpt><trkpt lat="45.72315979729623" lon="8.472773676871972"><ele>348.0</ele><time>2026-04-11T14:40:24Z</time></trkpt><trkpt lat="45.72322168599785" lon="8.472929167318636"><ele>348.75</ele><time>2026-04-11T14:40:25Z</time></trkpt><trkpt lat="45.72329494175945" lon="8.473116969685757"><ele>349.5</ele><time>2026-04-11T14:40:26Z</time></trkpt><trkpt lat="45.72337440773627" lon="8.473286713506301"><ele>350.25</ele><time>2026-04-11T14:40:27Z</time></trkpt><trkpt lat="45.72340156216185" lon="8.473455819698177"><ele>351.0</ele><time>2026-04-11T14:40:28Z</time></trkpt><trkpt lat="45.7234574780014" lon="8.47360998622572"><ele>352.5</ele><time>2026-04-11T14:40:29Z</time></trkpt><trkpt lat="45.723486827456945" lon="8.473781270851232"><ele>354.0</ele><time>2026-04-11T14:40:30Z</time></trkpt><trkpt lat="45.723551643432344" lon="8.473926689004857"><ele>355.5</ele><time>2026-04-11T14:40:31Z</time></trkpt><trkpt lat="45.723591584047206" lon="8.474064365983574"><ele>357.0</ele><time>2026-04-11T14:40:32Z</time></trkpt><trkpt lat="45.72363407163419" lon="8.47421619581549"><ele>357.6</ele><time>2026-04-11T14:40:33Z</time></trkpt><trkpt lat="45.7236553392467" lon="8.474365782417449"><ele>358.20000000000005</ele><time>2026-04-11T14:40:34Z</time></trkpt><trkpt lat="45.723693017706005" lon="8.474516720510753"><ele>358.8</ele><time>2026-04-11T14:40:35Z</time></trkpt><trkpt lat="45.723753128354595" lon="8.474654986441118"><ele>359.4</ele><time>2026-04-11T14:40:36Z</time></trkpt><trkpt lat="45.72380551562359" lon="8.474770663509789"><ele>360.0</ele><time>2026-04-11T14:40:38Z</time></trkpt><trkpt lat="45.72375201652122" lon="8.474831291408774"><ele>360.8333333333333</ele><time>2026-04-11T14:40:41Z</time></trkpt><trkpt lat="45.72368391443132" lon="8.474840592097562"><ele>361.6666666666667</ele><time>2026-04-11T14:40:43Z</time></trkpt><trkpt lat="45.72361762209725" lon="8.474835266037385"><ele>362.5</ele><time>2026-04-11T14:40:45Z</time></trkpt><trkpt lat="45.72369743386718" lon="8.474818499221888"><ele>363.33333333333337</ele><time>2026-04-11T14:44:38Z</time></trkpt><trkpt lat="45.723779776644236" lon="8.474785716603634"><ele>364.1666666666667</ele><time>2026-04-11T14:44:40Z</time></trkpt><trkpt lat="45.72387532947402" lon="8.474799495891274"><ele>365.0</ele><time>2026-04-11T14:44:42Z</time></trkpt><trkpt lat="45.72406374789793" lon="8.47480632009454"><ele>365.0</ele><time>2026-04-11T14:44:45Z</time></trkpt><trkpt lat="45.724102052351654" lon="8.474893119029979"><ele>365.0</ele><time>2026-04-11T14:44:47Z</time></trkpt><trkpt lat="45.7241461924788" lon="8.475053219703694"><ele>365.0</ele><time>2026-04-11T14:44:49Z</time></trkpt><trkpt lat="45.72421475545586" lon="8.475189855082114"><ele>365.0</ele><time>2026-04-11T14:44:51Z</time></trkpt><trkpt lat="45.72426591590016" lon="8.475301363376866"><ele>365.0</ele><time>2026-04-11T14:44:53Z</time></trkpt><trkpt lat="45.72432250585737" lon="8.475438298148987"><ele>367.2</ele><time>2026-04-11T14:44:55Z</time></trkpt><trkpt lat="45.72436938303674" lon="8.47558068544698"><ele>369.4</ele><time>2026-04-11T14:44:57Z</time></trkpt><trkpt lat="45.72440524636959" lon="8.475656050767041"><ele>371.6</ele><time>2026-04-11T14:44:57.999Z</time></trkpt><trkpt lat="45.72447128726093" lon="8.475775776966069"><ele>373.8</ele><time>2026-04-11T14:44:59.999Z</time></trkpt><trkpt lat="45.72451151758997" lon="8.475878830142207"><ele>376.0</ele><time>2026-04-11T14:45:01.999Z</time></trkpt><trkpt lat="45.724557532501095" lon="8.476000560395526"><ele>376.0</ele><time>2026-04-11T14:45:03.999Z</time></trkpt><trkpt lat="45.724607389792716" lon="8.476125230316814"><ele>376.0</ele><time>2026-04-11T14:45:05.999Z</time></trkpt><trkpt lat="45.72466157651876" lon="8.476233631814319"><ele>376.0</ele><time>2026-04-11T14:45:07.999Z</time></trkpt><trkpt lat="45.72466620878853" lon="8.476324735690595"><ele>376.0</ele><time>2026-04-11T14:45:09.999Z</time></trkpt><trkpt lat="45.724720497347384" lon="8.476442131467541"><ele>376.0</ele><time>2026-04-11T14:45:11.999Z</time></trkpt><trkpt lat="45.72479308333233" lon="8.476578902923212"><ele>377.4</ele><time>2026-04-11T14:45:13.999Z</time></trkpt><trkpt lat="45.72486893473891" lon="8.476716202856895"><ele>378.8</ele><time>2026-04-11T14:45:15.999Z</time></trkpt><trkpt lat="45.72490842092574" lon="8.476815230701575"><ele>380.2</ele><time>2026-04-11T14:45:18.999Z</time></trkpt><trkpt lat="45.724962297832626" lon="8.476918273470197"><ele>381.59999999999997</ele><time>2026-04-11T14:45:21.999Z</time></trkpt><trkpt lat="45.72489873763243" lon="8.476904998556885"><ele>383.0</ele><time>2026-04-11T14:45:39.001Z</time></trkpt><trkpt lat="45.72474585829509" lon="8.476819784297188"><ele>383.0</ele><time>2026-04-11T14:45:41.001Z</time></trkpt><trkpt lat="45.72462125075633" lon="8.476751837977359"><ele>383.0</ele><time>2026-04-11T14:45:42.001Z</time></trkpt><trkpt lat="45.72454472346454" lon="8.476727429469742"><ele>383.0</ele><time>2026-04-11T14:45:43.001Z</time></trkpt><trkpt lat="45.72447503515066" lon="8.4766978023363"><ele>383.0</ele><time>2026-04-11T14:45:44.001Z</time></trkpt><trkpt lat="45.72437785953269" lon="8.476650116687374"><ele>383.0</ele><time>2026-04-11T14:45:45.001Z</time></trkpt><trkpt lat="45.72431635391356" lon="8.476616343837827"><ele>383.33333333333337</ele><time>2026-04-11T14:45:46.001Z</time></trkpt><trkpt lat="45.724238592691975" lon="8.47651213112744"><ele>383.6666666666667</ele><time>2026-04-11T14:45:48.001Z</time></trkpt><trkpt lat="45.72419609998203" lon="8.476444033226944"><ele>384.0</ele><time>2026-04-11T14:45:49.001Z</time></trkpt><trkpt lat="45.724153824283896" lon="8.476365470171546"><ele>384.33333333333337</ele><time>2026-04-11T14:45:50.001Z</time></trkpt><trkpt lat="45.72409927490059" lon="8.47629478012682"><ele>384.6666666666667</ele><time>2026-04-11T14:45:51.001Z</time></trkpt><trkpt lat="45.723992085550826" lon="8.476214744720039"><ele>385.0</ele><time>2026-04-11T14:45:53.001Z</time></trkpt><trkpt lat="45.72392244573048" lon="8.47617686307392"><ele>385.00000000000006</ele><time>2026-04-11T14:45:54.001Z</time></trkpt><trkpt lat="45.723837285450806" lon="8.476150203403218"><ele>385.0</ele><time>2026-04-11T14:45:55.001Z</time></trkpt><trkpt lat="45.723771265362046" lon="8.476133386401097"><ele>385.0</ele><time>2026-04-11T14:45:56.001Z</time></trkpt><trkpt lat="45.72369757084772" lon="8.476094566225745"><ele>385.0</ele><time>2026-04-11T14:45:58.001Z</time></trkpt><trkpt lat="45.72367915567938" lon="8.47621364971923"><ele>385.00000000000006</ele><time>2026-04-11T14:46:03Z</time></trkpt><trkpt lat="45.72370968016388" lon="8.476395577842604"><ele>385.0</ele><time>2026-04-11T14:46:05Z</time></trkpt><trkpt lat="45.72372024433331" lon="8.476510631587441"><ele>385.0</ele><time>2026-04-11T14:46:07Z</time></trkpt><trkpt lat="45.72373176354241" lon="8.476656436342743"><ele>385.0</ele><time>2026-04-11T14:46:09Z</time></trkpt><trkpt lat="45.72363331187161" lon="8.476668179428456"><ele>385.0</ele><time>2026-04-11T14:46:12Z</time></trkpt><trkpt lat="45.72357466786884" lon="8.476623772931774"><ele>385.0</ele><time>2026-04-11T14:46:13Z</time></trkpt><trkpt lat="45.723486196149345" lon="8.476641662118679"><ele>385.0</ele><time>2026-04-11T14:46:15Z</time></trkpt><trkpt lat="45.72342173485303" lon="8.476740027817483"><ele>385.00000000000006</ele><time>2026-04-11T14:46:17Z</time></trkpt><trkpt lat="45.72338437684658" lon="8.476850808136009"><ele>385.0</ele><time>2026-04-11T14:46:19Z</time></trkpt><trkpt lat="45.723370392719254" lon="8.47694694389345"><ele>385.0</ele><time>2026-04-11T14:46:20Z</time></trkpt><trkpt lat="45.72336214272762" lon="8.477050592922204"><ele>385.0</ele><time>2026-04-11T14:46:21Z</time></trkpt><trkpt lat="45.7232934433177" lon="8.477145805206426"><ele>385.00000000000006</ele><time>2026-04-11T14:46:23Z</time></trkpt><trkpt lat="45.72322357285309" lon="8.477166418289938"><ele>385.0</ele><time>2026-04-11T14:46:24Z</time></trkpt><trkpt lat="45.72315185555951" lon="8.477195104974177"><ele>385.0</ele><time>2026-04-11T14:46:25Z</time></trkpt><trkpt lat="45.7230876127498" lon="8.477213995975355"><ele>385.0</ele><time>2026-04-11T14:46:26Z</time></trkpt><trkpt lat="45.723028439046224" lon="8.477259730883338"><ele>385.0</ele><time>2026-04-11T14:46:27Z</time></trkpt><trkpt lat="45.72297475154914" lon="8.47732084769796"><ele>385.0</ele><time>2026-04-11T14:46:28Z</time></trkpt><trkpt lat="45.72291792189432" lon="8.477377565877697"><ele>385.0</ele><time>2026-04-11T14:46:29Z</time></trkpt><trkpt lat="45.72285981992165" lon="8.477430194769589"><ele>385.0</ele><time>2026-04-11T14:46:31Z</time></trkpt><trkpt lat="45.722890379501486" lon="8.477527489283148"><ele>385.0</ele><time>2026-04-11T14:46:34Z</time></trkpt><trkpt lat="45.7229614947215" lon="8.477665171028153"><ele>385.0</ele><time>2026-04-11T14:46:36Z</time></trkpt><trkpt lat="45.72302984258297" lon="8.477801855643811"><ele>385.0</ele><time>2026-04-11T14:46:38Z</time></trkpt><trkpt lat="45.72307676669212" lon="8.477903973735332"><ele>385.0</ele><time>2026-04-11T14:46:39Z</time></trkpt><trkpt lat="45.723137556950604" lon="8.477991232492089"><ele>385.0</ele><time>2026-04-11T14:46:40Z</time></trkpt><trkpt lat="45.72321144175321" lon="8.478127668476086"><ele>385.0</ele><time>2026-04-11T14:46:42Z</time></trkpt><trkpt lat="45.72324356537554" lon="8.478235155911547"><ele>386.0</ele><time>2026-04-11T14:46:43Z</time></trkpt><trkpt lat="45.72331005787577" lon="8.478335210707511"><ele>387.0</ele><time>2026-04-11T14:46:45Z</time></trkpt><trkpt lat="45.72338766227725" lon="8.478440775413565"><ele>388.0</ele><time>2026-04-11T14:46:47Z</time></trkpt><trkpt lat="45.723449504820046" lon="8.478490371868505"><ele>389.0</ele><time>2026-04-11T14:46:49Z</time></trkpt><trkpt lat="45.72351985430422" lon="8.478410559557112"><ele>390.0</ele><time>2026-04-11T14:46:53Z</time></trkpt><trkpt lat="45.723587939189756" lon="8.478301909494798"><ele>391.8333333333333</ele><time>2026-04-11T14:46:55Z</time></trkpt><trkpt lat="45.72366163822953" lon="8.47824929371615"><ele>393.66666666666663</ele><time>2026-04-11T14:46:57Z</time></trkpt><trkpt lat="45.72373556184023" lon="8.478308458413684"><ele>395.5</ele><time>2026-04-11T14:46:59Z</time></trkpt><trkpt lat="45.72381759185094" lon="8.478357560411757"><ele>397.3333333333333</ele><time>2026-04-11T14:47:01Z</time></trkpt><trkpt lat="45.7238746483905" lon="8.478404568081755"><ele>399.16666666666663</ele><time>2026-04-11T14:47:02.999Z</time></trkpt><trkpt lat="45.72396812683518" lon="8.47847460618485"><ele>401.0</ele><time>2026-04-11T14:47:04.999Z</time></trkpt><trkpt lat="45.72403614921836" lon="8.478505207350102"><ele>400.99999999999994</ele><time>2026-04-11T14:47:06.999Z</time></trkpt><trkpt lat="45.72411715562806" lon="8.478560326954877"><ele>401.0</ele><time>2026-04-11T14:47:08.999Z</time></trkpt><trkpt lat="45.724182566574775" lon="8.478475066886464"><ele>401.0</ele><time>2026-04-11T14:47:11.999Z</time></trkpt><trkpt lat="45.724245552679804" lon="8.478526969039951"><ele>401.0</ele><time>2026-04-11T14:47:20.999Z</time></trkpt><trkpt lat="45.72428315263611" lon="8.478600344060776"><ele>400.99999999999994</ele><time>2026-04-11T14:47:34.001Z</time></trkpt><trkpt lat="45.72434303737501" lon="8.47866376218323"><ele>401.0</ele><time>2026-04-11T14:47:53.001Z</time></trkpt><trkpt lat="45.72429469590039" lon="8.478599571722317"><ele>400.99999999999994</ele><time>2026-04-11T14:49:49.001Z</time></trkpt><trkpt lat="45.72425166695641" lon="8.478531984494774"><ele>401.0</ele><time>2026-04-11T14:50:18.999Z</time></trkpt><trkpt lat="45.724169326214245" lon="8.478511197900918"><ele>401.0</ele><time>2026-04-11T14:52:33.999Z</time></trkpt><trkpt lat="45.724116407171294" lon="8.47857240950437"><ele>401.0</ele><time>2026-04-11T14:52:36.999Z</time></trkpt><trkpt lat="45.72405194285562" lon="8.478561570300789"><ele>400.99999999999994</ele><time>2026-04-11T14:53:32.998Z</time></trkpt><trkpt lat="45.72396172130399" lon="8.47848675348053"><ele>401.0</ele><time>2026-04-11T14:53:35.998Z</time></trkpt><trkpt lat="45.72388605755737" lon="8.47842883493928"><ele>400.99999999999994</ele><time>2026-04-11T14:53:36.998Z</time></trkpt><trkpt lat="45.72381419907658" lon="8.478397819987388"><ele>401.0</ele><time>2026-04-11T14:53:38.998Z</time></trkpt><trkpt lat="45.723752260815424" lon="8.47834832569085"><ele>401.0</ele><time>2026-04-11T14:53:40.998Z</time></trkpt><trkpt lat="45.723657256632656" lon="8.478283912054478"><ele>401.0</ele><time>2026-04-11T14:53:42.998Z</time></trkpt><trkpt lat="45.723593862609775" lon="8.478329604427282"><ele>400.99999999999994</ele><time>2026-04-11T14:53:46Z</time></trkpt><trkpt lat="45.72352801760682" lon="8.478435254792613"><ele>401.0</ele><time>2026-04-11T14:53:48Z</time></trkpt><trkpt lat="45.72346646734348" lon="8.478489153635195"><ele>398.8</ele><time>2026-04-11T14:54:10Z</time></trkpt><trkpt lat="45.72338167046408" lon="8.478431824266954"><ele>396.6</ele><time>2026-04-11T14:54:13Z</time></trkpt><trkpt lat="45.72329491064294" lon="8.478330207286414"><ele>394.4</ele><time>2026-04-11T14:54:15Z</time></trkpt><trkpt lat="45.72323485417589" lon="8.478213939531921"><ele>392.2</ele><time>2026-04-11T14:54:17Z</time></trkpt><trkpt lat="45.72318820315142" lon="8.478092015067766"><ele>390.0</ele><time>2026-04-11T14:54:19Z</time></trkpt><trkpt lat="45.72313631412942" lon="8.477964090683596"><ele>389.0</ele><time>2026-04-11T14:54:21Z</time></trkpt><trkpt lat="45.72304661727325" lon="8.477851680901438"><ele>388.0</ele><time>2026-04-11T14:54:23Z</time></trkpt><trkpt lat="45.72298239210079" lon="8.477717290278083"><ele>387.0</ele><time>2026-04-11T14:54:25Z</time></trkpt><trkpt lat="45.72293462574151" lon="8.477617073294816"><ele>386.0</ele><time>2026-04-11T14:54:27Z</time></trkpt><trkpt lat="45.72289011819123" lon="8.477537683060431"><ele>385.0</ele><time>2026-04-11T14:54:28.999Z</time></trkpt><trkpt lat="45.722864288141196" lon="8.477452903401815"><ele>385.0</ele><time>2026-04-11T14:54:30.999Z</time></trkpt><trkpt lat="45.7229513453971" lon="8.477377453541951"><ele>385.0</ele><time>2026-04-11T14:54:33.999Z</time></trkpt><trkpt lat="45.723062654705224" lon="8.477278739588638"><ele>385.0</ele><time>2026-04-11T14:54:35.999Z</time></trkpt><trkpt lat="45.72316624901056" lon="8.477196260214003"><ele>385.0</ele><time>2026-04-11T14:54:37.999Z</time></trkpt><trkpt lat="45.72325325296333" lon="8.477161342682844"><ele>385.0</ele><time>2026-04-11T14:54:38.999Z</time></trkpt><trkpt lat="45.7233205900105" lon="8.477122382619003"><ele>383.8</ele><time>2026-04-11T14:54:39.999Z</time></trkpt><trkpt lat="45.72336940273372" lon="8.477022034129085"><ele>382.6</ele><time>2026-04-11T14:54:41.999Z</time></trkpt><trkpt lat="45.723387822608615" lon="8.47681987347444"><ele>381.4</ele><time>2026-04-11T14:54:43.999Z</time></trkpt><trkpt lat="45.723408960887646" lon="8.476732988056344"><ele>380.2</ele><time>2026-04-11T14:54:44.999Z</time></trkpt><trkpt lat="45.72347823654587" lon="8.476637293777515"><ele>379.0</ele><time>2026-04-11T14:54:46.999Z</time></trkpt><trkpt lat="45.723536024369274" lon="8.476588955126713"><ele>378.4</ele><time>2026-04-11T14:54:48.999Z</time></trkpt><trkpt lat="45.723628588618645" lon="8.476620418005183"><ele>377.79999999999995</ele><time>2026-04-11T14:54:51.999Z</time></trkpt><trkpt lat="45.723713793667166" lon="8.476653197228089"><ele>377.20000000000005</ele><time>2026-04-11T14:54:53.999Z</time></trkpt><trkpt lat="45.72372083593195" lon="8.476496277888833"><ele>376.6</ele><time>2026-04-11T14:54:56.999Z</time></trkpt><trkpt lat="45.723684954712084" lon="8.476295710611835"><ele>376.0</ele><time>2026-04-11T14:54:58.999Z</time></trkpt><trkpt lat="45.723667891202204" lon="8.476183321205019"><ele>376.0</ele><time>2026-04-11T14:54:59.999Z</time></trkpt><trkpt lat="45.72367743289188" lon="8.476086769081856"><ele>376.0</ele><time>2026-04-11T14:55:02.999Z</time></trkpt><trkpt lat="45.72379240496477" lon="8.476130692261137"><ele>376.0</ele><time>2026-04-11T14:55:06.999Z</time></trkpt><trkpt lat="45.72389662843535" lon="8.476174201945252"><ele>376.0</ele><time>2026-04-11T14:55:08.999Z</time></trkpt><trkpt lat="45.7239793057769" lon="8.476179255602528"><ele>376.0</ele><time>2026-04-11T14:55:10.999Z</time></trkpt><trkpt lat="45.72403281120112" lon="8.476244887158819"><ele>376.0</ele><time>2026-04-11T14:55:11.999Z</time></trkpt><trkpt lat="45.72409573394176" lon="8.476305647122329"><ele>377.4</ele><time>2026-04-11T14:55:12.999Z</time></trkpt><trkpt lat="45.724149053556935" lon="8.476368889901977"><ele>378.8</ele><time>2026-04-11T14:55:13.999Z</time></trkpt><trkpt lat="45.72419073321761" lon="8.476445556650903"><ele>380.2</ele><time>2026-04-11T14:55:14.999Z</time></trkpt><trkpt lat="45.72424319454247" lon="8.476537431822269"><ele>381.59999999999997</ele><time>2026-04-11T14:55:15.999Z</time></trkpt><trkpt lat="45.72432796789786" lon="8.476616743006337"><ele>383.0</ele><time>2026-04-11T14:55:17.999Z</time></trkpt><trkpt lat="45.72445753182339" lon="8.47668727695857"><ele>383.0</ele><time>2026-04-11T14:55:18.999Z</time></trkpt><trkpt lat="45.72456625175182" lon="8.47674384352532"><ele>383.0</ele><time>2026-04-11T14:55:19.999Z</time></trkpt><trkpt lat="45.7246690743994" lon="8.476791170357625"><ele>383.0</ele><time>2026-04-11T14:55:20.999Z</time></trkpt><trkpt lat="45.72475421734311" lon="8.476822350244735"><ele>383.0</ele><time>2026-04-11T14:55:21.999Z</time></trkpt><trkpt lat="45.72486899450102" lon="8.476875695878995"><ele>383.0</ele><time>2026-04-11T14:55:23.999Z</time></trkpt><trkpt lat="45.724968800625994" lon="8.47696266000457"><ele>383.0</ele><time>2026-04-11T14:55:26.998Z</time></trkpt><trkpt lat="45.724991408013004" lon="8.477047172442832"><ele>383.0</ele><time>2026-04-11T14:55:27.998Z</time></trkpt><trkpt lat="45.72503451926066" lon="8.477203982748025"><ele>383.0</ele><time>2026-04-11T14:55:29.998Z</time></trkpt><trkpt lat="45.72506179653289" lon="8.47731198718025"><ele>383.0</ele><time>2026-04-11T14:55:30.998Z</time></trkpt><trkpt lat="45.72508026135177" lon="8.47739875949241"><ele>383.0</ele><time>2026-04-11T14:55:31.998Z</time></trkpt><trkpt lat="45.725128283366935" lon="8.477552421738388"><ele>383.0</ele><time>2026-04-11T14:55:33.998Z</time></trkpt><trkpt lat="45.725160400045986" lon="8.477658099136068"><ele>385.5</ele><time>2026-04-11T14:55:34.998Z</time></trkpt><trkpt lat="45.72522693298696" lon="8.477855045784569"><ele>388.0</ele><time>2026-04-11T14:55:36.998Z</time></trkpt><trkpt lat="45.725260074592434" lon="8.4779891360615"><ele>390.5</ele><time>2026-04-11T14:55:37.998Z</time></trkpt><trkpt lat="45.72529176259988" lon="8.478096555765584"><ele>393.0</ele><time>2026-04-11T14:55:38.998Z</time></trkpt><trkpt lat="45.725346786141024" lon="8.47825367141743"><ele>393.1666666666667</ele><time>2026-04-11T14:55:40.998Z</time></trkpt><trkpt lat="45.7253793992345" lon="8.478339547617706"><ele>393.33333333333337</ele><time>2026-04-11T14:55:41.998Z</time></trkpt><trkpt lat="45.72543593343527" lon="8.47850346294164"><ele>393.5</ele><time>2026-04-11T14:55:43.998Z</time></trkpt><trkpt lat="45.72549375940941" lon="8.478635866005774"><ele>393.6666666666667</ele><time>2026-04-11T14:55:45.998Z</time></trkpt><trkpt lat="45.725508446732746" lon="8.478728137756107"><ele>393.83333333333337</ele><time>2026-04-11T14:55:48.998Z</time></trkpt><trkpt lat="45.72546107819415" lon="8.478801647357644"><ele>394.0</ele><time>2026-04-11T14:55:50.998Z</time></trkpt><trkpt lat="45.725407921857325" lon="8.47885313607418"><ele>395.2</ele><time>2026-04-11T14:55:51.999Z</time></trkpt><trkpt lat="45.72531121778209" lon="8.478884020458656"><ele>396.4</ele><time>2026-04-11T14:55:53.999Z</time></trkpt><trkpt lat="45.72523113186029" lon="8.478902417624457"><ele>397.6</ele><time>2026-04-11T14:55:55.999Z</time></trkpt><trkpt lat="45.72514079908693" lon="8.478924851425102"><ele>398.8</ele><time>2026-04-11T14:55:57.999Z</time></trkpt><trkpt lat="45.72506604748146" lon="8.478973922246503"><ele>400.0</ele><time>2026-04-11T14:55:59.999Z</time></trkpt><trkpt lat="45.72497448832274" lon="8.479077995630291"><ele>400.0</ele><time>2026-04-11T14:56:01.999Z</time></trkpt><trkpt lat="45.72491139199611" lon="8.47916648853396"><ele>400.0</ele><time>2026-04-11T14:56:05.999Z</time></trkpt><trkpt lat="45.724811612505334" lon="8.479233454619203"><ele>400.0</ele><time>2026-04-11T14:56:07.999Z</time></trkpt><trkpt lat="45.724759328484566" lon="8.479287101244724"><ele>400.0</ele><time>2026-04-11T14:56:08.999Z</time></trkpt><trkpt lat="45.72470052380703" lon="8.479331391110161"><ele>400.0</ele><time>2026-04-11T14:56:09.999Z</time></trkpt><trkpt lat="45.72461120579942" lon="8.479472432161089"><ele>399.0</ele><time>2026-04-11T14:56:11.999Z</time></trkpt><trkpt lat="45.724568151208835" lon="8.479620732767174"><ele>398.0</ele><time>2026-04-11T14:56:13.999Z</time></trkpt><trkpt lat="45.72454092995226" lon="8.479758038417556"><ele>397.0</ele><time>2026-04-11T14:56:15.999Z</time></trkpt><trkpt lat="45.72455537394529" lon="8.479869572921322"><ele>396.0</ele><time>2026-04-11T14:56:17.999Z</time></trkpt><trkpt lat="45.72457446156566" lon="8.480016967731245"><ele>395.0</ele><time>2026-04-11T14:56:19.999Z</time></trkpt><trkpt lat="45.72458722263193" lon="8.48016931578912"><ele>394.99999999999994</ele><time>2026-04-11T14:56:21.999Z</time></trkpt><trkpt lat="45.72457284679771" lon="8.48033601694901"><ele>395.0</ele><time>2026-04-11T14:56:23.999Z</time></trkpt><trkpt lat="45.72455436373361" lon="8.480432937051749"><ele>395.0</ele><time>2026-04-11T14:56:24.999Z</time></trkpt><trkpt lat="45.72452575374428" lon="8.480515871481794"><ele>395.0</ele><time>2026-04-11T14:56:25.999Z</time></trkpt><trkpt lat="45.724490179628646" lon="8.480658307291804"><ele>394.99999999999994</ele><time>2026-04-11T14:56:27.999Z</time></trkpt><trkpt lat="45.72446097697459" lon="8.48077321718443"><ele>395.0</ele><time>2026-04-11T14:56:29.999Z</time></trkpt><trkpt lat="45.724406231195445" lon="8.480842020370218"><ele>392.3333333333333</ele><time>2026-04-11T14:56:31.999Z</time></trkpt><trkpt lat="45.724328719453005" lon="8.480895849243133"><ele>389.66666666666663</ele><time>2026-04-11T14:57:01.999Z</time></trkpt><trkpt lat="45.724240931005696" lon="8.48094420436928"><ele>387.0</ele><time>2026-04-11T14:57:02.999Z</time></trkpt><trkpt lat="45.724173017455115" lon="8.480957976443246"><ele>384.3333333333333</ele><time>2026-04-11T14:57:03.999Z</time></trkpt><trkpt lat="45.72410863653608" lon="8.480959562615096"><ele>381.66666666666663</ele><time>2026-04-11T14:57:04.999Z</time></trkpt><trkpt lat="45.723989478249365" lon="8.48094764821274"><ele>379.0</ele><time>2026-04-11T14:57:05.999Z</time></trkpt><trkpt lat="45.72386007726982" lon="8.480929028200004"><ele>379.00000000000006</ele><time>2026-04-11T14:57:06.999Z</time></trkpt><trkpt lat="45.723758478254595" lon="8.480924367454755"><ele>379.0</ele><time>2026-04-11T14:57:07.999Z</time></trkpt><trkpt lat="45.72367866884944" lon="8.480934468692798"><ele>379.0</ele><time>2026-04-11T14:57:08.999Z</time></trkpt><trkpt lat="45.723613485634914" lon="8.480930546577277"><ele>379.0</ele><time>2026-04-11T14:57:09.999Z</time></trkpt><trkpt lat="45.723551687177725" lon="8.480900146587448"><ele>379.0</ele><time>2026-04-11T14:57:10.999Z</time></trkpt><trkpt lat="45.72350016523257" lon="8.480848293630874"><ele>379.00000000000006</ele><time>2026-04-11T14:57:11.999Z</time></trkpt><trkpt lat="45.72345221992068" lon="8.480775004057179"><ele>379.0</ele><time>2026-04-11T14:57:12.999Z</time></trkpt><trkpt lat="45.723390823388975" lon="8.480728813226802"><ele>378.16666666666663</ele><time>2026-04-11T14:57:14.999Z</time></trkpt><trkpt lat="45.7233240307561" lon="8.480799511829705"><ele>377.3333333333333</ele><time>2026-04-11T14:57:16.998Z</time></trkpt><trkpt lat="45.72328477572773" lon="8.480891151836042"><ele>376.5</ele><time>2026-04-11T14:57:17.998Z</time></trkpt><trkpt lat="45.72324450932161" lon="8.480970376882283"><ele>375.6666666666667</ele><time>2026-04-11T14:57:18.998Z</time></trkpt><trkpt lat="45.72319660953345" lon="8.481031040851088"><ele>374.83333333333337</ele><time>2026-04-11T14:57:19.998Z</time></trkpt><trkpt lat="45.72311678859487" lon="8.48101012096966"><ele>374.0</ele><time>2026-04-11T14:57:21.998Z</time></trkpt><trkpt lat="45.72302113914276" lon="8.48091952432494"><ele>374.0</ele><time>2026-04-11T14:57:23.998Z</time></trkpt><trkpt lat="45.72291393814954" lon="8.480891978781544"><ele>374.0</ele><time>2026-04-11T14:57:25.997Z</time></trkpt><trkpt lat="45.722842399596146" lon="8.480890421432925"><ele>374.0</ele><time>2026-04-11T14:57:26.997Z</time></trkpt><trkpt lat="45.722775839861775" lon="8.480898923392392"><ele>374.0</ele><time>2026-04-11T14:57:27.997Z</time></trkpt><trkpt lat="45.72268842996368" lon="8.480959077379817"><ele>374.0</ele><time>2026-04-11T14:57:29.997Z</time></trkpt><trkpt lat="45.72263467313582" lon="8.481031798883603"><ele>374.0</ele><time>2026-04-11T14:57:30.997Z</time></trkpt><trkpt lat="45.72257475617105" lon="8.481122169159246"><ele>373.33333333333337</ele><time>2026-04-11T14:57:31.997Z</time></trkpt><trkpt lat="45.7225126850943" lon="8.48123917097909"><ele>372.6666666666667</ele><time>2026-04-11T14:57:32.997Z</time></trkpt><trkpt lat="45.72246986590973" lon="8.481315895462048"><ele>372.0</ele><time>2026-04-11T14:57:33.997Z</time></trkpt><trkpt lat="45.72238076676624" lon="8.481397688254312"><ele>371.3333333333333</ele><time>2026-04-11T14:57:35.997Z</time></trkpt><trkpt lat="45.72231992570153" lon="8.48142308461565"><ele>370.66666666666663</ele><time>2026-04-11T14:57:37.997Z</time></trkpt><trkpt lat="45.72232405243415" lon="8.481521135203652"><ele>370.0</ele><time>2026-04-11T14:57:44.997Z</time></trkpt><trkpt lat="45.722372469194234" lon="8.481587329833607"><ele>370.0</ele><time>2026-04-11T14:57:46.997Z</time></trkpt><trkpt lat="45.72242359699084" lon="8.481654968946565"><ele>370.0</ele><time>2026-04-11T14:57:47.997Z</time></trkpt><trkpt lat="45.722509010644195" lon="8.481774081289732"><ele>370.0</ele><time>2026-04-11T14:57:49.997Z</time></trkpt><trkpt lat="45.722597394044584" lon="8.481896250253502"><ele>370.0</ele><time>2026-04-11T14:57:51.997Z</time></trkpt><trkpt lat="45.72265917259847" lon="8.481972318665187"><ele>370.0</ele><time>2026-04-11T14:57:53.997Z</time></trkpt><trkpt lat="45.722710693369386" lon="8.482025346659222"><ele>370.0</ele><time>2026-04-11T14:57:58.998Z</time></trkpt><trkpt lat="45.722777711606895" lon="8.482110101903011"><ele>370.0</ele><time>2026-04-11T14:58:02.998Z</time></trkpt><trkpt lat="45.722831351235776" lon="8.48217913017317"><ele>370.0</ele><time>2026-04-11T14:58:04.998Z</time></trkpt><trkpt lat="45.72288279687553" lon="8.482243529337861"><ele>370.0</ele><time>2026-04-11T14:58:07.998Z</time></trkpt><trkpt lat="45.72296729451724" lon="8.482347115466034"><ele>370.0</ele><time>2026-04-11T14:58:09.998Z</time></trkpt><trkpt lat="45.72302614026944" lon="8.482448452564764"><ele>370.0</ele><time>2026-04-11T14:58:12.999Z</time></trkpt><trkpt lat="45.72310226529884" lon="8.482558394808995"><ele>370.0</ele><time>2026-04-11T14:58:14.999Z</time></trkpt><trkpt lat="45.72317622751981" lon="8.482647333265461"><ele>370.0</ele><time>2026-04-11T14:58:16.999Z</time></trkpt><trkpt lat="45.723228876908685" lon="8.48270095920523"><ele>370.0</ele><time>2026-04-11T14:58:17.999Z</time></trkpt><trkpt lat="45.72328784253759" lon="8.482775460551531"><ele>370.0</ele><time>2026-04-11T14:58:18.999Z</time></trkpt><trkpt lat="45.72337296481101" lon="8.482866338063316"><ele>370.0</ele><time>2026-04-11T14:58:20.999Z</time></trkpt><trkpt lat="45.7234650295788" lon="8.482951095537947"><ele>369.0</ele><time>2026-04-11T14:58:22.999Z</time></trkpt><trkpt lat="45.723539848292816" lon="8.483032681033942"><ele>368.0</ele><time>2026-04-11T14:58:24.999Z</time></trkpt><trkpt lat="45.723612322267684" lon="8.483131232921586"><ele>367.0</ele><time>2026-04-11T14:58:26.999Z</time></trkpt><trkpt lat="45.72362064237985" lon="8.483275898636514"><ele>366.0</ele><time>2026-04-11T14:58:28.999Z</time></trkpt><trkpt lat="45.72358901671467" lon="8.483377781873942"><ele>365.0</ele><time>2026-04-11T14:58:30.999Z</time></trkpt><trkpt lat="45.723558375706915" lon="8.483485106137259"><ele>365.0</ele><time>2026-04-11T14:58:32.999Z</time></trkpt><trkpt lat="45.72355002985456" lon="8.483574493735654"><ele>365.0</ele><time>2026-04-11T14:58:34.999Z</time></trkpt><trkpt lat="45.72356671586161" lon="8.483670684344553"><ele>365.0</ele><time>2026-04-11T14:58:36.999Z</time></trkpt><trkpt lat="45.72360425485923" lon="8.483760399005366"><ele>365.0</ele><time>2026-04-11T14:58:38.999Z</time></trkpt><trkpt lat="45.7236498543041" lon="8.483885369250805"><ele>365.0</ele><time>2026-04-11T14:58:40.999Z</time></trkpt><trkpt lat="45.72370203341988" lon="8.484010260874989"><ele>365.0</ele><time>2026-04-11T14:58:42.999Z</time></trkpt><trkpt lat="45.72374880180772" lon="8.484124608905331"><ele>364.33333333333337</ele><time>2026-04-11T14:58:44.998Z</time></trkpt><trkpt lat="45.72377721376735" lon="8.48424763260258"><ele>363.6666666666667</ele><time>2026-04-11T14:58:47.998Z</time></trkpt><trkpt lat="45.72376059125305" lon="8.484335607105065"><ele>363.0</ele><time>2026-04-11T14:58:49.998Z</time></trkpt><trkpt lat="45.7237269865165" lon="8.484468865839295"><ele>362.3333333333333</ele><time>2026-04-11T14:58:51.998Z</time></trkpt><trkpt lat="45.723704969419394" lon="8.484567572394631"><ele>361.66666666666663</ele><time>2026-04-11T14:58:53.998Z</time></trkpt><trkpt lat="45.72367151368643" lon="8.48467676594099"><ele>361.0</ele><time>2026-04-11T14:58:55.998Z</time></trkpt><trkpt lat="45.72363534686174" lon="8.484837543854228"><ele>360.66666666666663</ele><time>2026-04-11T14:58:57.998Z</time></trkpt><trkpt lat="45.72360069239384" lon="8.485009340429283"><ele>360.3333333333333</ele><time>2026-04-11T14:58:59.998Z</time></trkpt><trkpt lat="45.72355875793499" lon="8.485113295193358"><ele>360.0</ele><time>2026-04-11T14:59:01.998Z</time></trkpt><trkpt lat="45.72356360839287" lon="8.485209219819273"><ele>359.6666666666667</ele><time>2026-04-11T14:59:14.998Z</time></trkpt><trkpt lat="45.72355250537103" lon="8.485339569278521"><ele>359.33333333333337</ele><time>2026-04-11T14:59:16.998Z</time></trkpt><trkpt lat="45.7235414348573" lon="8.485431039401755"><ele>359.0</ele><time>2026-04-11T14:59:18.998Z</time></trkpt><trkpt lat="45.72352145280604" lon="8.485605297040484"><ele>356.79999999999995</ele><time>2026-04-11T14:59:20.998Z</time></trkpt><trkpt lat="45.7234959332379" lon="8.48575574894124"><ele>354.59999999999997</ele><time>2026-04-11T14:59:22.998Z</time></trkpt><trkpt lat="45.72347753534807" lon="8.485877283041441"><ele>352.4</ele><time>2026-04-11T14:59:24.998Z</time></trkpt><trkpt lat="45.72345788844783" lon="8.48597989103942"><ele>350.2</ele><time>2026-04-11T14:59:26.998Z</time></trkpt><trkpt lat="45.723445109584794" lon="8.486128895220682"><ele>348.0</ele><time>2026-04-11T14:59:28.998Z</time></trkpt><trkpt lat="45.72342792838128" lon="8.486240652647956"><ele>347.8333333333333</ele><time>2026-04-11T14:59:30.998Z</time></trkpt><trkpt lat="45.72341631414343" lon="8.486366654216692"><ele>347.6666666666667</ele><time>2026-04-11T14:59:33.998Z</time></trkpt><trkpt lat="45.723426797900146" lon="8.486474483248932"><ele>347.5</ele><time>2026-04-11T14:59:35.998Z</time></trkpt><trkpt lat="45.72345287421652" lon="8.486587954346522"><ele>347.33333333333337</ele><time>2026-04-11T14:59:37.998Z</time></trkpt><trkpt lat="45.72347845859965" lon="8.486681422979512"><ele>347.1666666666667</ele><time>2026-04-11T14:59:38.998Z</time></trkpt><trkpt lat="45.72351576161705" lon="8.48677137497926"><ele>347.0</ele><time>2026-04-11T14:59:39.998Z</time></trkpt><trkpt lat="45.72358153649819" lon="8.486906962461669"><ele>347.0</ele><time>2026-04-11T14:59:41.998Z</time></trkpt><trkpt lat="45.72362322161928" lon="8.487006963784413"><ele>347.0</ele><time>2026-04-11T14:59:42.998Z</time></trkpt><trkpt lat="45.723679581413734" lon="8.487167805659194"><ele>347.0</ele><time>2026-04-11T14:59:43.998Z</time></trkpt><trkpt lat="45.72372197609907" lon="8.487290202208971"><ele>347.0</ele><time>2026-04-11T14:59:44.998Z</time></trkpt><trkpt lat="45.72379300395289" lon="8.487423456471404"><ele>347.0</ele><time>2026-04-11T14:59:46.998Z</time></trkpt><trkpt lat="45.72383169589561" lon="8.487498135231471"><ele>346.5</ele><time>2026-04-11T14:59:47.998Z</time></trkpt><trkpt lat="45.723867872274745" lon="8.487587990771823"><ele>346.0</ele><time>2026-04-11T14:59:48.998Z</time></trkpt><trkpt lat="45.72391519292985" lon="8.487745696184977"><ele>345.5</ele><time>2026-04-11T14:59:50.998Z</time></trkpt><trkpt lat="45.72393189073055" lon="8.487841527261455"><ele>345.0</ele><time>2026-04-11T14:59:51.998Z</time></trkpt><trkpt lat="45.723959074648434" lon="8.487948640221271"><ele>344.5</ele><time>2026-04-11T14:59:52.998Z</time></trkpt><trkpt lat="45.723996757844205" lon="8.488077750501981"><ele>344.0</ele><time>2026-04-11T14:59:53.998Z</time></trkpt><trkpt lat="45.7240356188051" lon="8.488211799415838"><ele>344.0</ele><time>2026-04-11T14:59:54.998Z</time></trkpt><trkpt lat="45.724061414980795" lon="8.488304364139179"><ele>344.0</ele><time>2026-04-11T14:59:55.998Z</time></trkpt><trkpt lat="45.7240808274643" lon="8.488407610341307"><ele>344.0</ele><time>2026-04-11T14:59:56.998Z</time></trkpt><trkpt lat="45.72411823655081" lon="8.488566235540064"><ele>344.0</ele><time>2026-04-11T14:59:57.998Z</time></trkpt><trkpt lat="45.72415831386883" lon="8.48870458132696"><ele>344.0</ele><time>2026-04-11T14:59:58.998Z</time></trkpt><trkpt lat="45.724198024104325" lon="8.48880332656199"><ele>344.0</ele><time>2026-04-11T14:59:59.998Z</time></trkpt><trkpt lat="45.72422594727906" lon="8.488925519595004"><ele>344.1666666666667</ele><time>2026-04-11T15:00:00.998Z</time></trkpt><trkpt lat="45.72423439622004" lon="8.489016683561143"><ele>344.33333333333337</ele><time>2026-04-11T15:00:01.999Z</time></trkpt><trkpt lat="45.724227817745884" lon="8.489107732400456"><ele>344.5</ele><time>2026-04-11T15:00:02.999Z</time></trkpt><trkpt lat="45.72421768760637" lon="8.489266499518271"><ele>344.6666666666667</ele><time>2026-04-11T15:00:04.999Z</time></trkpt><trkpt lat="45.724211111794304" lon="8.489389891500482"><ele>344.8333333333333</ele><time>2026-04-11T15:00:05.999Z</time></trkpt><trkpt lat="45.72420375461987" lon="8.489521848626657"><ele>345.0</ele><time>2026-04-11T15:00:06.999Z</time></trkpt><trkpt lat="45.72419892669811" lon="8.489641841183746"><ele>344.4</ele><time>2026-04-11T15:00:07.999Z</time></trkpt><trkpt lat="45.72419656446908" lon="8.489732010664898"><ele>343.8</ele><time>2026-04-11T15:00:08.999Z</time></trkpt><trkpt lat="45.724200112910786" lon="8.489851956894986"><ele>343.20000000000005</ele><time>2026-04-11T15:00:09.999Z</time></trkpt><trkpt lat="45.724201300378745" lon="8.490003007255595"><ele>342.6</ele><time>2026-04-11T15:00:10.999Z</time></trkpt><trkpt lat="45.72421151035647" lon="8.490176778860722"><ele>342.0</ele><time>2026-04-11T15:00:11.999Z</time></trkpt><trkpt lat="45.72423153347096" lon="8.490346466729086"><ele>342.1666666666667</ele><time>2026-04-11T15:00:12.999Z</time></trkpt><trkpt lat="45.724236321067394" lon="8.490512203550074"><ele>342.3333333333333</ele><time>2026-04-11T15:00:13.999Z</time></trkpt><trkpt lat="45.7242520467237" lon="8.490625771922593"><ele>342.5</ele><time>2026-04-11T15:00:14.999Z</time></trkpt><trkpt lat="45.72422648442638" lon="8.490750327500074"><ele>342.66666666666663</ele><time>2026-04-11T15:00:15.999Z</time></trkpt><trkpt lat="45.72422724059982" lon="8.490868251335666"><ele>342.8333333333333</ele><time>2026-04-11T15:00:16.999Z</time></trkpt><trkpt lat="45.72421213784472" lon="8.490964552214853"><ele>343.0</ele><time>2026-04-11T15:00:17.999Z</time></trkpt><trkpt lat="45.72426029502622" lon="8.491099471147637"><ele>343.0</ele><time>2026-04-11T15:00:19.999Z</time></trkpt><trkpt lat="45.72432554823167" lon="8.49114624409105"><ele>343.0</ele><time>2026-04-11T15:00:20.999Z</time></trkpt><trkpt lat="45.72441773587494" lon="8.491179431597834"><ele>343.0</ele><time>2026-04-11T15:00:21.999Z</time></trkpt><trkpt lat="45.724555861052444" lon="8.491249166820543"><ele>343.0</ele><time>2026-04-11T15:00:22.999Z</time></trkpt><trkpt lat="45.724701389974086" lon="8.491281516960832"><ele>343.0</ele><time>2026-04-11T15:00:23.999Z</time></trkpt><trkpt lat="45.724856072284005" lon="8.49136076315842"><ele>343.0</ele><time>2026-04-11T15:00:24.999Z</time></trkpt><trkpt lat="45.72500362784205" lon="8.491410963072433"><ele>343.0</ele><time>2026-04-11T15:00:25.999Z</time></trkpt><trkpt lat="45.72510655494742" lon="8.491478790849174"><ele>343.0</ele><time>2026-04-11T15:00:26.999Z</time></trkpt><trkpt lat="45.72519135327194" lon="8.491531485358228"><ele>344.0</ele><time>2026-04-11T15:00:27.999Z</time></trkpt><trkpt lat="45.72525253138883" lon="8.491566422277847"><ele>345.0</ele><time>2026-04-11T15:00:28.999Z</time></trkpt><trkpt lat="45.72527722086397" lon="8.49166185688062"><ele>346.0</ele><time>2026-04-11T15:00:31.999Z</time></trkpt><trkpt lat="45.72541769283882" lon="8.491623020973242"><ele>347.0</ele><time>2026-04-11T15:00:33.999Z</time></trkpt><trkpt lat="45.725490244085755" lon="8.491585947937487"><ele>348.0</ele><time>2026-04-11T15:00:34.999Z</time></trkpt><trkpt lat="45.725574812466576" lon="8.491555867933984"><ele>349.0</ele><time>2026-04-11T15:00:35.999Z</time></trkpt><trkpt lat="45.725648156476225" lon="8.491525846465786"><ele>349.0</ele><time>2026-04-11T15:00:36.999Z</time></trkpt><trkpt lat="45.725749088032195" lon="8.49147304203127"><ele>349.0</ele><time>2026-04-11T15:00:38.999Z</time></trkpt><trkpt lat="45.72582728821245" lon="8.491410117919326"><ele>349.0</ele><time>2026-04-11T15:00:40.999Z</time></trkpt><trkpt lat="45.72594555651318" lon="8.491373497018465"><ele>349.0</ele><time>2026-04-11T15:00:42.999Z</time></trkpt><trkpt lat="45.725999187932445" lon="8.491315689604047"><ele>349.0</ele><time>2026-04-11T15:00:44.999Z</time></trkpt><trkpt lat="45.72592342924538" lon="8.491344316882465"><ele>349.0</ele><time>2026-04-11T15:00:47.999Z</time></trkpt><trkpt lat="45.72583956419233" lon="8.491360086947616"><ele>349.0</ele><time>2026-04-11T15:00:48.999Z</time></trkpt><trkpt lat="45.725724536158936" lon="8.491435830010884"><ele>349.0</ele><time>2026-04-11T15:00:50.999Z</time></trkpt><trkpt lat="45.72565594326151" lon="8.491476255684374"><ele>349.0</ele><time>2026-04-11T15:00:51.999Z</time></trkpt><trkpt lat="45.725591170058074" lon="8.491511676583341"><ele>349.0</ele><time>2026-04-11T15:00:52.999Z</time></trkpt><trkpt lat="45.72550956029485" lon="8.491544926629565"><ele>349.0</ele><time>2026-04-11T15:00:53.999Z</time></trkpt><trkpt lat="45.72541379250438" lon="8.49156622490315"><ele>349.0</ele><time>2026-04-11T15:00:54.999Z</time></trkpt><trkpt lat="45.72533709110951" lon="8.491590467317387"><ele>349.0</ele><time>2026-04-11T15:00:55.999Z</time></trkpt><trkpt lat="45.725255176274956" lon="8.491680816938967"><ele>349.0</ele><time>2026-04-11T15:00:57.999Z</time></trkpt><trkpt lat="45.72529883341071" lon="8.491821927608632"><ele>349.0</ele><time>2026-04-11T15:00:59.999Z</time></trkpt><trkpt lat="45.7253553905963" lon="8.491945940568538"><ele>349.0</ele><time>2026-04-11T15:01:00.999Z</time></trkpt><trkpt lat="45.7254188261431" lon="8.492099322073331"><ele>350.0</ele><time>2026-04-11T15:01:01.999Z</time></trkpt><trkpt lat="45.725479869460806" lon="8.492244222837149"><ele>351.0</ele><time>2026-04-11T15:01:02.999Z</time></trkpt><trkpt lat="45.72554042612124" lon="8.492360246622969"><ele>352.0</ele><time>2026-04-11T15:01:03.999Z</time></trkpt><trkpt lat="45.72559327377998" lon="8.49244564925863"><ele>353.0</ele><time>2026-04-11T15:01:04.999Z</time></trkpt><trkpt lat="45.72564348802153" lon="8.492532980315262"><ele>354.0</ele><time>2026-04-11T15:01:05.999Z</time></trkpt><trkpt lat="45.72569819248461" lon="8.492641863135978"><ele>354.0</ele><time>2026-04-11T15:01:06.999Z</time></trkpt><trkpt lat="45.72574451334369" lon="8.492744008042775"><ele>354.0</ele><time>2026-04-11T15:01:07.999Z</time></trkpt><trkpt lat="45.72580046846419" lon="8.492809333377478"><ele>354.0</ele><time>2026-04-11T15:01:08.999Z</time></trkpt><trkpt lat="45.72588965254297" lon="8.492880987605755"><ele>354.0</ele><time>2026-04-11T15:01:09.999Z</time></trkpt><trkpt lat="45.725996121426604" lon="8.492953606092948"><ele>354.0</ele><time>2026-04-11T15:01:10.999Z</time></trkpt><trkpt lat="45.72608890454949" lon="8.4930095846797"><ele>353.0</ele><time>2026-04-11T15:01:11.999Z</time></trkpt><trkpt lat="45.726186812776895" lon="8.493055823186447"><ele>352.0</ele><time>2026-04-11T15:01:12.999Z</time></trkpt><trkpt lat="45.726277306513744" lon="8.4931040787689"><ele>351.0</ele><time>2026-04-11T15:01:13.999Z</time></trkpt><trkpt lat="45.726378638828976" lon="8.4931640306675"><ele>350.0</ele><time>2026-04-11T15:01:14.999Z</time></trkpt><trkpt lat="45.72646498530708" lon="8.4932410745347"><ele>349.0</ele><time>2026-04-11T15:01:15.999Z</time></trkpt><trkpt lat="45.72662981109311" lon="8.493132826546342"><ele>349.0</ele><time>2026-04-11T15:01:16.999Z</time></trkpt><trkpt lat="45.72669037210771" lon="8.493190605950142"><ele>349.0</ele><time>2026-04-11T15:01:17.999Z</time></trkpt><trkpt lat="45.72674942384949" lon="8.493246945377468"><ele>349.0</ele><time>2026-04-11T15:01:18.999Z</time></trkpt><trkpt lat="45.72680850287975" lon="8.493303310952044"><ele>349.0</ele><time>2026-04-11T15:01:19.999Z</time></trkpt><trkpt lat="45.72687866972262" lon="8.493370255620158"><ele>349.0</ele><time>2026-04-11T15:01:20.999Z</time></trkpt><trkpt lat="45.726950729820295" lon="8.49343900660717"><ele>349.0</ele><time>2026-04-11T15:01:21.999Z</time></trkpt><trkpt lat="45.72701734616963" lon="8.4935025638387"><ele>349.0</ele><time>2026-04-11T15:01:22.999Z</time></trkpt><trkpt lat="45.72687230251279" lon="8.494022415516827"><ele>349.0</ele><time>2026-04-11T15:01:23.999Z</time></trkpt><trkpt lat="45.72691129321629" lon="8.494105602846394"><ele>348.6</ele><time>2026-04-11T15:01:24.999Z</time></trkpt><trkpt lat="45.726955645835005" lon="8.494174867514223"><ele>348.2</ele><time>2026-04-11T15:01:25.999Z</time></trkpt><trkpt lat="45.72703033490857" lon="8.494230994313726"><ele>347.8</ele><time>2026-04-11T15:01:26.999Z</time></trkpt><trkpt lat="45.72712300832915" lon="8.494289787746474"><ele>347.40000000000003</ele><time>2026-04-11T15:01:27.999Z</time></trkpt><trkpt lat="45.727230415400136" lon="8.49436074400021"><ele>347.0</ele><time>2026-04-11T15:01:28.999Z</time></trkpt><trkpt lat="45.727330589306575" lon="8.49441344059796"><ele>347.0</ele><time>2026-04-11T15:01:29.999Z</time></trkpt><trkpt lat="45.727403179203165" lon="8.494459169719107"><ele>347.0</ele><time>2026-04-11T15:01:30.999Z</time></trkpt><trkpt lat="45.727476455435145" lon="8.494499625561431"><ele>347.0</ele><time>2026-04-11T15:01:31.999Z</time></trkpt><trkpt lat="45.727557041600384" lon="8.494527880752909"><ele>347.0</ele><time>2026-04-11T15:01:32.999Z</time></trkpt><trkpt lat="45.72763674328263" lon="8.494527197012028"><ele>347.0</ele><time>2026-04-11T15:01:33.999Z</time></trkpt><trkpt lat="45.72773265823886" lon="8.494514843466785"><ele>347.0</ele><time>2026-04-11T15:01:34.999Z</time></trkpt><trkpt lat="45.72786460104253" lon="8.494482036705376"><ele>346.5</ele><time>2026-04-11T15:01:35.999Z</time></trkpt><trkpt lat="45.72800130775881" lon="8.494469572677632"><ele>346.0</ele><time>2026-04-11T15:01:36.999Z</time></trkpt><trkpt lat="45.7281490460266" lon="8.49446346616804"><ele>345.5</ele><time>2026-04-11T15:01:37.999Z</time></trkpt><trkpt lat="45.72828440078654" lon="8.49446758807291"><ele>345.0</ele><time>2026-04-11T15:01:38.999Z</time></trkpt><trkpt lat="45.72841943443559" lon="8.494466780147935"><ele>345.0</ele><time>2026-04-11T15:01:39.999Z</time></trkpt><trkpt lat="45.72854577991008" lon="8.49446187929076"><ele>345.0</ele><time>2026-04-11T15:01:40.999Z</time></trkpt><trkpt lat="45.72868459004535" lon="8.494458332864557"><ele>345.0</ele><time>2026-04-11T15:01:41.999Z</time></trkpt><trkpt lat="45.728834436222186" lon="8.494486946349598"><ele>345.0</ele><time>2026-04-11T15:01:42.998Z</time></trkpt><trkpt lat="45.72898507349261" lon="8.494534687455532"><ele>345.0</ele><time>2026-04-11T15:01:43.998Z</time></trkpt><trkpt lat="45.729125327998815" lon="8.49457631860282"><ele>345.0</ele><time>2026-04-11T15:01:44.998Z</time></trkpt><trkpt lat="45.729235704715755" lon="8.49460749333529"><ele>345.0</ele><time>2026-04-11T15:01:45.998Z</time></trkpt><trkpt lat="45.72933870420611" lon="8.494637387779756"><ele>345.0</ele><time>2026-04-11T15:01:46.998Z</time></trkpt><trkpt lat="45.72944504762218" lon="8.49467103994732"><ele>345.6</ele><time>2026-04-11T15:01:47.998Z</time></trkpt><trkpt lat="45.729530048784646" lon="8.49470056464833"><ele>346.2</ele><time>2026-04-11T15:01:48.998Z</time></trkpt><trkpt lat="45.72961228259752" lon="8.49472218892214"><ele>346.79999999999995</ele><time>2026-04-11T15:01:49.998Z</time></trkpt><trkpt lat="45.72971340933124" lon="8.494746686326113"><ele>347.4</ele><time>2026-04-11T15:01:50.998Z</time></trkpt><trkpt lat="45.72980888605121" lon="8.494764006688532"><ele>348.0</ele><time>2026-04-11T15:01:51.998Z</time></trkpt><trkpt lat="45.729903278344366" lon="8.494817290799759"><ele>348.0</ele><time>2026-04-11T15:01:52.998Z</time></trkpt><trkpt lat="45.72999955957785" lon="8.494867907430482"><ele>348.0</ele><time>2026-04-11T15:01:53.998Z</time></trkpt><trkpt lat="45.73008326691923" lon="8.494915682971728"><ele>348.0</ele><time>2026-04-11T15:01:54.998Z</time></trkpt><trkpt lat="45.73018718559212" lon="8.494961373500475"><ele>348.0</ele><time>2026-04-11T15:01:55.998Z</time></trkpt><trkpt lat="45.730301319086806" lon="8.49501054349607"><ele>348.0</ele><time>2026-04-11T15:01:56.998Z</time></trkpt><trkpt lat="45.730415633806025" lon="8.495071674254744"><ele>348.79999999999995</ele><time>2026-04-11T15:01:57.998Z</time></trkpt><trkpt lat="45.73052241144986" lon="8.495132065703023"><ele>349.6</ele><time>2026-04-11T15:01:58.998Z</time></trkpt><trkpt lat="45.7306128999617" lon="8.49521014288369"><ele>350.4</ele><time>2026-04-11T15:01:59.998Z</time></trkpt><trkpt lat="45.730696745486746" lon="8.495315221922555"><ele>351.20000000000005</ele><time>2026-04-11T15:02:00.998Z</time></trkpt><trkpt lat="45.730785948260824" lon="8.495423372649476"><ele>352.0</ele><time>2026-04-11T15:02:01.998Z</time></trkpt><trkpt lat="45.73087206562791" lon="8.495514589603236"><ele>352.0</ele><time>2026-04-11T15:02:02.998Z</time></trkpt><trkpt lat="45.73094155536479" lon="8.495592851159868"><ele>352.0</ele><time>2026-04-11T15:02:03.998Z</time></trkpt><trkpt lat="45.731000908888255" lon="8.495658882610932"><ele>352.0</ele><time>2026-04-11T15:02:04.998Z</time></trkpt><trkpt lat="45.73106279413734" lon="8.495724620877732"><ele>352.0</ele><time>2026-04-11T15:02:05.998Z</time></trkpt><trkpt lat="45.73117928799411" lon="8.495839120552313"><ele>352.0</ele><time>2026-04-11T15:02:08Z</time></trkpt><trkpt lat="45.73122755421824" lon="8.495910278909959"><ele>352.66666666666663</ele><time>2026-04-11T15:02:09Z</time></trkpt><trkpt lat="45.73126336924245" lon="8.496068963833798"><ele>353.3333333333333</ele><time>2026-04-11T15:02:11Z</time></trkpt><trkpt lat="45.73125483955766" lon="8.496184898999536"><ele>354.0</ele><time>2026-04-11T15:02:12Z</time></trkpt><trkpt lat="45.731236395702346" lon="8.496292341245038"><ele>354.6666666666667</ele><time>2026-04-11T15:02:13Z</time></trkpt><trkpt lat="45.73122840226165" lon="8.496413646026044"><ele>355.33333333333337</ele><time>2026-04-11T15:02:14Z</time></trkpt><trkpt lat="45.73123315573531" lon="8.496536879372778"><ele>356.0</ele><time>2026-04-11T15:02:15Z</time></trkpt><trkpt lat="45.731249975535604" lon="8.496678112364911"><ele>354.6666666666667</ele><time>2026-04-11T15:02:16Z</time></trkpt><trkpt lat="45.731275264506905" lon="8.496821686313147"><ele>353.33333333333337</ele><time>2026-04-11T15:02:17Z</time></trkpt><trkpt lat="45.731303543644536" lon="8.496941543580606"><ele>352.0</ele><time>2026-04-11T15:02:18Z</time></trkpt><trkpt lat="45.73133146786009" lon="8.4970301111839"><ele>350.6666666666667</ele><time>2026-04-11T15:02:19Z</time></trkpt><trkpt lat="45.73135856836453" lon="8.497114578765787"><ele>349.3333333333333</ele><time>2026-04-11T15:02:20Z</time></trkpt><trkpt lat="45.73138353726023" lon="8.497224700786507"><ele>348.0</ele><time>2026-04-11T15:02:21Z</time></trkpt><trkpt lat="45.731386453564696" lon="8.497379481765806"><ele>347.4</ele><time>2026-04-11T15:02:23Z</time></trkpt><trkpt lat="45.73144857931015" lon="8.49762990730093"><ele>346.79999999999995</ele><time>2026-04-11T15:02:25Z</time></trkpt><trkpt lat="45.73144034151038" lon="8.497776577710722"><ele>346.2</ele><time>2026-04-11T15:02:26Z</time></trkpt><trkpt lat="45.731438256140684" lon="8.49790528038085"><ele>345.6</ele><time>2026-04-11T15:02:27Z</time></trkpt><trkpt lat="45.731443468296256" lon="8.497998976542357"><ele>345.0</ele><time>2026-04-11T15:02:28Z</time></trkpt><trkpt lat="45.73145029033362" lon="8.498104959336297"><ele>345.0</ele><time>2026-04-11T15:02:29Z</time></trkpt><trkpt lat="45.73143919167266" lon="8.498226288469457"><ele>345.0</ele><time>2026-04-11T15:02:30Z</time></trkpt><trkpt lat="45.7314304008267" lon="8.498325763686228"><ele>345.0</ele><time>2026-04-11T15:02:31Z</time></trkpt><trkpt lat="45.73138080132187" lon="8.498426649160864"><ele>345.0</ele><time>2026-04-11T15:02:32Z</time></trkpt><trkpt lat="45.731361865655984" lon="8.498556606369648"><ele>345.0</ele><time>2026-04-11T15:02:33Z</time></trkpt><trkpt lat="45.73135626898203" lon="8.498677880611055"><ele>345.0</ele><time>2026-04-11T15:02:34Z</time></trkpt><trkpt lat="45.73132907375691" lon="8.498817521108961"><ele>345.3333333333333</ele><time>2026-04-11T15:02:35Z</time></trkpt><trkpt lat="45.731336472444276" lon="8.498932842491824"><ele>345.6666666666667</ele><time>2026-04-11T15:02:36Z</time></trkpt><trkpt lat="45.731320153461986" lon="8.49905697639187"><ele>346.0</ele><time>2026-04-11T15:02:38Z</time></trkpt><trkpt lat="45.73123455970297" lon="8.499147798552587"><ele>346.33333333333337</ele><time>2026-04-11T15:02:52Z</time></trkpt><trkpt lat="45.731219160381116" lon="8.499249794335896"><ele>346.6666666666667</ele><time>2026-04-11T15:02:53Z</time></trkpt><trkpt lat="45.73121072495995" lon="8.499386702504644"><ele>347.0</ele><time>2026-04-11T15:02:54Z</time></trkpt><trkpt lat="45.73121910279426" lon="8.499533937596556"><ele>347.1666666666667</ele><time>2026-04-11T15:02:55Z</time></trkpt><trkpt lat="45.73119563343448" lon="8.499656874890192"><ele>347.33333333333337</ele><time>2026-04-11T15:02:56Z</time></trkpt><trkpt lat="45.73116611384629" lon="8.499737096731593"><ele>347.5</ele><time>2026-04-11T15:02:57Z</time></trkpt><trkpt lat="45.73112358080871" lon="8.499809751302024"><ele>347.6666666666667</ele><time>2026-04-11T15:02:59Z</time></trkpt><trkpt lat="45.73107710987202" lon="8.499874911909377"><ele>347.8333333333333</ele><time>2026-04-11T15:03:19.999Z</time></trkpt><trkpt lat="45.73118405208369" lon="8.500041431168453"><ele>348.0</ele><time>2026-04-11T15:03:22.999Z</time></trkpt><trkpt lat="45.7312261604084" lon="8.50017749209769"><ele>348.0</ele><time>2026-04-11T15:03:24.999Z</time></trkpt><trkpt lat="45.731333213188584" lon="8.500273133548216"><ele>348.0</ele><time>2026-04-11T15:03:26.999Z</time></trkpt><trkpt lat="45.73138537865881" lon="8.50033604534526"><ele>348.0</ele><time>2026-04-11T15:03:27.999Z</time></trkpt><trkpt lat="45.731275860274515" lon="8.500659729159901"><ele>348.0</ele><time>2026-04-11T15:03:28.999Z</time></trkpt><trkpt lat="45.73126670876995" lon="8.500766657216614"><ele>348.59999999999997</ele><time>2026-04-11T15:03:29.999Z</time></trkpt><trkpt lat="45.73126320576394" lon="8.500890499958354"><ele>349.2</ele><time>2026-04-11T15:03:31.999Z</time></trkpt><trkpt lat="45.73127201937918" lon="8.50104387981523"><ele>349.8</ele><time>2026-04-11T15:03:33.999Z</time></trkpt><trkpt lat="45.73127368496339" lon="8.501136539613581"><ele>350.4</ele><time>2026-04-11T15:03:34.999Z</time></trkpt><trkpt lat="45.731280610323736" lon="8.501283432774546"><ele>351.0</ele><time>2026-04-11T15:03:35.999Z</time></trkpt><trkpt lat="45.7312736317811" lon="8.501415301050308"><ele>351.3333333333333</ele><time>2026-04-11T15:03:36.999Z</time></trkpt><trkpt lat="45.731251487752886" lon="8.501542096105151"><ele>351.6666666666667</ele><time>2026-04-11T15:03:37.999Z</time></trkpt><trkpt lat="45.731210061013996" lon="8.501664300888443"><ele>352.0</ele><time>2026-04-11T15:03:38.999Z</time></trkpt><trkpt lat="45.73115098959406" lon="8.501777826329475"><ele>352.33333333333337</ele><time>2026-04-11T15:03:39.999Z</time></trkpt><trkpt lat="45.73110616502005" lon="8.501870131767149"><ele>352.6666666666667</ele><time>2026-04-11T15:03:40.999Z</time></trkpt><trkpt lat="45.73108256159489" lon="8.501962536826682"><ele>353.0</ele><time>2026-04-11T15:03:41.999Z</time></trkpt><trkpt lat="45.73105488466901" lon="8.502096019387045"><ele>353.59999999999997</ele><time>2026-04-11T15:03:42.999Z</time></trkpt><trkpt lat="45.73102486896816" lon="8.50222729982626"><ele>354.2</ele><time>2026-04-11T15:03:43.999Z</time></trkpt><trkpt lat="45.73101261578832" lon="8.502328706872186"><ele>354.8</ele><time>2026-04-11T15:03:44.999Z</time></trkpt><trkpt lat="45.73099246070952" lon="8.502495677789792"><ele>355.4</ele><time>2026-04-11T15:03:46.999Z</time></trkpt><trkpt lat="45.73097212529868" lon="8.502640218380222"><ele>356.0</ele><time>2026-04-11T15:03:47.999Z</time></trkpt><trkpt lat="45.73095117467577" lon="8.502756410917463"><ele>356.20000000000005</ele><time>2026-04-11T15:03:48.999Z</time></trkpt><trkpt lat="45.73092473516225" lon="8.502937493403843"><ele>356.40000000000003</ele><time>2026-04-11T15:03:50.999Z</time></trkpt><trkpt lat="45.73090380286222" lon="8.503098434983178"><ele>356.6</ele><time>2026-04-11T15:03:51.999Z</time></trkpt><trkpt lat="45.73091286171201" lon="8.503237590073423"><ele>356.8</ele><time>2026-04-11T15:03:52.999Z</time></trkpt><trkpt lat="45.73090578825035" lon="8.5033369106346"><ele>357.0</ele><time>2026-04-11T15:03:53.999Z</time></trkpt><trkpt lat="45.73089454437196" lon="8.503427144268608"><ele>357.0</ele><time>2026-04-11T15:03:54.999Z</time></trkpt><trkpt lat="45.73089173457485" lon="8.503532420217466"><ele>357.0</ele><time>2026-04-11T15:03:55.999Z</time></trkpt><trkpt lat="45.73090276109145" lon="8.503671005926098"><ele>357.0</ele><time>2026-04-11T15:03:56.999Z</time></trkpt><trkpt lat="45.73090984537862" lon="8.503788563127667"><ele>357.0</ele><time>2026-04-11T15:03:57.999Z</time></trkpt><trkpt lat="45.73091788777584" lon="8.503881065928493"><ele>357.0</ele><time>2026-04-11T15:03:58.999Z</time></trkpt><trkpt lat="45.73090477062245" lon="8.503998110628482"><ele>357.0</ele><time>2026-04-11T15:04:00.999Z</time></trkpt><trkpt lat="45.730900939718055" lon="8.504090452712292"><ele>357.6</ele><time>2026-04-11T15:04:01.999Z</time></trkpt><trkpt lat="45.7308916298043" lon="8.504228787175832"><ele>358.20000000000005</ele><time>2026-04-11T15:04:03.999Z</time></trkpt><trkpt lat="45.73090824486368" lon="8.50436503002105"><ele>358.8</ele><time>2026-04-11T15:04:05.999Z</time></trkpt><trkpt lat="45.73090211232691" lon="8.504511501446101"><ele>359.4</ele><time>2026-04-11T15:04:07.999Z</time></trkpt><trkpt lat="45.73088524639314" lon="8.504635219615164"><ele>360.0</ele><time>2026-04-11T15:04:08.999Z</time></trkpt><trkpt lat="45.73088312517738" lon="8.50477070889411"><ele>361.1666666666667</ele><time>2026-04-11T15:04:10.999Z</time></trkpt><trkpt lat="45.730890217239995" lon="8.504865068526383"><ele>362.3333333333333</ele><time>2026-04-11T15:04:11.999Z</time></trkpt><trkpt lat="45.73091707608207" lon="8.504978875155247"><ele>363.5</ele><time>2026-04-11T15:04:12.999Z</time></trkpt><trkpt lat="45.7309416662619" lon="8.505130250953512"><ele>364.66666666666663</ele><time>2026-04-11T15:04:15.001Z</time></trkpt><trkpt lat="45.73094466047379" lon="8.505245509105714"><ele>365.8333333333333</ele><time>2026-04-11T15:04:17.001Z</time></trkpt><trkpt lat="45.73091429657604" lon="8.505354018819583"><ele>367.0</ele><time>2026-04-11T15:04:19.001Z</time></trkpt><trkpt lat="45.730863089260765" lon="8.505500107002304"><ele>368.0</ele><time>2026-04-11T15:04:22.001Z</time></trkpt><trkpt lat="45.730813321291706" lon="8.505633183331017"><ele>369.0</ele><time>2026-04-11T15:04:24Z</time></trkpt><trkpt lat="45.73074188463684" lon="8.505699458820152"><ele>370.0</ele><time>2026-04-11T15:04:27Z</time></trkpt><trkpt lat="45.73066802974395" lon="8.50582474369728"><ele>371.0</ele><time>2026-04-11T15:04:29Z</time></trkpt><trkpt lat="45.73060813851992" lon="8.505910360229052"><ele>372.0</ele><time>2026-04-11T15:04:31Z</time></trkpt><trkpt lat="45.73055778287718" lon="8.506031142997092"><ele>372.0</ele><time>2026-04-11T15:04:33Z</time></trkpt><trkpt lat="45.730530253385965" lon="8.506146052824514"><ele>372.0</ele><time>2026-04-11T15:04:35Z</time></trkpt><trkpt lat="45.73051754681271" lon="8.50625036739474"><ele>372.0</ele><time>2026-04-11T15:04:37Z</time></trkpt><trkpt lat="45.73052054972812" lon="8.506399149569647"><ele>372.0</ele><time>2026-04-11T15:04:39Z</time></trkpt><trkpt lat="45.73053320601453" lon="8.50650295484296"><ele>372.0</ele><time>2026-04-11T15:04:40Z</time></trkpt><trkpt lat="45.73055851126868" lon="8.50665509800093"><ele>372.0</ele><time>2026-04-11T15:04:41Z</time></trkpt><trkpt lat="45.730553145948015" lon="8.50675508085031"><ele>372.3333333333333</ele><time>2026-04-11T15:04:42Z</time></trkpt><trkpt lat="45.73051995068559" lon="8.506873638144151"><ele>372.6666666666667</ele><time>2026-04-11T15:04:43Z</time></trkpt><trkpt lat="45.73049878662012" lon="8.506974932157668"><ele>373.0</ele><time>2026-04-11T15:04:43.999Z</time></trkpt><trkpt lat="45.730453426837954" lon="8.507102057266303"><ele>373.33333333333337</ele><time>2026-04-11T15:04:45.999Z</time></trkpt><trkpt lat="45.730448920387666" lon="8.507224160925567"><ele>373.6666666666667</ele><time>2026-04-11T15:04:47.999Z</time></trkpt><trkpt lat="45.730491284208505" lon="8.507345689226225"><ele>374.0</ele><time>2026-04-11T15:04:49.999Z</time></trkpt><trkpt lat="45.73054210286811" lon="8.507443009206487"><ele>374.0</ele><time>2026-04-11T15:04:51.999Z</time></trkpt><trkpt lat="45.73064138441708" lon="8.507439203380011"><ele>374.0</ele><time>2026-04-11T15:04:53.999Z</time></trkpt><trkpt lat="45.73074922496335" lon="8.507486913152395"><ele>374.0</ele><time>2026-04-11T15:04:55.999Z</time></trkpt><trkpt lat="45.73081168358597" lon="8.507535931777076"><ele>374.0</ele><time>2026-04-11T15:04:56.999Z</time></trkpt><trkpt lat="45.73087445872277" lon="8.507603399742205"><ele>374.0</ele><time>2026-04-11T15:05:03.999Z</time></trkpt><trkpt lat="45.730825222326054" lon="8.507730246874045"><ele>371.79999999999995</ele><time>2026-04-11T15:05:06.999Z</time></trkpt><trkpt lat="45.730946458054014" lon="8.507925853971633"><ele>369.59999999999997</ele><time>2026-04-11T15:05:07.999Z</time></trkpt><trkpt lat="45.73091982892568" lon="8.508040172976669"><ele>367.4</ele><time>2026-04-11T15:05:09.999Z</time></trkpt><trkpt lat="45.73090773230525" lon="8.508142140408793"><ele>365.2</ele><time>2026-04-11T15:05:10.999Z</time></trkpt><trkpt lat="45.73089946205163" lon="8.508268873023567"><ele>363.0</ele><time>2026-04-11T15:05:11.999Z</time></trkpt><trkpt lat="45.7309034661542" lon="8.508440548426112"><ele>363.0</ele><time>2026-04-11T15:05:12.999Z</time></trkpt><trkpt lat="45.73092740706452" lon="8.508625438575422"><ele>363.0</ele><time>2026-04-11T15:05:13.999Z</time></trkpt><trkpt lat="45.730988723827004" lon="8.508823901398122"><ele>363.0</ele><time>2026-04-11T15:05:14.999Z</time></trkpt><trkpt lat="45.731006436780234" lon="8.50894876153375"><ele>363.0</ele><time>2026-04-11T15:05:15.999Z</time></trkpt><trkpt lat="45.73103222078493" lon="8.509095438437285"><ele>362.59999999999997</ele><time>2026-04-11T15:05:16.999Z</time></trkpt><trkpt lat="45.731055856120356" lon="8.50923835888752"><ele>362.2</ele><time>2026-04-11T15:05:17.999Z</time></trkpt><trkpt lat="45.73108108009691" lon="8.509418904579453"><ele>361.8</ele><time>2026-04-11T15:05:18.999Z</time></trkpt><trkpt lat="45.73109181658996" lon="8.50955829611535"><ele>361.4</ele><time>2026-04-11T15:05:19.999Z</time></trkpt><trkpt lat="45.73109927809458" lon="8.509710660184545"><ele>361.0</ele><time>2026-04-11T15:05:20.999Z</time></trkpt><trkpt lat="45.73109833136713" lon="8.509848302073458"><ele>361.0</ele><time>2026-04-11T15:05:21.999Z</time></trkpt><trkpt lat="45.731095012938056" lon="8.509996153511842"><ele>361.0</ele><time>2026-04-11T15:05:22.999Z</time></trkpt><trkpt lat="45.73108112962441" lon="8.510186091843638"><ele>361.0</ele><time>2026-04-11T15:05:23.999Z</time></trkpt><trkpt lat="45.73105622030586" lon="8.51036298835022"><ele>361.0</ele><time>2026-04-11T15:05:24.999Z</time></trkpt><trkpt lat="45.73101632618945" lon="8.510552311679211"><ele>362.25</ele><time>2026-04-11T15:05:25.999Z</time></trkpt><trkpt lat="45.73095468056567" lon="8.510761265063332"><ele>363.5</ele><time>2026-04-11T15:05:26.999Z</time></trkpt><trkpt lat="45.73089335669787" lon="8.510926685381007"><ele>364.75</ele><time>2026-04-11T15:05:27.999Z</time></trkpt><trkpt lat="45.73083439085769" lon="8.511062461792278"><ele>366.0</ele><time>2026-04-11T15:05:28.999Z</time></trkpt><trkpt lat="45.730768607534955" lon="8.51118745142924"><ele>365.0</ele><time>2026-04-11T15:05:29.999Z</time></trkpt><trkpt lat="45.73070298906696" lon="8.511312796924289"><ele>364.0</ele><time>2026-04-11T15:05:30.999Z</time></trkpt><trkpt lat="45.73062202930159" lon="8.511456862510334"><ele>363.0</ele><time>2026-04-11T15:05:31.999Z</time></trkpt><trkpt lat="45.7305359599065" lon="8.511606871233523"><ele>362.0</ele><time>2026-04-11T15:05:32.999Z</time></trkpt><trkpt lat="45.73042779539439" lon="8.511755616428184"><ele>362.0</ele><time>2026-04-11T15:05:33.999Z</time></trkpt><trkpt lat="45.73033478301863" lon="8.511892329947754"><ele>362.0</ele><time>2026-04-11T15:05:34.999Z</time></trkpt><trkpt lat="45.73024648996911" lon="8.512022106919446"><ele>362.0</ele><time>2026-04-11T15:05:35.999Z</time></trkpt><trkpt lat="45.73015672315071" lon="8.512154050087405"><ele>362.0</ele><time>2026-04-11T15:05:36.999Z</time></trkpt><trkpt lat="45.73005499970008" lon="8.512303567636927"><ele>362.0</ele><time>2026-04-11T15:05:37.999Z</time></trkpt><trkpt lat="45.7299603707554" lon="8.512442657390409"><ele>362.0</ele><time>2026-04-11T15:05:38.999Z</time></trkpt><trkpt lat="45.72989200551964" lon="8.512546181860083"><ele>362.0</ele><time>2026-04-11T15:05:39.999Z</time></trkpt><trkpt lat="45.72983296018712" lon="8.512636663552195"><ele>362.0</ele><time>2026-04-11T15:05:40.999Z</time></trkpt><trkpt lat="45.72976309448696" lon="8.512743726468523"><ele>362.0</ele><time>2026-04-11T15:05:41.999Z</time></trkpt><trkpt lat="45.729674644210164" lon="8.512879268555333"><ele>363.0</ele><time>2026-04-11T15:05:42.999Z</time></trkpt><trkpt lat="45.72956664442087" lon="8.513044768565521"><ele>364.0</ele><time>2026-04-11T15:05:43.999Z</time></trkpt><trkpt lat="45.72947680990445" lon="8.513182787171665"><ele>365.0</ele><time>2026-04-11T15:05:44.999Z</time></trkpt><trkpt lat="45.72939793986989" lon="8.513307215799395"><ele>366.0</ele><time>2026-04-11T15:05:45.999Z</time></trkpt><trkpt lat="45.729318355462624" lon="8.513432771446753"><ele>366.0</ele><time>2026-04-11T15:05:46.999Z</time></trkpt><trkpt lat="45.729228473886934" lon="8.513574572333996"><ele>366.0</ele><time>2026-04-11T15:05:47.999Z</time></trkpt><trkpt lat="45.729150694177335" lon="8.51369728083155"><ele>366.0</ele><time>2026-04-11T15:05:48.999Z</time></trkpt><trkpt lat="45.72907404749736" lon="8.513817447796066"><ele>366.0</ele><time>2026-04-11T15:05:49.999Z</time></trkpt><trkpt lat="45.72899827955888" lon="8.51393794008247"><ele>364.25</ele><time>2026-04-11T15:05:50.999Z</time></trkpt><trkpt lat="45.728917820458385" lon="8.514068406432163"><ele>362.5</ele><time>2026-04-11T15:05:51.999Z</time></trkpt><trkpt lat="45.72883344531683" lon="8.514205222693814"><ele>360.75</ele><time>2026-04-11T15:05:52.999Z</time></trkpt><trkpt lat="45.72875674354563" lon="8.514329999000399"><ele>359.0</ele><time>2026-04-11T15:05:53.999Z</time></trkpt><trkpt lat="45.72868170461659" lon="8.514451040887606"><ele>359.0</ele><time>2026-04-11T15:05:54.999Z</time></trkpt><trkpt lat="45.72862134616987" lon="8.514548251529245"><ele>359.0</ele><time>2026-04-11T15:05:55.999Z</time></trkpt><trkpt lat="45.72857879358845" lon="8.514616784858575"><ele>359.0</ele><time>2026-04-11T15:05:56.999Z</time></trkpt><trkpt lat="45.728527386802085" lon="8.514699578337517"><ele>359.0</ele><time>2026-04-11T15:05:57.999Z</time></trkpt><trkpt lat="45.72848162057733" lon="8.51477328739537"><ele>359.0</ele><time>2026-04-11T15:05:58.999Z</time></trkpt><trkpt lat="45.728435018531414" lon="8.514848342579494"><ele>359.0</ele><time>2026-04-11T15:05:59.999Z</time></trkpt><trkpt lat="45.72838115268411" lon="8.514935096493444"><ele>359.5</ele><time>2026-04-11T15:06:00.999Z</time></trkpt><trkpt lat="45.72830865337472" lon="8.51505186065654"><ele>360.0</ele><time>2026-04-11T15:06:01.999Z</time></trkpt><trkpt lat="45.72822040934556" lon="8.515193982575783"><ele>360.5</ele><time>2026-04-11T15:06:02.999Z</time></trkpt><trkpt lat="45.72813365748431" lon="8.515333701279456"><ele>361.0</ele><time>2026-04-11T15:06:03.999Z</time></trkpt><trkpt lat="45.728058782838" lon="8.515452941023133"><ele>360.75</ele><time>2026-04-11T15:06:04.999Z</time></trkpt><trkpt lat="45.72796303738434" lon="8.51560460405671"><ele>360.5</ele><time>2026-04-11T15:06:05.999Z</time></trkpt><trkpt lat="45.727861078404345" lon="8.515766109464181"><ele>360.25</ele><time>2026-04-11T15:06:06.999Z</time></trkpt><trkpt lat="45.72776514484112" lon="8.515918070482769"><ele>360.0</ele><time>2026-04-11T15:06:07.999Z</time></trkpt><trkpt lat="45.72767256254114" lon="8.516064723022934"><ele>360.0</ele><time>2026-04-11T15:06:08.999Z</time></trkpt><trkpt lat="45.727583085976406" lon="8.51620645600147"><ele>360.0</ele><time>2026-04-11T15:06:09.999Z</time></trkpt><trkpt lat="45.72749226592454" lon="8.51635031708364"><ele>360.0</ele><time>2026-04-11T15:06:10.998Z</time></trkpt><trkpt lat="45.72741258458023" lon="8.516476534201669"><ele>360.0</ele><time>2026-04-11T15:06:11.998Z</time></trkpt><trkpt lat="45.72731555124596" lon="8.516630237282783"><ele>358.6</ele><time>2026-04-11T15:06:12.998Z</time></trkpt><trkpt lat="45.72721922158382" lon="8.516782825712992"><ele>357.2</ele><time>2026-04-11T15:06:13.998Z</time></trkpt><trkpt lat="45.72714253518793" lon="8.516904298758718"><ele>355.79999999999995</ele><time>2026-04-11T15:06:14.998Z</time></trkpt><trkpt lat="45.72707244069497" lon="8.517015330092397"><ele>354.4</ele><time>2026-04-11T15:06:15.998Z</time></trkpt><trkpt lat="45.72701471066076" lon="8.517106775842072"><ele>353.0</ele><time>2026-04-11T15:06:16.998Z</time></trkpt><trkpt lat="45.72696084901153" lon="8.517192739093458"><ele>353.0</ele><time>2026-04-11T15:06:17.998Z</time></trkpt><trkpt lat="45.726904567974366" lon="8.517278155558298"><ele>353.0</ele><time>2026-04-11T15:06:18.998Z</time></trkpt><trkpt lat="45.726852090512416" lon="8.51735779943585"><ele>353.0</ele><time>2026-04-11T15:06:20.001Z</time></trkpt><trkpt lat="45.726807261595674" lon="8.517425840764696"><ele>353.0</ele><time>2026-04-11T15:06:21.001Z</time></trkpt><trkpt lat="45.72671845934202" lon="8.517560614009259"><ele>353.0</ele><time>2026-04-11T15:06:22.001Z</time></trkpt><trkpt lat="45.72666606924196" lon="8.517639026749457"><ele>353.0</ele><time>2026-04-11T15:06:23.001Z</time></trkpt><trkpt lat="45.72661127615919" lon="8.51771871112487"><ele>353.0</ele><time>2026-04-11T15:06:24.001Z</time></trkpt><trkpt lat="45.72653312867713" lon="8.517832359283275"><ele>353.0</ele><time>2026-04-11T15:06:25.001Z</time></trkpt><trkpt lat="45.72645467709905" lon="8.517946449699702"><ele>353.0</ele><time>2026-04-11T15:06:26.001Z</time></trkpt><trkpt lat="45.72638321618448" lon="8.518050373752938"><ele>353.0</ele><time>2026-04-11T15:06:27.001Z</time></trkpt><trkpt lat="45.72632347887305" lon="8.518137581718259"><ele>353.0</ele><time>2026-04-11T15:06:28.001Z</time></trkpt><trkpt lat="45.72625760906442" lon="8.518233769336703"><ele>353.4</ele><time>2026-04-11T15:06:29.001Z</time></trkpt><trkpt lat="45.72618794637668" lon="8.51833552695304"><ele>353.79999999999995</ele><time>2026-04-11T15:06:30.001Z</time></trkpt><trkpt lat="45.72612620788049" lon="8.518425003065639"><ele>354.2</ele><time>2026-04-11T15:06:31.001Z</time></trkpt><trkpt lat="45.72605343044675" lon="8.518527025174652"><ele>354.6</ele><time>2026-04-11T15:06:32.001Z</time></trkpt><trkpt lat="45.72597209104768" lon="8.518639733699613"><ele>355.0</ele><time>2026-04-11T15:06:33.001Z</time></trkpt><trkpt lat="45.72588884541211" lon="8.518755083571172"><ele>353.75</ele><time>2026-04-11T15:06:34.001Z</time></trkpt><trkpt lat="45.72581940391234" lon="8.518851305677655"><ele>352.5</ele><time>2026-04-11T15:06:35.001Z</time></trkpt><trkpt lat="45.725728687220794" lon="8.518977007885935"><ele>351.25</ele><time>2026-04-11T15:06:36.001Z</time></trkpt><trkpt lat="45.725619228503604" lon="8.519122196456648"><ele>350.0</ele><time>2026-04-11T15:06:37.001Z</time></trkpt><trkpt lat="45.72552867135089" lon="8.51924121388984"><ele>350.0</ele><time>2026-04-11T15:06:38Z</time></trkpt><trkpt lat="45.72544943863665" lon="8.519345347843396"><ele>350.0</ele><time>2026-04-11T15:06:39Z</time></trkpt><trkpt lat="45.72539132772756" lon="8.519421721840166"><ele>350.0</ele><time>2026-04-11T15:06:40Z</time></trkpt><trkpt lat="45.72532337654146" lon="8.51945712348947"><ele>350.0</ele><time>2026-04-11T15:06:43Z</time></trkpt><trkpt lat="45.72517281856095" lon="8.51937192245366"><ele>350.0</ele><time>2026-04-11T15:06:45Z</time></trkpt><trkpt lat="45.725114895886136" lon="8.519523921368318"><ele>350.0</ele><time>2026-04-11T15:06:47Z</time></trkpt><trkpt lat="45.725057525558135" lon="8.519579038819849"><ele>350.0</ele><time>2026-04-11T15:06:48Z</time></trkpt><trkpt lat="45.72510186201177" lon="8.519792947452766"><ele>350.0</ele><time>2026-04-11T15:06:49Z</time></trkpt><trkpt lat="45.7250317959883" lon="8.51988014018066"><ele>350.0</ele><time>2026-04-11T15:06:51Z</time></trkpt><trkpt lat="45.72497483365662" lon="8.51995102620577"><ele>350.0</ele><time>2026-04-11T15:06:52Z</time></trkpt><trkpt lat="45.72488857973319" lon="8.52005652135674"><ele>350.0</ele><time>2026-04-11T15:06:53Z</time></trkpt><trkpt lat="45.72480160545941" lon="8.520161794594578"><ele>350.0</ele><time>2026-04-11T15:06:54Z</time></trkpt><trkpt lat="45.7246957002563" lon="8.520289981720401"><ele>350.0</ele><time>2026-04-11T15:06:55Z</time></trkpt><trkpt lat="45.724599170243714" lon="8.520406821161947"><ele>350.0</ele><time>2026-04-11T15:06:56Z</time></trkpt><trkpt lat="45.72448730160212" lon="8.520542226405365"><ele>349.33333333333337</ele><time>2026-04-11T15:06:57Z</time></trkpt><trkpt lat="45.724376282465094" lon="8.520676252487075"><ele>348.6666666666667</ele><time>2026-04-11T15:06:58Z</time></trkpt><trkpt lat="45.72426020371737" lon="8.520809513517996"><ele>348.0</ele><time>2026-04-11T15:06:59Z</time></trkpt><trkpt lat="45.72413521160591" lon="8.520953007290029"><ele>348.0</ele><time>2026-04-11T15:07:00Z</time></trkpt><trkpt lat="45.72401931741638" lon="8.521085905546109"><ele>348.0</ele><time>2026-04-11T15:07:01Z</time></trkpt><trkpt lat="45.72391937037422" lon="8.521199049948311"><ele>348.0</ele><time>2026-04-11T15:07:02Z</time></trkpt><trkpt lat="45.723804154647766" lon="8.52132947919362"><ele>348.0</ele><time>2026-04-11T15:07:03Z</time></trkpt><trkpt lat="45.72368446818565" lon="8.521464969482087"><ele>346.75</ele><time>2026-04-11T15:07:04Z</time></trkpt><trkpt lat="45.72355542763457" lon="8.521607979132325"><ele>345.5</ele><time>2026-04-11T15:07:05Z</time></trkpt><trkpt lat="45.72344527130862" lon="8.521729793220713"><ele>344.25</ele><time>2026-04-11T15:07:06Z</time></trkpt><trkpt lat="45.72334430886699" lon="8.521841440431864"><ele>343.0</ele><time>2026-04-11T15:07:07Z</time></trkpt><trkpt lat="45.72323969226694" lon="8.52195712851563"><ele>341.0</ele><time>2026-04-11T15:07:08Z</time></trkpt><trkpt lat="45.72311810761421" lon="8.522091580369139"><ele>339.0</ele><time>2026-04-11T15:07:09Z</time></trkpt><trkpt lat="45.722995494408515" lon="8.52222716964701"><ele>337.0</ele><time>2026-04-11T15:07:10Z</time></trkpt><trkpt lat="45.72287211855127" lon="8.522363602281736"><ele>337.0</ele><time>2026-04-11T15:07:11Z</time></trkpt><trkpt lat="45.72275609885303" lon="8.522491900268552"><ele>337.0</ele><time>2026-04-11T15:07:12Z</time></trkpt><trkpt lat="45.72264151558395" lon="8.522618609788454"><ele>337.0</ele><time>2026-04-11T15:07:13Z</time></trkpt><trkpt lat="45.72253128176783" lon="8.522740509569486"><ele>337.0</ele><time>2026-04-11T15:07:14Z</time></trkpt><trkpt lat="45.72244370528445" lon="8.522837354205551"><ele>336.20000000000005</ele><time>2026-04-11T15:07:15Z</time></trkpt><trkpt lat="45.7223652647107" lon="8.522924096091781"><ele>335.4</ele><time>2026-04-11T15:07:16Z</time></trkpt><trkpt lat="45.72227948023845" lon="8.523018959081476"><ele>334.6</ele><time>2026-04-11T15:07:17Z</time></trkpt><trkpt lat="45.722183347983055" lon="8.523125264931037"><ele>333.79999999999995</ele><time>2026-04-11T15:07:18Z</time></trkpt><trkpt lat="45.72209979651825" lon="8.523217936589244"><ele>333.0</ele><time>2026-04-11T15:07:19Z</time></trkpt><trkpt lat="45.72201708885656" lon="8.523310525228446"><ele>333.0</ele><time>2026-04-11T15:07:20Z</time></trkpt><trkpt lat="45.7219314425581" lon="8.52340641008495"><ele>333.0</ele><time>2026-04-11T15:07:21Z</time></trkpt><trkpt lat="45.721855656765726" lon="8.523491249967758"><ele>333.0</ele><time>2026-04-11T15:07:22Z</time></trkpt><trkpt lat="45.72177314118984" lon="8.523583623604072"><ele>333.0</ele><time>2026-04-11T15:07:23Z</time></trkpt><trkpt lat="45.72169234617212" lon="8.52367407105935"><ele>333.0</ele><time>2026-04-11T15:07:24Z</time></trkpt><trkpt lat="45.7216182373185" lon="8.523757033672208"><ele>333.2</ele><time>2026-04-11T15:07:25Z</time></trkpt><trkpt lat="45.721536052454915" lon="8.52385157889781"><ele>333.4</ele><time>2026-04-11T15:07:26Z</time></trkpt><trkpt lat="45.721461833143614" lon="8.52393674362816"><ele>333.59999999999997</ele><time>2026-04-11T15:07:27Z</time></trkpt><trkpt lat="45.72138715211363" lon="8.524022110797803"><ele>333.79999999999995</ele><time>2026-04-11T15:07:28Z</time></trkpt><trkpt lat="45.72130925715774" lon="8.524111151706387"><ele>334.0</ele><time>2026-04-11T15:07:29Z</time></trkpt><trkpt lat="45.72124426070408" lon="8.524185448516759"><ele>334.0</ele><time>2026-04-11T15:07:29.999Z</time></trkpt><trkpt lat="45.72119477130724" lon="8.524242262047933"><ele>334.0</ele><time>2026-04-11T15:07:30.999Z</time></trkpt><trkpt lat="45.7210860079721" lon="8.524367252347023"><ele>334.0</ele><time>2026-04-11T15:07:32.999Z</time></trkpt><trkpt lat="45.72101237061834" lon="8.524451876047335"><ele>334.0</ele><time>2026-04-11T15:07:33.999Z</time></trkpt><trkpt lat="45.720929794987384" lon="8.524546771581111"><ele>334.0</ele><time>2026-04-11T15:07:34.999Z</time></trkpt><trkpt lat="45.72084252058569" lon="8.52464706687648"><ele>333.79999999999995</ele><time>2026-04-11T15:07:35.999Z</time></trkpt><trkpt lat="45.720760360539366" lon="8.524741838237778"><ele>333.59999999999997</ele><time>2026-04-11T15:07:36.999Z</time></trkpt><trkpt lat="45.720673417873066" lon="8.524843943953442"><ele>333.4</ele><time>2026-04-11T15:07:37.999Z</time></trkpt><trkpt lat="45.720588239803796" lon="8.52494468315162"><ele>333.2</ele><time>2026-04-11T15:07:38.999Z</time></trkpt><trkpt lat="45.72050696356565" lon="8.525044985059745"><ele>333.0</ele><time>2026-04-11T15:07:39.999Z</time></trkpt><trkpt lat="45.72041781220163" lon="8.525158898157711"><ele>333.0</ele><time>2026-04-11T15:07:40.999Z</time></trkpt><trkpt lat="45.72032536826358" lon="8.525272485477466"><ele>333.0</ele><time>2026-04-11T15:07:41.999Z</time></trkpt><trkpt lat="45.72023412342656" lon="8.525386253445973"><ele>333.0</ele><time>2026-04-11T15:07:42.999Z</time></trkpt><trkpt lat="45.72014955338179" lon="8.525492783673819"><ele>333.0</ele><time>2026-04-11T15:07:43.999Z</time></trkpt><trkpt lat="45.72007378235759" lon="8.525590566594815"><ele>332.4</ele><time>2026-04-11T15:07:44.999Z</time></trkpt><trkpt lat="45.720000678123235" lon="8.525686061766805"><ele>331.79999999999995</ele><time>2026-04-11T15:07:45.999Z</time></trkpt><trkpt lat="45.71993236908078" lon="8.52577755661507"><ele>331.2</ele><time>2026-04-11T15:07:46.999Z</time></trkpt><trkpt lat="45.719864063779646" lon="8.52587040377541"><ele>330.6</ele><time>2026-04-11T15:07:47.999Z</time></trkpt><trkpt lat="45.719797341356866" lon="8.525961099305574"><ele>330.0</ele><time>2026-04-11T15:07:48.999Z</time></trkpt><trkpt lat="45.71974123779377" lon="8.52603736067183"><ele>330.0</ele><time>2026-04-11T15:07:49.999Z</time></trkpt><trkpt lat="45.71968670036111" lon="8.526112737918643"><ele>330.0</ele><time>2026-04-11T15:07:50.999Z</time></trkpt><trkpt lat="45.719617079152904" lon="8.526209146967688"><ele>330.0</ele><time>2026-04-11T15:07:51.999Z</time></trkpt><trkpt lat="45.719552846784254" lon="8.526298093773244"><ele>330.0</ele><time>2026-04-11T15:07:52.999Z</time></trkpt><trkpt lat="45.71947797595288" lon="8.526401772390912"><ele>330.0</ele><time>2026-04-11T15:07:53.999Z</time></trkpt><trkpt lat="45.71941317819887" lon="8.52649621774774"><ele>330.2</ele><time>2026-04-11T15:07:54.999Z</time></trkpt><trkpt lat="45.71934961022389" lon="8.526588726935227"><ele>330.4</ele><time>2026-04-11T15:07:55.999Z</time></trkpt><trkpt lat="45.71926987204841" lon="8.52670588807045"><ele>330.6</ele><time>2026-04-11T15:07:56.999Z</time></trkpt><trkpt lat="45.719193361419926" lon="8.52681960859755"><ele>330.8</ele><time>2026-04-11T15:07:57.999Z</time></trkpt><trkpt lat="45.719124443005164" lon="8.526922044516436"><ele>331.0</ele><time>2026-04-11T15:07:58.999Z</time></trkpt><trkpt lat="45.719064499221254" lon="8.52701336813528"><ele>330.0</ele><time>2026-04-11T15:07:59.999Z</time></trkpt><trkpt lat="45.719016398421445" lon="8.527087342063142"><ele>329.0</ele><time>2026-04-11T15:08:00.999Z</time></trkpt><trkpt lat="45.718940433873705" lon="8.527204167449872"><ele>328.0</ele><time>2026-04-11T15:08:01.999Z</time></trkpt><trkpt lat="45.71887431059831" lon="8.527306961512076"><ele>327.0</ele><time>2026-04-11T15:08:02.999Z</time></trkpt><trkpt lat="45.71882040932233" lon="8.527391870332753"><ele>326.0</ele><time>2026-04-11T15:08:03.999Z</time></trkpt><trkpt lat="45.71876130977672" lon="8.527484967813066"><ele>325.0</ele><time>2026-04-11T15:08:05.999Z</time></trkpt><trkpt lat="45.718676744430624" lon="8.527621210630945"><ele>325.0</ele><time>2026-04-11T15:08:09.999Z</time></trkpt><trkpt lat="45.71861497740655" lon="8.527724071571498"><ele>325.0</ele><time>2026-04-11T15:08:10.999Z</time></trkpt><trkpt lat="45.718553271358964" lon="8.527828098338658"><ele>325.0</ele><time>2026-04-11T15:08:11.999Z</time></trkpt><trkpt lat="45.71848929135949" lon="8.527937339013663"><ele>325.0</ele><time>2026-04-11T15:08:12.999Z</time></trkpt><trkpt lat="45.71842880741758" lon="8.528041680091405"><ele>325.0</ele><time>2026-04-11T15:08:13.999Z</time></trkpt><trkpt lat="45.718375171703" lon="8.52813800819633"><ele>325.2</ele><time>2026-04-11T15:08:14.999Z</time></trkpt><trkpt lat="45.71831305777901" lon="8.528250369569054"><ele>325.4</ele><time>2026-04-11T15:08:15.999Z</time></trkpt><trkpt lat="45.718251624556096" lon="8.528363138117731"><ele>325.6</ele><time>2026-04-11T15:08:16.999Z</time></trkpt><trkpt lat="45.71819353183336" lon="8.528470832115413"><ele>325.8</ele><time>2026-04-11T15:08:17.999Z</time></trkpt><trkpt lat="45.71813223005998" lon="8.528566423410608"><ele>326.0</ele><time>2026-04-11T15:08:18.999Z</time></trkpt><trkpt lat="45.71806088928103" lon="8.528674580242775"><ele>326.0</ele><time>2026-04-11T15:08:19.999Z</time></trkpt><trkpt lat="45.71798995658617" lon="8.528777557973509"><ele>326.0</ele><time>2026-04-11T15:08:20.999Z</time></trkpt><trkpt lat="45.71791119510322" lon="8.528888156195197"><ele>326.0</ele><time>2026-04-11T15:08:21.999Z</time></trkpt><trkpt lat="45.717837358534226" lon="8.528984568663452"><ele>326.0</ele><time>2026-04-11T15:08:22.999Z</time></trkpt><trkpt lat="45.717331256631674" lon="8.528628197322117"><ele>325.6666666666667</ele><time>2026-04-11T15:08:23.999Z</time></trkpt><trkpt lat="45.71725323590195" lon="8.528692935257117"><ele>325.33333333333337</ele><time>2026-04-11T15:08:24.999Z</time></trkpt><trkpt lat="45.717178181728904" lon="8.528744190813157"><ele>325.0</ele><time>2026-04-11T15:08:26.001Z</time></trkpt><trkpt lat="45.71711924183806" lon="8.52878550588756"><ele>324.6666666666667</ele><time>2026-04-11T15:08:27.001Z</time></trkpt><trkpt lat="45.71705173410267" lon="8.528830458919815"><ele>324.3333333333333</ele><time>2026-04-11T15:08:28.001Z</time></trkpt><trkpt lat="45.71697888267066" lon="8.528871078880345"><ele>324.0</ele><time>2026-04-11T15:08:29.001Z</time></trkpt><trkpt lat="45.716879229048374" lon="8.52894045309593"><ele>325.5</ele><time>2026-04-11T15:08:30.001Z</time></trkpt><trkpt lat="45.71675147400829" lon="8.529027782641668"><ele>327.0</ele><time>2026-04-11T15:08:31.001Z</time></trkpt><trkpt lat="45.71663442427252" lon="8.529111616667162"><ele>328.5</ele><time>2026-04-11T15:08:32.001Z</time></trkpt><trkpt lat="45.71652799868421" lon="8.52920136728261"><ele>330.0</ele><time>2026-04-11T15:08:33.001Z</time></trkpt><trkpt lat="45.71640535857428" lon="8.529279181575383"><ele>330.0</ele><time>2026-04-11T15:08:34.001Z</time></trkpt><trkpt lat="45.71629037432256" lon="8.529342509539639"><ele>330.0</ele><time>2026-04-11T15:08:35.001Z</time></trkpt><trkpt lat="45.71618164236184" lon="8.529422405684684"><ele>330.0</ele><time>2026-04-11T15:08:36.001Z</time></trkpt><trkpt lat="45.71607501410315" lon="8.529507645372593"><ele>330.0</ele><time>2026-04-11T15:08:37.001Z</time></trkpt><trkpt lat="45.715952616751856" lon="8.529580668429638"><ele>330.0</ele><time>2026-04-11T15:08:38.001Z</time></trkpt><trkpt lat="45.71583104496239" lon="8.52965750889386"><ele>330.0</ele><time>2026-04-11T15:08:39.001Z</time></trkpt><trkpt lat="45.71575519104868" lon="8.529697843315342"><ele>330.0</ele><time>2026-04-11T15:08:40.001Z</time></trkpt><trkpt lat="45.715693362143476" lon="8.529761930872708"><ele>330.0</ele><time>2026-04-11T15:08:41.001Z</time></trkpt><trkpt lat="45.71565985558891" lon="8.52984179810824"><ele>330.0</ele><time>2026-04-11T15:08:42.001Z</time></trkpt><trkpt lat="45.715583261203236" lon="8.529967327658476"><ele>330.0</ele><time>2026-04-11T15:08:43.001Z</time></trkpt><trkpt lat="45.71549727371346" lon="8.530058676340545"><ele>330.0</ele><time>2026-04-11T15:08:44.001Z</time></trkpt><trkpt lat="45.71543637957657" lon="8.530105118158437"><ele>330.0</ele><time>2026-04-11T15:08:45.001Z</time></trkpt><trkpt lat="45.715368913577166" lon="8.530163335100045"><ele>330.0</ele><time>2026-04-11T15:08:46.001Z</time></trkpt><trkpt lat="45.715308665846344" lon="8.530238575476318"><ele>330.0</ele><time>2026-04-11T15:08:47.001Z</time></trkpt><trkpt lat="45.71525042392313" lon="8.53032856743593"><ele>330.0</ele><time>2026-04-11T15:08:48.001Z</time></trkpt><trkpt lat="45.71516634383637" lon="8.53037234978266"><ele>329.2</ele><time>2026-04-11T15:08:50.001Z</time></trkpt><trkpt lat="45.715176784916316" lon="8.530509508322414"><ele>328.4</ele><time>2026-04-11T15:08:53.001Z</time></trkpt><trkpt lat="45.71526824891501" lon="8.53064498204712"><ele>327.6</ele><time>2026-04-11T15:08:55.001Z</time></trkpt><trkpt lat="45.71532861390032" lon="8.530737439297244"><ele>326.8</ele><time>2026-04-11T15:08:56.001Z</time></trkpt><trkpt lat="45.71539787848889" lon="8.530842993213591"><ele>326.0</ele><time>2026-04-11T15:08:57.001Z</time></trkpt><trkpt lat="45.71545248406891" lon="8.53092258145911"><ele>325.6</ele><time>2026-04-11T15:08:58.001Z</time></trkpt><trkpt lat="45.71550965981396" lon="8.531025663160092"><ele>325.20000000000005</ele><time>2026-04-11T15:08:59.001Z</time></trkpt><trkpt lat="45.7155656145443" lon="8.531109776912919"><ele>324.79999999999995</ele><time>2026-04-11T15:09:00Z</time></trkpt><trkpt lat="45.71561059048052" lon="8.531185066785305"><ele>324.4</ele><time>2026-04-11T15:09:01Z</time></trkpt><trkpt lat="45.71569214239706" lon="8.531309589773498"><ele>324.0</ele><time>2026-04-11T15:09:03Z</time></trkpt><trkpt lat="45.715753100828515" lon="8.531404849117072"><ele>323.5</ele><time>2026-04-11T15:09:05Z</time></trkpt><trkpt lat="45.71576750745797" lon="8.531512717857865"><ele>323.0</ele><time>2026-04-11T15:09:07Z</time></trkpt><trkpt lat="45.71574510589911" lon="8.531600989330062"><ele>322.5</ele><time>2026-04-11T15:09:09Z</time></trkpt><trkpt lat="45.71568600085589" lon="8.531736174499247"><ele>322.0</ele><time>2026-04-11T15:09:11Z</time></trkpt><trkpt lat="45.7156264736484" lon="8.531819365802605"><ele>321.5</ele><time>2026-04-11T15:09:12Z</time></trkpt><trkpt lat="45.715579295120236" lon="8.531889653908244"><ele>321.0</ele><time>2026-04-11T15:09:13Z</time></trkpt><trkpt lat="45.71552934594594" lon="8.531952417711068"><ele>321.0</ele><time>2026-04-11T15:09:14Z</time></trkpt><trkpt lat="45.71545570266865" lon="8.532059875735392"><ele>321.0</ele><time>2026-04-11T15:09:16Z</time></trkpt><trkpt lat="45.71540959669147" lon="8.53217280556942"><ele>321.0</ele><time>2026-04-11T15:09:18Z</time></trkpt><trkpt lat="45.7153870580043" lon="8.532257508500612"><ele>321.0</ele><time>2026-04-11T15:09:19Z</time></trkpt><trkpt lat="45.715292886046285" lon="8.532401745703257"><ele>321.0</ele><time>2026-04-11T15:09:21Z</time></trkpt><trkpt lat="45.71521635860879" lon="8.532473875183356"><ele>321.20000000000005</ele><time>2026-04-11T15:09:22Z</time></trkpt><trkpt lat="45.71512877302846" lon="8.532567035318388"><ele>321.40000000000003</ele><time>2026-04-11T15:09:23Z</time></trkpt><trkpt lat="45.715037559442166" lon="8.5326890582726"><ele>321.6</ele><time>2026-04-11T15:09:25Z</time></trkpt><trkpt lat="45.714957211930354" lon="8.532814541692092"><ele>321.8</ele><time>2026-04-11T15:09:26Z</time></trkpt><trkpt lat="45.714896271832615" lon="8.532906033368567"><ele>322.0</ele><time>2026-04-11T15:09:27Z</time></trkpt><trkpt lat="45.71483737871234" lon="8.533000622974399"><ele>321.66666666666663</ele><time>2026-04-11T15:09:28Z</time></trkpt><trkpt lat="45.714785459350054" lon="8.533085165530023"><ele>321.3333333333333</ele><time>2026-04-11T15:09:29Z</time></trkpt><trkpt lat="45.71474229822886" lon="8.533171147928146"><ele>321.0</ele><time>2026-04-11T15:09:31Z</time></trkpt><trkpt lat="45.7146559215267" lon="8.533167250274422"><ele>320.6666666666667</ele><time>2026-04-11T15:09:34Z</time></trkpt><trkpt lat="45.714589871409686" lon="8.53310670851921"><ele>320.33333333333337</ele><time>2026-04-11T15:09:35Z</time></trkpt><trkpt lat="45.714520681741625" lon="8.533081468281393"><ele>320.0</ele><time>2026-04-11T15:09:36Z</time></trkpt><trkpt lat="45.714456261719775" lon="8.533065577709875"><ele>320.4</ele><time>2026-04-11T15:09:37Z</time></trkpt><trkpt lat="45.71438004519182" lon="8.533049052779345"><ele>320.8</ele><time>2026-04-11T15:09:38Z</time></trkpt><trkpt lat="45.71429605637439" lon="8.533059018429437"><ele>321.20000000000005</ele><time>2026-04-11T15:09:40Z</time></trkpt><trkpt lat="45.71419682509118" lon="8.533186788044823"><ele>321.6</ele><time>2026-04-11T15:09:42Z</time></trkpt><trkpt lat="45.71411846538673" lon="8.533285647315525"><ele>322.0</ele><time>2026-04-11T15:09:43Z</time></trkpt><trkpt lat="45.71404251971545" lon="8.533352615634277"><ele>322.0</ele><time>2026-04-11T15:09:44Z</time></trkpt><trkpt lat="45.713960545300935" lon="8.5334308762018"><ele>322.0</ele><time>2026-04-11T15:09:46Z</time></trkpt><trkpt lat="45.713995624251524" lon="8.533513525463155"><ele>322.0</ele><time>2026-04-11T15:09:48Z</time></trkpt><trkpt lat="45.71407054805486" lon="8.533546231292522"><ele>322.0</ele><time>2026-04-11T15:09:50Z</time></trkpt><trkpt lat="45.714139390255305" lon="8.533604696729682"><ele>322.0</ele><time>2026-04-11T15:09:51Z</time></trkpt><trkpt lat="45.71421555537032" lon="8.53368367222634"><ele>322.0</ele><time>2026-04-11T15:09:53Z</time></trkpt><trkpt lat="45.71428250061855" lon="8.533727872186125"><ele>322.0</ele><time>2026-04-11T15:09:54Z</time></trkpt><trkpt lat="45.71435892172574" lon="8.533785431350573"><ele>322.0</ele><time>2026-04-11T15:09:55Z</time></trkpt><trkpt lat="45.714410972758024" lon="8.53390256294705"><ele>322.0</ele><time>2026-04-11T15:09:56Z</time></trkpt><trkpt lat="45.714468778728644" lon="8.534050444028694"><ele>322.0</ele><time>2026-04-11T15:09:58Z</time></trkpt><trkpt lat="45.714497335760036" lon="8.534202847745712"><ele>322.0</ele><time>2026-04-11T15:10:00Z</time></trkpt><trkpt lat="45.71449070390607" lon="8.534329194150834"><ele>320.8</ele><time>2026-04-11T15:10:00.999Z</time></trkpt><trkpt lat="45.71448205039979" lon="8.534446106633741"><ele>319.6</ele><time>2026-04-11T15:10:01.999Z</time></trkpt><trkpt lat="45.714457950716564" lon="8.534550855409623"><ele>318.40000000000003</ele><time>2026-04-11T15:10:02.999Z</time></trkpt><trkpt lat="45.714417623762586" lon="8.534649834787595"><ele>317.20000000000005</ele><time>2026-04-11T15:10:03.999Z</time></trkpt><trkpt lat="45.71436012112741" lon="8.534784729684663"><ele>316.0</ele><time>2026-04-11T15:10:04.999Z</time></trkpt><trkpt lat="45.714298107077965" lon="8.534932428372306"><ele>316.0</ele><time>2026-04-11T15:10:05.999Z</time></trkpt><trkpt lat="45.71425458171638" lon="8.535053178831575"><ele>316.0</ele><time>2026-04-11T15:10:06.999Z</time></trkpt><trkpt lat="45.714208430467934" lon="8.535167320525352"><ele>316.0</ele><time>2026-04-11T15:10:07.999Z</time></trkpt><trkpt lat="45.714154564999866" lon="8.535263500866234"><ele>316.0</ele><time>2026-04-11T15:10:08.999Z</time></trkpt><trkpt lat="45.714118091240266" lon="8.535340413667829"><ele>316.0</ele><time>2026-04-11T15:10:09.999Z</time></trkpt><trkpt lat="45.71404997918928" lon="8.535402640376399"><ele>316.0</ele><time>2026-04-11T15:10:11.999Z</time></trkpt><trkpt lat="45.713975417661054" lon="8.535371451303456"><ele>316.0</ele><time>2026-04-11T15:10:13.999Z</time></trkpt><trkpt lat="45.713903623898425" lon="8.535278401620284"><ele>316.0</ele><time>2026-04-11T15:10:15.999Z</time></trkpt><trkpt lat="45.71382268512218" lon="8.535193267432081"><ele>316.0</ele><time>2026-04-11T15:10:17.999Z</time></trkpt><trkpt lat="45.71376038648098" lon="8.535140006313112"><ele>316.0</ele><time>2026-04-11T15:10:19.999Z</time></trkpt><trkpt lat="45.71367881433301" lon="8.535058728880642"><ele>316.0</ele><time>2026-04-11T15:10:21.999Z</time></trkpt><trkpt lat="45.71362102929033" lon="8.535013108423552"><ele>316.0</ele><time>2026-04-11T15:10:22.999Z</time></trkpt><trkpt lat="45.71352080036826" lon="8.53493078014072"><ele>316.66666666666663</ele><time>2026-04-11T15:10:24.999Z</time></trkpt><trkpt lat="45.71346450131731" lon="8.534867051189842"><ele>317.3333333333333</ele><time>2026-04-11T15:10:25.999Z</time></trkpt><trkpt lat="45.71340271196533" lon="8.53478913893158"><ele>318.0</ele><time>2026-04-11T15:10:26.999Z</time></trkpt><trkpt lat="45.71334272895453" lon="8.53472283880543"><ele>318.6666666666667</ele><time>2026-04-11T15:10:27.999Z</time></trkpt><trkpt lat="45.713246302387944" lon="8.534716954619794"><ele>319.33333333333337</ele><time>2026-04-11T15:10:29.999Z</time></trkpt><trkpt lat="45.713180711308674" lon="8.53475775455157"><ele>320.0</ele><time>2026-04-11T15:10:30.999Z</time></trkpt><trkpt lat="45.713105347747465" lon="8.534767194690177"><ele>320.0</ele><time>2026-04-11T15:10:32.001Z</time></trkpt><trkpt lat="45.71304613392201" lon="8.534709783849948"><ele>320.0</ele><time>2026-04-11T15:10:33.001Z</time></trkpt><trkpt lat="45.712984562392" lon="8.534636060910495"><ele>320.0</ele><time>2026-04-11T15:10:34.001Z</time></trkpt><trkpt lat="45.712884114533296" lon="8.534657743789188"><ele>320.0</ele><time>2026-04-11T15:10:36.001Z</time></trkpt><trkpt lat="45.71280885352869" lon="8.534802829917963"><ele>320.0</ele><time>2026-04-11T15:10:38.001Z</time></trkpt><trkpt lat="45.71276862330048" lon="8.53491002226693"><ele>320.0</ele><time>2026-04-11T15:10:39.001Z</time></trkpt><trkpt lat="45.7127008675515" lon="8.53502073611504"><ele>320.0</ele><time>2026-04-11T15:10:41.001Z</time></trkpt><trkpt lat="45.71258089960241" lon="8.535160295123175"><ele>320.0</ele><time>2026-04-11T15:10:43.001Z</time></trkpt><trkpt lat="45.71248977234128" lon="8.53523897829731"><ele>320.0</ele><time>2026-04-11T15:10:44.001Z</time></trkpt><trkpt lat="45.71240521508569" lon="8.53539200071066"><ele>320.0</ele><time>2026-04-11T15:10:46.001Z</time></trkpt><trkpt lat="45.712339968474765" lon="8.5355407197878"><ele>320.0</ele><time>2026-04-11T15:10:47.001Z</time></trkpt><trkpt lat="45.71229720582387" lon="8.535650355728787"><ele>320.0</ele><time>2026-04-11T15:10:48.001Z</time></trkpt><trkpt lat="45.7121968849071" lon="8.535765906135925"><ele>320.0</ele><time>2026-04-11T15:10:50.001Z</time></trkpt><trkpt lat="45.71210532117808" lon="8.53579935055017"><ele>320.0</ele><time>2026-04-11T15:10:52.001Z</time></trkpt><trkpt lat="45.71200510588978" lon="8.535781920817254"><ele>320.0</ele><time>2026-04-11T15:10:54.001Z</time></trkpt><trkpt lat="45.71192575482754" lon="8.535738399371846"><ele>320.0</ele><time>2026-04-11T15:10:56.001Z</time></trkpt><trkpt lat="45.71185732663597" lon="8.535682048724423"><ele>320.0</ele><time>2026-04-11T15:10:58.001Z</time></trkpt><trkpt lat="45.711789305691056" lon="8.535611515130654"><ele>320.0</ele><time>2026-04-11T15:11:00.001Z</time></trkpt><trkpt lat="45.71172007965599" lon="8.535485838346855"><ele>320.0</ele><time>2026-04-11T15:11:02.001Z</time></trkpt><trkpt lat="45.7116678732415" lon="8.53543531548869"><ele>320.0</ele><time>2026-04-11T15:11:05.001Z</time></trkpt><trkpt lat="45.711686553993445" lon="8.535537127035631"><ele>320.0</ele><time>2026-04-11T15:11:08.001Z</time></trkpt><trkpt lat="45.711766758688036" lon="8.5355915426789"><ele>320.0</ele><time>2026-04-11T15:11:10.001Z</time></trkpt><trkpt lat="45.7118277401103" lon="8.53562873768222"><ele>320.0</ele><time>2026-04-11T15:11:11.001Z</time></trkpt><trkpt lat="45.711888967303494" lon="8.535725106311284"><ele>320.0</ele><time>2026-04-11T15:11:13.001Z</time></trkpt><trkpt lat="45.71199295498061" lon="8.535800110676938"><ele>320.0</ele><time>2026-04-11T15:11:15Z</time></trkpt><trkpt lat="45.71206798317113" lon="8.53581962802977"><ele>320.0</ele><time>2026-04-11T15:11:16Z</time></trkpt><trkpt lat="45.71214285424903" lon="8.535819507654947"><ele>320.0</ele><time>2026-04-11T15:11:17Z</time></trkpt><trkpt lat="45.71220430962149" lon="8.535793735707015"><ele>320.0</ele><time>2026-04-11T15:11:18Z</time></trkpt><trkpt lat="45.71227741468939" lon="8.535681835302823"><ele>320.0</ele><time>2026-04-11T15:11:20Z</time></trkpt><trkpt lat="45.71233503258098" lon="8.535567684998068"><ele>320.0</ele><time>2026-04-11T15:11:22Z</time></trkpt><trkpt lat="45.71239292272976" lon="8.53546925266185"><ele>320.0</ele><time>2026-04-11T15:11:24Z</time></trkpt><trkpt lat="45.712442628067265" lon="8.53534456072206"><ele>320.0</ele><time>2026-04-11T15:11:26Z</time></trkpt><trkpt lat="45.71251768282793" lon="8.535225109301566"><ele>320.0</ele><time>2026-04-11T15:11:27.999Z</time></trkpt><trkpt lat="45.71257597664812" lon="8.5351679761297"><ele>320.0</ele><time>2026-04-11T15:11:28.999Z</time></trkpt><trkpt lat="45.71262643244834" lon="8.53511005528246"><ele>320.0</ele><time>2026-04-11T15:11:29.999Z</time></trkpt><trkpt lat="45.712719073531" lon="8.535010144194827"><ele>320.0</ele><time>2026-04-11T15:11:31.999Z</time></trkpt><trkpt lat="45.71280006237707" lon="8.534859679342798"><ele>320.0</ele><time>2026-04-11T15:11:33.999Z</time></trkpt><trkpt lat="45.712841761506205" lon="8.534762408935295"><ele>320.0</ele><time>2026-04-11T15:11:34.999Z</time></trkpt><trkpt lat="45.712882683236224" lon="8.534688058656123"><ele>320.0</ele><time>2026-04-11T15:11:35.999Z</time></trkpt><trkpt lat="45.71296205785683" lon="8.534636937791936"><ele>320.0</ele><time>2026-04-11T15:11:37.999Z</time></trkpt><trkpt lat="45.71306808355297" lon="8.534686818639644"><ele>320.0</ele><time>2026-04-11T15:11:39.999Z</time></trkpt><trkpt lat="45.71313061890877" lon="8.534749191853079"><ele>320.0</ele><time>2026-04-11T15:11:40.999Z</time></trkpt><trkpt lat="45.713264474191575" lon="8.534744254046904"><ele>320.0</ele><time>2026-04-11T15:11:42.999Z</time></trkpt><trkpt lat="45.713339750689265" lon="8.534732266344609"><ele>320.0</ele><time>2026-04-11T15:11:43.999Z</time></trkpt><trkpt lat="45.71341696669126" lon="8.53480754692224"><ele>320.0</ele><time>2026-04-11T15:11:45.999Z</time></trkpt><trkpt lat="45.713509008526465" lon="8.534883214139228"><ele>320.0</ele><time>2026-04-11T15:11:46.999Z</time></trkpt><trkpt lat="45.713592740823124" lon="8.534984045508924"><ele>320.0</ele><time>2026-04-11T15:11:47.999Z</time></trkpt><trkpt lat="45.713671207600854" lon="8.535065416400522"><ele>319.33333333333337</ele><time>2026-04-11T15:11:48.999Z</time></trkpt><trkpt lat="45.71374102415299" lon="8.535123347523632"><ele>318.6666666666667</ele><time>2026-04-11T15:11:49.999Z</time></trkpt><trkpt lat="45.71381062787495" lon="8.535172479025068"><ele>318.0</ele><time>2026-04-11T15:11:50.999Z</time></trkpt><trkpt lat="45.71387910704371" lon="8.53523513877781"><ele>317.3333333333333</ele><time>2026-04-11T15:11:51.999Z</time></trkpt><trkpt lat="45.71394098788019" lon="8.535303179187292"><ele>316.66666666666663</ele><time>2026-04-11T15:11:52.999Z</time></trkpt><trkpt lat="45.71399418633114" lon="8.535362970134354"><ele>316.0</ele><time>2026-04-11T15:11:53.999Z</time></trkpt><trkpt lat="45.714098843095165" lon="8.535404888230232"><ele>316.0</ele><time>2026-04-11T15:11:55.999Z</time></trkpt><trkpt lat="45.71421101628078" lon="8.535352017050096"><ele>316.0</ele><time>2026-04-11T15:11:57.999Z</time></trkpt><trkpt lat="45.71432182117482" lon="8.535352480049633"><ele>316.0</ele><time>2026-04-11T15:11:59.999Z</time></trkpt><trkpt lat="45.71440777341721" lon="8.535437311953267"><ele>316.0</ele><time>2026-04-11T15:12:01.999Z</time></trkpt><trkpt lat="45.714484440011915" lon="8.535570528521443"><ele>313.66666666666663</ele><time>2026-04-11T15:12:03.999Z</time></trkpt><trkpt lat="45.71451587693784" lon="8.5356590524235"><ele>311.3333333333333</ele><time>2026-04-11T15:12:04.999Z</time></trkpt><trkpt lat="45.71453133520399" lon="8.53575214601735"><ele>309.0</ele><time>2026-04-11T15:12:05.999Z</time></trkpt><trkpt lat="45.71456422511641" lon="8.5358571209103"><ele>306.6666666666667</ele><time>2026-04-11T15:12:06.999Z</time></trkpt><trkpt lat="45.7146716240426" lon="8.535987266968712"><ele>304.33333333333337</ele><time>2026-04-11T15:12:08.999Z</time></trkpt><trkpt lat="45.71474491236781" lon="8.536052839915609"><ele>302.0</ele><time>2026-04-11T15:12:09.999Z</time></trkpt><trkpt lat="45.714809192169284" lon="8.536117556890773"><ele>300.83333333333337</ele><time>2026-04-11T15:12:10.999Z</time></trkpt><trkpt lat="45.71488739391323" lon="8.53623724503424"><ele>299.6666666666667</ele><time>2026-04-11T15:12:12.998Z</time></trkpt><trkpt lat="45.71488033650599" lon="8.536341097909062"><ele>298.5</ele><time>2026-04-11T15:12:14.998Z</time></trkpt><trkpt lat="45.714861585676275" lon="8.53643813974"><ele>297.3333333333333</ele><time>2026-04-11T15:12:16.998Z</time></trkpt><trkpt lat="45.714906842018756" lon="8.536545404051244"><ele>296.16666666666663</ele><time>2026-04-11T15:12:19.998Z</time></trkpt><trkpt lat="45.71491272821891" lon="8.536644544239728"><ele>295.0</ele><time>2026-04-11T15:12:21.998Z</time></trkpt><trkpt lat="45.71495208892836" lon="8.536827306365062"><ele>295.0</ele><time>2026-04-11T15:12:25.998Z</time></trkpt><trkpt lat="45.714890835881775" lon="8.536937160291128"><ele>295.0</ele><time>2026-04-11T15:12:27.998Z</time></trkpt><trkpt lat="45.71483920258785" lon="8.537027604526909"><ele>295.0</ele><time>2026-04-11T15:12:29.998Z</time></trkpt><trkpt lat="45.71477608069057" lon="8.537135722508602"><ele>295.0</ele><time>2026-04-11T15:12:31.998Z</time></trkpt><trkpt lat="45.714710742770905" lon="8.537248025907111"><ele>295.0</ele><time>2026-04-11T15:12:33.998Z</time></trkpt><trkpt lat="45.71465164936731" lon="8.537346316757652"><ele>294.3333333333333</ele><time>2026-04-11T15:12:35.998Z</time></trkpt><trkpt lat="45.71460815451165" lon="8.53741890426546"><ele>293.66666666666663</ele><time>2026-04-11T15:12:38Z</time></trkpt><trkpt lat="45.71455712421958" lon="8.537500484807609"><ele>293.0</ele><time>2026-04-11T15:12:41Z</time></trkpt><trkpt lat="45.71455310544411" lon="8.537592787414669"><ele>292.3333333333333</ele><time>2026-04-11T15:12:50Z</time></trkpt><trkpt lat="45.71459705836643" lon="8.537665042100015"><ele>291.6666666666667</ele><time>2026-04-11T15:12:51Z</time></trkpt><trkpt lat="45.714663743586364" lon="8.53782555113505"><ele>291.0</ele><time>2026-04-11T15:12:53Z</time></trkpt><trkpt lat="45.71471820179252" lon="8.537946093519823"><ele>290.0</ele><time>2026-04-11T15:12:55Z</time></trkpt><trkpt lat="45.71478986958769" lon="8.53804830121004"><ele>289.0</ele><time>2026-04-11T15:12:56.068Z</time></trkpt><trkpt lat="45.71483873824478" lon="8.538110326923382"><ele>288.0</ele><time>2026-04-11T15:12:57.065Z</time></trkpt><trkpt lat="45.71484696366066" lon="8.538228547538951"><ele>287.0</ele><time>2026-04-11T15:12:58.06Z</time></trkpt><trkpt lat="45.7150584514197" lon="8.538219193393397"><ele>287.0</ele><time>2026-04-11T15:13:00Z</time></trkpt><trkpt lat="45.715176630125576" lon="8.538252737110675"><ele>287.0</ele><time>2026-04-11T15:13:01Z</time></trkpt><trkpt lat="45.71524386426759" lon="8.538309832882216"><ele>287.0</ele><time>2026-04-11T15:13:03Z</time></trkpt><trkpt lat="45.71531166054392" lon="8.53838237074833"><ele>287.0</ele><time>2026-04-11T15:13:06Z</time></trkpt><trkpt lat="45.71536278335074" lon="8.538440866854092"><ele>287.0</ele><time>2026-04-11T15:13:08Z</time></trkpt><trkpt lat="45.71544881063358" lon="8.538518091368195"><ele>286.1666666666667</ele><time>2026-04-11T15:13:10Z</time></trkpt><trkpt lat="45.715506762280896" lon="8.538557815546438"><ele>285.33333333333337</ele><time>2026-04-11T15:13:11Z</time></trkpt><trkpt lat="45.71556112815806" lon="8.538641904199551"><ele>284.5</ele><time>2026-04-11T15:13:13Z</time></trkpt><trkpt lat="45.71562340336795" lon="8.538748969488196"><ele>283.6666666666667</ele><time>2026-04-11T15:13:15Z</time></trkpt><trkpt lat="45.71568895747876" lon="8.538790209617856"><ele>282.8333333333333</ele><time>2026-04-11T15:13:17Z</time></trkpt><trkpt lat="45.71581214381897" lon="8.53882870378652"><ele>282.0</ele><time>2026-04-11T15:13:19Z</time></trkpt><trkpt lat="45.71588794562688" lon="8.538795306445655"><ele>282.0</ele><time>2026-04-11T15:13:20Z</time></trkpt><trkpt lat="45.715980069184354" lon="8.538738131509161"><ele>282.0</ele><time>2026-04-11T15:13:21Z</time></trkpt><trkpt lat="45.71604288961014" lon="8.538724951832597"><ele>282.0</ele><time>2026-04-11T15:13:22Z</time></trkpt><trkpt lat="45.716110350058486" lon="8.538728370821838"><ele>282.0</ele><time>2026-04-11T15:13:23Z</time></trkpt><trkpt lat="45.71617514611843" lon="8.53877717005584"><ele>282.0</ele><time>2026-04-11T15:13:24Z</time></trkpt><trkpt lat="45.71625190380473" lon="8.538856268908388"><ele>282.0</ele><time>2026-04-11T15:13:25Z</time></trkpt><trkpt lat="45.71631104028936" lon="8.538940891811464"><ele>281.6666666666667</ele><time>2026-04-11T15:13:26Z</time></trkpt><trkpt lat="45.716363009256725" lon="8.539022322189355"><ele>281.3333333333333</ele><time>2026-04-11T15:13:26.999Z</time></trkpt><trkpt lat="45.716436989036666" lon="8.53911205253901"><ele>281.0</ele><time>2026-04-11T15:13:27.999Z</time></trkpt><trkpt lat="45.71651330967959" lon="8.539199522013792"><ele>280.66666666666663</ele><time>2026-04-11T15:13:28.999Z</time></trkpt><trkpt lat="45.7165774047583" lon="8.539266723515814"><ele>280.3333333333333</ele><time>2026-04-11T15:13:29.999Z</time></trkpt><trkpt lat="45.7166331181608" lon="8.539323812914553"><ele>280.0</ele><time>2026-04-11T15:13:30.999Z</time></trkpt><trkpt lat="45.71671532095516" lon="8.539366083805444"><ele>280.0</ele><time>2026-04-11T15:13:31.999Z</time></trkpt><trkpt lat="45.71677975280712" lon="8.539415866483727"><ele>280.0</ele><time>2026-04-11T15:13:32.999Z</time></trkpt><trkpt lat="45.7168345247815" lon="8.53946140919433"><ele>280.0</ele><time>2026-04-11T15:13:33.999Z</time></trkpt><trkpt lat="45.716923086434804" lon="8.53952326776048"><ele>280.0</ele><time>2026-04-11T15:13:35.999Z</time></trkpt><trkpt lat="45.71699617680797" lon="8.53958509576614"><ele>280.0</ele><time>2026-04-11T15:13:36.999Z</time></trkpt><trkpt lat="45.71707122514157" lon="8.539675135925759"><ele>280.0</ele><time>2026-04-11T15:13:37.999Z</time></trkpt><trkpt lat="45.71715944223197" lon="8.539792991585413"><ele>279.16666666666663</ele><time>2026-04-11T15:13:38.999Z</time></trkpt><trkpt lat="45.71723961790243" lon="8.539894959715335"><ele>278.3333333333333</ele><time>2026-04-11T15:13:39.999Z</time></trkpt><trkpt lat="45.71729651339081" lon="8.539983171822676"><ele>277.5</ele><time>2026-04-11T15:13:40.999Z</time></trkpt><trkpt lat="45.717349432320674" lon="8.540053416164541"><ele>276.6666666666667</ele><time>2026-04-11T15:13:41.999Z</time></trkpt><trkpt lat="45.717413190850834" lon="8.540117141523714"><ele>275.83333333333337</ele><time>2026-04-11T15:13:42.999Z</time></trkpt><trkpt lat="45.71750786306961" lon="8.540187808948543"><ele>275.0</ele><time>2026-04-11T15:13:44.999Z</time></trkpt><trkpt lat="45.71757580859291" lon="8.540183775412308"><ele>275.0</ele><time>2026-04-11T15:13:45.999Z</time></trkpt><trkpt lat="45.7176787534949" lon="8.54010505165494"><ele>275.0</ele><time>2026-04-11T15:13:47.999Z</time></trkpt><trkpt lat="45.71774497607962" lon="8.540060107885552"><ele>275.0</ele><time>2026-04-11T15:13:49.999Z</time></trkpt><trkpt lat="45.71782216955564" lon="8.539995470724513"><ele>275.0</ele><time>2026-04-11T15:13:52.999Z</time></trkpt><trkpt lat="45.71794335888863" lon="8.539890951849793"><ele>275.0</ele><time>2026-04-11T15:13:54.999Z</time></trkpt><trkpt lat="45.718014254891955" lon="8.539834193471735"><ele>275.0</ele><time>2026-04-11T15:13:55.999Z</time></trkpt><trkpt lat="45.71808748857162" lon="8.539770064210064"><ele>275.0</ele><time>2026-04-11T15:13:56.999Z</time></trkpt><trkpt lat="45.718164069207035" lon="8.539702615538593"><ele>275.0</ele><time>2026-04-11T15:13:57.999Z</time></trkpt><trkpt lat="45.718221511696456" lon="8.539644650199842"><ele>275.0</ele><time>2026-04-11T15:13:58.999Z</time></trkpt><trkpt lat="45.718268759665655" lon="8.539550470502347"><ele>275.0</ele><time>2026-04-11T15:14:00.999Z</time></trkpt><trkpt lat="45.71821046838176" lon="8.539484106603204"><ele>275.0</ele><time>2026-04-11T15:14:03.999Z</time></trkpt><trkpt lat="45.71819197973596" lon="8.53957707329576"><ele>274.83333333333337</ele><time>2026-04-11T15:14:05.999Z</time></trkpt><trkpt lat="45.71819476664189" lon="8.539685238470268"><ele>274.6666666666667</ele><time>2026-04-11T15:14:07.999Z</time></trkpt><trkpt lat="45.71813677853049" lon="8.539737862737224"><ele>274.5</ele><time>2026-04-11T15:14:09.999Z</time></trkpt><trkpt lat="45.71807386895648" lon="8.539790109853268"><ele>274.3333333333333</ele><time>2026-04-11T15:14:10.999Z</time></trkpt><trkpt lat="45.71800770345848" lon="8.53984550381484"><ele>274.16666666666663</ele><time>2026-04-11T15:14:11.999Z</time></trkpt><trkpt lat="45.71790414987169" lon="8.539934688197208"><ele>274.0</ele><time>2026-04-11T15:14:13.999Z</time></trkpt><trkpt lat="45.71781651540324" lon="8.54000906336199"><ele>274.0</ele><time>2026-04-11T15:14:15.999Z</time></trkpt><trkpt lat="45.717736715387815" lon="8.540070486056031"><ele>274.0</ele><time>2026-04-11T15:14:18.999Z</time></trkpt><trkpt lat="45.7176646106188" lon="8.540101256192814"><ele>274.0</ele><time>2026-04-11T15:14:20.999Z</time></trkpt><trkpt lat="45.71760892622485" lon="8.540188208966882"><ele>274.0</ele><time>2026-04-11T15:14:22.998Z</time></trkpt><trkpt lat="45.71765475104331" lon="8.540307745128514"><ele>274.0</ele><time>2026-04-11T15:14:24.998Z</time></trkpt><trkpt lat="45.717697143011044" lon="8.54037956364148"><ele>274.0</ele><time>2026-04-11T15:14:25.998Z</time></trkpt><trkpt lat="45.717752502883485" lon="8.540432700650854"><ele>273.66666666666663</ele><time>2026-04-11T15:14:26.998Z</time></trkpt><trkpt lat="45.71782880511455" lon="8.540494041324372"><ele>273.3333333333333</ele><time>2026-04-11T15:14:27.998Z</time></trkpt><trkpt lat="45.71789427656436" lon="8.540548609931566"><ele>273.0</ele><time>2026-04-11T15:14:28.998Z</time></trkpt><trkpt lat="45.71794939046837" lon="8.54059936305329"><ele>272.6666666666667</ele><time>2026-04-11T15:14:29.998Z</time></trkpt><trkpt lat="45.718031276762936" lon="8.540657868343258"><ele>272.33333333333337</ele><time>2026-04-11T15:14:30.998Z</time></trkpt><trkpt lat="45.71812061664553" lon="8.540729044629952"><ele>272.0</ele><time>2026-04-11T15:14:31.998Z</time></trkpt><trkpt lat="45.71820638258413" lon="8.540800957197533"><ele>272.0</ele><time>2026-04-11T15:14:32.998Z</time></trkpt><trkpt lat="45.71826972299268" lon="8.540861043589716"><ele>272.0</ele><time>2026-04-11T15:14:33.998Z</time></trkpt><trkpt lat="45.718343191688334" lon="8.54096883178463"><ele>272.0</ele><time>2026-04-11T15:14:35.998Z</time></trkpt><trkpt lat="45.71838664310714" lon="8.541089232605085"><ele>272.0</ele><time>2026-04-11T15:14:37.998Z</time></trkpt><trkpt lat="45.71843851074504" lon="8.541169932927328"><ele>272.0</ele><time>2026-04-11T15:14:39.998Z</time></trkpt><trkpt lat="45.71847658443134" lon="8.541285474286287"><ele>272.0</ele><time>2026-04-11T15:14:41.998Z</time></trkpt><trkpt lat="45.71857273987009" lon="8.541326726367918"><ele>272.0</ele><time>2026-04-11T15:14:44Z</time></trkpt><trkpt lat="45.71863400416306" lon="8.541355301803458"><ele>272.0</ele><time>2026-04-11T15:14:45Z</time></trkpt><trkpt lat="45.718745790080966" lon="8.54140789293785"><ele>272.0</ele><time>2026-04-11T15:14:47Z</time></trkpt><trkpt lat="45.71883566020311" lon="8.541424055692145"><ele>272.0</ele><time>2026-04-11T15:14:49Z</time></trkpt><trkpt lat="45.71891846784019" lon="8.541320766124981"><ele>272.0</ele><time>2026-04-11T15:14:51Z</time></trkpt><trkpt lat="45.7189880607368" lon="8.541201593376881"><ele>272.1666666666667</ele><time>2026-04-11T15:14:52Z</time></trkpt><trkpt lat="45.71903151199349" lon="8.54109492221043"><ele>272.33333333333337</ele><time>2026-04-11T15:14:53Z</time></trkpt><trkpt lat="45.71907835121686" lon="8.540999115455639"><ele>272.5</ele><time>2026-04-11T15:14:54Z</time></trkpt><trkpt lat="45.719129963260315" lon="8.54091600333484"><ele>272.6666666666667</ele><time>2026-04-11T15:14:55Z</time></trkpt><trkpt lat="45.71917778330612" lon="8.540840784693227"><ele>272.8333333333333</ele><time>2026-04-11T15:14:56Z</time></trkpt><trkpt lat="45.71924864574833" lon="8.540739031420548"><ele>273.0</ele><time>2026-04-11T15:14:58Z</time></trkpt><trkpt lat="45.7193288557483" lon="8.540649888512345"><ele>273.0</ele><time>2026-04-11T15:15:00Z</time></trkpt><trkpt lat="45.71939236715426" lon="8.540560423930556"><ele>273.0</ele><time>2026-04-11T15:15:01Z</time></trkpt><trkpt lat="45.719483690862354" lon="8.540438646851964"><ele>273.0</ele><time>2026-04-11T15:15:02Z</time></trkpt><trkpt lat="45.7195762706042" lon="8.540305462584758"><ele>273.0</ele><time>2026-04-11T15:15:03Z</time></trkpt><trkpt lat="45.7196873789083" lon="8.540144355967875"><ele>273.6666666666667</ele><time>2026-04-11T15:15:04Z</time></trkpt><trkpt lat="45.71980467523036" lon="8.539969408308941"><ele>274.33333333333337</ele><time>2026-04-11T15:15:05Z</time></trkpt><trkpt lat="45.71992166972196" lon="8.539829572669422"><ele>275.0</ele><time>2026-04-11T15:15:06Z</time></trkpt><trkpt lat="45.7200315922578" lon="8.539731627887072"><ele>275.0</ele><time>2026-04-11T15:15:07Z</time></trkpt><trkpt lat="45.72013081443565" lon="8.539656328089087"><ele>275.0</ele><time>2026-04-11T15:15:08Z</time></trkpt><trkpt lat="45.720215153972845" lon="8.539580901620905"><ele>275.0</ele><time>2026-04-11T15:15:09Z</time></trkpt><trkpt lat="45.720317029780794" lon="8.539500380289146"><ele>275.0</ele><time>2026-04-11T15:15:10Z</time></trkpt><trkpt lat="45.72043552560588" lon="8.539422461854151"><ele>275.75</ele><time>2026-04-11T15:15:11Z</time></trkpt><trkpt lat="45.720552546949556" lon="8.539356171393457"><ele>276.5</ele><time>2026-04-11T15:15:12Z</time></trkpt><trkpt lat="45.72066607347272" lon="8.539291900904514"><ele>277.25</ele><time>2026-04-11T15:15:13Z</time></trkpt><trkpt lat="45.720764752314835" lon="8.53923652542232"><ele>278.0</ele><time>2026-04-11T15:15:14Z</time></trkpt><trkpt lat="45.720861563366974" lon="8.539196653051656"><ele>278.0</ele><time>2026-04-11T15:15:15Z</time></trkpt><trkpt lat="45.720944113610756" lon="8.539163973354519"><ele>278.0</ele><time>2026-04-11T15:15:16Z</time></trkpt><trkpt lat="45.72103709560725" lon="8.539121286140048"><ele>278.0</ele><time>2026-04-11T15:15:17Z</time></trkpt><trkpt lat="45.72109896255182" lon="8.539072500571638"><ele>278.0</ele><time>2026-04-11T15:15:18Z</time></trkpt><trkpt lat="45.72119305176969" lon="8.53902945360114"><ele>278.0</ele><time>2026-04-11T15:15:20Z</time></trkpt><trkpt lat="45.72127663442773" lon="8.539030844016388"><ele>278.0</ele><time>2026-04-11T15:15:22Z</time></trkpt><trkpt lat="45.72140517571091" lon="8.538980205749166"><ele>277.6666666666667</ele><time>2026-04-11T15:15:24Z</time></trkpt><trkpt lat="45.72149126823201" lon="8.538944043720576"><ele>277.33333333333337</ele><time>2026-04-11T15:15:25Z</time></trkpt><trkpt lat="45.721587124302324" lon="8.538921284669241"><ele>277.0</ele><time>2026-04-11T15:15:26Z</time></trkpt><trkpt lat="45.72167617054354" lon="8.53890151544253"><ele>276.6666666666667</ele><time>2026-04-11T15:15:27Z</time></trkpt><trkpt lat="45.72174901581132" lon="8.538879314518503"><ele>276.3333333333333</ele><time>2026-04-11T15:15:28Z</time></trkpt><trkpt lat="45.721813162964516" lon="8.53887139432368"><ele>276.0</ele><time>2026-04-11T15:15:29Z</time></trkpt><trkpt lat="45.721951898919585" lon="8.538864895204222"><ele>275.8</ele><time>2026-04-11T15:15:31Z</time></trkpt><trkpt lat="45.722046383973144" lon="8.538852460695894"><ele>275.6</ele><time>2026-04-11T15:15:32Z</time></trkpt><trkpt lat="45.72214863111875" lon="8.538842257477073"><ele>275.4</ele><time>2026-04-11T15:15:33Z</time></trkpt><trkpt lat="45.72227805221934" lon="8.538829559438629"><ele>275.2</ele><time>2026-04-11T15:15:34Z</time></trkpt><trkpt lat="45.72239822186111" lon="8.5388218629864"><ele>275.0</ele><time>2026-04-11T15:15:35Z</time></trkpt><trkpt lat="45.72252174525218" lon="8.538813750428842"><ele>275.0</ele><time>2026-04-11T15:15:35.999Z</time></trkpt><trkpt lat="45.7226384684071" lon="8.538811078447658"><ele>275.0</ele><time>2026-04-11T15:15:36.999Z</time></trkpt><trkpt lat="45.72274052869282" lon="8.53880892446311"><ele>275.0</ele><time>2026-04-11T15:15:37.999Z</time></trkpt><trkpt lat="45.72283008976606" lon="8.538812547780717"><ele>275.0</ele><time>2026-04-11T15:15:38.999Z</time></trkpt><trkpt lat="45.72292636091254" lon="8.538815979466275"><ele>275.0</ele><time>2026-04-11T15:15:39.999Z</time></trkpt><trkpt lat="45.723031823159" lon="8.538825184398737"><ele>275.1666666666667</ele><time>2026-04-11T15:15:40.999Z</time></trkpt><trkpt lat="45.723123033151296" lon="8.538834440082358"><ele>275.33333333333337</ele><time>2026-04-11T15:15:41.999Z</time></trkpt><trkpt lat="45.72319988369769" lon="8.538852548476855"><ele>275.5</ele><time>2026-04-11T15:15:42.999Z</time></trkpt><trkpt lat="45.72328173420529" lon="8.538872065893353"><ele>275.6666666666667</ele><time>2026-04-11T15:15:43.999Z</time></trkpt><trkpt lat="45.723359128494195" lon="8.53888890351792"><ele>275.8333333333333</ele><time>2026-04-11T15:15:44.999Z</time></trkpt><trkpt lat="45.723441471178354" lon="8.538904811923025"><ele>276.0</ele><time>2026-04-11T15:15:45.999Z</time></trkpt><trkpt lat="45.72353837838093" lon="8.538925540427652"><ele>275.6</ele><time>2026-04-11T15:15:46.999Z</time></trkpt><trkpt lat="45.72364402590654" lon="8.538958352210441"><ele>275.20000000000005</ele><time>2026-04-11T15:15:47.999Z</time></trkpt><trkpt lat="45.723738773043124" lon="8.538986459904109"><ele>274.79999999999995</ele><time>2026-04-11T15:15:48.999Z</time></trkpt><trkpt lat="45.723820584776306" lon="8.539012965182373"><ele>274.4</ele><time>2026-04-11T15:15:49.999Z</time></trkpt><trkpt lat="45.723885963489074" lon="8.539044055715994"><ele>274.0</ele><time>2026-04-11T15:15:50.999Z</time></trkpt><trkpt lat="45.724001105771656" lon="8.539096053437854"><ele>274.00000000000006</ele><time>2026-04-11T15:15:52.999Z</time></trkpt><trkpt lat="45.72406468072741" lon="8.539120459539944"><ele>274.0</ele><time>2026-04-11T15:15:53.999Z</time></trkpt><trkpt lat="45.724133555934884" lon="8.539142417849508"><ele>274.0</ele><time>2026-04-11T15:15:54.999Z</time></trkpt><trkpt lat="45.7242109337212" lon="8.539170440431448"><ele>274.0</ele><time>2026-04-11T15:15:55.999Z</time></trkpt><trkpt lat="45.72429540481027" lon="8.539198369982941"><ele>274.0</ele><time>2026-04-11T15:15:56.999Z</time></trkpt><trkpt lat="45.724358108878235" lon="8.539216311300285"><ele>274.00000000000006</ele><time>2026-04-11T15:15:57.999Z</time></trkpt><trkpt lat="45.724429180235944" lon="8.539240210607858"><ele>274.0</ele><time>2026-04-11T15:15:58.999Z</time></trkpt><trkpt lat="45.724497599133535" lon="8.539263551241458"><ele>274.2</ele><time>2026-04-11T15:15:59.999Z</time></trkpt><trkpt lat="45.724576452351464" lon="8.539295678125692"><ele>274.4</ele><time>2026-04-11T15:16:00.999Z</time></trkpt><trkpt lat="45.7246703572573" lon="8.539330940139632"><ele>274.6</ele><time>2026-04-11T15:16:02.999Z</time></trkpt><trkpt lat="45.724776338486805" lon="8.539378566870479"><ele>274.8</ele><time>2026-04-11T15:16:04.999Z</time></trkpt><trkpt lat="45.72483928670288" lon="8.539401695382901"><ele>275.0</ele><time>2026-04-11T15:16:06.999Z</time></trkpt><trkpt lat="45.724933573056965" lon="8.539441850809137"><ele>275.0</ele><time>2026-04-11T15:16:08.999Z</time></trkpt><trkpt lat="45.72499787039785" lon="8.539464459557093"><ele>275.0</ele><time>2026-04-11T15:16:10.999Z</time></trkpt><trkpt lat="45.72508243144572" lon="8.539493276601794"><ele>275.0</ele><time>2026-04-11T15:16:12.999Z</time></trkpt><trkpt lat="45.72517568647946" lon="8.539541743270282"><ele>275.0</ele><time>2026-04-11T15:16:14.999Z</time></trkpt><trkpt lat="45.725300392059324" lon="8.539588751349376"><ele>275.0</ele><time>2026-04-11T15:16:16.999Z</time></trkpt><trkpt lat="45.72539925561891" lon="8.539613372263858"><ele>274.8</ele><time>2026-04-11T15:16:17.999Z</time></trkpt><trkpt lat="45.72549525703147" lon="8.539639960539565"><ele>274.6</ele><time>2026-04-11T15:16:18.999Z</time></trkpt><trkpt lat="45.72556726183843" lon="8.539658857985005"><ele>274.4</ele><time>2026-04-11T15:16:19.999Z</time></trkpt><trkpt lat="45.72568379942364" lon="8.53968985300999"><ele>274.2</ele><time>2026-04-11T15:16:21.999Z</time></trkpt><trkpt lat="45.72576716038331" lon="8.53971243661193"><ele>274.0</ele><time>2026-04-11T15:16:22.999Z</time></trkpt><trkpt lat="45.725877085671776" lon="8.53973725513495"><ele>274.0</ele><time>2026-04-11T15:16:23.999Z</time></trkpt><trkpt lat="45.725975829567886" lon="8.539765720000375"><ele>274.0</ele><time>2026-04-11T15:16:24.999Z</time></trkpt><trkpt lat="45.72605471891082" lon="8.539783266856988"><ele>274.0</ele><time>2026-04-11T15:16:25.999Z</time></trkpt><trkpt lat="45.72615212246395" lon="8.539811952398733"><ele>274.0</ele><time>2026-04-11T15:16:26.999Z</time></trkpt><trkpt lat="45.72626443241003" lon="8.53984888606953"><ele>274.0</ele><time>2026-04-11T15:16:27.999Z</time></trkpt><trkpt lat="45.7263734032132" lon="8.53987577874185"><ele>274.0</ele><time>2026-04-11T15:16:28.998Z</time></trkpt><trkpt lat="45.72647907807057" lon="8.539897129736461"><ele>274.0</ele><time>2026-04-11T15:16:29.998Z</time></trkpt><trkpt lat="45.7265941053048" lon="8.539931378179851"><ele>274.0</ele><time>2026-04-11T15:16:30.998Z</time></trkpt><trkpt lat="45.72671099787738" lon="8.539895278313201"><ele>274.0</ele><time>2026-04-11T15:16:31.998Z</time></trkpt><trkpt lat="45.72682248468045" lon="8.539891690548314"><ele>274.16666666666663</ele><time>2026-04-11T15:16:32.998Z</time></trkpt><trkpt lat="45.72691015115929" lon="8.539872220675935"><ele>274.3333333333333</ele><time>2026-04-11T15:16:33.998Z</time></trkpt><trkpt lat="45.72699732748755" lon="8.539860982445097"><ele>274.5</ele><time>2026-04-11T15:16:34.998Z</time></trkpt><trkpt lat="45.727073869899904" lon="8.539846310534246"><ele>274.6666666666667</ele><time>2026-04-11T15:16:35.998Z</time></trkpt><trkpt lat="45.72714007837237" lon="8.539849412558869"><ele>274.83333333333337</ele><time>2026-04-11T15:16:36.998Z</time></trkpt><trkpt lat="45.727254804210226" lon="8.539842944841325"><ele>275.0</ele><time>2026-04-11T15:16:38.998Z</time></trkpt><trkpt lat="45.72732434184696" lon="8.539856842905245"><ele>275.0</ele><time>2026-04-11T15:16:40.998Z</time></trkpt><trkpt lat="45.72734618782004" lon="8.540038083239326"><ele>275.0</ele><time>2026-04-11T15:16:42.998Z</time></trkpt><trkpt lat="45.7273908905772" lon="8.54017712453918"><ele>275.0</ele><time>2026-04-11T15:16:43.998Z</time></trkpt><trkpt lat="45.727421304244636" lon="8.540348780044154"><ele>275.0</ele><time>2026-04-11T15:16:44.998Z</time></trkpt><trkpt lat="45.72746064340505" lon="8.540510816668414"><ele>274.25</ele><time>2026-04-11T15:16:45.998Z</time></trkpt><trkpt lat="45.72749391778567" lon="8.540691900725765"><ele>273.5</ele><time>2026-04-11T15:16:46.998Z</time></trkpt><trkpt lat="45.7275295238467" lon="8.540870434464765"><ele>272.75</ele><time>2026-04-11T15:16:47.998Z</time></trkpt><trkpt lat="45.72757408184802" lon="8.541056099186719"><ele>272.0</ele><time>2026-04-11T15:16:49Z</time></trkpt><trkpt lat="45.72761498559343" lon="8.541249344874858"><ele>272.0</ele><time>2026-04-11T15:16:50Z</time></trkpt><trkpt lat="45.72765517432065" lon="8.541420304610472"><ele>272.0</ele><time>2026-04-11T15:16:51Z</time></trkpt><trkpt lat="45.727690942435636" lon="8.541572976067831"><ele>272.0</ele><time>2026-04-11T15:16:52Z</time></trkpt><trkpt lat="45.727720471488844" lon="8.541706615555533"><ele>272.0</ele><time>2026-04-11T15:16:53Z</time></trkpt><trkpt lat="45.72775252179066" lon="8.541855949074996"><ele>272.0</ele><time>2026-04-11T15:16:54Z</time></trkpt><trkpt lat="45.727811579810314" lon="8.542031659143197"><ele>272.0</ele><time>2026-04-11T15:16:55Z</time></trkpt><trkpt lat="45.72784332960908" lon="8.542203364783228"><ele>272.0</ele><time>2026-04-11T15:16:56Z</time></trkpt><trkpt lat="45.72787249241522" lon="8.54234654587373"><ele>272.0</ele><time>2026-04-11T15:16:57Z</time></trkpt><trkpt lat="45.72790633967632" lon="8.542481812087797"><ele>272.0</ele><time>2026-04-11T15:16:58Z</time></trkpt><trkpt lat="45.727920301807515" lon="8.542595382856407"><ele>272.0</ele><time>2026-04-11T15:16:59Z</time></trkpt><trkpt lat="45.727951427458464" lon="8.542698785123052"><ele>272.0</ele><time>2026-04-11T15:17:00Z</time></trkpt><trkpt lat="45.727965597396135" lon="8.542787168745445"><ele>272.0</ele><time>2026-04-11T15:17:01Z</time></trkpt><trkpt lat="45.72793107130906" lon="8.542890208688407"><ele>272.0</ele><time>2026-04-11T15:17:03Z</time></trkpt><trkpt lat="45.72785174250921" lon="8.542887659755044"><ele>272.0</ele><time>2026-04-11T15:17:05Z</time></trkpt><trkpt lat="45.72773981110847" lon="8.5428960726158"><ele>272.0</ele><time>2026-04-11T15:17:07Z</time></trkpt><trkpt lat="45.727662648964284" lon="8.542914220798647"><ele>272.0</ele><time>2026-04-11T15:17:08Z</time></trkpt><trkpt lat="45.727595048218554" lon="8.542962609528296"><ele>271.8</ele><time>2026-04-11T15:17:09Z</time></trkpt><trkpt lat="45.72753341760838" lon="8.543000359179562"><ele>271.6</ele><time>2026-04-11T15:17:10Z</time></trkpt><trkpt lat="45.72746746701845" lon="8.543113405031107"><ele>271.40000000000003</ele><time>2026-04-11T15:17:12Z</time></trkpt><trkpt lat="45.72749731330708" lon="8.543280517385615"><ele>271.2</ele><time>2026-04-11T15:17:14Z</time></trkpt><trkpt lat="45.72752250094337" lon="8.543401031937488"><ele>271.0</ele><time>2026-04-11T15:17:15Z</time></trkpt><trkpt lat="45.72756730526869" lon="8.54351507618268"><ele>271.0</ele><time>2026-04-11T15:17:16Z</time></trkpt><trkpt lat="45.7275973334685" lon="8.543664239875993"><ele>271.0</ele><time>2026-04-11T15:17:17Z</time></trkpt><trkpt lat="45.72763177001297" lon="8.54379991435716"><ele>271.0</ele><time>2026-04-11T15:17:18Z</time></trkpt><trkpt lat="45.72766545984873" lon="8.543951806323214"><ele>271.0</ele><time>2026-04-11T15:17:19Z</time></trkpt><trkpt lat="45.727699787018295" lon="8.544103738889087"><ele>271.0</ele><time>2026-04-11T15:17:20Z</time></trkpt><trkpt lat="45.72772837132045" lon="8.544256334289496"><ele>272.0</ele><time>2026-04-11T15:17:21Z</time></trkpt><trkpt lat="45.72775583804026" lon="8.544389873276865"><ele>273.0</ele><time>2026-04-11T15:17:22Z</time></trkpt><trkpt lat="45.72778245425344" lon="8.544519362595256"><ele>274.0</ele><time>2026-04-11T15:17:23Z</time></trkpt><trkpt lat="45.72781630326953" lon="8.544662139361106"><ele>275.0</ele><time>2026-04-11T15:17:24Z</time></trkpt><trkpt lat="45.72783651308154" lon="8.544816664991263"><ele>276.0</ele><time>2026-04-11T15:17:25Z</time></trkpt><trkpt lat="45.72788581433476" lon="8.544959913428054"><ele>277.40000000000003</ele><time>2026-04-11T15:17:26Z</time></trkpt><trkpt lat="45.72791267579442" lon="8.545105595829064"><ele>278.8</ele><time>2026-04-11T15:17:27Z</time></trkpt><trkpt lat="45.727927021598866" lon="8.545236500849649"><ele>280.20000000000005</ele><time>2026-04-11T15:17:28Z</time></trkpt><trkpt lat="45.727947027659184" lon="8.545336198618601"><ele>281.6</ele><time>2026-04-11T15:17:29Z</time></trkpt><trkpt lat="45.72797148755109" lon="8.545466193328185"><ele>283.0</ele><time>2026-04-11T15:17:31Z</time></trkpt><trkpt lat="45.727915539670384" lon="8.545570936466966"><ele>282.25</ele><time>2026-04-11T15:17:34Z</time></trkpt><trkpt lat="45.7278680549559" lon="8.54564925941015"><ele>281.5</ele><time>2026-04-11T15:17:35Z</time></trkpt><trkpt lat="45.72777078120719" lon="8.545751606566066"><ele>280.75</ele><time>2026-04-11T15:17:36Z</time></trkpt><trkpt lat="45.72761451835907" lon="8.545922724867912"><ele>280.0</ele><time>2026-04-11T15:17:37Z</time></trkpt><trkpt lat="45.727441752608705" lon="8.546141563400514"><ele>282.3333333333333</ele><time>2026-04-11T15:17:38Z</time></trkpt><trkpt lat="45.72728404717963" lon="8.546305435688511"><ele>284.6666666666667</ele><time>2026-04-11T15:17:39Z</time></trkpt><trkpt lat="45.727136558921956" lon="8.546502265889082"><ele>287.0</ele><time>2026-04-11T15:17:40Z</time></trkpt><trkpt lat="45.726984286188475" lon="8.546679169639711"><ele>287.6666666666667</ele><time>2026-04-11T15:17:41Z</time></trkpt><trkpt lat="45.72685177245811" lon="8.546829085487298"><ele>288.3333333333333</ele><time>2026-04-11T15:17:42Z</time></trkpt><trkpt lat="45.72672621789717" lon="8.546975724343795"><ele>289.0</ele><time>2026-04-11T15:17:43Z</time></trkpt><trkpt lat="45.726604345511035" lon="8.547118056928785"><ele>289.0</ele><time>2026-04-11T15:17:44Z</time></trkpt><trkpt lat="45.726480419177804" lon="8.54726449629378"><ele>289.0</ele><time>2026-04-11T15:17:45Z</time></trkpt><trkpt lat="45.72635926295917" lon="8.547405678766609"><ele>289.0</ele><time>2026-04-11T15:17:46Z</time></trkpt><trkpt lat="45.726233577010326" lon="8.547540445676193"><ele>289.0</ele><time>2026-04-11T15:17:47Z</time></trkpt><trkpt lat="45.726113414852676" lon="8.547677894420513"><ele>289.0</ele><time>2026-04-11T15:17:47.999Z</time></trkpt><trkpt lat="45.726004395491756" lon="8.547812594369967"><ele>289.0</ele><time>2026-04-11T15:17:48.999Z</time></trkpt><trkpt lat="45.72589145259315" lon="8.547941961678335"><ele>289.0</ele><time>2026-04-11T15:17:49.999Z</time></trkpt><trkpt lat="45.72578620924076" lon="8.548064447256808"><ele>288.25</ele><time>2026-04-11T15:17:50.999Z</time></trkpt><trkpt lat="45.72568444506211" lon="8.54818397213149"><ele>287.5</ele><time>2026-04-11T15:17:51.999Z</time></trkpt><trkpt lat="45.72557644485384" lon="8.548307113841915"><ele>286.75</ele><time>2026-04-11T15:17:52.999Z</time></trkpt><trkpt lat="45.725464850585176" lon="8.548436660182253"><ele>286.0</ele><time>2026-04-11T15:17:53.999Z</time></trkpt><trkpt lat="45.7253522138323" lon="8.5485747777713"><ele>284.3333333333333</ele><time>2026-04-11T15:17:54.999Z</time></trkpt><trkpt lat="45.72523532125308" lon="8.548722539964382"><ele>282.6666666666667</ele><time>2026-04-11T15:17:55.999Z</time></trkpt><trkpt lat="45.72511914657436" lon="8.548881089794861"><ele>281.0</ele><time>2026-04-11T15:17:56.999Z</time></trkpt><trkpt lat="45.724984381485065" lon="8.549027911310873"><ele>281.0</ele><time>2026-04-11T15:17:57.999Z</time></trkpt><trkpt lat="45.724834521165704" lon="8.54922502165734"><ele>281.0</ele><time>2026-04-11T15:17:58.999Z</time></trkpt><trkpt lat="45.72466755084286" lon="8.549448060714287"><ele>281.0</ele><time>2026-04-11T15:17:59.999Z</time></trkpt><trkpt lat="45.72450564098567" lon="8.549664339871073"><ele>279.33333333333337</ele><time>2026-04-11T15:18:00.999Z</time></trkpt><trkpt lat="45.724371457485574" lon="8.54986402720838"><ele>277.6666666666667</ele><time>2026-04-11T15:18:01.999Z</time></trkpt><trkpt lat="45.724241618137135" lon="8.550025339732"><ele>276.0</ele><time>2026-04-11T15:18:02.999Z</time></trkpt><trkpt lat="45.72412080368883" lon="8.550181665241475"><ele>276.0</ele><time>2026-04-11T15:18:03.999Z</time></trkpt><trkpt lat="45.72399789257956" lon="8.550304888519824"><ele>276.0</ele><time>2026-04-11T15:18:04.999Z</time></trkpt><trkpt lat="45.723861515001204" lon="8.550348230769998"><ele>276.0</ele><time>2026-04-11T15:18:05.999Z</time></trkpt><trkpt lat="45.723724209429236" lon="8.550369345193506"><ele>276.0</ele><time>2026-04-11T15:18:06.999Z</time></trkpt><trkpt lat="45.72357220687852" lon="8.550382858413329"><ele>274.3333333333333</ele><time>2026-04-11T15:18:07.999Z</time></trkpt><trkpt lat="45.72340599819473" lon="8.550348383003488"><ele>272.66666666666663</ele><time>2026-04-11T15:18:08.999Z</time></trkpt><trkpt lat="45.7232474290663" lon="8.550315579656743"><ele>271.0</ele><time>2026-04-11T15:18:09.999Z</time></trkpt><trkpt lat="45.723095954950814" lon="8.550281806265497"><ele>271.0</ele><time>2026-04-11T15:18:10.999Z</time></trkpt><trkpt lat="45.722948310998504" lon="8.550248591344685"><ele>271.0</ele><time>2026-04-11T15:18:11.999Z</time></trkpt><trkpt lat="45.72279399401739" lon="8.550218490105689"><ele>271.0</ele><time>2026-04-11T15:18:12.999Z</time></trkpt><trkpt lat="45.72263834180796" lon="8.550202553542297"><ele>272.0</ele><time>2026-04-11T15:18:13.999Z</time></trkpt><trkpt lat="45.72248315616009" lon="8.550168583152274"><ele>273.0</ele><time>2026-04-11T15:18:14.999Z</time></trkpt><trkpt lat="45.72231698889698" lon="8.550143351693764"><ele>274.0</ele><time>2026-04-11T15:18:15.999Z</time></trkpt><trkpt lat="45.722155911094674" lon="8.550156101174945"><ele>274.0</ele><time>2026-04-11T15:18:16.999Z</time></trkpt><trkpt lat="45.721990115669925" lon="8.550197303566499"><ele>274.0</ele><time>2026-04-11T15:18:17.999Z</time></trkpt><trkpt lat="45.72182462868419" lon="8.55024355261847"><ele>274.0</ele><time>2026-04-11T15:18:18.999Z</time></trkpt><trkpt lat="45.72166464020084" lon="8.550287131601085"><ele>273.5</ele><time>2026-04-11T15:18:19.999Z</time></trkpt><trkpt lat="45.72152669315535" lon="8.550328005409511"><ele>273.0</ele><time>2026-04-11T15:18:20.999Z</time></trkpt><trkpt lat="45.72140267734855" lon="8.550390601691783"><ele>272.5</ele><time>2026-04-11T15:18:21.999Z</time></trkpt><trkpt lat="45.72129225243291" lon="8.550495070874087"><ele>272.0</ele><time>2026-04-11T15:18:22.999Z</time></trkpt><trkpt lat="45.72119471815328" lon="8.550641837560224"><ele>272.0</ele><time>2026-04-11T15:18:23.999Z</time></trkpt><trkpt lat="45.72111238255178" lon="8.550824441988663"><ele>272.0</ele><time>2026-04-11T15:18:24.999Z</time></trkpt><trkpt lat="45.721028372480156" lon="8.551029587891819"><ele>272.0</ele><time>2026-04-11T15:18:25.999Z</time></trkpt><trkpt lat="45.720934269295135" lon="8.551230192473241"><ele>273.0</ele><time>2026-04-11T15:18:26.999Z</time></trkpt><trkpt lat="45.72083637215825" lon="8.551432651719256"><ele>274.0</ele><time>2026-04-11T15:18:27.999Z</time></trkpt><trkpt lat="45.720741762242014" lon="8.55164026583838"><ele>275.0</ele><time>2026-04-11T15:18:28.999Z</time></trkpt><trkpt lat="45.72064868747886" lon="8.551861037385006"><ele>276.0</ele><time>2026-04-11T15:18:29.999Z</time></trkpt><trkpt lat="45.720550707449654" lon="8.552081397125505"><ele>277.0</ele><time>2026-04-11T15:18:30.999Z</time></trkpt><trkpt lat="45.7204607365664" lon="8.552281903766898"><ele>278.0</ele><time>2026-04-11T15:18:31.999Z</time></trkpt><trkpt lat="45.72037362716516" lon="8.552467923765281"><ele>278.0</ele><time>2026-04-11T15:18:32.998Z</time></trkpt><trkpt lat="45.720286198353996" lon="8.552667263934628"><ele>278.0</ele><time>2026-04-11T15:18:33.998Z</time></trkpt><trkpt lat="45.720195285556784" lon="8.552878498766246"><ele>278.0</ele><time>2026-04-11T15:18:34.998Z</time></trkpt><trkpt lat="45.72010308726786" lon="8.553095722885196"><ele>276.0</ele><time>2026-04-11T15:18:35.998Z</time></trkpt><trkpt lat="45.72001478203261" lon="8.553298324284201"><ele>274.0</ele><time>2026-04-11T15:18:36.998Z</time></trkpt><trkpt lat="45.71993276220076" lon="8.553484317040043"><ele>272.0</ele><time>2026-04-11T15:18:37.998Z</time></trkpt><trkpt lat="45.719850411722604" lon="8.55366933948788"><ele>271.33333333333337</ele><time>2026-04-11T15:18:38.998Z</time></trkpt><trkpt lat="45.71975345785895" lon="8.553864316628818"><ele>270.6666666666667</ele><time>2026-04-11T15:18:39.998Z</time></trkpt><trkpt lat="45.71966522088117" lon="8.5540699681115"><ele>270.0</ele><time>2026-04-11T15:18:40.998Z</time></trkpt><trkpt lat="45.719587761104485" lon="8.554246403486585"><ele>270.0</ele><time>2026-04-11T15:18:41.997Z</time></trkpt><trkpt lat="45.719517577861225" lon="8.554386935676948"><ele>270.0</ele><time>2026-04-11T15:18:42.997Z</time></trkpt><trkpt lat="45.71944499298486" lon="8.554544507621065"><ele>270.0</ele><time>2026-04-11T15:18:43.997Z</time></trkpt><trkpt lat="45.719378125161484" lon="8.554724060456795"><ele>270.0</ele><time>2026-04-11T15:18:44.997Z</time></trkpt><trkpt lat="45.719322940286986" lon="8.554904100646157"><ele>270.0</ele><time>2026-04-11T15:18:45.997Z</time></trkpt><trkpt lat="45.719277787089844" lon="8.555116511854205"><ele>270.0</ele><time>2026-04-11T15:18:46.997Z</time></trkpt><trkpt lat="45.71924665216337" lon="8.55535086116402"><ele>270.0</ele><time>2026-04-11T15:18:47.997Z</time></trkpt><trkpt lat="45.71922248856235" lon="8.555617745926511"><ele>269.6666666666667</ele><time>2026-04-11T15:18:48.997Z</time></trkpt><trkpt lat="45.71919600330064" lon="8.555892064478599"><ele>269.33333333333337</ele><time>2026-04-11T15:18:49.997Z</time></trkpt><trkpt lat="45.71916168410856" lon="8.556169317167779"><ele>269.0</ele><time>2026-04-11T15:18:50.997Z</time></trkpt><trkpt lat="45.71912549198227" lon="8.556446510650934"><ele>268.33333333333337</ele><time>2026-04-11T15:18:51.997Z</time></trkpt><trkpt lat="45.71908920659636" lon="8.556732320503807"><ele>267.6666666666667</ele><time>2026-04-11T15:18:52.997Z</time></trkpt><trkpt lat="45.7190544485392" lon="8.557015446974944"><ele>267.0</ele><time>2026-04-11T15:18:53.997Z</time></trkpt><trkpt lat="45.71901943577671" lon="8.557303972594879"><ele>266.3333333333333</ele><time>2026-04-11T15:18:54.999Z</time></trkpt><trkpt lat="45.718982837425195" lon="8.55759267604334"><ele>265.66666666666663</ele><time>2026-04-11T15:18:55.999Z</time></trkpt><trkpt lat="45.71894792259564" lon="8.557885067682257"><ele>265.0</ele><time>2026-04-11T15:18:56.999Z</time></trkpt><trkpt lat="45.718915647483726" lon="8.558170203679158"><ele>265.0</ele><time>2026-04-11T15:18:57.999Z</time></trkpt><trkpt lat="45.71888283913774" lon="8.558459156571063"><ele>265.0</ele><time>2026-04-11T15:18:58.999Z</time></trkpt><trkpt lat="45.71884329073597" lon="8.558740111904722"><ele>265.0</ele><time>2026-04-11T15:18:59.999Z</time></trkpt><trkpt lat="45.7187912363261" lon="8.558980773149141"><ele>266.0</ele><time>2026-04-11T15:19:00.999Z</time></trkpt><trkpt lat="45.71868999858102" lon="8.559173040700014"><ele>267.0</ele><time>2026-04-11T15:19:01.999Z</time></trkpt><trkpt lat="45.718602143626505" lon="8.559357535042077"><ele>268.0</ele><time>2026-04-11T15:19:02.999Z</time></trkpt><trkpt lat="45.71845561189577" lon="8.559495949662027"><ele>271.66666666666663</ele><time>2026-04-11T15:19:03.999Z</time></trkpt><trkpt lat="45.71829405001722" lon="8.559620348487542"><ele>275.3333333333333</ele><time>2026-04-11T15:19:04.999Z</time></trkpt><trkpt lat="45.71810351124127" lon="8.559719972161652"><ele>279.0</ele><time>2026-04-11T15:19:05.999Z</time></trkpt><trkpt lat="45.71791974713441" lon="8.559830444648037"><ele>279.0</ele><time>2026-04-11T15:19:06.999Z</time></trkpt><trkpt lat="45.71775237605673" lon="8.559899700228266"><ele>279.0</ele><time>2026-04-11T15:19:07.999Z</time></trkpt><trkpt lat="45.71760649130658" lon="8.559969023624697"><ele>279.0</ele><time>2026-04-11T15:19:08.999Z</time></trkpt><trkpt lat="45.717472964222566" lon="8.560046175108052"><ele>279.75</ele><time>2026-04-11T15:19:09.999Z</time></trkpt><trkpt lat="45.71736311216338" lon="8.560132431597122"><ele>280.5</ele><time>2026-04-11T15:19:10.999Z</time></trkpt><trkpt lat="45.71727560990324" lon="8.560259551664373"><ele>281.25</ele><time>2026-04-11T15:19:11.999Z</time></trkpt><trkpt lat="45.717213921915025" lon="8.560440264028522"><ele>282.0</ele><time>2026-04-11T15:19:12.999Z</time></trkpt><trkpt lat="45.71717847338646" lon="8.560683253463399"><ele>282.25</ele><time>2026-04-11T15:19:13.999Z</time></trkpt><trkpt lat="45.71714886307298" lon="8.560914490151914"><ele>282.5</ele><time>2026-04-11T15:19:14.999Z</time></trkpt><trkpt lat="45.71711639237471" lon="8.56110086244732"><ele>282.75</ele><time>2026-04-11T15:19:15.999Z</time></trkpt><trkpt lat="45.71708766054002" lon="8.561276644409379"><ele>283.0</ele><time>2026-04-11T15:19:16.999Z</time></trkpt><trkpt lat="45.71705224981026" lon="8.561455972506808"><ele>283.0</ele><time>2026-04-11T15:19:17.999Z</time></trkpt><trkpt lat="45.71701087178912" lon="8.561638507220746"><ele>283.0</ele><time>2026-04-11T15:19:18.999Z</time></trkpt><trkpt lat="45.716958899981115" lon="8.561815901399067"><ele>283.0</ele><time>2026-04-11T15:19:19.999Z</time></trkpt><trkpt lat="45.71689390583244" lon="8.561987289837193"><ele>283.0</ele><time>2026-04-11T15:19:20.999Z</time></trkpt><trkpt lat="45.71681538043098" lon="8.562158121933567"><ele>282.75</ele><time>2026-04-11T15:19:21.999Z</time></trkpt><trkpt lat="45.71673474009765" lon="8.562317019754033"><ele>282.5</ele><time>2026-04-11T15:19:22.999Z</time></trkpt><trkpt lat="45.71664118443539" lon="8.562478816380326"><ele>282.25</ele><time>2026-04-11T15:19:23.999Z</time></trkpt><trkpt lat="45.71654966619117" lon="8.56263867328977"><ele>282.0</ele><time>2026-04-11T15:19:24.999Z</time></trkpt><trkpt lat="45.716463086563515" lon="8.562778509670656"><ele>281.0</ele><time>2026-04-11T15:19:25.999Z</time></trkpt><trkpt lat="45.71637193362525" lon="8.56290906699721"><ele>280.0</ele><time>2026-04-11T15:19:26.999Z</time></trkpt><trkpt lat="45.716270666783544" lon="8.563032004236172"><ele>279.0</ele><time>2026-04-11T15:19:27.999Z</time></trkpt><trkpt lat="45.716162155479886" lon="8.56314840909862"><ele>278.0</ele><time>2026-04-11T15:19:28.999Z</time></trkpt><trkpt lat="45.71604076620809" lon="8.563254652512422"><ele>278.0</ele><time>2026-04-11T15:19:29.999Z</time></trkpt><trkpt lat="45.71592221408492" lon="8.563361942757547"><ele>278.0</ele><time>2026-04-11T15:19:30.999Z</time></trkpt><trkpt lat="45.71581209571519" lon="8.563446467836412"><ele>278.0</ele><time>2026-04-11T15:19:31.999Z</time></trkpt><trkpt lat="45.7156858435618" lon="8.563496081169964"><ele>278.0</ele><time>2026-04-11T15:19:32.999Z</time></trkpt><trkpt lat="45.71554420963944" lon="8.563553531208884"><ele>278.0</ele><time>2026-04-11T15:19:33.999Z</time></trkpt><trkpt lat="45.71539221402412" lon="8.563633202922762"><ele>278.0</ele><time>2026-04-11T15:19:34.999Z</time></trkpt><trkpt lat="45.71525223514536" lon="8.563677590136148"><ele>278.0</ele><time>2026-04-11T15:19:35.999Z</time></trkpt><trkpt lat="45.71512479726176" lon="8.563731174255642"><ele>278.0</ele><time>2026-04-11T15:19:36.999Z</time></trkpt><trkpt lat="45.714998375514426" lon="8.563780220217884"><ele>277.2</ele><time>2026-04-11T15:19:37.999Z</time></trkpt><trkpt lat="45.71487635467996" lon="8.563823668932473"><ele>276.4</ele><time>2026-04-11T15:19:38.999Z</time></trkpt><trkpt lat="45.71476617463841" lon="8.563867741190801"><ele>275.59999999999997</ele><time>2026-04-11T15:19:39.999Z</time></trkpt><trkpt lat="45.71466575915513" lon="8.56390510571015"><ele>274.8</ele><time>2026-04-11T15:19:40.999Z</time></trkpt><trkpt lat="45.71457549659577" lon="8.563941802336574"><ele>274.0</ele><time>2026-04-11T15:19:41.999Z</time></trkpt><trkpt lat="45.714501279651664" lon="8.563969000097215"><ele>273.5</ele><time>2026-04-11T15:19:42.999Z</time></trkpt><trkpt lat="45.71439292455221" lon="8.564063382586939"><ele>273.0</ele><time>2026-04-11T15:19:44.999Z</time></trkpt><trkpt lat="45.71433086916502" lon="8.564125805570962"><ele>272.5</ele><time>2026-04-11T15:19:45.999Z</time></trkpt><trkpt lat="45.7142072309421" lon="8.563962226077175"><ele>272.0</ele><time>2026-04-11T15:19:46.999Z</time></trkpt><trkpt lat="45.714104198735534" lon="8.563931283259503"><ele>272.0</ele><time>2026-04-11T15:19:47.999Z</time></trkpt><trkpt lat="45.71399012014327" lon="8.563872530661635"><ele>272.0</ele><time>2026-04-11T15:19:48.999Z</time></trkpt><trkpt lat="45.713869185695955" lon="8.563816831091126"><ele>272.0</ele><time>2026-04-11T15:19:49.999Z</time></trkpt><trkpt lat="45.713743926235054" lon="8.563760574724444"><ele>272.0</ele><time>2026-04-11T15:19:50.999Z</time></trkpt><trkpt lat="45.71362197358313" lon="8.563709574430582"><ele>273.6</ele><time>2026-04-11T15:19:51.999Z</time></trkpt><trkpt lat="45.7135297325892" lon="8.56361663455579"><ele>275.2</ele><time>2026-04-11T15:19:52.999Z</time></trkpt><trkpt lat="45.71344939703845" lon="8.563518001372103"><ele>276.8</ele><time>2026-04-11T15:19:53.999Z</time></trkpt><trkpt lat="45.71336384656225" lon="8.563411677658234"><ele>278.4</ele><time>2026-04-11T15:19:54.999Z</time></trkpt><trkpt lat="45.71327019947803" lon="8.563314995958516"><ele>280.0</ele><time>2026-04-11T15:19:55.999Z</time></trkpt><trkpt lat="45.7131835669475" lon="8.563208674443766"><ele>280.0</ele><time>2026-04-11T15:19:56.999Z</time></trkpt><trkpt lat="45.7130993405275" lon="8.563111435671296"><ele>280.0</ele><time>2026-04-11T15:19:57.999Z</time></trkpt><trkpt lat="45.713010822359955" lon="8.563047204384569"><ele>280.0</ele><time>2026-04-11T15:19:58.999Z</time></trkpt><trkpt lat="45.712888495553386" lon="8.563016692574188"><ele>280.0</ele><time>2026-04-11T15:19:59.999Z</time></trkpt><trkpt lat="45.712760637150474" lon="8.562983323326302"><ele>278.8</ele><time>2026-04-11T15:20:00.999Z</time></trkpt><trkpt lat="45.712650058966794" lon="8.56294985280946"><ele>277.6</ele><time>2026-04-11T15:20:01.999Z</time></trkpt><trkpt lat="45.712554841022936" lon="8.562928766554245"><ele>276.4</ele><time>2026-04-11T15:20:02.998Z</time></trkpt><trkpt lat="45.712480923834946" lon="8.562911342537374"><ele>275.2</ele><time>2026-04-11T15:20:03.998Z</time></trkpt><trkpt lat="45.71241766123412" lon="8.562894122986858"><ele>274.0</ele><time>2026-04-11T15:20:04.998Z</time></trkpt><trkpt lat="45.71230602952015" lon="8.562864648420248"><ele>274.25</ele><time>2026-04-11T15:20:06.998Z</time></trkpt><trkpt lat="45.712213416669194" lon="8.562818216492706"><ele>274.5</ele><time>2026-04-11T15:20:07.998Z</time></trkpt><trkpt lat="45.712065450097136" lon="8.562799280830628"><ele>274.75</ele><time>2026-04-11T15:20:08.998Z</time></trkpt><trkpt lat="45.71190460415289" lon="8.562728418933757"><ele>275.0</ele><time>2026-04-11T15:20:09.998Z</time></trkpt><trkpt lat="45.71177941959348" lon="8.562692196937457"><ele>275.0</ele><time>2026-04-11T15:20:10.998Z</time></trkpt><trkpt lat="45.711667078916236" lon="8.562659079282428"><ele>275.0</ele><time>2026-04-11T15:20:11.998Z</time></trkpt><trkpt lat="45.71158544206591" lon="8.56263454534002"><ele>275.0</ele><time>2026-04-11T15:20:12.998Z</time></trkpt><trkpt lat="45.71148118519378" lon="8.562587111890105"><ele>275.0</ele><time>2026-04-11T15:20:14.998Z</time></trkpt><trkpt lat="45.7114346641247" lon="8.562410334190357"><ele>275.0</ele><time>2026-04-11T15:20:16.998Z</time></trkpt><trkpt lat="45.71142627368327" lon="8.562285161847957"><ele>275.0</ele><time>2026-04-11T15:20:17.998Z</time></trkpt><trkpt lat="45.711393526548726" lon="8.562133351341549"><ele>275.0</ele><time>2026-04-11T15:20:18.998Z</time></trkpt><trkpt lat="45.71135338674037" lon="8.561945691486395"><ele>275.0</ele><time>2026-04-11T15:20:19.998Z</time></trkpt><trkpt lat="45.7113104045895" lon="8.561716887394637"><ele>275.0</ele><time>2026-04-11T15:20:20.998Z</time></trkpt><trkpt lat="45.711278120872684" lon="8.561510049470563"><ele>276.4</ele><time>2026-04-11T15:20:21.998Z</time></trkpt><trkpt lat="45.71125874177373" lon="8.561333769038148"><ele>277.8</ele><time>2026-04-11T15:20:22.998Z</time></trkpt><trkpt lat="45.71126686485796" lon="8.561183423313203"><ele>279.2</ele><time>2026-04-11T15:20:23.998Z</time></trkpt><trkpt lat="45.71127762066161" lon="8.561052241744564"><ele>280.6</ele><time>2026-04-11T15:20:24.998Z</time></trkpt><trkpt lat="45.71129025003461" lon="8.560956616414323"><ele>282.0</ele><time>2026-04-11T15:20:25.998Z</time></trkpt><trkpt lat="45.7113099433424" lon="8.56080572370966"><ele>282.6</ele><time>2026-04-11T15:20:27.998Z</time></trkpt><trkpt lat="45.71130718784757" lon="8.560657774309405"><ele>283.2</ele><time>2026-04-11T15:20:29.998Z</time></trkpt><trkpt lat="45.71129882925661" lon="8.5605174994172"><ele>283.8</ele><time>2026-04-11T15:20:31.998Z</time></trkpt><trkpt lat="45.71135547410304" lon="8.560396532222631"><ele>284.4</ele><time>2026-04-11T15:20:32.998Z</time></trkpt><trkpt lat="45.71142478631293" lon="8.560246758782121"><ele>285.0</ele><time>2026-04-11T15:20:33.998Z</time></trkpt><trkpt lat="45.71147748084268" lon="8.560079594062215"><ele>286.0</ele><time>2026-04-11T15:20:34.998Z</time></trkpt><trkpt lat="45.71151042929035" lon="8.559892465370869"><ele>287.0</ele><time>2026-04-11T15:20:35.998Z</time></trkpt><trkpt lat="45.711533321800694" lon="8.559719690575095"><ele>288.0</ele><time>2026-04-11T15:20:36.998Z</time></trkpt><trkpt lat="45.711548362515416" lon="8.559586940101335"><ele>289.0</ele><time>2026-04-11T15:20:37.998Z</time></trkpt><trkpt lat="45.71156174407834" lon="8.559448997991428"><ele>290.0</ele><time>2026-04-11T15:20:39.998Z</time></trkpt><trkpt lat="45.711397688549056" lon="8.559408266983363"><ele>290.6666666666667</ele><time>2026-04-11T15:20:40.998Z</time></trkpt><trkpt lat="45.71128194163184" lon="8.559417550902355"><ele>291.3333333333333</ele><time>2026-04-11T15:20:41.998Z</time></trkpt><trkpt lat="45.71112866604092" lon="8.559493969971815"><ele>292.0</ele><time>2026-04-11T15:20:42.998Z</time></trkpt><trkpt lat="45.7109403859977" lon="8.559447142142162"><ele>292.75</ele><time>2026-04-11T15:20:43.998Z</time></trkpt><trkpt lat="45.71080102607477" lon="8.559470511417787"><ele>293.5</ele><time>2026-04-11T15:20:44.998Z</time></trkpt><trkpt lat="45.71067956237351" lon="8.55948794585907"><ele>294.25</ele><time>2026-04-11T15:20:45.998Z</time></trkpt><trkpt lat="45.71054457503544" lon="8.559587391895922"><ele>295.0</ele><time>2026-04-11T15:20:46.998Z</time></trkpt><trkpt lat="45.710385324653586" lon="8.5597477306207"><ele>296.66666666666663</ele><time>2026-04-11T15:20:47.998Z</time></trkpt><trkpt lat="45.71022736113481" lon="8.559890030705603"><ele>298.3333333333333</ele><time>2026-04-11T15:20:48.998Z</time></trkpt><trkpt lat="45.71006777464248" lon="8.560028255265708"><ele>300.0</ele><time>2026-04-11T15:20:49.998Z</time></trkpt><trkpt lat="45.70992360827989" lon="8.560145777451286"><ele>300.0</ele><time>2026-04-11T15:20:50.998Z</time></trkpt><trkpt lat="45.709799137183666" lon="8.560261687162667"><ele>300.0</ele><time>2026-04-11T15:20:51.998Z</time></trkpt><trkpt lat="45.709684526075755" lon="8.560357125405988"><ele>300.0</ele><time>2026-04-11T15:20:52.998Z</time></trkpt><trkpt lat="45.70956638286001" lon="8.56045564634098"><ele>300.0</ele><time>2026-04-11T15:20:53.998Z</time></trkpt><trkpt lat="45.70945225379038" lon="8.560559092186342"><ele>300.75</ele><time>2026-04-11T15:20:54.998Z</time></trkpt><trkpt lat="45.70933941256857" lon="8.560637823243534"><ele>301.5</ele><time>2026-04-11T15:20:55.998Z</time></trkpt><trkpt lat="45.70922032459297" lon="8.560671521390507"><ele>302.25</ele><time>2026-04-11T15:20:56.998Z</time></trkpt><trkpt lat="45.709090271166545" lon="8.560670240577835"><ele>303.0</ele><time>2026-04-11T15:20:57.998Z</time></trkpt><trkpt lat="45.708957733072715" lon="8.560638387084875"><ele>303.0</ele><time>2026-04-11T15:20:58.997Z</time></trkpt><trkpt lat="45.70882825323473" lon="8.560583310922791"><ele>303.0</ele><time>2026-04-11T15:20:59.997Z</time></trkpt><trkpt lat="45.70870773210088" lon="8.560531194444497"><ele>303.0</ele><time>2026-04-11T15:21:01Z</time></trkpt><trkpt lat="45.708593910178735" lon="8.560486450311107"><ele>303.0</ele><time>2026-04-11T15:21:02Z</time></trkpt><trkpt lat="45.708494965923634" lon="8.560446201807684"><ele>303.25</ele><time>2026-04-11T15:21:03Z</time></trkpt><trkpt lat="45.70837557528611" lon="8.560403621462704"><ele>303.5</ele><time>2026-04-11T15:21:04Z</time></trkpt><trkpt lat="45.708217583112884" lon="8.560324330268415"><ele>303.75</ele><time>2026-04-11T15:21:05Z</time></trkpt><trkpt lat="45.70809836935399" lon="8.560247058261805"><ele>304.0</ele><time>2026-04-11T15:21:06Z</time></trkpt><trkpt lat="45.708010737908666" lon="8.560148658314077"><ele>304.5</ele><time>2026-04-11T15:21:07Z</time></trkpt><trkpt lat="45.707924498773366" lon="8.560016896691419"><ele>305.0</ele><time>2026-04-11T15:21:08Z</time></trkpt><trkpt lat="45.707869675827055" lon="8.559849555677271"><ele>305.5</ele><time>2026-04-11T15:21:09Z</time></trkpt><trkpt lat="45.70783605198393" lon="8.559666252023785"><ele>306.0</ele><time>2026-04-11T15:21:10Z</time></trkpt><trkpt lat="45.707820889791094" lon="8.559476697596734"><ele>307.0</ele><time>2026-04-11T15:21:11Z</time></trkpt><trkpt lat="45.70781196891072" lon="8.559287800371576"><ele>308.0</ele><time>2026-04-11T15:21:12Z</time></trkpt><trkpt lat="45.707796841037684" lon="8.55909802378391"><ele>309.0</ele><time>2026-04-11T15:21:13Z</time></trkpt><trkpt lat="45.70777840423644" lon="8.558908270526786"><ele>310.0</ele><time>2026-04-11T15:21:14Z</time></trkpt><trkpt lat="45.70776068163565" lon="8.558738331125507"><ele>310.6</ele><time>2026-04-11T15:21:15Z</time></trkpt><trkpt lat="45.70774579993776" lon="8.558583254166045"><ele>311.2</ele><time>2026-04-11T15:21:16Z</time></trkpt><trkpt lat="45.70773376734283" lon="8.558434322025732"><ele>311.8</ele><time>2026-04-11T15:21:17Z</time></trkpt><trkpt lat="45.70772909871539" lon="8.558307141904793"><ele>312.4</ele><time>2026-04-11T15:21:18Z</time></trkpt><trkpt lat="45.70771807384552" lon="8.55820245896095"><ele>313.0</ele><time>2026-04-11T15:21:19Z</time></trkpt><trkpt lat="45.707709059998464" lon="8.55809902745911"><ele>315.3333333333333</ele><time>2026-04-11T15:21:20Z</time></trkpt><trkpt lat="45.70770213838715" lon="8.55798602753028"><ele>317.66666666666663</ele><time>2026-04-11T15:21:21Z</time></trkpt><trkpt lat="45.707691959412024" lon="8.557871633972988"><ele>320.0</ele><time>2026-04-11T15:21:22Z</time></trkpt><trkpt lat="45.707677313860906" lon="8.557751456985121"><ele>322.3333333333333</ele><time>2026-04-11T15:21:23Z</time></trkpt><trkpt lat="45.70765796920615" lon="8.557626521603154"><ele>324.6666666666667</ele><time>2026-04-11T15:21:24Z</time></trkpt><trkpt lat="45.707632060742355" lon="8.557474583127863"><ele>327.0</ele><time>2026-04-11T15:21:25Z</time></trkpt><trkpt lat="45.707589111708735" lon="8.55730594737926"><ele>327.75</ele><time>2026-04-11T15:21:25.999Z</time></trkpt><trkpt lat="45.70751628658328" lon="8.557140456393448"><ele>328.5</ele><time>2026-04-11T15:21:26.999Z</time></trkpt><trkpt lat="45.707423560444425" lon="8.556992646786346"><ele>329.25</ele><time>2026-04-11T15:21:27.999Z</time></trkpt><trkpt lat="45.70731465014736" lon="8.556878996480355"><ele>330.0</ele><time>2026-04-11T15:21:28.999Z</time></trkpt><trkpt lat="45.707191466288485" lon="8.556798558704621"><ele>330.25</ele><time>2026-04-11T15:21:29.999Z</time></trkpt><trkpt lat="45.707080436038474" lon="8.55670071954874"><ele>330.5</ele><time>2026-04-11T15:21:30.999Z</time></trkpt><trkpt lat="45.70696815909431" lon="8.556621250329288"><ele>330.75</ele><time>2026-04-11T15:21:31.999Z</time></trkpt><trkpt lat="45.706856753734236" lon="8.556543160722628"><ele>331.0</ele><time>2026-04-11T15:21:32.999Z</time></trkpt><trkpt lat="45.70673708397788" lon="8.556459278179975"><ele>334.3333333333333</ele><time>2026-04-11T15:21:33.999Z</time></trkpt><trkpt lat="45.70658015383034" lon="8.556349280007566"><ele>337.6666666666667</ele><time>2026-04-11T15:21:34.999Z</time></trkpt><trkpt lat="45.70639642763522" lon="8.556220496863052"><ele>341.0</ele><time>2026-04-11T15:21:35.999Z</time></trkpt><trkpt lat="45.706227220489794" lon="8.556101953756118"><ele>341.5</ele><time>2026-04-11T15:21:36.999Z</time></trkpt><trkpt lat="45.70608882549498" lon="8.556005042600209"><ele>342.0</ele><time>2026-04-11T15:21:37.999Z</time></trkpt><trkpt lat="45.70596956651813" lon="8.555921480351303"><ele>342.5</ele><time>2026-04-11T15:21:38.999Z</time></trkpt><trkpt lat="45.70585130272436" lon="8.555838615404921"><ele>343.0</ele><time>2026-04-11T15:21:39.999Z</time></trkpt><trkpt lat="45.705732011411726" lon="8.555755030521645"><ele>344.75</ele><time>2026-04-11T15:21:40.999Z</time></trkpt><trkpt lat="45.70562024878617" lon="8.555676031110433"><ele>346.5</ele><time>2026-04-11T15:21:41.999Z</time></trkpt><trkpt lat="45.705516807672" lon="8.555602663857643"><ele>348.25</ele><time>2026-04-11T15:21:42.999Z</time></trkpt><trkpt lat="45.7054137722018" lon="8.555529584352469"><ele>350.0</ele><time>2026-04-11T15:21:43.999Z</time></trkpt><trkpt lat="45.70530838165321" lon="8.555454834443834"><ele>353.0</ele><time>2026-04-11T15:21:44.999Z</time></trkpt><trkpt lat="45.70520626768223" lon="8.555382408520945"><ele>356.0</ele><time>2026-04-11T15:21:45.999Z</time></trkpt><trkpt lat="45.705096094293424" lon="8.55530426312596"><ele>359.0</ele><time>2026-04-11T15:21:46.999Z</time></trkpt><trkpt lat="45.70498919238989" lon="8.555228162346069"><ele>362.0</ele><time>2026-04-11T15:21:47.999Z</time></trkpt><trkpt lat="45.70488465012842" lon="8.555153741358366"><ele>362.25</ele><time>2026-04-11T15:21:48.999Z</time></trkpt><trkpt lat="45.70478549514684" lon="8.55508315542256"><ele>362.5</ele><time>2026-04-11T15:21:49.999Z</time></trkpt><trkpt lat="45.70468548540142" lon="8.55501308281175"><ele>362.75</ele><time>2026-04-11T15:21:50.999Z</time></trkpt><trkpt lat="45.70457554842776" lon="8.554936253732057"><ele>363.0</ele><time>2026-04-11T15:21:51.999Z</time></trkpt><trkpt lat="45.70445719530842" lon="8.554853319182232"><ele>363.25</ele><time>2026-04-11T15:21:52.999Z</time></trkpt><trkpt lat="45.70432783478407" lon="8.55476267132365"><ele>363.5</ele><time>2026-04-11T15:21:53.999Z</time></trkpt><trkpt lat="45.70419359634704" lon="8.554668385139944"><ele>363.75</ele><time>2026-04-11T15:21:54.999Z</time></trkpt><trkpt lat="45.704059564273685" lon="8.554573531910547"><ele>364.0</ele><time>2026-04-11T15:21:55.999Z</time></trkpt><trkpt lat="45.70392755493634" lon="8.55448011011096"><ele>364.0</ele><time>2026-04-11T15:21:56.999Z</time></trkpt><trkpt lat="45.70379356246409" lon="8.554385284915874"><ele>364.0</ele><time>2026-04-11T15:21:57.999Z</time></trkpt><trkpt lat="45.703651057181595" lon="8.554284435281856"><ele>364.0</ele><time>2026-04-11T15:21:58.999Z</time></trkpt><trkpt lat="45.703510381955844" lon="8.554184880761708"><ele>365.0</ele><time>2026-04-11T15:21:59.999Z</time></trkpt><trkpt lat="45.70337137070307" lon="8.554086503790403"><ele>366.0</ele><time>2026-04-11T15:22:00.999Z</time></trkpt><trkpt lat="45.703243131791474" lon="8.553997548409669"><ele>367.0</ele><time>2026-04-11T15:22:01.999Z</time></trkpt><trkpt lat="45.70311359222647" lon="8.553905883127136"><ele>368.0</ele><time>2026-04-11T15:22:02.999Z</time></trkpt><trkpt lat="45.702986890285445" lon="8.553816891907367"><ele>368.0</ele><time>2026-04-11T15:22:03.999Z</time></trkpt><trkpt lat="45.70285873989295" lon="8.553729859226449"><ele>368.0</ele><time>2026-04-11T15:22:04.999Z</time></trkpt><trkpt lat="45.702720812550886" lon="8.55364204397995"><ele>368.0</ele><time>2026-04-11T15:22:05.999Z</time></trkpt><trkpt lat="45.70257640214322" lon="8.553556399429356"><ele>368.0</ele><time>2026-04-11T15:22:06.999Z</time></trkpt><trkpt lat="45.70242777538881" lon="8.553472973857515"><ele>370.33333333333337</ele><time>2026-04-11T15:22:07.999Z</time></trkpt><trkpt lat="45.70227917590239" lon="8.553389207602521"><ele>372.6666666666667</ele><time>2026-04-11T15:22:08.999Z</time></trkpt><trkpt lat="45.70212341470164" lon="8.553300906293527"><ele>375.0</ele><time>2026-04-11T15:22:09.999Z</time></trkpt><trkpt lat="45.70196682858233" lon="8.553213672126375"><ele>373.6666666666667</ele><time>2026-04-11T15:22:10.999Z</time></trkpt><trkpt lat="45.70181330483791" lon="8.553129682524894"><ele>372.33333333333337</ele><time>2026-04-11T15:22:11.999Z</time></trkpt><trkpt lat="45.70166911406712" lon="8.553051375251364"><ele>371.0</ele><time>2026-04-11T15:22:12.999Z</time></trkpt><trkpt lat="45.70154324358793" lon="8.552983016996144"><ele>371.0</ele><time>2026-04-11T15:22:13.999Z</time></trkpt><trkpt lat="45.701442188412315" lon="8.552927945652245"><ele>371.0</ele><time>2026-04-11T15:22:14.999Z</time></trkpt><trkpt lat="45.70137374218783" lon="8.552889836200471"><ele>371.0</ele><time>2026-04-11T15:22:15.999Z</time></trkpt><trkpt lat="45.70129733581669" lon="8.55308337747111"><ele>371.0</ele><time>2026-04-11T15:22:18.999Z</time></trkpt><trkpt lat="45.70127998470411" lon="8.553185881974128"><ele>371.0</ele><time>2026-04-11T15:22:21.999Z</time></trkpt><trkpt lat="45.70125560818528" lon="8.55331189927279"><ele>371.0</ele><time>2026-04-11T15:22:23.999Z</time></trkpt><trkpt lat="45.70123860747696" lon="8.553418830310443"><ele>371.0</ele><time>2026-04-11T15:22:24.999Z</time></trkpt><trkpt lat="45.70121925728662" lon="8.553521420480891"><ele>371.0</ele><time>2026-04-11T15:22:25.999Z</time></trkpt><trkpt lat="45.701186525170165" lon="8.553681117025944"><ele>371.0</ele><time>2026-04-11T15:22:27.998Z</time></trkpt><trkpt lat="45.70115200200181" lon="8.553830025530674"><ele>371.0</ele><time>2026-04-11T15:22:29.998Z</time></trkpt><trkpt lat="45.70112310385291" lon="8.553997693342335"><ele>370.8</ele><time>2026-04-11T15:22:31.998Z</time></trkpt><trkpt lat="45.70109574937482" lon="8.554165818102303"><ele>370.6</ele><time>2026-04-11T15:22:33.998Z</time></trkpt><trkpt lat="45.701064394050256" lon="8.554349195006104"><ele>370.4</ele><time>2026-04-11T15:22:35.998Z</time></trkpt><trkpt lat="45.70104675352471" lon="8.554442256498415"><ele>370.2</ele><time>2026-04-11T15:22:36.998Z</time></trkpt><trkpt lat="45.70103050399765" lon="8.554535625777081"><ele>370.0</ele><time>2026-04-11T15:22:37.998Z</time></trkpt><trkpt lat="45.70101012226963" lon="8.554628461421693"><ele>368.8333333333333</ele><time>2026-04-11T15:22:38.998Z</time></trkpt><trkpt lat="45.70098857963304" lon="8.554727504835975"><ele>367.66666666666663</ele><time>2026-04-11T15:22:39.998Z</time></trkpt><trkpt lat="45.700968178201755" lon="8.554845424640025"><ele>366.5</ele><time>2026-04-11T15:22:40.998Z</time></trkpt><trkpt lat="45.70094634572054" lon="8.554966790042506"><ele>365.3333333333333</ele><time>2026-04-11T15:22:41.998Z</time></trkpt><trkpt lat="45.700919346501585" lon="8.555084988240232"><ele>364.1666666666667</ele><time>2026-04-11T15:22:42.998Z</time></trkpt><trkpt lat="45.7008992595283" lon="8.5552028463943"><ele>363.0</ele><time>2026-04-11T15:22:43.998Z</time></trkpt><trkpt lat="45.700878609050875" lon="8.555322168696708"><ele>363.0</ele><time>2026-04-11T15:22:44.998Z</time></trkpt><trkpt lat="45.700843944967595" lon="8.555492448931266"><ele>363.0</ele><time>2026-04-11T15:22:45.998Z</time></trkpt><trkpt lat="45.700808611337045" lon="8.555692503523037"><ele>363.0</ele><time>2026-04-11T15:22:46.998Z</time></trkpt><trkpt lat="45.700762918344225" lon="8.555914200300315"><ele>363.0</ele><time>2026-04-11T15:22:47.998Z</time></trkpt><trkpt lat="45.70071345732038" lon="8.556153088788646"><ele>362.3333333333333</ele><time>2026-04-11T15:22:48.998Z</time></trkpt><trkpt lat="45.70066861252155" lon="8.556383636764053"><ele>361.66666666666663</ele><time>2026-04-11T15:22:49.998Z</time></trkpt><trkpt lat="45.700631787769005" lon="8.556597481498608"><ele>361.0</ele><time>2026-04-11T15:22:50.998Z</time></trkpt><trkpt lat="45.70059601634295" lon="8.556812027635845"><ele>361.0</ele><time>2026-04-11T15:22:51.998Z</time></trkpt><trkpt lat="45.700557292593494" lon="8.557022776689292"><ele>361.0</ele><time>2026-04-11T15:22:52.998Z</time></trkpt><trkpt lat="45.70051788458561" lon="8.557219247305103"><ele>361.0</ele><time>2026-04-11T15:22:53.998Z</time></trkpt><trkpt lat="45.70047762383669" lon="8.557437366757853"><ele>360.66666666666663</ele><time>2026-04-11T15:22:54.998Z</time></trkpt><trkpt lat="45.70043779062469" lon="8.557656592752668"><ele>360.3333333333333</ele><time>2026-04-11T15:22:55.998Z</time></trkpt><trkpt lat="45.70039478680794" lon="8.557878509235438"><ele>360.0</ele><time>2026-04-11T15:22:56.998Z</time></trkpt><trkpt lat="45.7003602282954" lon="8.55806410412583"><ele>359.75</ele><time>2026-04-11T15:22:57.998Z</time></trkpt><trkpt lat="45.70032483937379" lon="8.558244098184517"><ele>359.5</ele><time>2026-04-11T15:22:58.998Z</time></trkpt><trkpt lat="45.700291451095566" lon="8.558427236490138"><ele>359.25</ele><time>2026-04-11T15:22:59.998Z</time></trkpt><trkpt lat="45.70025670631036" lon="8.558591327822084"><ele>359.0</ele><time>2026-04-11T15:23:00.998Z</time></trkpt><trkpt lat="45.7002285227908" lon="8.558757809346284"><ele>358.0</ele><time>2026-04-11T15:23:01.998Z</time></trkpt><trkpt lat="45.70019769590725" lon="8.55892501060324"><ele>357.0</ele><time>2026-04-11T15:23:02.998Z</time></trkpt><trkpt lat="45.700168005787226" lon="8.559101220142523"><ele>356.0</ele><time>2026-04-11T15:23:03.998Z</time></trkpt><trkpt lat="45.700126584218765" lon="8.559299193231714"><ele>355.0</ele><time>2026-04-11T15:23:04.998Z</time></trkpt><trkpt lat="45.70008242912696" lon="8.55950359823513"><ele>355.0</ele><time>2026-04-11T15:23:05.998Z</time></trkpt><trkpt lat="45.700040836770924" lon="8.559712607530551"><ele>355.0</ele><time>2026-04-11T15:23:07Z</time></trkpt><trkpt lat="45.70000119205633" lon="8.559914027412065"><ele>355.0</ele><time>2026-04-11T15:23:08Z</time></trkpt><trkpt lat="45.699942535419666" lon="8.56010753651039"><ele>355.0</ele><time>2026-04-11T15:23:09Z</time></trkpt><trkpt lat="45.69990425729892" lon="8.560285749701935"><ele>355.0</ele><time>2026-04-11T15:23:10Z</time></trkpt><trkpt lat="45.69986976217931" lon="8.560443348043487"><ele>355.0</ele><time>2026-04-11T15:23:11Z</time></trkpt><trkpt lat="45.69983329593174" lon="8.56061292600296"><ele>355.0</ele><time>2026-04-11T15:23:12Z</time></trkpt><trkpt lat="45.69979609672664" lon="8.560794806582383"><ele>355.0</ele><time>2026-04-11T15:23:13Z</time></trkpt><trkpt lat="45.69976206728594" lon="8.56098203224284"><ele>355.0</ele><time>2026-04-11T15:23:14Z</time></trkpt><trkpt lat="45.69973355896312" lon="8.561156830332155"><ele>355.0</ele><time>2026-04-11T15:23:15Z</time></trkpt><trkpt lat="45.69970610281987" lon="8.561341477703554"><ele>355.0</ele><time>2026-04-11T15:23:16Z</time></trkpt><trkpt lat="45.69967955923209" lon="8.56152225732907"><ele>355.0</ele><time>2026-04-11T15:23:17Z</time></trkpt><trkpt lat="45.699659620077405" lon="8.56171970043319"><ele>354.75</ele><time>2026-04-11T15:23:18Z</time></trkpt><trkpt lat="45.699626528673384" lon="8.56190700381149"><ele>354.5</ele><time>2026-04-11T15:23:19Z</time></trkpt><trkpt lat="45.699588990559484" lon="8.562082243495"><ele>354.25</ele><time>2026-04-11T15:23:20Z</time></trkpt><trkpt lat="45.699552352001454" lon="8.562258090112723"><ele>354.0</ele><time>2026-04-11T15:23:21Z</time></trkpt><trkpt lat="45.69951736061471" lon="8.562444884153342"><ele>353.75</ele><time>2026-04-11T15:23:22Z</time></trkpt><trkpt lat="45.69948467593935" lon="8.562613927488508"><ele>353.5</ele><time>2026-04-11T15:23:23Z</time></trkpt><trkpt lat="45.699452744328454" lon="8.562768312689562"><ele>353.25</ele><time>2026-04-11T15:23:24Z</time></trkpt><trkpt lat="45.699426981623546" lon="8.562932362687777"><ele>353.0</ele><time>2026-04-11T15:23:25Z</time></trkpt><trkpt lat="45.699388095960586" lon="8.56309918594785"><ele>352.4</ele><time>2026-04-11T15:23:26Z</time></trkpt><trkpt lat="45.699347161710726" lon="8.563257743436813"><ele>351.79999999999995</ele><time>2026-04-11T15:23:27Z</time></trkpt><trkpt lat="45.6993162958274" lon="8.563395126417628"><ele>351.2</ele><time>2026-04-11T15:23:28Z</time></trkpt><trkpt lat="45.69928871678678" lon="8.56353621881384"><ele>350.6</ele><time>2026-04-11T15:23:29Z</time></trkpt><trkpt lat="45.69926216210436" lon="8.56367769372733"><ele>350.0</ele><time>2026-04-11T15:23:30Z</time></trkpt><trkpt lat="45.699230153825454" lon="8.56383950131956"><ele>349.75</ele><time>2026-04-11T15:23:31Z</time></trkpt><trkpt lat="45.69919435102226" lon="8.564016090531453"><ele>349.5</ele><time>2026-04-11T15:23:32Z</time></trkpt><trkpt lat="45.69916174245451" lon="8.564203924396798"><ele>349.25</ele><time>2026-04-11T15:23:33Z</time></trkpt><trkpt lat="45.699124939065285" lon="8.564385861848312"><ele>349.0</ele><time>2026-04-11T15:23:34Z</time></trkpt><trkpt lat="45.699093623430386" lon="8.564538150764742"><ele>349.75</ele><time>2026-04-11T15:23:35Z</time></trkpt><trkpt lat="45.69905968854074" lon="8.564705479410595"><ele>350.5</ele><time>2026-04-11T15:23:36Z</time></trkpt><trkpt lat="45.699026224887874" lon="8.564871835046429"><ele>351.25</ele><time>2026-04-11T15:23:37Z</time></trkpt><trkpt lat="45.698989662227426" lon="8.565043061990236"><ele>352.0</ele><time>2026-04-11T15:23:38Z</time></trkpt><trkpt lat="45.698959364433605" lon="8.565220894718895"><ele>352.25</ele><time>2026-04-11T15:23:39Z</time></trkpt><trkpt lat="45.6989233400639" lon="8.565401323265268"><ele>352.5</ele><time>2026-04-11T15:23:40Z</time></trkpt><trkpt lat="45.69888987183661" lon="8.565580631131501"><ele>352.75</ele><time>2026-04-11T15:23:41Z</time></trkpt><trkpt lat="45.69884077033168" lon="8.565748732842613"><ele>353.0</ele><time>2026-04-11T15:23:42Z</time></trkpt><trkpt lat="45.698818704757656" lon="8.565919592772604"><ele>353.0</ele><time>2026-04-11T15:23:43Z</time></trkpt><trkpt lat="45.69879503655672" lon="8.566086872693088"><ele>353.0</ele><time>2026-04-11T15:23:44Z</time></trkpt><trkpt lat="45.698759956416396" lon="8.566241302745437"><ele>353.0</ele><time>2026-04-11T15:23:45Z</time></trkpt><trkpt lat="45.69873228032398" lon="8.566389626537735"><ele>353.0</ele><time>2026-04-11T15:23:46Z</time></trkpt><trkpt lat="45.69869986456666" lon="8.566538243219638"><ele>353.0</ele><time>2026-04-11T15:23:47Z</time></trkpt><trkpt lat="45.69866834789534" lon="8.566699228572402"><ele>353.0</ele><time>2026-04-11T15:23:48Z</time></trkpt><trkpt lat="45.69862147436411" lon="8.566859334911195"><ele>353.0</ele><time>2026-04-11T15:23:49Z</time></trkpt><trkpt lat="45.69858899450101" lon="8.567015221779332"><ele>353.0</ele><time>2026-04-11T15:23:50Z</time></trkpt><trkpt lat="45.69855548922249" lon="8.567185835206367"><ele>353.0</ele><time>2026-04-11T15:23:51Z</time></trkpt><trkpt lat="45.69852518925397" lon="8.567344977471732"><ele>351.59999999999997</ele><time>2026-04-11T15:23:52Z</time></trkpt><trkpt lat="45.69851533345178" lon="8.567495513333688"><ele>350.2</ele><time>2026-04-11T15:23:53Z</time></trkpt><trkpt lat="45.69848298066514" lon="8.56763608073944"><ele>348.8</ele><time>2026-04-11T15:23:54Z</time></trkpt><trkpt lat="45.698462628527736" lon="8.567781483655061"><ele>347.4</ele><time>2026-04-11T15:23:55Z</time></trkpt><trkpt lat="45.69843633977813" lon="8.567913824138087"><ele>346.0</ele><time>2026-04-11T15:23:56Z</time></trkpt><trkpt lat="45.69841650607129" lon="8.568016582927815"><ele>346.0</ele><time>2026-04-11T15:23:56.999Z</time></trkpt><trkpt lat="45.69837284862045" lon="8.56809142949034"><ele>346.0</ele><time>2026-04-11T15:23:58.999Z</time></trkpt><trkpt lat="45.69834077668623" lon="8.56819087146821"><ele>346.0</ele><time>2026-04-11T15:24:01.999Z</time></trkpt><trkpt lat="45.69817137975114" lon="8.56818326736214"><ele>346.0</ele><time>2026-04-11T15:24:02.999Z</time></trkpt><trkpt lat="45.69808340759857" lon="8.568171978737364"><ele>346.0</ele><time>2026-04-11T15:24:03.999Z</time></trkpt><trkpt lat="45.698013668468874" lon="8.568154906024926"><ele>346.0</ele><time>2026-04-11T15:24:04.999Z</time></trkpt><trkpt lat="45.69790986032934" lon="8.568117964177116"><ele>346.0</ele><time>2026-04-11T15:24:05.999Z</time></trkpt><trkpt lat="45.697807586325524" lon="8.568080934021914"><ele>346.0</ele><time>2026-04-11T15:24:06.999Z</time></trkpt><trkpt lat="45.69770132128717" lon="8.568055249723757"><ele>346.0</ele><time>2026-04-11T15:24:07.999Z</time></trkpt><trkpt lat="45.69761667364832" lon="8.568056599078588"><ele>346.0</ele><time>2026-04-11T15:24:08.999Z</time></trkpt><trkpt lat="45.697548955269255" lon="8.568076716752321"><ele>345.0</ele><time>2026-04-11T15:24:09.999Z</time></trkpt><trkpt lat="45.697452477613794" lon="8.56811932592789"><ele>344.0</ele><time>2026-04-11T15:24:10.999Z</time></trkpt><trkpt lat="45.697358694333985" lon="8.568178948871894"><ele>343.0</ele><time>2026-04-11T15:24:11.999Z</time></trkpt><trkpt lat="45.69726600211339" lon="8.568217420169812"><ele>342.0</ele><time>2026-04-11T15:24:12.999Z</time></trkpt><trkpt lat="45.69718961324068" lon="8.568261999556794"><ele>341.0</ele><time>2026-04-11T15:24:13.999Z</time></trkpt><trkpt lat="45.69711115001543" lon="8.568302029193163"><ele>341.0</ele><time>2026-04-11T15:24:14.999Z</time></trkpt><trkpt lat="45.69704738745659" lon="8.568332300074406"><ele>341.0</ele><time>2026-04-11T15:24:15.999Z</time></trkpt><trkpt lat="45.69695709342088" lon="8.568355382400393"><ele>341.0</ele><time>2026-04-11T15:24:16.999Z</time></trkpt><trkpt lat="45.6968643463209" lon="8.568353136148966"><ele>341.0</ele><time>2026-04-11T15:24:17.999Z</time></trkpt><trkpt lat="45.69678947590052" lon="8.56833804402834"><ele>341.0</ele><time>2026-04-11T15:24:18.999Z</time></trkpt><trkpt lat="45.6967219868562" lon="8.568299831049575"><ele>341.0</ele><time>2026-04-11T15:24:19.999Z</time></trkpt><trkpt lat="45.696644777205904" lon="8.568229273882888"><ele>340.1666666666667</ele><time>2026-04-11T15:24:21.999Z</time></trkpt><trkpt lat="45.696553966666606" lon="8.568214788420693"><ele>339.33333333333337</ele><time>2026-04-11T15:24:35.999Z</time></trkpt><trkpt lat="45.69651418665103" lon="8.568309129792121"><ele>338.5</ele><time>2026-04-11T15:24:37.999Z</time></trkpt><trkpt lat="45.69646415856625" lon="8.568402491149751"><ele>337.6666666666667</ele><time>2026-04-11T15:24:39.999Z</time></trkpt><trkpt lat="45.69636486565488" lon="8.568374905233119"><ele>336.8333333333333</ele><time>2026-04-11T15:24:41.999Z</time></trkpt><trkpt lat="45.69627795149309" lon="8.568356491691503"><ele>336.0</ele><time>2026-04-11T15:24:42.999Z</time></trkpt><trkpt lat="45.69618684391401" lon="8.568310027246316"><ele>336.0</ele><time>2026-04-11T15:24:43.999Z</time></trkpt><trkpt lat="45.69610688585593" lon="8.568272899010001"><ele>336.0</ele><time>2026-04-11T15:24:44.999Z</time></trkpt><trkpt lat="45.69603400614652" lon="8.56823652385593"><ele>336.0</ele><time>2026-04-11T15:24:45.999Z</time></trkpt><trkpt lat="45.69592193591264" lon="8.568185595737495"><ele>336.0</ele><time>2026-04-11T15:24:46.999Z</time></trkpt><trkpt lat="45.6958118126904" lon="8.568149480971952"><ele>336.0</ele><time>2026-04-11T15:24:47.999Z</time></trkpt><trkpt lat="45.695725654974616" lon="8.568126496294521"><ele>336.5</ele><time>2026-04-11T15:24:48.999Z</time></trkpt><trkpt lat="45.695668967264545" lon="8.56807369877419"><ele>337.0</ele><time>2026-04-11T15:24:49.999Z</time></trkpt><trkpt lat="45.69561191212113" lon="8.567930062754975"><ele>337.5</ele><time>2026-04-11T15:24:51.999Z</time></trkpt><trkpt lat="45.69559004090474" lon="8.567833339474072"><ele>338.0</ele><time>2026-04-11T15:24:52.999Z</time></trkpt><trkpt lat="45.69557339155349" lon="8.56772184616668"><ele>338.5</ele><time>2026-04-11T15:24:53.999Z</time></trkpt><trkpt lat="45.69555282085565" lon="8.56760201576684"><ele>339.0</ele><time>2026-04-11T15:24:54.999Z</time></trkpt><trkpt lat="45.695536743705475" lon="8.567462092294578"><ele>339.25</ele><time>2026-04-11T15:24:55.998Z</time></trkpt><trkpt lat="45.69551831656583" lon="8.567295102354946"><ele>339.5</ele><time>2026-04-11T15:24:56.998Z</time></trkpt><trkpt lat="45.69553989173098" lon="8.567126765530732"><ele>339.75</ele><time>2026-04-11T15:24:57.998Z</time></trkpt><trkpt lat="45.69551846701964" lon="8.566972122684414"><ele>340.0</ele><time>2026-04-11T15:24:58.998Z</time></trkpt><trkpt lat="45.69549503231884" lon="8.566790032111124"><ele>340.0</ele><time>2026-04-11T15:24:59.998Z</time></trkpt><trkpt lat="45.695480854466204" lon="8.566626356702125"><ele>340.0</ele><time>2026-04-11T15:25:00.998Z</time></trkpt><trkpt lat="45.69547027170654" lon="8.56648111129778"><ele>340.0</ele><time>2026-04-11T15:25:01.998Z</time></trkpt><trkpt lat="45.69545819943278" lon="8.566331078762097"><ele>340.0</ele><time>2026-04-11T15:25:02.998Z</time></trkpt><trkpt lat="45.69543556273863" lon="8.566191022069935"><ele>340.0</ele><time>2026-04-11T15:25:03.998Z</time></trkpt><trkpt lat="45.69541135971035" lon="8.566050660695591"><ele>340.6</ele><time>2026-04-11T15:25:04.998Z</time></trkpt><trkpt lat="45.69539346807162" lon="8.56592576238208"><ele>341.2</ele><time>2026-04-11T15:25:05.998Z</time></trkpt><trkpt lat="45.695370071616125" lon="8.565827516445989"><ele>341.79999999999995</ele><time>2026-04-11T15:25:06.998Z</time></trkpt><trkpt lat="45.69538595102729" lon="8.565701014783391"><ele>342.4</ele><time>2026-04-11T15:25:08.998Z</time></trkpt><trkpt lat="45.69531340345" lon="8.565615232144324"><ele>343.0</ele><time>2026-04-11T15:25:11.998Z</time></trkpt><trkpt lat="45.69511923632478" lon="8.565755199450848"><ele>343.66666666666663</ele><time>2026-04-11T15:25:13.001Z</time></trkpt><trkpt lat="45.69504714489535" lon="8.565751498049199"><ele>344.3333333333333</ele><time>2026-04-11T15:25:14.001Z</time></trkpt><trkpt lat="45.69496646305025" lon="8.565766682011065"><ele>345.0</ele><time>2026-04-11T15:25:15.001Z</time></trkpt><trkpt lat="45.69485892103526" lon="8.565791831591268"><ele>345.6666666666667</ele><time>2026-04-11T15:25:17.001Z</time></trkpt><trkpt lat="45.694788433208366" lon="8.565789497940221"><ele>346.33333333333337</ele><time>2026-04-11T15:25:18.001Z</time></trkpt><trkpt lat="45.69472591695439" lon="8.565754636207489"><ele>347.0</ele><time>2026-04-11T15:25:19.001Z</time></trkpt><trkpt lat="45.694638814405906" lon="8.565716726402432"><ele>347.0</ele><time>2026-04-11T15:25:20.001Z</time></trkpt><trkpt lat="45.694561324736725" lon="8.565694197173174"><ele>347.0</ele><time>2026-04-11T15:25:21.001Z</time></trkpt><trkpt lat="45.69446879583323" lon="8.565679476897783"><ele>347.0</ele><time>2026-04-11T15:25:22.001Z</time></trkpt><trkpt lat="45.69439485420728" lon="8.565673171357604"><ele>347.0</ele><time>2026-04-11T15:25:23.001Z</time></trkpt><trkpt lat="45.69430396054417" lon="8.565662901417086"><ele>347.0</ele><time>2026-04-11T15:25:24.001Z</time></trkpt><trkpt lat="45.69422270753804" lon="8.565657994843189"><ele>347.0</ele><time>2026-04-11T15:25:25.001Z</time></trkpt><trkpt lat="45.69409038608526" lon="8.565661223052741"><ele>347.0</ele><time>2026-04-11T15:25:27.001Z</time></trkpt><trkpt lat="45.694008619151056" lon="8.565692867746606"><ele>347.0</ele><time>2026-04-11T15:25:28.001Z</time></trkpt><trkpt lat="45.6939298849547" lon="8.565746328547773"><ele>347.0</ele><time>2026-04-11T15:25:29.001Z</time></trkpt><trkpt lat="45.69386386345111" lon="8.565765512836835"><ele>347.0</ele><time>2026-04-11T15:25:30.001Z</time></trkpt><trkpt lat="45.69374767000765" lon="8.565710548262976"><ele>347.0</ele><time>2026-04-11T15:25:32Z</time></trkpt><trkpt lat="45.69367794931443" lon="8.565684777562316"><ele>347.0</ele><time>2026-04-11T15:25:33.001Z</time></trkpt><trkpt lat="45.693565534755024" lon="8.565661739350892"><ele>347.0</ele><time>2026-04-11T15:25:34Z</time></trkpt><trkpt lat="45.693456777687835" lon="8.565643836439985"><ele>347.0</ele><time>2026-04-11T15:25:35Z</time></trkpt><trkpt lat="45.693364344807165" lon="8.565625476379255"><ele>347.0</ele><time>2026-04-11T15:25:36Z</time></trkpt><trkpt lat="45.693279945130605" lon="8.5656064202089"><ele>347.0</ele><time>2026-04-11T15:25:37Z</time></trkpt><trkpt lat="45.69321956795016" lon="8.565646195650393"><ele>347.0</ele><time>2026-04-11T15:25:41.999Z</time></trkpt><trkpt lat="45.69318862452929" lon="8.565741634183716"><ele>347.0</ele><time>2026-04-11T15:25:42.999Z</time></trkpt><trkpt lat="45.693153058412896" lon="8.565842244922326"><ele>347.0</ele><time>2026-04-11T15:25:43.999Z</time></trkpt><trkpt lat="45.69311387401733" lon="8.565950198411809"><ele>347.0</ele><time>2026-04-11T15:25:44.999Z</time></trkpt><trkpt lat="45.693093677646395" lon="8.566050514470138"><ele>347.0</ele><time>2026-04-11T15:25:45.999Z</time></trkpt><trkpt lat="45.69306038881495" lon="8.566163891700945"><ele>347.0</ele><time>2026-04-11T15:25:47.999Z</time></trkpt><trkpt lat="45.69295906824955" lon="8.566155079835328"><ele>347.0</ele><time>2026-04-11T15:25:49.999Z</time></trkpt><trkpt lat="45.69288225635177" lon="8.566152276723189"><ele>347.0</ele><time>2026-04-11T15:25:50.999Z</time></trkpt><trkpt lat="45.692831864263226" lon="8.56621659764392"><ele>347.25</ele><time>2026-04-11T15:25:52.999Z</time></trkpt><trkpt lat="45.69278879061341" lon="8.566325531220649"><ele>347.5</ele><time>2026-04-11T15:25:55.999Z</time></trkpt><trkpt lat="45.69281885090382" lon="8.566535437749438"><ele>347.75</ele><time>2026-04-11T15:25:57.999Z</time></trkpt><trkpt lat="45.692798136034085" lon="8.566739470849821"><ele>348.0</ele><time>2026-04-11T15:25:58.999Z</time></trkpt><trkpt lat="45.692782805766704" lon="8.566912685854014"><ele>347.2</ele><time>2026-04-11T15:25:59.999Z</time></trkpt><trkpt lat="45.692776073906984" lon="8.567161555523198"><ele>346.4</ele><time>2026-04-11T15:26:01.999Z</time></trkpt><trkpt lat="45.69275223180825" lon="8.567249411630838"><ele>345.59999999999997</ele><time>2026-04-11T15:26:02.999Z</time></trkpt><trkpt lat="45.692735915328" lon="8.567398949118646"><ele>344.79999999999995</ele><time>2026-04-11T15:26:04.999Z</time></trkpt><trkpt lat="45.692732846736405" lon="8.567510248716486"><ele>344.0</ele><time>2026-04-11T15:26:05.999Z</time></trkpt><trkpt lat="45.69276866998565" lon="8.56768701831834"><ele>344.0</ele><time>2026-04-11T15:26:07.999Z</time></trkpt><trkpt lat="45.69277690600471" lon="8.567840795221302"><ele>344.0</ele><time>2026-04-11T15:26:09.999Z</time></trkpt><trkpt lat="45.692780275982784" lon="8.567953022119267"><ele>344.0</ele><time>2026-04-11T15:26:10.999Z</time></trkpt><trkpt lat="45.6927866244294" lon="8.568086035189824"><ele>344.0</ele><time>2026-04-11T15:26:11.999Z</time></trkpt><trkpt lat="45.69279931695398" lon="8.568223055407419"><ele>344.0</ele><time>2026-04-11T15:26:12.999Z</time></trkpt><trkpt lat="45.69281657320577" lon="8.568351305560853"><ele>343.83333333333337</ele><time>2026-04-11T15:26:13.999Z</time></trkpt><trkpt lat="45.69282906045132" lon="8.568464189826505"><ele>343.6666666666667</ele><time>2026-04-11T15:26:14.999Z</time></trkpt><trkpt lat="45.69282685661502" lon="8.568572660985236"><ele>343.5</ele><time>2026-04-11T15:26:15.999Z</time></trkpt><trkpt lat="45.69282766484995" lon="8.568681525086923"><ele>343.3333333333333</ele><time>2026-04-11T15:26:16.999Z</time></trkpt><trkpt lat="45.692824784756255" lon="8.568813522688512"><ele>343.16666666666663</ele><time>2026-04-11T15:26:17.999Z</time></trkpt><trkpt lat="45.6928279892579" lon="8.56893964811693"><ele>343.0</ele><time>2026-04-11T15:26:18.999Z</time></trkpt><trkpt lat="45.692847587899" lon="8.569111327453285"><ele>343.0</ele><time>2026-04-11T15:26:20.999Z</time></trkpt><trkpt lat="45.69288108022953" lon="8.569295626791437"><ele>343.0</ele><time>2026-04-11T15:26:22.999Z</time></trkpt><trkpt lat="45.6929115923331" lon="8.56937499079494"><ele>343.0</ele><time>2026-04-11T15:26:23.999Z</time></trkpt><trkpt lat="45.69293828135515" lon="8.569492626999605"><ele>343.0</ele><time>2026-04-11T15:26:24.999Z</time></trkpt><trkpt lat="45.69297533229769" lon="8.569605169106792"><ele>343.0</ele><time>2026-04-11T15:26:25.999Z</time></trkpt><trkpt lat="45.69301467549247" lon="8.569698100577916"><ele>343.0</ele><time>2026-04-11T15:26:26.999Z</time></trkpt><trkpt lat="45.69305594946903" lon="8.569824252717792"><ele>342.16666666666663</ele><time>2026-04-11T15:26:27.999Z</time></trkpt><trkpt lat="45.69309827636496" lon="8.569922571282714"><ele>341.3333333333333</ele><time>2026-04-11T15:26:28.998Z</time></trkpt><trkpt lat="45.69312494359587" lon="8.570011645378383"><ele>340.5</ele><time>2026-04-11T15:26:29.998Z</time></trkpt><trkpt lat="45.69317718086286" lon="8.570177660428307"><ele>339.6666666666667</ele><time>2026-04-11T15:26:31.998Z</time></trkpt><trkpt lat="45.69320537954037" lon="8.570284359157053"><ele>338.83333333333337</ele><time>2026-04-11T15:26:33.998Z</time></trkpt><trkpt lat="45.69324658206693" lon="8.570383482708"><ele>338.0</ele><time>2026-04-11T15:26:36.998Z</time></trkpt><trkpt lat="45.693261711688955" lon="8.570480378734057"><ele>337.4</ele><time>2026-04-11T15:27:45Z</time></trkpt><trkpt lat="45.69327095197195" lon="8.570601602843297"><ele>336.79999999999995</ele><time>2026-04-11T15:27:47Z</time></trkpt><trkpt lat="45.69325144644511" lon="8.570723372421657"><ele>336.2</ele><time>2026-04-11T15:27:49Z</time></trkpt><trkpt lat="45.69324193817481" lon="8.570897722587688"><ele>335.6</ele><time>2026-04-11T15:28:18.999Z</time></trkpt><trkpt lat="45.693219069293235" lon="8.57099844121361"><ele>335.0</ele><time>2026-04-11T15:28:19.999Z</time></trkpt><trkpt lat="45.69315915983321" lon="8.571121613377686"><ele>335.0</ele><time>2026-04-11T15:28:21.999Z</time></trkpt><trkpt lat="45.69311579062847" lon="8.571233852087538"><ele>335.0</ele><time>2026-04-11T15:28:23.999Z</time></trkpt><trkpt lat="45.69317128359984" lon="8.571110870549955"><ele>335.0</ele><time>2026-04-11T15:29:55Z</time></trkpt><trkpt lat="45.6932359984554" lon="8.571074307739046"><ele>335.0</ele><time>2026-04-11T15:30:31.999Z</time></trkpt><trkpt lat="45.6933384542256" lon="8.570984625488434"><ele>335.0</ele><time>2026-04-11T15:30:33.999Z</time></trkpt><trkpt lat="45.69344332247378" lon="8.570914857185521"><ele>335.0</ele><time>2026-04-11T15:30:35.999Z</time></trkpt><trkpt lat="45.6935141876537" lon="8.570870091175243"><ele>335.0</ele><time>2026-04-11T15:30:36.999Z</time></trkpt><trkpt lat="45.693601959415155" lon="8.570812549619959"><ele>335.0</ele><time>2026-04-11T15:30:37.999Z</time></trkpt><trkpt lat="45.69368785806261" lon="8.570762438460429"><ele>335.0</ele><time>2026-04-11T15:30:38.999Z</time></trkpt><trkpt lat="45.69376858712451" lon="8.570713959373172"><ele>335.0</ele><time>2026-04-11T15:30:39.999Z</time></trkpt><trkpt lat="45.693841276007745" lon="8.570668484668598"><ele>335.0</ele><time>2026-04-11T15:30:40.999Z</time></trkpt><trkpt lat="45.69390310557803" lon="8.570631835900475"><ele>336.0</ele><time>2026-04-11T15:30:41.999Z</time></trkpt><trkpt lat="45.69398652577615" lon="8.570572885504864"><ele>337.0</ele><time>2026-04-11T15:30:42.999Z</time></trkpt><trkpt lat="45.694064363745255" lon="8.57049998504108"><ele>338.0</ele><time>2026-04-11T15:30:43.999Z</time></trkpt><trkpt lat="45.69414181194971" lon="8.570432162613498"><ele>339.0</ele><time>2026-04-11T15:30:44.999Z</time></trkpt><trkpt lat="45.69420259175442" lon="8.570387384160522"><ele>340.0</ele><time>2026-04-11T15:30:45.999Z</time></trkpt><trkpt lat="45.6942924911224" lon="8.57034476254811"><ele>341.0</ele><time>2026-04-11T15:30:46.999Z</time></trkpt><trkpt lat="45.69437515674528" lon="8.570323953744499"><ele>341.20000000000005</ele><time>2026-04-11T15:30:47.999Z</time></trkpt><trkpt lat="45.69445824443424" lon="8.570289342358764"><ele>341.40000000000003</ele><time>2026-04-11T15:30:48.999Z</time></trkpt><trkpt lat="45.69454175205583" lon="8.570218618679636"><ele>341.6</ele><time>2026-04-11T15:30:49.999Z</time></trkpt><trkpt lat="45.69459620693596" lon="8.570150549894647"><ele>341.8</ele><time>2026-04-11T15:30:50.999Z</time></trkpt><trkpt lat="45.694707657997085" lon="8.5700471008267"><ele>342.0</ele><time>2026-04-11T15:30:52.999Z</time></trkpt><trkpt lat="45.69477755113048" lon="8.569991079492683"><ele>342.0</ele><time>2026-04-11T15:30:53.999Z</time></trkpt><trkpt lat="45.694834257593214" lon="8.569941658268034"><ele>342.0</ele><time>2026-04-11T15:30:54.999Z</time></trkpt><trkpt lat="45.694952503662904" lon="8.569882567222214"><ele>342.0</ele><time>2026-04-11T15:30:56.999Z</time></trkpt><trkpt lat="45.695053512167384" lon="8.569888457430183"><ele>342.0</ele><time>2026-04-11T15:30:58.999Z</time></trkpt><trkpt lat="45.695135479817765" lon="8.569868145769066"><ele>342.0</ele><time>2026-04-11T15:31:00.999Z</time></trkpt><trkpt lat="45.69508529548596" lon="8.569958181225527"><ele>342.0</ele><time>2026-04-11T15:31:33.001Z</time></trkpt><trkpt lat="45.69497704346147" lon="8.570002954127249"><ele>342.0</ele><time>2026-04-11T15:31:36.001Z</time></trkpt><trkpt lat="45.69491226127547" lon="8.57003150930006"><ele>342.0</ele><time>2026-04-11T15:31:37.001Z</time></trkpt><trkpt lat="45.69484983306788" lon="8.570097127448015"><ele>342.0</ele><time>2026-04-11T15:31:39.001Z</time></trkpt><trkpt lat="45.69476918130741" lon="8.57010600095835"><ele>342.0</ele><time>2026-04-11T15:31:42.001Z</time></trkpt><trkpt lat="45.69466443302839" lon="8.57009249276823"><ele>342.0</ele><time>2026-04-11T15:31:44.001Z</time></trkpt><trkpt lat="45.694587273117385" lon="8.570110588034858"><ele>342.0</ele><time>2026-04-11T15:31:46.001Z</time></trkpt><trkpt lat="45.69450040752423" lon="8.570100948766926"><ele>342.0</ele><time>2026-04-11T15:31:51Z</time></trkpt><trkpt lat="45.69444715259775" lon="8.570154165277675"><ele>342.0</ele><time>2026-04-11T15:31:52Z</time></trkpt><trkpt lat="45.694389172483056" lon="8.570216922486384"><ele>342.0</ele><time>2026-04-11T15:31:53Z</time></trkpt><trkpt lat="45.69430560515759" lon="8.57026945389527"><ele>342.0</ele><time>2026-04-11T15:31:54Z</time></trkpt><trkpt lat="45.69418078222637" lon="8.570357629234817"><ele>341.8</ele><time>2026-04-11T15:31:55Z</time></trkpt><trkpt lat="45.694080954381064" lon="8.570412744669277"><ele>341.6</ele><time>2026-04-11T15:31:56Z</time></trkpt><trkpt lat="45.693994439681006" lon="8.570482472296032"><ele>341.40000000000003</ele><time>2026-04-11T15:31:57Z</time></trkpt><trkpt lat="45.69390268303232" lon="8.570559659628746"><ele>341.20000000000005</ele><time>2026-04-11T15:31:58Z</time></trkpt><trkpt lat="45.69381382603456" lon="8.570622713905466"><ele>341.0</ele><time>2026-04-11T15:31:59Z</time></trkpt><trkpt lat="45.69374357804345" lon="8.570664098359353"><ele>341.0</ele><time>2026-04-11T15:32:00Z</time></trkpt><trkpt lat="45.693665206049076" lon="8.570710220005274"><ele>341.0</ele><time>2026-04-11T15:32:01Z</time></trkpt><trkpt lat="45.69358735871309" lon="8.5707653750746"><ele>341.0</ele><time>2026-04-11T15:32:02Z</time></trkpt><trkpt lat="45.6934836952066" lon="8.570870692271532"><ele>341.0</ele><time>2026-04-11T15:32:04Z</time></trkpt><trkpt lat="45.69340053643165" lon="8.570948777578705"><ele>341.0</ele><time>2026-04-11T15:32:05Z</time></trkpt><trkpt lat="45.69331181958609" lon="8.571011849610374"><ele>340.20000000000005</ele><time>2026-04-11T15:32:06Z</time></trkpt><trkpt lat="45.6932316065084" lon="8.571056601018379"><ele>339.40000000000003</ele><time>2026-04-11T15:32:07Z</time></trkpt><trkpt lat="45.693172719460925" lon="8.571095628521636"><ele>338.6</ele><time>2026-04-11T15:32:08Z</time></trkpt><trkpt lat="45.69311744965308" lon="8.571221718561153"><ele>337.8</ele><time>2026-04-11T15:32:10Z</time></trkpt><trkpt lat="45.69306912873953" lon="8.571362505664043"><ele>337.0</ele><time>2026-04-11T15:32:11Z</time></trkpt><trkpt lat="45.69302532155824" lon="8.571522198289733"><ele>337.0</ele><time>2026-04-11T15:32:12Z</time></trkpt><trkpt lat="45.69298748777841" lon="8.571627172909116"><ele>337.0</ele><time>2026-04-11T15:32:13Z</time></trkpt><trkpt lat="45.69296126167133" lon="8.571789473251943"><ele>337.0</ele><time>2026-04-11T15:32:15Z</time></trkpt><trkpt lat="45.692943791656305" lon="8.571908809164437"><ele>337.0</ele><time>2026-04-11T15:32:17Z</time></trkpt><trkpt lat="45.692914477264445" lon="8.572178155047402"><ele>336.5</ele><time>2026-04-11T15:32:19Z</time></trkpt><trkpt lat="45.69291431541302" lon="8.572362813698959"><ele>336.0</ele><time>2026-04-11T15:32:21Z</time></trkpt><trkpt lat="45.69290352024083" lon="8.572473632518511"><ele>335.5</ele><time>2026-04-11T15:32:22Z</time></trkpt><trkpt lat="45.69289931792464" lon="8.572570589282398"><ele>335.0</ele><time>2026-04-11T15:32:23Z</time></trkpt><trkpt lat="45.692903820539755" lon="8.572661711574504"><ele>334.5</ele><time>2026-04-11T15:32:24Z</time></trkpt><trkpt lat="45.69290039312601" lon="8.572774654477245"><ele>334.0</ele><time>2026-04-11T15:32:25Z</time></trkpt><trkpt lat="45.69288945355096" lon="8.572883506824022"><ele>334.0</ele><time>2026-04-11T15:32:26Z</time></trkpt><trkpt lat="45.692870607347054" lon="8.573000105294595"><ele>334.0</ele><time>2026-04-11T15:32:27Z</time></trkpt><trkpt lat="45.69285233167635" lon="8.573115558797486"><ele>334.0</ele><time>2026-04-11T15:32:28Z</time></trkpt><trkpt lat="45.69281239574711" lon="8.573197246288425"><ele>334.0</ele><time>2026-04-11T15:32:30Z</time></trkpt><trkpt lat="45.69271372322683" lon="8.573132301860005"><ele>334.0</ele><time>2026-04-11T15:32:33Z</time></trkpt><trkpt lat="45.69257450015102" lon="8.573149592164688"><ele>334.0</ele><time>2026-04-11T15:32:35Z</time></trkpt><trkpt lat="45.69248020657166" lon="8.573174060533841"><ele>334.0</ele><time>2026-04-11T15:32:36Z</time></trkpt><trkpt lat="45.692361946836016" lon="8.573185089386365"><ele>334.0</ele><time>2026-04-11T15:32:36.999Z</time></trkpt><trkpt lat="45.692250991769306" lon="8.573197752533204"><ele>334.0</ele><time>2026-04-11T15:32:37.999Z</time></trkpt><trkpt lat="45.6921690235737" lon="8.573211343034753"><ele>334.0</ele><time>2026-04-11T15:32:38.999Z</time></trkpt><trkpt lat="45.69209271830765" lon="8.573227607472404"><ele>334.0</ele><time>2026-04-11T15:32:39.999Z</time></trkpt><trkpt lat="45.69198060201868" lon="8.573200217110816"><ele>334.0</ele><time>2026-04-11T15:32:41.998Z</time></trkpt><trkpt lat="45.691871057058435" lon="8.573123218491794"><ele>334.0</ele><time>2026-04-11T15:32:43.998Z</time></trkpt><trkpt lat="45.69177512820461" lon="8.573048841030772"><ele>334.0</ele><time>2026-04-11T15:32:45.998Z</time></trkpt><trkpt lat="45.69171730685169" lon="8.572961256792995"><ele>334.0</ele><time>2026-04-11T15:32:47.998Z</time></trkpt><trkpt lat="45.69167119400402" lon="8.57285450970922"><ele>334.0</ele><time>2026-04-11T15:32:58.998Z</time></trkpt><trkpt lat="45.69158146808474" lon="8.57279679335147"><ele>334.0</ele><time>2026-04-11T15:33:00.998Z</time></trkpt><trkpt lat="45.69152374586056" lon="8.572699706251578"><ele>334.0</ele><time>2026-04-11T15:33:02.998Z</time></trkpt><trkpt lat="45.69148531321702" lon="8.57260556931827"><ele>334.0</ele><time>2026-04-11T15:33:04.998Z</time></trkpt><trkpt lat="45.6914664699854" lon="8.572507807917372"><ele>334.0</ele><time>2026-04-11T15:33:06.998Z</time></trkpt><trkpt lat="45.691440580369935" lon="8.572411282268444"><ele>334.0</ele><time>2026-04-11T15:33:08.998Z</time></trkpt><trkpt lat="45.69142051665195" lon="8.572315581321927"><ele>334.0</ele><time>2026-04-11T15:33:11.998Z</time></trkpt><trkpt lat="45.69139724461259" lon="8.572216441320078"><ele>334.0</ele><time>2026-04-11T15:33:15.998Z</time></trkpt><trkpt lat="45.69138279821415" lon="8.572128471426888"><ele>334.0</ele><time>2026-04-11T15:33:18.998Z</time></trkpt><trkpt lat="45.69135864601065" lon="8.572006650602233"><ele>334.0</ele><time>2026-04-11T15:33:21.998Z</time></trkpt><trkpt lat="45.69133075947194" lon="8.571865594061368"><ele>334.0</ele><time>2026-04-11T15:33:22.998Z</time></trkpt><trkpt lat="45.691309233942846" lon="8.571739616010994"><ele>334.0</ele><time>2026-04-11T15:33:23.998Z</time></trkpt><trkpt lat="45.69127880284264" lon="8.57158750870323"><ele>334.75</ele><time>2026-04-11T15:33:25.998Z</time></trkpt><trkpt lat="45.69126726188831" lon="8.571423977455563"><ele>335.5</ele><time>2026-04-11T15:33:27.998Z</time></trkpt><trkpt lat="45.69122299916882" lon="8.571238689128261"><ele>336.25</ele><time>2026-04-11T15:33:29.997Z</time></trkpt><trkpt lat="45.69114767242424" lon="8.5711208439441"><ele>337.0</ele><time>2026-04-11T15:33:31.997Z</time></trkpt><trkpt lat="45.69106851138917" lon="8.571008371466895"><ele>337.40000000000003</ele><time>2026-04-11T15:33:33.997Z</time></trkpt><trkpt lat="45.69097556398189" lon="8.570861354511816"><ele>337.8</ele><time>2026-04-11T15:33:36Z</time></trkpt><trkpt lat="45.69092911965867" lon="8.570787554037892"><ele>338.2</ele><time>2026-04-11T15:33:37Z</time></trkpt><trkpt lat="45.69089521983064" lon="8.57066335191803"><ele>338.6</ele><time>2026-04-11T15:33:39Z</time></trkpt><trkpt lat="45.69088171877869" lon="8.570540741943699"><ele>339.0</ele><time>2026-04-11T15:33:41Z</time></trkpt><trkpt lat="45.69087013610383" lon="8.570408832661984"><ele>339.6666666666667</ele><time>2026-04-11T15:33:43Z</time></trkpt><trkpt lat="45.690863785327856" lon="8.570318474608094"><ele>340.3333333333333</ele><time>2026-04-11T15:33:44Z</time></trkpt><trkpt lat="45.69085336841595" lon="8.570211853519108"><ele>341.0</ele><time>2026-04-11T15:33:46Z</time></trkpt><trkpt lat="45.690841055806466" lon="8.57007797461454"><ele>341.66666666666663</ele><time>2026-04-11T15:33:48Z</time></trkpt><trkpt lat="45.690829050484986" lon="8.569981789506699"><ele>342.3333333333333</ele><time>2026-04-11T15:33:50Z</time></trkpt><trkpt lat="45.690808879959405" lon="8.569886442692864"><ele>343.0</ele><time>2026-04-11T15:33:52Z</time></trkpt><trkpt lat="45.690789638098316" lon="8.569733961833007"><ele>343.0</ele><time>2026-04-11T15:33:54Z</time></trkpt><trkpt lat="45.690778433548786" lon="8.569621092568163"><ele>343.0</ele><time>2026-04-11T15:33:54.999Z</time></trkpt><trkpt lat="45.69077521471769" lon="8.569520566891772"><ele>343.0</ele><time>2026-04-11T15:33:55.999Z</time></trkpt><trkpt lat="45.69076868519434" lon="8.569411239139589"><ele>343.0</ele><time>2026-04-11T15:33:56.999Z</time></trkpt><trkpt lat="45.69076825941701" lon="8.569316855184383"><ele>343.0</ele><time>2026-04-11T15:33:57.999Z</time></trkpt><trkpt lat="45.690759545063656" lon="8.56911517776917"><ele>343.0</ele><time>2026-04-11T15:33:59.999Z</time></trkpt><trkpt lat="45.69075764485862" lon="8.568978770217141"><ele>344.0</ele><time>2026-04-11T15:34:00.999Z</time></trkpt><trkpt lat="45.69074823745954" lon="8.568856218444399"><ele>345.0</ele><time>2026-04-11T15:34:01.999Z</time></trkpt><trkpt lat="45.69074355064408" lon="8.56872866060798"><ele>346.0</ele><time>2026-04-11T15:34:02.999Z</time></trkpt><trkpt lat="45.69072291073638" lon="8.568619081723353"><ele>347.0</ele><time>2026-04-11T15:34:03.999Z</time></trkpt><trkpt lat="45.69069413914518" lon="8.568455919240535"><ele>348.0</ele><time>2026-04-11T15:34:04.999Z</time></trkpt><trkpt lat="45.69066670440706" lon="8.568308597538273"><ele>348.0</ele><time>2026-04-11T15:34:05.999Z</time></trkpt><trkpt lat="45.69064227991269" lon="8.568210537739393"><ele>348.0</ele><time>2026-04-11T15:34:06.999Z</time></trkpt><trkpt lat="45.690613780089826" lon="8.568102999558413"><ele>348.0</ele><time>2026-04-11T15:34:07.999Z</time></trkpt><trkpt lat="45.69057991535368" lon="8.568003837035354"><ele>348.0</ele><time>2026-04-11T15:34:08.999Z</time></trkpt><trkpt lat="45.69053691482412" lon="8.567893352497205"><ele>348.0</ele><time>2026-04-11T15:34:09.999Z</time></trkpt><trkpt lat="45.690503494681806" lon="8.567800068976739"><ele>348.0</ele><time>2026-04-11T15:34:10.999Z</time></trkpt><trkpt lat="45.69046065967419" lon="8.567696845601622"><ele>347.79999999999995</ele><time>2026-04-11T15:34:11.999Z</time></trkpt><trkpt lat="45.690423989706396" lon="8.567598549584364"><ele>347.6</ele><time>2026-04-11T15:34:12.999Z</time></trkpt><trkpt lat="45.69034988695629" lon="8.567407396072605"><ele>347.4</ele><time>2026-04-11T15:34:14.999Z</time></trkpt><trkpt lat="45.69030245032821" lon="8.56728396611751"><ele>347.20000000000005</ele><time>2026-04-11T15:34:15.999Z</time></trkpt><trkpt lat="45.69027214616555" lon="8.567176727455925"><ele>347.0</ele><time>2026-04-11T15:34:16.999Z</time></trkpt><trkpt lat="45.6902387804052" lon="8.567054866756852"><ele>346.6666666666667</ele><time>2026-04-11T15:34:17.999Z</time></trkpt><trkpt lat="45.690201864367616" lon="8.566931445847711"><ele>346.33333333333337</ele><time>2026-04-11T15:34:18.999Z</time></trkpt><trkpt lat="45.69015035916679" lon="8.566781675876918"><ele>346.0</ele><time>2026-04-11T15:34:19.999Z</time></trkpt><trkpt lat="45.690119081687996" lon="8.566688384098345"><ele>345.6666666666667</ele><time>2026-04-11T15:34:20.999Z</time></trkpt><trkpt lat="45.690095300394496" lon="8.566586089893269"><ele>345.3333333333333</ele><time>2026-04-11T15:34:21.999Z</time></trkpt><trkpt lat="45.69005928786574" lon="8.5664853514391"><ele>345.0</ele><time>2026-04-11T15:34:22.999Z</time></trkpt><trkpt lat="45.690013089550305" lon="8.566350562152463"><ele>345.0</ele><time>2026-04-11T15:34:23.999Z</time></trkpt><trkpt lat="45.68998681518421" lon="8.566252132911561"><ele>345.0</ele><time>2026-04-11T15:34:24.999Z</time></trkpt><trkpt lat="45.68994423917664" lon="8.566141653891266"><ele>345.0</ele><time>2026-04-11T15:34:25.999Z</time></trkpt><trkpt lat="45.689912204154844" lon="8.566022491315527"><ele>345.0</ele><time>2026-04-11T15:34:26.999Z</time></trkpt><trkpt lat="45.68986872678286" lon="8.56589647759914"><ele>345.0</ele><time>2026-04-11T15:34:27.999Z</time></trkpt><trkpt lat="45.68983577236757" lon="8.565794977734697"><ele>345.0</ele><time>2026-04-11T15:34:28.999Z</time></trkpt><trkpt lat="45.689808973278005" lon="8.565647850673777"><ele>345.1666666666667</ele><time>2026-04-11T15:34:30.999Z</time></trkpt><trkpt lat="45.689768244913175" lon="8.565541924788773"><ele>345.3333333333333</ele><time>2026-04-11T15:34:32.999Z</time></trkpt><trkpt lat="45.689680117352836" lon="8.565577720493124"><ele>345.5</ele><time>2026-04-11T15:34:34.999Z</time></trkpt><trkpt lat="45.689601390571426" lon="8.565602959247475"><ele>345.66666666666663</ele><time>2026-04-11T15:34:35.999Z</time></trkpt><trkpt lat="45.689523162147374" lon="8.565625129728497"><ele>345.8333333333333</ele><time>2026-04-11T15:34:36.999Z</time></trkpt><trkpt lat="45.68943903034341" lon="8.565638395442376"><ele>346.0</ele><time>2026-04-11T15:34:37.999Z</time></trkpt><trkpt lat="45.689367460306144" lon="8.565652094068808"><ele>346.0</ele><time>2026-04-11T15:34:38.999Z</time></trkpt><trkpt lat="45.68928362485851" lon="8.565661418929063"><ele>346.0</ele><time>2026-04-11T15:34:40.999Z</time></trkpt><trkpt lat="45.689257141001164" lon="8.565754849951746"><ele>346.0</ele><time>2026-04-11T15:34:43.999Z</time></trkpt><trkpt lat="45.68924490851018" lon="8.565934393246978"><ele>346.0</ele><time>2026-04-11T15:34:44.999Z</time></trkpt><trkpt lat="45.6892235975713" lon="8.566156645165947"><ele>346.0</ele><time>2026-04-11T15:34:45.999Z</time></trkpt><trkpt lat="45.68919924772306" lon="8.566375346578619"><ele>346.0</ele><time>2026-04-11T15:34:46.999Z</time></trkpt><trkpt lat="45.689169406460096" lon="8.566565338934884"><ele>346.0</ele><time>2026-04-11T15:34:47.998Z</time></trkpt><trkpt lat="45.689136093140156" lon="8.566735197256463"><ele>346.0</ele><time>2026-04-11T15:34:48.998Z</time></trkpt><trkpt lat="45.68911201473492" lon="8.566898567495542"><ele>346.0</ele><time>2026-04-11T15:34:49.998Z</time></trkpt><trkpt lat="45.68910105586674" lon="8.567059460971937"><ele>345.25</ele><time>2026-04-11T15:34:50.998Z</time></trkpt><trkpt lat="45.68908900988341" lon="8.567255763488802"><ele>344.5</ele><time>2026-04-11T15:34:51.998Z</time></trkpt><trkpt lat="45.689088187269526" lon="8.567452235961051"><ele>343.75</ele><time>2026-04-11T15:34:52.998Z</time></trkpt><trkpt lat="45.68910585872673" lon="8.567643816086061"><ele>343.0</ele><time>2026-04-11T15:34:53.998Z</time></trkpt><trkpt lat="45.68913164546335" lon="8.567845391127898"><ele>343.5</ele><time>2026-04-11T15:34:54.998Z</time></trkpt><trkpt lat="45.68914438524537" lon="8.56803315861606"><ele>344.0</ele><time>2026-04-11T15:34:55.998Z</time></trkpt><trkpt lat="45.68915347423908" lon="8.568231231335263"><ele>344.5</ele><time>2026-04-11T15:34:56.998Z</time></trkpt><trkpt lat="45.689145029190655" lon="8.568428468124665"><ele>345.0</ele><time>2026-04-11T15:34:57.998Z</time></trkpt><trkpt lat="45.68910922723804" lon="8.56857798648192"><ele>345.0</ele><time>2026-04-11T15:34:58.998Z</time></trkpt><trkpt lat="45.689101846990766" lon="8.568709404172864"><ele>345.0</ele><time>2026-04-11T15:34:59.998Z</time></trkpt><trkpt lat="45.68909174744799" lon="8.5688212694161"><ele>345.0</ele><time>2026-04-11T15:35:00.998Z</time></trkpt><trkpt lat="45.68909440179689" lon="8.568925487719254"><ele>345.0</ele><time>2026-04-11T15:35:01.998Z</time></trkpt><trkpt lat="45.68907302240091" lon="8.56909245870461"><ele>345.0</ele><time>2026-04-11T15:35:03.998Z</time></trkpt><trkpt lat="45.68908593551389" lon="8.569228788038869"><ele>345.0</ele><time>2026-04-11T15:35:05.998Z</time></trkpt><trkpt lat="45.68909387254618" lon="8.569334801925246"><ele>345.0</ele><time>2026-04-11T15:35:06.998Z</time></trkpt><trkpt lat="45.68909528538593" lon="8.569465710666504"><ele>345.0</ele><time>2026-04-11T15:35:07.998Z</time></trkpt><trkpt lat="45.68909967688004" lon="8.569619841227063"><ele>345.0</ele><time>2026-04-11T15:35:08.998Z</time></trkpt><trkpt lat="45.68911126357826" lon="8.56976135795735"><ele>345.0</ele><time>2026-04-11T15:35:09.998Z</time></trkpt><trkpt lat="45.68913644812343" lon="8.569880285708608"><ele>345.0</ele><time>2026-04-11T15:35:10.998Z</time></trkpt><trkpt lat="45.68916483833084" lon="8.569980348935045"><ele>345.0</ele><time>2026-04-11T15:35:11.998Z</time></trkpt><trkpt lat="45.68919151417471" lon="8.570071460609418"><ele>345.0</ele><time>2026-04-11T15:35:12.998Z</time></trkpt><trkpt lat="45.68924953873373" lon="8.570162793296353"><ele>345.0</ele><time>2026-04-11T15:35:14.998Z</time></trkpt><trkpt lat="45.689210636005676" lon="8.570246567465198"><ele>345.0</ele><time>2026-04-11T15:35:16.998Z</time></trkpt><trkpt lat="45.689141390897" lon="8.570348754727924"><ele>345.0</ele><time>2026-04-11T15:35:18.998Z</time></trkpt><trkpt lat="45.68908571910323" lon="8.570424320683468"><ele>345.0</ele><time>2026-04-11T15:35:19.998Z</time></trkpt><trkpt lat="45.689008752621206" lon="8.570532273517827"><ele>345.0</ele><time>2026-04-11T15:35:21.998Z</time></trkpt><trkpt lat="45.68894680200607" lon="8.57062042988681"><ele>345.0</ele><time>2026-04-11T15:35:22.998Z</time></trkpt><trkpt lat="45.68887881060162" lon="8.570716406399217"><ele>345.0</ele><time>2026-04-11T15:35:23.998Z</time></trkpt><trkpt lat="45.68879828762281" lon="8.570820662135448"><ele>345.0</ele><time>2026-04-11T15:35:24.998Z</time></trkpt><trkpt lat="45.6887129036985" lon="8.57094341320439"><ele>345.0</ele><time>2026-04-11T15:35:25.998Z</time></trkpt><trkpt lat="45.68865591706213" lon="8.57098826678039"><ele>345.0</ele><time>2026-04-11T15:35:26.998Z</time></trkpt><trkpt lat="45.68859533644175" lon="8.571080305528193"><ele>345.0</ele><time>2026-04-11T15:35:27.998Z</time></trkpt><trkpt lat="45.68856424668263" lon="8.571191945915407"><ele>345.0</ele><time>2026-04-11T15:35:29.998Z</time></trkpt><trkpt lat="45.688610328602834" lon="8.571378152694713"><ele>345.0</ele><time>2026-04-11T15:35:31.998Z</time></trkpt><trkpt lat="45.688644266238654" lon="8.571494781711117"><ele>345.3333333333333</ele><time>2026-04-11T15:35:32.998Z</time></trkpt><trkpt lat="45.688649988744224" lon="8.571593396311062"><ele>345.6666666666667</ele><time>2026-04-11T15:35:33.998Z</time></trkpt><trkpt lat="45.688643882081195" lon="8.571741868646836"><ele>346.0</ele><time>2026-04-11T15:35:35.998Z</time></trkpt><trkpt lat="45.68862147516409" lon="8.571873001318789"><ele>346.33333333333337</ele><time>2026-04-11T15:35:37.998Z</time></trkpt><trkpt lat="45.68853940402659" lon="8.571906473287621"><ele>346.6666666666667</ele><time>2026-04-11T15:35:39.997Z</time></trkpt><trkpt lat="45.688448693823815" lon="8.571884112947288"><ele>347.0</ele><time>2026-04-11T15:35:41Z</time></trkpt><trkpt lat="45.68832994943392" lon="8.57187332799461"><ele>347.40000000000003</ele><time>2026-04-11T15:35:42Z</time></trkpt><trkpt lat="45.68826295490302" lon="8.571858351511153"><ele>347.8</ele><time>2026-04-11T15:35:44Z</time></trkpt><trkpt lat="45.68812002066849" lon="8.571852106819533"><ele>348.2</ele><time>2026-04-11T15:35:46Z</time></trkpt><trkpt lat="45.68800596459199" lon="8.571842358020373"><ele>348.6</ele><time>2026-04-11T15:35:47Z</time></trkpt><trkpt lat="45.68790425114381" lon="8.571834186809388"><ele>349.0</ele><time>2026-04-11T15:35:48Z</time></trkpt><trkpt lat="45.68779845600094" lon="8.571859034806199"><ele>348.8333333333333</ele><time>2026-04-11T15:35:49Z</time></trkpt><trkpt lat="45.68768519542744" lon="8.571887480077075"><ele>348.66666666666663</ele><time>2026-04-11T15:35:50Z</time></trkpt><trkpt lat="45.687605120910185" lon="8.571917222537042"><ele>348.5</ele><time>2026-04-11T15:35:51Z</time></trkpt><trkpt lat="45.687522325599446" lon="8.57193953189831"><ele>348.3333333333333</ele><time>2026-04-11T15:35:52Z</time></trkpt><trkpt lat="45.68745622498749" lon="8.571960548072484"><ele>348.1666666666667</ele><time>2026-04-11T15:35:53Z</time></trkpt><trkpt lat="45.687374597452894" lon="8.571994602321043"><ele>348.0</ele><time>2026-04-11T15:35:55Z</time></trkpt><trkpt lat="45.68729153670698" lon="8.571968555669711"><ele>348.4</ele><time>2026-04-11T15:36:01Z</time></trkpt><trkpt lat="45.687233619814606" lon="8.572046380035363"><ele>348.79999999999995</ele><time>2026-04-11T15:36:04Z</time></trkpt><trkpt lat="45.68707541938698" lon="8.572106617310585"><ele>349.2</ele><time>2026-04-11T15:36:06Z</time></trkpt><trkpt lat="45.686973831236195" lon="8.572149541517922"><ele>349.6</ele><time>2026-04-11T15:36:08Z</time></trkpt><trkpt lat="45.68689109897778" lon="8.572188455546234"><ele>350.0</ele><time>2026-04-11T15:36:10Z</time></trkpt><trkpt lat="45.686816398502266" lon="8.572227619887734"><ele>350.1666666666667</ele><time>2026-04-11T15:36:12Z</time></trkpt><trkpt lat="45.68673356107608" lon="8.57229654978106"><ele>350.33333333333337</ele><time>2026-04-11T15:36:14Z</time></trkpt><trkpt lat="45.68663767966477" lon="8.572386675084044"><ele>350.5</ele><time>2026-04-11T15:36:16Z</time></trkpt><trkpt lat="45.68656674568536" lon="8.57244646704824"><ele>350.6666666666667</ele><time>2026-04-11T15:36:16.999Z</time></trkpt><trkpt lat="45.68650295535856" lon="8.572518710446493"><ele>350.8333333333333</ele><time>2026-04-11T15:36:17.999Z</time></trkpt><trkpt lat="45.686445515784726" lon="8.572577941253689"><ele>351.0</ele><time>2026-04-11T15:36:18.999Z</time></trkpt><trkpt lat="45.686374569678776" lon="8.572653704278125"><ele>351.0</ele><time>2026-04-11T15:36:19.999Z</time></trkpt><trkpt lat="45.68629187753576" lon="8.572728879927686"><ele>351.0</ele><time>2026-04-11T15:36:20.999Z</time></trkpt><trkpt lat="45.68622705037823" lon="8.57278550849526"><ele>351.0</ele><time>2026-04-11T15:36:21.999Z</time></trkpt><trkpt lat="45.68610779243013" lon="8.572886683338433"><ele>351.0</ele><time>2026-04-11T15:36:23.999Z</time></trkpt><trkpt lat="45.68601915562054" lon="8.572936239064289"><ele>351.0</ele><time>2026-04-11T15:36:24.999Z</time></trkpt><trkpt lat="45.685919480654896" lon="8.572985884662414"><ele>351.5</ele><time>2026-04-11T15:36:25.999Z</time></trkpt><trkpt lat="45.685841716342416" lon="8.57301763257536"><ele>352.0</ele><time>2026-04-11T15:36:26.999Z</time></trkpt><trkpt lat="45.68576434153322" lon="8.573053649237835"><ele>352.5</ele><time>2026-04-11T15:36:27.999Z</time></trkpt><trkpt lat="45.68568485491461" lon="8.573074003414483"><ele>353.0</ele><time>2026-04-11T15:36:28.999Z</time></trkpt><trkpt lat="45.68561538846549" lon="8.573067249671473"><ele>353.5</ele><time>2026-04-11T15:36:29.999Z</time></trkpt><trkpt lat="45.68549914512706" lon="8.573039806219787"><ele>354.0</ele><time>2026-04-11T15:36:31.999Z</time></trkpt><trkpt lat="45.685436595867685" lon="8.573019805381227"><ele>354.0</ele><time>2026-04-11T15:36:32.999Z</time></trkpt><trkpt lat="45.68534967661826" lon="8.57301843283924"><ele>354.0</ele><time>2026-04-11T15:36:34.999Z</time></trkpt><trkpt lat="45.685312926639575" lon="8.572796751761913"><ele>354.0</ele><time>2026-04-11T15:36:36.999Z</time></trkpt><trkpt lat="45.68525484633884" lon="8.572697265792806"><ele>354.0</ele><time>2026-04-11T15:36:37.999Z</time></trkpt><trkpt lat="45.685189995686066" lon="8.57257964625319"><ele>354.0</ele><time>2026-04-11T15:36:38.999Z</time></trkpt><trkpt lat="45.68513126512574" lon="8.572451722187033"><ele>354.0</ele><time>2026-04-11T15:36:39.999Z</time></trkpt><trkpt lat="45.685074696995756" lon="8.57229496680727"><ele>354.0</ele><time>2026-04-11T15:36:40.999Z</time></trkpt><trkpt lat="45.685024996952066" lon="8.572107613939714"><ele>354.0</ele><time>2026-04-11T15:36:41.999Z</time></trkpt><trkpt lat="45.68498841072763" lon="8.571878247241736"><ele>354.0</ele><time>2026-04-11T15:36:42.999Z</time></trkpt><trkpt lat="45.684968827338835" lon="8.57165483275201"><ele>354.25</ele><time>2026-04-11T15:36:43.999Z</time></trkpt><trkpt lat="45.68493211691477" lon="8.571453941261797"><ele>354.5</ele><time>2026-04-11T15:36:44.999Z</time></trkpt><trkpt lat="45.68491296069414" lon="8.571269704573302"><ele>354.75</ele><time>2026-04-11T15:36:45.999Z</time></trkpt><trkpt lat="45.6848994913078" lon="8.571129867097596"><ele>355.0</ele><time>2026-04-11T15:36:46.999Z</time></trkpt><trkpt lat="45.68487307109444" lon="8.570992286143834"><ele>355.0</ele><time>2026-04-11T15:36:47.999Z</time></trkpt><trkpt lat="45.68484244305995" lon="8.570849822237133"><ele>355.0</ele><time>2026-04-11T15:36:48.999Z</time></trkpt><trkpt lat="45.68480321799082" lon="8.570697488805871"><ele>355.0</ele><time>2026-04-11T15:36:49.999Z</time></trkpt><trkpt lat="45.68475295092818" lon="8.57050923933315"><ele>355.0</ele><time>2026-04-11T15:36:50.999Z</time></trkpt><trkpt lat="45.68470340827686" lon="8.570345113598725"><ele>355.0</ele><time>2026-04-11T15:36:51.999Z</time></trkpt><trkpt lat="45.684643336786216" lon="8.570214958265327"><ele>355.0</ele><time>2026-04-11T15:36:52.999Z</time></trkpt><trkpt lat="45.68457428102842" lon="8.570075086947345"><ele>355.0</ele><time>2026-04-11T15:36:53.999Z</time></trkpt><trkpt lat="45.68450257814606" lon="8.569911638235721"><ele>355.0</ele><time>2026-04-11T15:36:54.999Z</time></trkpt><trkpt lat="45.68444721694113" lon="8.569752389310002"><ele>355.0</ele><time>2026-04-11T15:36:55.999Z</time></trkpt><trkpt lat="45.68440393734009" lon="8.569632052785579"><ele>355.0</ele><time>2026-04-11T15:36:56.999Z</time></trkpt><trkpt lat="45.684370846425644" lon="8.569541631572836"><ele>355.0</ele><time>2026-04-11T15:36:57.999Z</time></trkpt><trkpt lat="45.68431018700606" lon="8.56946926429016"><ele>355.0</ele><time>2026-04-11T15:36:59.999Z</time></trkpt><trkpt lat="45.6842454621546" lon="8.5695917204394"><ele>355.0</ele><time>2026-04-11T15:37:02.999Z</time></trkpt><trkpt lat="45.6842302637285" lon="8.56975043885655"><ele>355.0</ele><time>2026-04-11T15:37:03.999Z</time></trkpt><trkpt lat="45.68419372337004" lon="8.569954226744418"><ele>355.0</ele><time>2026-04-11T15:37:04.999Z</time></trkpt><trkpt lat="45.684140510626754" lon="8.570184410663648"><ele>355.0</ele><time>2026-04-11T15:37:05.999Z</time></trkpt><trkpt lat="45.68404941097391" lon="8.570411899633688"><ele>355.3333333333333</ele><time>2026-04-11T15:37:06.999Z</time></trkpt><trkpt lat="45.68397562729802" lon="8.570651815128606"><ele>355.6666666666667</ele><time>2026-04-11T15:37:07.999Z</time></trkpt><trkpt lat="45.68386924180296" lon="8.570885202968991"><ele>356.0</ele><time>2026-04-11T15:37:08.999Z</time></trkpt><trkpt lat="45.683769140553615" lon="8.571091522399193"><ele>355.5</ele><time>2026-04-11T15:37:09.998Z</time></trkpt><trkpt lat="45.683683706813895" lon="8.571264068988457"><ele>355.0</ele><time>2026-04-11T15:37:10.998Z</time></trkpt><trkpt lat="45.683603732133456" lon="8.571413579291159"><ele>354.5</ele><time>2026-04-11T15:37:11.998Z</time></trkpt><trkpt lat="45.683539615228774" lon="8.57153850912551"><ele>354.0</ele><time>2026-04-11T15:37:12.998Z</time></trkpt><trkpt lat="45.68349192018105" lon="8.57162933369919"><ele>352.6666666666667</ele><time>2026-04-11T15:37:13.998Z</time></trkpt><trkpt lat="45.68337411137615" lon="8.571633202482838"><ele>351.33333333333337</ele><time>2026-04-11T15:37:14.998Z</time></trkpt><trkpt lat="45.6832273112358" lon="8.57171637160391"><ele>350.0</ele><time>2026-04-11T15:37:15.998Z</time></trkpt><trkpt lat="45.68305216434869" lon="8.571796246297204"><ele>350.0</ele><time>2026-04-11T15:37:16.998Z</time></trkpt><trkpt lat="45.68287407553441" lon="8.571885152259686"><ele>350.0</ele><time>2026-04-11T15:37:17.998Z</time></trkpt><trkpt lat="45.68268009912477" lon="8.571980280056184"><ele>350.0</ele><time>2026-04-11T15:37:18.998Z</time></trkpt><trkpt lat="45.68245947472277" lon="8.572081085044156"><ele>351.0</ele><time>2026-04-11T15:37:19.998Z</time></trkpt><trkpt lat="45.682221735489335" lon="8.572192312150921"><ele>352.0</ele><time>2026-04-11T15:37:20.998Z</time></trkpt><trkpt lat="45.68196894417382" lon="8.572312675257482"><ele>351.0</ele><time>2026-04-11T15:37:21.998Z</time></trkpt><trkpt lat="45.68172842622241" lon="8.572431853551617"><ele>350.0</ele><time>2026-04-11T15:37:22.998Z</time></trkpt><trkpt lat="45.68151669934713" lon="8.572530914037912"><ele>350.0</ele><time>2026-04-11T15:37:23.998Z</time></trkpt><trkpt lat="45.68128695672739" lon="8.572636863852754"><ele>350.0</ele><time>2026-04-11T15:37:24.998Z</time></trkpt><trkpt lat="45.68103278988481" lon="8.572726096812461"><ele>347.5</ele><time>2026-04-11T15:37:25.998Z</time></trkpt><trkpt lat="45.68077095506241" lon="8.5728450446423"><ele>345.0</ele><time>2026-04-11T15:37:26.998Z</time></trkpt><trkpt lat="45.68053430534737" lon="8.572978886567688"><ele>345.0</ele><time>2026-04-11T15:37:27.998Z</time></trkpt><trkpt lat="45.68030943902895" lon="8.57308050145118"><ele>345.0</ele><time>2026-04-11T15:37:28.998Z</time></trkpt><trkpt lat="45.680108631411" lon="8.573173900678798"><ele>345.0</ele><time>2026-04-11T15:37:29.998Z</time></trkpt><trkpt lat="45.67991540913157" lon="8.573269749550915"><ele>343.3333333333333</ele><time>2026-04-11T15:37:30.998Z</time></trkpt><trkpt lat="45.679734493579254" lon="8.573358842753546"><ele>341.66666666666663</ele><time>2026-04-11T15:37:31.998Z</time></trkpt><trkpt lat="45.67956127084721" lon="8.57343588017339"><ele>340.0</ele><time>2026-04-11T15:37:32.998Z</time></trkpt><trkpt lat="45.679397864183684" lon="8.573509889938336"><ele>339.75</ele><time>2026-04-11T15:37:33.998Z</time></trkpt><trkpt lat="45.67924574620922" lon="8.573583641489279"><ele>339.5</ele><time>2026-04-11T15:37:34.998Z</time></trkpt><trkpt lat="45.67910532284651" lon="8.57364966241952"><ele>339.25</ele><time>2026-04-11T15:37:35.998Z</time></trkpt><trkpt lat="45.67897250711232" lon="8.573709587557891"><ele>339.0</ele><time>2026-04-11T15:37:36.998Z</time></trkpt><trkpt lat="45.67884413325782" lon="8.573767530257891"><ele>339.0</ele><time>2026-04-11T15:37:37.998Z</time></trkpt><trkpt lat="45.678719243737696" lon="8.573825175057552"><ele>339.0</ele><time>2026-04-11T15:37:38.998Z</time></trkpt><trkpt lat="45.67856196198099" lon="8.573895659713017"><ele>339.0</ele><time>2026-04-11T15:37:39.998Z</time></trkpt><trkpt lat="45.67838827199636" lon="8.573977787819011"><ele>337.3333333333333</ele><time>2026-04-11T15:37:40.998Z</time></trkpt><trkpt lat="45.67819167448554" lon="8.574070505851424"><ele>335.66666666666663</ele><time>2026-04-11T15:37:41.998Z</time></trkpt><trkpt lat="45.67802193130552" lon="8.574148318902699"><ele>334.0</ele><time>2026-04-11T15:37:42.998Z</time></trkpt><trkpt lat="45.6778666686514" lon="8.574219823525949"><ele>332.66666666666663</ele><time>2026-04-11T15:37:43.998Z</time></trkpt><trkpt lat="45.67771003803893" lon="8.574292958159777"><ele>331.3333333333333</ele><time>2026-04-11T15:37:44.998Z</time></trkpt><trkpt lat="45.677536637807535" lon="8.574371865836282"><ele>330.0</ele><time>2026-04-11T15:37:45.998Z</time></trkpt><trkpt lat="45.677360351528286" lon="8.574459615606198"><ele>331.0</ele><time>2026-04-11T15:37:47Z</time></trkpt><trkpt lat="45.677197322867414" lon="8.574526955263229"><ele>332.0</ele><time>2026-04-11T15:37:48Z</time></trkpt><trkpt lat="45.67703227862136" lon="8.574614124373735"><ele>333.0</ele><time>2026-04-11T15:37:49Z</time></trkpt><trkpt lat="45.67681985262102" lon="8.574603942612436"><ele>335.3333333333333</ele><time>2026-04-11T15:37:50Z</time></trkpt><trkpt lat="45.67661501537459" lon="8.574627367652804"><ele>337.66666666666663</ele><time>2026-04-11T15:37:51Z</time></trkpt><trkpt lat="45.67644642858588" lon="8.574628578999762"><ele>340.0</ele><time>2026-04-11T15:37:52Z</time></trkpt><trkpt lat="45.676304530770665" lon="8.574638034323801"><ele>340.0</ele><time>2026-04-11T15:37:53Z</time></trkpt><trkpt lat="45.67619180674429" lon="8.574650018340483"><ele>340.0</ele><time>2026-04-11T15:37:54Z</time></trkpt><trkpt lat="45.67610945834195" lon="8.57465750452654"><ele>340.0</ele><time>2026-04-11T15:37:55Z</time></trkpt><trkpt lat="45.676031031869464" lon="8.57465531319231"><ele>340.0</ele><time>2026-04-11T15:37:57Z</time></trkpt><trkpt lat="45.6760505794231" lon="8.574868701551475"><ele>340.0</ele><time>2026-04-11T15:37:59Z</time></trkpt><trkpt lat="45.67604997116426" lon="8.574999946310948"><ele>339.25</ele><time>2026-04-11T15:38:00Z</time></trkpt><trkpt lat="45.67603228647772" lon="8.57517750616631"><ele>338.5</ele><time>2026-04-11T15:38:01Z</time></trkpt><trkpt lat="45.67601198289532" lon="8.575405334523003"><ele>337.75</ele><time>2026-04-11T15:38:02Z</time></trkpt><trkpt lat="45.67598269212969" lon="8.575611202352025"><ele>337.0</ele><time>2026-04-11T15:38:03Z</time></trkpt><trkpt lat="45.675948526945916" lon="8.575843057875602"><ele>337.0</ele><time>2026-04-11T15:38:04Z</time></trkpt><trkpt lat="45.67592240821767" lon="8.576036774774424"><ele>337.0</ele><time>2026-04-11T15:38:05Z</time></trkpt><trkpt lat="45.6759067546267" lon="8.57621327914136"><ele>337.0</ele><time>2026-04-11T15:38:06Z</time></trkpt><trkpt lat="45.675886325628085" lon="8.576372837320308"><ele>337.0</ele><time>2026-04-11T15:38:07Z</time></trkpt><trkpt lat="45.67586286624629" lon="8.576518152702917"><ele>337.0</ele><time>2026-04-11T15:38:08Z</time></trkpt><trkpt lat="45.67583973061833" lon="8.576644483787481"><ele>337.0</ele><time>2026-04-11T15:38:09Z</time></trkpt><trkpt lat="45.67581515770821" lon="8.576751135985674"><ele>337.0</ele><time>2026-04-11T15:38:10Z</time></trkpt><trkpt lat="45.6757939142348" lon="8.576860941035191"><ele>337.0</ele><time>2026-04-11T15:38:11Z</time></trkpt><trkpt lat="45.67578048582904" lon="8.576988795494357"><ele>337.0</ele><time>2026-04-11T15:38:12Z</time></trkpt><trkpt lat="45.67577168176738" lon="8.577099951703428"><ele>337.0</ele><time>2026-04-11T15:38:13Z</time></trkpt><trkpt lat="45.67575388855721" lon="8.577225917917145"><ele>337.3333333333333</ele><time>2026-04-11T15:38:14Z</time></trkpt><trkpt lat="45.67572500386542" lon="8.57735466009513"><ele>337.66666666666663</ele><time>2026-04-11T15:38:15Z</time></trkpt><trkpt lat="45.675703087780256" lon="8.577483378030816"><ele>338.0</ele><time>2026-04-11T15:38:16Z</time></trkpt><trkpt lat="45.67568890904284" lon="8.577613834696004"><ele>338.3333333333333</ele><time>2026-04-11T15:38:17Z</time></trkpt><trkpt lat="45.67567300403575" lon="8.577742824065217"><ele>338.6666666666667</ele><time>2026-04-11T15:38:18Z</time></trkpt><trkpt lat="45.67565744787634" lon="8.577845486378257"><ele>339.0</ele><time>2026-04-11T15:38:19Z</time></trkpt><trkpt lat="45.67566538910721" lon="8.577938512434052"><ele>339.0</ele><time>2026-04-11T15:38:20Z</time></trkpt><trkpt lat="45.67570744716063" lon="8.57810018209851"><ele>339.0</ele><time>2026-04-11T15:38:22Z</time></trkpt><trkpt lat="45.67573873711585" lon="8.57820858302506"><ele>339.0</ele><time>2026-04-11T15:38:23Z</time></trkpt><trkpt lat="45.67577047107329" lon="8.578324629423657"><ele>339.0</ele><time>2026-04-11T15:38:24Z</time></trkpt><trkpt lat="45.675797810828584" lon="8.578410248604666"><ele>339.0</ele><time>2026-04-11T15:38:25Z</time></trkpt><trkpt lat="45.67583765772639" lon="8.578484449245694"><ele>339.0</ele><time>2026-04-11T15:38:26Z</time></trkpt><trkpt lat="45.67583476766021" lon="8.578584953239037"><ele>339.0</ele><time>2026-04-11T15:38:28Z</time></trkpt><trkpt lat="45.675752774541266" lon="8.578628055757813"><ele>339.0</ele><time>2026-04-11T15:38:30Z</time></trkpt><trkpt lat="45.675605277340324" lon="8.578623543999173"><ele>339.0</ele><time>2026-04-11T15:38:32Z</time></trkpt><trkpt lat="45.675488513528" lon="8.578627745707164"><ele>339.0</ele><time>2026-04-11T15:38:33Z</time></trkpt><trkpt lat="45.67537602569708" lon="8.578653413555916"><ele>338.5</ele><time>2026-04-11T15:38:34Z</time></trkpt><trkpt lat="45.67523360071106" lon="8.578673189957948"><ele>338.0</ele><time>2026-04-11T15:38:35Z</time></trkpt><trkpt lat="45.675093566011334" lon="8.57868702740447"><ele>337.5</ele><time>2026-04-11T15:38:36Z</time></trkpt><trkpt lat="45.67499005600935" lon="8.57869169165944"><ele>337.0</ele><time>2026-04-11T15:38:36.999Z</time></trkpt><trkpt lat="45.674880146990176" lon="8.578705368488535"><ele>336.8</ele><time>2026-04-11T15:38:37.999Z</time></trkpt><trkpt lat="45.67475930638532" lon="8.578724824296543"><ele>336.6</ele><time>2026-04-11T15:38:38.999Z</time></trkpt><trkpt lat="45.674642463227286" lon="8.578746647781582"><ele>336.40000000000003</ele><time>2026-04-11T15:38:39.999Z</time></trkpt><trkpt lat="45.67454094011547" lon="8.578756664747946"><ele>336.20000000000005</ele><time>2026-04-11T15:38:40.999Z</time></trkpt><trkpt lat="45.674470924033244" lon="8.578760416178929"><ele>336.0</ele><time>2026-04-11T15:38:41.999Z</time></trkpt><trkpt lat="45.67439226192341" lon="8.578777218084296"><ele>336.4</ele><time>2026-04-11T15:38:42.999Z</time></trkpt><trkpt lat="45.67430645746052" lon="8.578778518245286"><ele>336.8</ele><time>2026-04-11T15:38:43.999Z</time></trkpt><trkpt lat="45.67421095208831" lon="8.578786999177836"><ele>337.2</ele><time>2026-04-11T15:38:44.999Z</time></trkpt><trkpt lat="45.674093244622576" lon="8.578819220619527"><ele>337.59999999999997</ele><time>2026-04-11T15:38:45.999Z</time></trkpt><trkpt lat="45.673986510246145" lon="8.578812405073819"><ele>338.0</ele><time>2026-04-11T15:38:46.999Z</time></trkpt><trkpt lat="45.67388783765853" lon="8.578823744840737"><ele>338.0</ele><time>2026-04-11T15:38:47.999Z</time></trkpt><trkpt lat="45.673796730553164" lon="8.578827782385023"><ele>338.0</ele><time>2026-04-11T15:38:48.999Z</time></trkpt><trkpt lat="45.67370052617973" lon="8.57883802336616"><ele>338.0</ele><time>2026-04-11T15:38:49.999Z</time></trkpt><trkpt lat="45.67360078950591" lon="8.578869145801672"><ele>338.0</ele><time>2026-04-11T15:38:50.999Z</time></trkpt><trkpt lat="45.673488609311775" lon="8.57888055742891"><ele>338.0</ele><time>2026-04-11T15:38:51.999Z</time></trkpt><trkpt lat="45.673381250165285" lon="8.578898197178729"><ele>337.79999999999995</ele><time>2026-04-11T15:38:52.999Z</time></trkpt><trkpt lat="45.67327703810957" lon="8.578910143254216"><ele>337.6</ele><time>2026-04-11T15:38:53.999Z</time></trkpt><trkpt lat="45.6731834738405" lon="8.578924449567278"><ele>337.4</ele><time>2026-04-11T15:38:54.999Z</time></trkpt><trkpt lat="45.67309156427056" lon="8.578952059970698"><ele>337.20000000000005</ele><time>2026-04-11T15:38:55.999Z</time></trkpt><trkpt lat="45.67297864595675" lon="8.578989150309445"><ele>337.0</ele><time>2026-04-11T15:38:56.999Z</time></trkpt><trkpt lat="45.67285237244719" lon="8.579047764064555"><ele>336.5</ele><time>2026-04-11T15:38:57.999Z</time></trkpt><trkpt lat="45.67274917517964" lon="8.579142778870104"><ele>336.0</ele><time>2026-04-11T15:38:58.999Z</time></trkpt><trkpt lat="45.67262732015247" lon="8.579220443986687"><ele>335.5</ele><time>2026-04-11T15:38:59.999Z</time></trkpt><trkpt lat="45.67250959241053" lon="8.579305206644943"><ele>335.0</ele><time>2026-04-11T15:39:00.999Z</time></trkpt><trkpt lat="45.67239718267283" lon="8.579393673952556"><ele>335.0</ele><time>2026-04-11T15:39:01.999Z</time></trkpt><trkpt lat="45.67227708970247" lon="8.579475707642649"><ele>335.0</ele><time>2026-04-11T15:39:02.999Z</time></trkpt><trkpt lat="45.672154695998294" lon="8.579566933755633"><ele>335.0</ele><time>2026-04-11T15:39:03.999Z</time></trkpt><trkpt lat="45.67204011552563" lon="8.579633542461796"><ele>335.0</ele><time>2026-04-11T15:39:04.999Z</time></trkpt><trkpt lat="45.67194262911443" lon="8.579715868480838"><ele>335.25</ele><time>2026-04-11T15:39:05.999Z</time></trkpt><trkpt lat="45.67183639275629" lon="8.579802009555037"><ele>335.5</ele><time>2026-04-11T15:39:06.999Z</time></trkpt><trkpt lat="45.671720925202315" lon="8.579810085923329"><ele>335.75</ele><time>2026-04-11T15:39:07.999Z</time></trkpt><trkpt lat="45.67160947955068" lon="8.579794124202337"><ele>336.0</ele><time>2026-04-11T15:39:08.999Z</time></trkpt><trkpt lat="45.67146206981116" lon="8.579797332742814"><ele>336.0</ele><time>2026-04-11T15:39:09.999Z</time></trkpt><trkpt lat="45.67133533835539" lon="8.579823071922105"><ele>336.0</ele><time>2026-04-11T15:39:10.999Z</time></trkpt><trkpt lat="45.671190810262566" lon="8.579829179291517"><ele>336.0</ele><time>2026-04-11T15:39:11.999Z</time></trkpt><trkpt lat="45.67105301309709" lon="8.579814261726838"><ele>336.0</ele><time>2026-04-11T15:39:12.999Z</time></trkpt><trkpt lat="45.6709218302384" lon="8.579820730732138"><ele>336.6</ele><time>2026-04-11T15:39:13.999Z</time></trkpt><trkpt lat="45.670799112360065" lon="8.579816593686337"><ele>337.20000000000005</ele><time>2026-04-11T15:39:14.999Z</time></trkpt><trkpt lat="45.67071276135079" lon="8.579820274862472"><ele>337.79999999999995</ele><time>2026-04-11T15:39:15.999Z</time></trkpt><trkpt lat="45.67060376979464" lon="8.57984940398763"><ele>338.4</ele><time>2026-04-11T15:39:16.999Z</time></trkpt><trkpt lat="45.67050146033188" lon="8.579850268430116"><ele>339.0</ele><time>2026-04-11T15:39:17.999Z</time></trkpt><trkpt lat="45.670424583050085" lon="8.579830255819969"><ele>339.0</ele><time>2026-04-11T15:39:18.999Z</time></trkpt><trkpt lat="45.67031122423076" lon="8.579891419674892"><ele>339.0</ele><time>2026-04-11T15:39:20.999Z</time></trkpt><trkpt lat="45.67023779602035" lon="8.579935140704386"><ele>339.0</ele><time>2026-04-11T15:39:22.999Z</time></trkpt><trkpt lat="45.67019719179259" lon="8.5800646969432"><ele>339.0</ele><time>2026-04-11T15:39:24.999Z</time></trkpt><trkpt lat="45.67016989005461" lon="8.580182114234605"><ele>339.0</ele><time>2026-04-11T15:39:25.999Z</time></trkpt><trkpt lat="45.67015415864733" lon="8.580285887324367"><ele>339.3333333333333</ele><time>2026-04-11T15:39:26.999Z</time></trkpt><trkpt lat="45.670067903266514" lon="8.580417485054001"><ele>339.6666666666667</ele><time>2026-04-11T15:39:28.999Z</time></trkpt><trkpt lat="45.67001349776202" lon="8.58048745447226"><ele>340.0</ele><time>2026-04-11T15:39:29.999Z</time></trkpt><trkpt lat="45.66998248829546" lon="8.580583308706512"><ele>340.33333333333337</ele><time>2026-04-11T15:39:30.998Z</time></trkpt><trkpt lat="45.66998507378742" lon="8.580700972555487"><ele>340.6666666666667</ele><time>2026-04-11T15:39:31.998Z</time></trkpt><trkpt lat="45.6700247643257" lon="8.580799757412716"><ele>341.0</ele><time>2026-04-11T15:39:32.998Z</time></trkpt><trkpt lat="45.670105081845605" lon="8.580891854552943"><ele>341.0</ele><time>2026-04-11T15:39:33.998Z</time></trkpt><trkpt lat="45.67022533896265" lon="8.580925604355908"><ele>341.0</ele><time>2026-04-11T15:39:34.998Z</time></trkpt><trkpt lat="45.67030380623117" lon="8.580947149112857"><ele>341.0</ele><time>2026-04-11T15:39:35.998Z</time></trkpt><trkpt lat="45.67028236026645" lon="8.581192567289419"><ele>341.0</ele><time>2026-04-11T15:39:36.998Z</time></trkpt><trkpt lat="45.670325302133975" lon="8.581392929039792"><ele>341.20000000000005</ele><time>2026-04-11T15:39:37.998Z</time></trkpt><trkpt lat="45.67034845751716" lon="8.581590143938756"><ele>341.40000000000003</ele><time>2026-04-11T15:39:38.998Z</time></trkpt><trkpt lat="45.670375940196024" lon="8.581717096069882"><ele>341.6</ele><time>2026-04-11T15:39:39.998Z</time></trkpt><trkpt lat="45.67040753025171" lon="8.581816606340514"><ele>341.8</ele><time>2026-04-11T15:39:40.998Z</time></trkpt><trkpt lat="45.670435861583876" lon="8.581929956834037"><ele>342.0</ele><time>2026-04-11T15:39:42.998Z</time></trkpt><trkpt lat="45.670481742846164" lon="8.582012965206063"><ele>341.20000000000005</ele><time>2026-04-11T15:42:40.999Z</time></trkpt><trkpt lat="45.67052282335685" lon="8.58208676102687"><ele>340.4</ele><time>2026-04-11T15:42:41.999Z</time></trkpt><trkpt lat="45.67055987578319" lon="8.582198910392473"><ele>339.6</ele><time>2026-04-11T15:42:42.999Z</time></trkpt><trkpt lat="45.67060617357926" lon="8.582332164822018"><ele>338.79999999999995</ele><time>2026-04-11T15:42:43.999Z</time></trkpt><trkpt lat="45.67065509914794" lon="8.582475501537038"><ele>338.0</ele><time>2026-04-11T15:42:44.999Z</time></trkpt><trkpt lat="45.67070761995917" lon="8.582621109674168"><ele>338.0</ele><time>2026-04-11T15:42:45.999Z</time></trkpt><trkpt lat="45.67076631288913" lon="8.582782462427046"><ele>338.0</ele><time>2026-04-11T15:42:46.999Z</time></trkpt><trkpt lat="45.67082928928808" lon="8.582953364364188"><ele>338.0</ele><time>2026-04-11T15:42:47.999Z</time></trkpt><trkpt lat="45.67090130496456" lon="8.583132108353391"><ele>338.0</ele><time>2026-04-11T15:42:48.999Z</time></trkpt><trkpt lat="45.67097561793701" lon="8.583320579027971"><ele>338.0</ele><time>2026-04-11T15:42:49.999Z</time></trkpt><trkpt lat="45.671058063442175" lon="8.583508573229702"><ele>338.0</ele><time>2026-04-11T15:42:50.999Z</time></trkpt><trkpt lat="45.67116173003746" lon="8.583680897609293"><ele>338.0</ele><time>2026-04-11T15:42:51.999Z</time></trkpt><trkpt lat="45.67128931805182" lon="8.58382164987715"><ele>338.0</ele><time>2026-04-11T15:42:52.999Z</time></trkpt><trkpt lat="45.671411486444185" lon="8.583986528549257"><ele>338.0</ele><time>2026-04-11T15:42:53.999Z</time></trkpt><trkpt lat="45.67152433418317" lon="8.584149704633335"><ele>338.0</ele><time>2026-04-11T15:42:54.999Z</time></trkpt><trkpt lat="45.67164301258949" lon="8.584317727347747"><ele>338.0</ele><time>2026-04-11T15:42:55.999Z</time></trkpt><trkpt lat="45.67174329370116" lon="8.584497459789647"><ele>338.0</ele><time>2026-04-11T15:42:56.999Z</time></trkpt><trkpt lat="45.67182992182971" lon="8.584709832842963"><ele>338.0</ele><time>2026-04-11T15:42:57.999Z</time></trkpt><trkpt lat="45.67190255975304" lon="8.584928270344642"><ele>338.0</ele><time>2026-04-11T15:42:58.999Z</time></trkpt><trkpt lat="45.67197893059468" lon="8.585150795470094"><ele>338.0</ele><time>2026-04-11T15:42:59.999Z</time></trkpt><trkpt lat="45.67206111921029" lon="8.585380475803577"><ele>338.0</ele><time>2026-04-11T15:43:00.999Z</time></trkpt><trkpt lat="45.67214841004604" lon="8.58561392518649"><ele>338.0</ele><time>2026-04-11T15:43:01.999Z</time></trkpt><trkpt lat="45.67223738555731" lon="8.585854538922272"><ele>338.0</ele><time>2026-04-11T15:43:02.999Z</time></trkpt><trkpt lat="45.672328740699946" lon="8.586108234598644"><ele>338.0</ele><time>2026-04-11T15:43:03.999Z</time></trkpt><trkpt lat="45.67242156588731" lon="8.586365208194081"><ele>338.0</ele><time>2026-04-11T15:43:04.999Z</time></trkpt><trkpt lat="45.672516796050154" lon="8.586625475977765"><ele>338.0</ele><time>2026-04-11T15:43:05.999Z</time></trkpt><trkpt lat="45.67261298653196" lon="8.586889155641735"><ele>338.0</ele><time>2026-04-11T15:43:06.999Z</time></trkpt><trkpt lat="45.6727083473206" lon="8.587157854834262"><ele>338.6666666666667</ele><time>2026-04-11T15:43:07.999Z</time></trkpt><trkpt lat="45.67280216233368" lon="8.58742991448928"><ele>339.3333333333333</ele><time>2026-04-11T15:43:08.999Z</time></trkpt><trkpt lat="45.67289329455194" lon="8.587689894190104"><ele>340.0</ele><time>2026-04-11T15:43:09.998Z</time></trkpt><trkpt lat="45.67297583326154" lon="8.587919414775108"><ele>340.5</ele><time>2026-04-11T15:43:10.998Z</time></trkpt><trkpt lat="45.673051976902464" lon="8.588133169346554"><ele>341.0</ele><time>2026-04-11T15:43:11.998Z</time></trkpt><trkpt lat="45.6731221211525" lon="8.588317747793363"><ele>341.5</ele><time>2026-04-11T15:43:12.998Z</time></trkpt><trkpt lat="45.67320035898398" lon="8.588473922221281"><ele>342.0</ele><time>2026-04-11T15:43:13.998Z</time></trkpt><trkpt lat="45.67329370306077" lon="8.588597529349135"><ele>341.6666666666667</ele><time>2026-04-11T15:43:14.998Z</time></trkpt><trkpt lat="45.67341830058574" lon="8.588711039290308"><ele>341.33333333333337</ele><time>2026-04-11T15:43:15.998Z</time></trkpt><trkpt lat="45.67356133635815" lon="8.58881992046694"><ele>341.0</ele><time>2026-04-11T15:43:16.998Z</time></trkpt><trkpt lat="45.673705316557054" lon="8.588920144710746"><ele>340.25</ele><time>2026-04-11T15:43:17.998Z</time></trkpt><trkpt lat="45.67382754722526" lon="8.589007547331459"><ele>339.5</ele><time>2026-04-11T15:43:18.998Z</time></trkpt><trkpt lat="45.673934950638916" lon="8.589082597968055"><ele>338.75</ele><time>2026-04-11T15:43:19.998Z</time></trkpt><trkpt lat="45.67405086129597" lon="8.589177671029852"><ele>338.0</ele><time>2026-04-11T15:43:20.998Z</time></trkpt><trkpt lat="45.6741572763779" lon="8.589321371933268"><ele>337.33333333333337</ele><time>2026-04-11T15:43:21.998Z</time></trkpt><trkpt lat="45.674209607061094" lon="8.58953822520561"><ele>336.6666666666667</ele><time>2026-04-11T15:43:22.998Z</time></trkpt><trkpt lat="45.674279702656605" lon="8.589769984588921"><ele>336.0</ele><time>2026-04-11T15:43:23.998Z</time></trkpt><trkpt lat="45.674332495166325" lon="8.590017778076424"><ele>336.0</ele><time>2026-04-11T15:43:24.998Z</time></trkpt><trkpt lat="45.67439641170485" lon="8.590250540592045"><ele>336.0</ele><time>2026-04-11T15:43:25.998Z</time></trkpt><trkpt lat="45.67446561058794" lon="8.590466259453594"><ele>336.0</ele><time>2026-04-11T15:43:26.998Z</time></trkpt><trkpt lat="45.674520470120584" lon="8.590713767010627"><ele>337.3333333333333</ele><time>2026-04-11T15:43:27.998Z</time></trkpt><trkpt lat="45.674594119640034" lon="8.590992292222476"><ele>338.66666666666663</ele><time>2026-04-11T15:43:28.998Z</time></trkpt><trkpt lat="45.67468575476051" lon="8.591279229880689"><ele>340.0</ele><time>2026-04-11T15:43:29.998Z</time></trkpt><trkpt lat="45.6747481548991" lon="8.591582956161615"><ele>340.66666666666663</ele><time>2026-04-11T15:43:30.998Z</time></trkpt><trkpt lat="45.674802094631545" lon="8.59188177162004"><ele>341.3333333333333</ele><time>2026-04-11T15:43:31.998Z</time></trkpt><trkpt lat="45.67484281816008" lon="8.592159073772773"><ele>342.0</ele><time>2026-04-11T15:43:32.998Z</time></trkpt><trkpt lat="45.674875033366156" lon="8.592419034872687"><ele>342.0</ele><time>2026-04-11T15:43:33.998Z</time></trkpt><trkpt lat="45.67490962374424" lon="8.592686828132782"><ele>342.0</ele><time>2026-04-11T15:43:34.998Z</time></trkpt><trkpt lat="45.67494135227509" lon="8.592941475433335"><ele>342.0</ele><time>2026-04-11T15:43:35.998Z</time></trkpt><trkpt lat="45.67496825067302" lon="8.593175038878305"><ele>342.6666666666667</ele><time>2026-04-11T15:43:36.998Z</time></trkpt><trkpt lat="45.674987900867826" lon="8.593402126961244"><ele>343.33333333333337</ele><time>2026-04-11T15:43:37.998Z</time></trkpt><trkpt lat="45.67499803868606" lon="8.593629784934876"><ele>344.0</ele><time>2026-04-11T15:43:38.998Z</time></trkpt><trkpt lat="45.67500566514601" lon="8.59383843228625"><ele>342.25</ele><time>2026-04-11T15:43:39.998Z</time></trkpt><trkpt lat="45.67501711149722" lon="8.594056727575296"><ele>340.5</ele><time>2026-04-11T15:43:40.998Z</time></trkpt><trkpt lat="45.67502792527827" lon="8.594257852150067"><ele>338.75</ele><time>2026-04-11T15:43:41.998Z</time></trkpt><trkpt lat="45.67504558747264" lon="8.594453498434227"><ele>337.0</ele><time>2026-04-11T15:43:42.998Z</time></trkpt><trkpt lat="45.67509282046534" lon="8.594665834530515"><ele>334.66666666666663</ele><time>2026-04-11T15:43:43.998Z</time></trkpt><trkpt lat="45.675181691151046" lon="8.59488169116242"><ele>332.3333333333333</ele><time>2026-04-11T15:43:44.998Z</time></trkpt><trkpt lat="45.675272621164" lon="8.595129491966343"><ele>330.0</ele><time>2026-04-11T15:43:45.998Z</time></trkpt><trkpt lat="45.67535506059115" lon="8.59536659681337"><ele>329.0</ele><time>2026-04-11T15:43:46.998Z</time></trkpt><trkpt lat="45.67542169029585" lon="8.595601216723809"><ele>328.0</ele><time>2026-04-11T15:43:47.998Z</time></trkpt><trkpt lat="45.675464723185506" lon="8.595799839080733"><ele>327.0</ele><time>2026-04-11T15:43:48.998Z</time></trkpt><trkpt lat="45.67550268099976" lon="8.595986872702118"><ele>327.0</ele><time>2026-04-11T15:43:49.998Z</time></trkpt><trkpt lat="45.67552218127838" lon="8.59618862199517"><ele>327.0</ele><time>2026-04-11T15:43:50.998Z</time></trkpt><trkpt lat="45.67555194462407" lon="8.596392518355513"><ele>327.0</ele><time>2026-04-11T15:43:51.998Z</time></trkpt><trkpt lat="45.675584207863395" lon="8.596604750417423"><ele>327.0</ele><time>2026-04-11T15:43:52.998Z</time></trkpt><trkpt lat="45.67561222710619" lon="8.596810405545853"><ele>327.0</ele><time>2026-04-11T15:43:53.998Z</time></trkpt><trkpt lat="45.67563921035427" lon="8.596994388009897"><ele>327.0</ele><time>2026-04-11T15:43:54.998Z</time></trkpt><trkpt lat="45.67566002951273" lon="8.597164776817024"><ele>327.0</ele><time>2026-04-11T15:43:55.998Z</time></trkpt><trkpt lat="45.67566776984932" lon="8.597323169058184"><ele>327.0</ele><time>2026-04-11T15:43:56.998Z</time></trkpt><trkpt lat="45.67566118324226" lon="8.597483640376923"><ele>327.25</ele><time>2026-04-11T15:43:57.998Z</time></trkpt><trkpt lat="45.67563920270025" lon="8.597644339101194"><ele>327.5</ele><time>2026-04-11T15:43:58.998Z</time></trkpt><trkpt lat="45.675599202340855" lon="8.597811244199915"><ele>327.75</ele><time>2026-04-11T15:43:59.998Z</time></trkpt><trkpt lat="45.67555961475536" lon="8.59798525898599"><ele>328.0</ele><time>2026-04-11T15:44:00.998Z</time></trkpt><trkpt lat="45.675529303841024" lon="8.598163032578052"><ele>328.75</ele><time>2026-04-11T15:44:01.998Z</time></trkpt><trkpt lat="45.67550558412155" lon="8.598338747494113"><ele>329.5</ele><time>2026-04-11T15:44:02.998Z</time></trkpt><trkpt lat="45.675488332535146" lon="8.598516151129083"><ele>330.25</ele><time>2026-04-11T15:44:04Z</time></trkpt><trkpt lat="45.675488321641815" lon="8.598687799438135"><ele>331.0</ele><time>2026-04-11T15:44:05Z</time></trkpt><trkpt lat="45.67551073590701" lon="8.598878193466792"><ele>331.0</ele><time>2026-04-11T15:44:06Z</time></trkpt><trkpt lat="45.67555283507764" lon="8.599033103688553"><ele>331.0</ele><time>2026-04-11T15:44:07Z</time></trkpt><trkpt lat="45.675598498131464" lon="8.599165626887942"><ele>331.0</ele><time>2026-04-11T15:44:08Z</time></trkpt><trkpt lat="45.6756386173709" lon="8.599295755002181"><ele>331.0</ele><time>2026-04-11T15:44:09Z</time></trkpt><trkpt lat="45.67566668535668" lon="8.599430718638448"><ele>331.0</ele><time>2026-04-11T15:44:10Z</time></trkpt><trkpt lat="45.67566509043772" lon="8.599557302295077"><ele>330.6</ele><time>2026-04-11T15:44:11Z</time></trkpt><trkpt lat="45.67567009133886" lon="8.599656662240356"><ele>330.20000000000005</ele><time>2026-04-11T15:44:12Z</time></trkpt><trkpt lat="45.675807972813075" lon="8.599759879212733"><ele>329.79999999999995</ele><time>2026-04-11T15:44:14Z</time></trkpt><trkpt lat="45.675899429808936" lon="8.599818222262439"><ele>329.4</ele><time>2026-04-11T15:44:15Z</time></trkpt><trkpt lat="45.675994358685" lon="8.599917501442519"><ele>329.0</ele><time>2026-04-11T15:44:16Z</time></trkpt><trkpt lat="45.676092579501145" lon="8.599965357196742"><ele>328.4</ele><time>2026-04-11T15:44:17Z</time></trkpt><trkpt lat="45.67618081503856" lon="8.600029111961975"><ele>327.79999999999995</ele><time>2026-04-11T15:44:18Z</time></trkpt><trkpt lat="45.67627915191708" lon="8.600102078934047"><ele>327.20000000000005</ele><time>2026-04-11T15:44:19Z</time></trkpt><trkpt lat="45.676374852847545" lon="8.600194557601219"><ele>326.6</ele><time>2026-04-11T15:44:20Z</time></trkpt><trkpt lat="45.67647442214801" lon="8.600265139626938"><ele>326.0</ele><time>2026-04-11T15:44:21Z</time></trkpt><trkpt lat="45.67659394751113" lon="8.600331270442227"><ele>326.20000000000005</ele><time>2026-04-11T15:44:22Z</time></trkpt><trkpt lat="45.67670571506102" lon="8.600414508982865"><ele>326.40000000000003</ele><time>2026-04-11T15:44:23Z</time></trkpt><trkpt lat="45.6767982634811" lon="8.600501437448575"><ele>326.6</ele><time>2026-04-11T15:44:24Z</time></trkpt><trkpt lat="45.67687517055596" lon="8.600553438306656"><ele>326.8</ele><time>2026-04-11T15:44:25Z</time></trkpt><trkpt lat="45.67695670899922" lon="8.600608570711358"><ele>327.0</ele><time>2026-04-11T15:44:26Z</time></trkpt><trkpt lat="45.67706015975365" lon="8.600678519130717"><ele>327.1666666666667</ele><time>2026-04-11T15:44:27Z</time></trkpt><trkpt lat="45.67716314883818" lon="8.600742243599079"><ele>327.3333333333333</ele><time>2026-04-11T15:44:28Z</time></trkpt><trkpt lat="45.6772535216448" lon="8.600777902540589"><ele>327.5</ele><time>2026-04-11T15:44:29Z</time></trkpt><trkpt lat="45.67731325081965" lon="8.600829852115634"><ele>327.66666666666663</ele><time>2026-04-11T15:44:30Z</time></trkpt><trkpt lat="45.67736686258189" lon="8.600892506250585"><ele>327.8333333333333</ele><time>2026-04-11T15:44:31Z</time></trkpt><trkpt lat="45.677418418610216" lon="8.600972900741233"><ele>328.0</ele><time>2026-04-11T15:44:32Z</time></trkpt><trkpt lat="45.67745623086162" lon="8.6010507795775"><ele>327.5</ele><time>2026-04-11T15:44:33Z</time></trkpt><trkpt lat="45.67752991161582" lon="8.601180304254687"><ele>327.0</ele><time>2026-04-11T15:44:35Z</time></trkpt><trkpt lat="45.67756760272309" lon="8.601256947725767"><ele>326.5</ele><time>2026-04-11T15:44:36Z</time></trkpt><trkpt lat="45.677599979406764" lon="8.60134802421219"><ele>326.0</ele><time>2026-04-11T15:44:37Z</time></trkpt><trkpt lat="45.677641413238206" lon="8.601429304044606"><ele>325.5</ele><time>2026-04-11T15:44:38Z</time></trkpt><trkpt lat="45.677687159440005" lon="8.601493501264866"><ele>325.0</ele><time>2026-04-11T15:44:39Z</time></trkpt><trkpt lat="45.6777469656226" lon="8.60159419330118"><ele>325.0</ele><time>2026-04-11T15:44:41Z</time></trkpt><trkpt lat="45.67774477178809" lon="8.601750320771917"><ele>325.0</ele><time>2026-04-11T15:44:43.999Z</time></trkpt><trkpt lat="45.67778055987188" lon="8.601860572247816"><ele>325.0</ele><time>2026-04-11T15:44:45.999Z</time></trkpt><trkpt lat="45.67784366144308" lon="8.601982965745824"><ele>325.0</ele><time>2026-04-11T15:44:47.999Z</time></trkpt><trkpt lat="45.67791452449845" lon="8.602136741754084"><ele>325.0</ele><time>2026-04-11T15:44:49.999Z</time></trkpt><trkpt lat="45.677952606735545" lon="8.602230567299523"><ele>322.4</ele><time>2026-04-11T15:44:50.999Z</time></trkpt><trkpt lat="45.678002070617595" lon="8.60239454485018"><ele>319.8</ele><time>2026-04-11T15:44:52.999Z</time></trkpt><trkpt lat="45.67805259988597" lon="8.602469441733138"><ele>317.2</ele><time>2026-04-11T15:44:53.999Z</time></trkpt><trkpt lat="45.67813074040769" lon="8.602501398851691"><ele>314.6</ele><time>2026-04-11T15:44:56.999Z</time></trkpt><trkpt lat="45.678232114157126" lon="8.6024520691644"><ele>312.0</ele><time>2026-04-11T15:44:58.999Z</time></trkpt><trkpt lat="45.678312891280214" lon="8.602387968333321"><ele>312.0</ele><time>2026-04-11T15:44:59.999Z</time></trkpt><trkpt lat="45.67841458229806" lon="8.602316668164649"><ele>312.0</ele><time>2026-04-11T15:45:00.999Z</time></trkpt><trkpt lat="45.67851931587629" lon="8.602243600404861"><ele>312.0</ele><time>2026-04-11T15:45:01.999Z</time></trkpt><trkpt lat="45.67860579470862" lon="8.602181858028493"><ele>312.0</ele><time>2026-04-11T15:45:02.999Z</time></trkpt><trkpt lat="45.678675838199545" lon="8.602133166357405"><ele>312.0</ele><time>2026-04-11T15:45:03.999Z</time></trkpt><trkpt lat="45.67875852337647" lon="8.602103304461265"><ele>311.6666666666667</ele><time>2026-04-11T15:45:04.999Z</time></trkpt><trkpt lat="45.67884972224729" lon="8.602045955620655"><ele>311.3333333333333</ele><time>2026-04-11T15:45:05.999Z</time></trkpt><trkpt lat="45.67892966270924" lon="8.601970195751406"><ele>311.0</ele><time>2026-04-11T15:45:06.999Z</time></trkpt><trkpt lat="45.67900555908626" lon="8.601924436427671"><ele>310.66666666666663</ele><time>2026-04-11T15:45:07.999Z</time></trkpt><trkpt lat="45.67908321389589" lon="8.601885945551647"><ele>310.3333333333333</ele><time>2026-04-11T15:45:08.999Z</time></trkpt><trkpt lat="45.67915439484795" lon="8.601861656471874"><ele>310.0</ele><time>2026-04-11T15:45:09.999Z</time></trkpt><trkpt lat="45.67923272400535" lon="8.60189199609438"><ele>310.0</ele><time>2026-04-11T15:45:10.999Z</time></trkpt><trkpt lat="45.67932289395117" lon="8.60195733340776"><ele>310.0</ele><time>2026-04-11T15:45:11.999Z</time></trkpt><trkpt lat="45.67943857496866" lon="8.60200308417271"><ele>310.0</ele><time>2026-04-11T15:45:12.999Z</time></trkpt><trkpt lat="45.679528402058374" lon="8.60203549732899"><ele>310.0</ele><time>2026-04-11T15:45:13.999Z</time></trkpt><trkpt lat="45.67960290781633" lon="8.602030701569737"><ele>310.0</ele><time>2026-04-11T15:45:14.999Z</time></trkpt><trkpt lat="45.67968088358893" lon="8.602039040986806"><ele>308.4</ele><time>2026-04-11T15:45:15.999Z</time></trkpt><trkpt lat="45.67978039412262" lon="8.60196482869214"><ele>306.8</ele><time>2026-04-11T15:45:16.999Z</time></trkpt><trkpt lat="45.67984868479841" lon="8.601907750729248"><ele>305.2</ele><time>2026-04-11T15:45:17.999Z</time></trkpt><trkpt lat="45.67992669992618" lon="8.601880821216241"><ele>303.6</ele><time>2026-04-11T15:45:19.999Z</time></trkpt><trkpt lat="45.679951046318756" lon="8.602034107232374"><ele>302.0</ele><time>2026-04-11T15:45:20.999Z</time></trkpt><trkpt lat="45.68002532796065" lon="8.602100725347672"><ele>301.0</ele><time>2026-04-11T15:45:21.999Z</time></trkpt><trkpt lat="45.68008970267342" lon="8.602206223032587"><ele>300.0</ele><time>2026-04-11T15:45:22.999Z</time></trkpt><trkpt lat="45.680161645180355" lon="8.602301371458424"><ele>299.0</ele><time>2026-04-11T15:45:23.999Z</time></trkpt><trkpt lat="45.680245870786294" lon="8.602420096101959"><ele>298.0</ele><time>2026-04-11T15:45:24.999Z</time></trkpt><trkpt lat="45.68033906424111" lon="8.602550499343918"><ele>297.0</ele><time>2026-04-11T15:45:25.999Z</time></trkpt><trkpt lat="45.6804290321848" lon="8.602674270841218"><ele>296.25</ele><time>2026-04-11T15:45:26.999Z</time></trkpt><trkpt lat="45.68052089311071" lon="8.60279603029183"><ele>295.5</ele><time>2026-04-11T15:45:27.999Z</time></trkpt><trkpt lat="45.68062134908109" lon="8.602916211493808"><ele>294.75</ele><time>2026-04-11T15:45:28.999Z</time></trkpt><trkpt lat="45.680726661491335" lon="8.60303615006848"><ele>294.0</ele><time>2026-04-11T15:45:29.999Z</time></trkpt><trkpt lat="45.68083954149544" lon="8.603150455026254"><ele>293.5</ele><time>2026-04-11T15:45:30.999Z</time></trkpt><trkpt lat="45.68094685155079" lon="8.603267044824209"><ele>293.0</ele><time>2026-04-11T15:45:31.999Z</time></trkpt><trkpt lat="45.68105987479534" lon="8.603382175438044"><ele>292.5</ele><time>2026-04-11T15:45:32.999Z</time></trkpt><trkpt lat="45.681168960446065" lon="8.603495442942982"><ele>292.0</ele><time>2026-04-11T15:45:33.999Z</time></trkpt><trkpt lat="45.681263113000135" lon="8.603602859083866"><ele>291.75</ele><time>2026-04-11T15:45:34.999Z</time></trkpt><trkpt lat="45.6813470716169" lon="8.6036974657176"><ele>291.5</ele><time>2026-04-11T15:45:35.999Z</time></trkpt><trkpt lat="45.6814512470238" lon="8.603790014602856"><ele>291.25</ele><time>2026-04-11T15:45:36.999Z</time></trkpt><trkpt lat="45.68156417454626" lon="8.603878055476338"><ele>291.0</ele><time>2026-04-11T15:45:37.999Z</time></trkpt><trkpt lat="45.68167158032246" lon="8.603979748241558"><ele>291.0</ele><time>2026-04-11T15:45:38.999Z</time></trkpt><trkpt lat="45.681767860323454" lon="8.604063547741331"><ele>291.0</ele><time>2026-04-11T15:45:39.999Z</time></trkpt><trkpt lat="45.68184818563263" lon="8.604150611060867"><ele>291.0</ele><time>2026-04-11T15:45:40.999Z</time></trkpt><trkpt lat="45.68190514197266" lon="8.604251784746467"><ele>291.0</ele><time>2026-04-11T15:45:41.999Z</time></trkpt><trkpt lat="45.68195731135852" lon="8.604379303855803"><ele>291.0</ele><time>2026-04-11T15:45:42.999Z</time></trkpt><trkpt lat="45.682014606810704" lon="8.604518415509503"><ele>291.0</ele><time>2026-04-11T15:45:43.999Z</time></trkpt><trkpt lat="45.682049991479715" lon="8.604670340698362"><ele>291.0</ele><time>2026-04-11T15:45:44.999Z</time></trkpt><trkpt lat="45.68207663602856" lon="8.604831526234296"><ele>291.0</ele><time>2026-04-11T15:45:45.998Z</time></trkpt><trkpt lat="45.682123466617746" lon="8.604996999128547"><ele>291.0</ele><time>2026-04-11T15:45:46.998Z</time></trkpt><trkpt lat="45.68217481766765" lon="8.605164340794257"><ele>290.75</ele><time>2026-04-11T15:45:47.998Z</time></trkpt><trkpt lat="45.682232499592025" lon="8.605344878722692"><ele>290.5</ele><time>2026-04-11T15:45:48.998Z</time></trkpt><trkpt lat="45.68229372566106" lon="8.605530694669104"><ele>290.25</ele><time>2026-04-11T15:45:49.998Z</time></trkpt><trkpt lat="45.68235561493762" lon="8.605718031483956"><ele>290.0</ele><time>2026-04-11T15:45:50.998Z</time></trkpt><trkpt lat="45.682410056770635" lon="8.60588042578096"><ele>290.0</ele><time>2026-04-11T15:45:51.998Z</time></trkpt><trkpt lat="45.682464307751275" lon="8.606042251850898"><ele>290.0</ele><time>2026-04-11T15:45:52.998Z</time></trkpt><trkpt lat="45.682511746007556" lon="8.606193404364545"><ele>290.0</ele><time>2026-04-11T15:45:53.998Z</time></trkpt><trkpt lat="45.68255399465857" lon="8.606342759097794"><ele>290.0</ele><time>2026-04-11T15:45:54.998Z</time></trkpt><trkpt lat="45.682587764337455" lon="8.606462140149473"><ele>290.0</ele><time>2026-04-11T15:45:55.998Z</time></trkpt><trkpt lat="45.682612978640684" lon="8.606546443372432"><ele>290.0</ele><time>2026-04-11T15:45:56.998Z</time></trkpt><trkpt lat="45.68257183158051" lon="8.606654378825214"><ele>290.0</ele><time>2026-04-11T15:46:00.998Z</time></trkpt><trkpt lat="45.68246507770395" lon="8.606708274011249"><ele>290.0</ele><time>2026-04-11T15:46:01.998Z</time></trkpt><trkpt lat="45.6823090140875" lon="8.606765181335481"><ele>290.0</ele><time>2026-04-11T15:46:02.998Z</time></trkpt><trkpt lat="45.68216015334952" lon="8.606835195401137"><ele>290.0</ele><time>2026-04-11T15:46:03.998Z</time></trkpt><trkpt lat="45.68205217906983" lon="8.606895083746341"><ele>290.0</ele><time>2026-04-11T15:46:04.998Z</time></trkpt><trkpt lat="45.68197222143554" lon="8.606932571751582"><ele>290.0</ele><time>2026-04-11T15:46:05.998Z</time></trkpt><trkpt lat="45.68190924959331" lon="8.606961323317798"><ele>290.0</ele><time>2026-04-11T15:46:06.998Z</time></trkpt><trkpt lat="45.681805819111474" lon="8.607021696913321"><ele>290.0</ele><time>2026-04-11T15:46:08.998Z</time></trkpt><trkpt lat="45.681722297436444" lon="8.607073800576178"><ele>289.75</ele><time>2026-04-11T15:46:10Z</time></trkpt><trkpt lat="45.68159146987406" lon="8.607141096749944"><ele>289.5</ele><time>2026-04-11T15:46:11Z</time></trkpt><trkpt lat="45.68144054908437" lon="8.607202210811586"><ele>289.25</ele><time>2026-04-11T15:46:12Z</time></trkpt><trkpt lat="45.68131484207689" lon="8.607255073827599"><ele>289.0</ele><time>2026-04-11T15:46:13Z</time></trkpt><trkpt lat="45.68119926782698" lon="8.607312128735042"><ele>289.25</ele><time>2026-04-11T15:46:14Z</time></trkpt><trkpt lat="45.68106685519882" lon="8.607382502414183"><ele>289.5</ele><time>2026-04-11T15:46:15Z</time></trkpt><trkpt lat="45.68092620084677" lon="8.607455191093702"><ele>289.75</ele><time>2026-04-11T15:46:16Z</time></trkpt><trkpt lat="45.680794100002366" lon="8.607524744311833"><ele>290.0</ele><time>2026-04-11T15:46:17Z</time></trkpt><trkpt lat="45.68066054093791" lon="8.607593393354733"><ele>290.0</ele><time>2026-04-11T15:46:18Z</time></trkpt><trkpt lat="45.68053467147507" lon="8.607655876553"><ele>290.0</ele><time>2026-04-11T15:46:19Z</time></trkpt><trkpt lat="45.68041527081641" lon="8.607712014011321"><ele>290.0</ele><time>2026-04-11T15:46:20Z</time></trkpt><trkpt lat="45.680308375325225" lon="8.607764031440691"><ele>290.0</ele><time>2026-04-11T15:46:21Z</time></trkpt><trkpt lat="45.68022190147197" lon="8.60780587865627"><ele>289.5</ele><time>2026-04-11T15:46:22Z</time></trkpt><trkpt lat="45.68015554630959" lon="8.607841790359203"><ele>289.0</ele><time>2026-04-11T15:46:23Z</time></trkpt><trkpt lat="45.68006270223448" lon="8.607893224995173"><ele>288.5</ele><time>2026-04-11T15:46:25Z</time></trkpt><trkpt lat="45.68011967329497" lon="8.608019079061927"><ele>288.0</ele><time>2026-04-11T15:46:29Z</time></trkpt><trkpt lat="45.68013718398806" lon="8.60811300397485"><ele>287.5</ele><time>2026-04-11T15:46:30Z</time></trkpt><trkpt lat="45.680163535981116" lon="8.608236565877604"><ele>287.0</ele><time>2026-04-11T15:46:31Z</time></trkpt><trkpt lat="45.68018880618281" lon="8.60835872963688"><ele>287.0</ele><time>2026-04-11T15:46:32Z</time></trkpt><trkpt lat="45.68021469338537" lon="8.608496360695494"><ele>287.0</ele><time>2026-04-11T15:46:33Z</time></trkpt><trkpt lat="45.68023867433499" lon="8.608627622958135"><ele>287.0</ele><time>2026-04-11T15:46:34Z</time></trkpt><trkpt lat="45.68025183499513" lon="8.608739785849618"><ele>287.0</ele><time>2026-04-11T15:46:35Z</time></trkpt><trkpt lat="45.68025145583728" lon="8.608836317772013"><ele>287.0</ele><time>2026-04-11T15:46:36Z</time></trkpt><trkpt lat="45.68023483434188" lon="8.608938664769637"><ele>287.0</ele><time>2026-04-11T15:46:37Z</time></trkpt><trkpt lat="45.68015433150722" lon="8.609074006113302"><ele>287.0</ele><time>2026-04-11T15:46:39Z</time></trkpt><trkpt lat="45.68007989276687" lon="8.609143137223477"><ele>287.0</ele><time>2026-04-11T15:46:40Z</time></trkpt><trkpt lat="45.67999460031803" lon="8.609258420375925"><ele>287.0</ele><time>2026-04-11T15:46:41Z</time></trkpt><trkpt lat="45.67990223538629" lon="8.609364642502177"><ele>287.0</ele><time>2026-04-11T15:46:42Z</time></trkpt><trkpt lat="45.679828847918074" lon="8.609451322262554"><ele>287.0</ele><time>2026-04-11T15:46:43Z</time></trkpt><trkpt lat="45.679764112364204" lon="8.609526161904352"><ele>287.0</ele><time>2026-04-11T15:46:44Z</time></trkpt><trkpt lat="45.67969738898476" lon="8.609613678918818"><ele>287.0</ele><time>2026-04-11T15:46:45Z</time></trkpt><trkpt lat="45.679629560959434" lon="8.60969399274915"><ele>287.0</ele><time>2026-04-11T15:46:46Z</time></trkpt><trkpt lat="45.679554584491534" lon="8.609796744007948"><ele>287.0</ele><time>2026-04-11T15:46:47Z</time></trkpt><trkpt lat="45.67947770092214" lon="8.609902108845862"><ele>287.0</ele><time>2026-04-11T15:46:48Z</time></trkpt><trkpt lat="45.67937787520873" lon="8.609831232659275"><ele>287.0</ele><time>2026-04-11T15:46:49Z</time></trkpt><trkpt lat="45.67928728274025" lon="8.609908171318134"><ele>287.0</ele><time>2026-04-11T15:46:50Z</time></trkpt><trkpt lat="45.67920032419062" lon="8.610079180934028"><ele>287.0</ele><time>2026-04-11T15:46:51Z</time></trkpt><trkpt lat="45.679316531571736" lon="8.610624963591777"><ele>287.5</ele><time>2026-04-11T15:46:52Z</time></trkpt><trkpt lat="45.67925029152099" lon="8.610727125997851"><ele>288.0</ele><time>2026-04-11T15:46:52.999Z</time></trkpt><trkpt lat="45.67919325310126" lon="8.610772115934308"><ele>288.5</ele><time>2026-04-11T15:46:53.999Z</time></trkpt><trkpt lat="45.67911422015585" lon="8.61085051975299"><ele>289.0</ele><time>2026-04-11T15:46:54.999Z</time></trkpt><trkpt lat="45.67903622838858" lon="8.61092083088358"><ele>289.5</ele><time>2026-04-11T15:46:55.999Z</time></trkpt><trkpt lat="45.678978620848156" lon="8.610997980311463"><ele>290.0</ele><time>2026-04-11T15:46:56.999Z</time></trkpt><trkpt lat="45.67892722393021" lon="8.611066035990858"><ele>290.0</ele><time>2026-04-11T15:46:57.999Z</time></trkpt><trkpt lat="45.678864362338075" lon="8.611198709354264"><ele>290.0</ele><time>2026-04-11T15:46:59.999Z</time></trkpt><trkpt lat="45.67878845230431" lon="8.611337523479946"><ele>290.0</ele><time>2026-04-11T15:47:01.999Z</time></trkpt><trkpt lat="45.678714767267834" lon="8.611413300448614"><ele>290.0</ele><time>2026-04-11T15:47:03.999Z</time></trkpt><trkpt lat="45.67865363404185" lon="8.61145587956954"><ele>290.0</ele><time>2026-04-11T15:47:05.999Z</time></trkpt><trkpt lat="45.67856575549705" lon="8.611514616636043"><ele>290.1666666666667</ele><time>2026-04-11T15:47:07.999Z</time></trkpt><trkpt lat="45.678488989159234" lon="8.611531776202261"><ele>290.33333333333337</ele><time>2026-04-11T15:47:08.999Z</time></trkpt><trkpt lat="45.678383500907856" lon="8.611539287555393"><ele>290.5</ele><time>2026-04-11T15:47:09.999Z</time></trkpt><trkpt lat="45.67829592307951" lon="8.611528321830981"><ele>290.6666666666667</ele><time>2026-04-11T15:47:10.999Z</time></trkpt><trkpt lat="45.678229221857556" lon="8.611512368255466"><ele>290.8333333333333</ele><time>2026-04-11T15:47:11.998Z</time></trkpt><trkpt lat="45.67815231840252" lon="8.61149883625444"><ele>291.0</ele><time>2026-04-11T15:47:12.998Z</time></trkpt><trkpt lat="45.67807840228356" lon="8.611491759168265"><ele>291.0</ele><time>2026-04-11T15:47:13.998Z</time></trkpt><trkpt lat="45.677978900785654" lon="8.61153265021217"><ele>291.0</ele><time>2026-04-11T15:47:15.998Z</time></trkpt><trkpt lat="45.6778723655017" lon="8.61171276732687"><ele>291.0</ele><time>2026-04-11T15:47:17.998Z</time></trkpt><trkpt lat="45.677783736871454" lon="8.611873752499244"><ele>291.0</ele><time>2026-04-11T15:47:18.998Z</time></trkpt><trkpt lat="45.67773225042935" lon="8.611949902256404"><ele>290.40000000000003</ele><time>2026-04-11T15:47:19.998Z</time></trkpt><trkpt lat="45.677681743188295" lon="8.612027274548835"><ele>289.8</ele><time>2026-04-11T15:47:20.998Z</time></trkpt><trkpt lat="45.67762236039002" lon="8.612117721146433"><ele>289.20000000000005</ele><time>2026-04-11T15:47:21.998Z</time></trkpt><trkpt lat="45.6775569748869" lon="8.612239032257529"><ele>288.6</ele><time>2026-04-11T15:47:22.998Z</time></trkpt><trkpt lat="45.67750936675317" lon="8.612360966816995"><ele>288.0</ele><time>2026-04-11T15:47:23.998Z</time></trkpt><trkpt lat="45.67745942214216" lon="8.61249342913465"><ele>288.0</ele><time>2026-04-11T15:47:24.998Z</time></trkpt><trkpt lat="45.67741297452077" lon="8.612642208329701"><ele>288.0</ele><time>2026-04-11T15:47:25.998Z</time></trkpt><trkpt lat="45.677373569835396" lon="8.612764530314863"><ele>288.0</ele><time>2026-04-11T15:47:26.998Z</time></trkpt><trkpt lat="45.67734091471895" lon="8.612858867779899"><ele>288.0</ele><time>2026-04-11T15:47:27.998Z</time></trkpt><trkpt lat="45.677312833834236" lon="8.612955197419199"><ele>288.0</ele><time>2026-04-11T15:47:28.998Z</time></trkpt><trkpt lat="45.677286000198045" lon="8.613055190378729"><ele>288.0</ele><time>2026-04-11T15:47:29.998Z</time></trkpt><trkpt lat="45.67726032181296" lon="8.613148160084235"><ele>288.1666666666667</ele><time>2026-04-11T15:47:30.998Z</time></trkpt><trkpt lat="45.67723632148098" lon="8.613231749595812"><ele>288.3333333333333</ele><time>2026-04-11T15:47:31.998Z</time></trkpt><trkpt lat="45.677192091304704" lon="8.613348829236841"><ele>288.5</ele><time>2026-04-11T15:47:32.998Z</time></trkpt><trkpt lat="45.677134993684" lon="8.613434278178726"><ele>288.66666666666663</ele><time>2026-04-11T15:47:33.998Z</time></trkpt><trkpt lat="45.67706923107074" lon="8.613518798025199"><ele>288.8333333333333</ele><time>2026-04-11T15:47:34.998Z</time></trkpt><trkpt lat="45.67699387448791" lon="8.61359753752318"><ele>289.0</ele><time>2026-04-11T15:47:35.998Z</time></trkpt><trkpt lat="45.67694357977936" lon="8.613667629691866"><ele>289.8</ele><time>2026-04-11T15:47:36.998Z</time></trkpt><trkpt lat="45.676898645577104" lon="8.613749914809311"><ele>290.59999999999997</ele><time>2026-04-11T15:47:37.998Z</time></trkpt><trkpt lat="45.676868274857206" lon="8.613846691881559"><ele>291.4</ele><time>2026-04-11T15:47:38.998Z</time></trkpt><trkpt lat="45.67685481487648" lon="8.61396496743957"><ele>292.2</ele><time>2026-04-11T15:47:39.998Z</time></trkpt><trkpt lat="45.67686892555268" lon="8.614094506013535"><ele>293.0</ele><time>2026-04-11T15:47:40.998Z</time></trkpt><trkpt lat="45.67689972054635" lon="8.614272901387455"><ele>293.0</ele><time>2026-04-11T15:47:41.998Z</time></trkpt><trkpt lat="45.67691162232536" lon="8.614415636820098"><ele>293.0</ele><time>2026-04-11T15:47:42.998Z</time></trkpt><trkpt lat="45.67689888580725" lon="8.61454047613516"><ele>293.0</ele><time>2026-04-11T15:47:43.998Z</time></trkpt><trkpt lat="45.676870611594246" lon="8.61467492746446"><ele>293.0</ele><time>2026-04-11T15:47:44.998Z</time></trkpt><trkpt lat="45.67683899553416" lon="8.614799748692613"><ele>293.0</ele><time>2026-04-11T15:47:45.998Z</time></trkpt><trkpt lat="45.67681831029429" lon="8.614917648880192"><ele>293.0</ele><time>2026-04-11T15:47:46.998Z</time></trkpt><trkpt lat="45.67678895441908" lon="8.615017785664888"><ele>293.0</ele><time>2026-04-11T15:47:47.998Z</time></trkpt><trkpt lat="45.676747203283625" lon="8.615108787662376"><ele>293.0</ele><time>2026-04-11T15:47:48.998Z</time></trkpt><trkpt lat="45.67672113031609" lon="8.615194898564056"><ele>293.0</ele><time>2026-04-11T15:47:49.998Z</time></trkpt><trkpt lat="45.67670212901935" lon="8.61534199220606"><ele>293.0</ele><time>2026-04-11T15:47:51.998Z</time></trkpt><trkpt lat="45.67672367412664" lon="8.615498860396315"><ele>293.0</ele><time>2026-04-11T15:47:53.998Z</time></trkpt><trkpt lat="45.67672964009385" lon="8.615604154551875"><ele>293.0</ele><time>2026-04-11T15:47:54.998Z</time></trkpt><trkpt lat="45.67672887086224" lon="8.615715739962917"><ele>293.0</ele><time>2026-04-11T15:47:55.998Z</time></trkpt><trkpt lat="45.67671617248304" lon="8.61580889923053"><ele>293.0</ele><time>2026-04-11T15:47:56.998Z</time></trkpt><trkpt lat="45.67669202107574" lon="8.615904605975322"><ele>293.0</ele><time>2026-04-11T15:47:57.998Z</time></trkpt><trkpt lat="45.676651814983586" lon="8.616034547251395"><ele>293.0</ele><time>2026-04-11T15:47:58.998Z</time></trkpt><trkpt lat="45.67660736941008" lon="8.61615811684331"><ele>293.0</ele><time>2026-04-11T15:47:59.998Z</time></trkpt><trkpt lat="45.676557904125886" lon="8.616251986894387"><ele>292.6666666666667</ele><time>2026-04-11T15:48:00.998Z</time></trkpt><trkpt lat="45.67650544351063" lon="8.616342008853067"><ele>292.33333333333337</ele><time>2026-04-11T15:48:01.998Z</time></trkpt><trkpt lat="45.676431891578076" lon="8.616452918699345"><ele>292.0</ele><time>2026-04-11T15:48:02.998Z</time></trkpt><trkpt lat="45.676372898806676" lon="8.616550951581537"><ele>291.6666666666667</ele><time>2026-04-11T15:48:03.998Z</time></trkpt><trkpt lat="45.676319779783064" lon="8.616669811569173"><ele>291.3333333333333</ele><time>2026-04-11T15:48:04.998Z</time></trkpt><trkpt lat="45.67629187501212" lon="8.616756086680855"><ele>291.0</ele><time>2026-04-11T15:48:05.998Z</time></trkpt><trkpt lat="45.676266133525864" lon="8.616865617705884"><ele>291.0</ele><time>2026-04-11T15:48:07.998Z</time></trkpt><trkpt lat="45.676255963302054" lon="8.616959952679855"><ele>291.0</ele><time>2026-04-11T15:48:09.998Z</time></trkpt><trkpt lat="45.676301414550046" lon="8.617055945254625"><ele>291.0</ele><time>2026-04-11T15:48:12.998Z</time></trkpt><trkpt lat="45.67622456872976" lon="8.617161464418828"><ele>291.0</ele><time>2026-04-11T15:48:14.998Z</time></trkpt><trkpt lat="45.676198995270326" lon="8.617278060210504"><ele>291.0</ele><time>2026-04-11T15:48:17Z</time></trkpt><trkpt lat="45.67611944961461" lon="8.617321033805759"><ele>291.0</ele><time>2026-04-11T15:48:19Z</time></trkpt><trkpt lat="45.6760477353062" lon="8.617325354629605"><ele>291.0</ele><time>2026-04-11T15:48:20Z</time></trkpt><trkpt lat="45.67597182879485" lon="8.617341405259435"><ele>291.0</ele><time>2026-04-11T15:48:21Z</time></trkpt><trkpt lat="45.67590664583152" lon="8.617370855341104"><ele>291.0</ele><time>2026-04-11T15:48:22Z</time></trkpt><trkpt lat="45.675850059682254" lon="8.617424612227314"><ele>291.0</ele><time>2026-04-11T15:48:23Z</time></trkpt><trkpt lat="45.67581011365454" lon="8.617495773879424"><ele>291.0</ele><time>2026-04-11T15:48:24Z</time></trkpt><trkpt lat="45.67575723589686" lon="8.617633901998929"><ele>291.0</ele><time>2026-04-11T15:48:25Z</time></trkpt><trkpt lat="45.67572826629332" lon="8.617731814065973"><ele>291.5</ele><time>2026-04-11T15:48:26Z</time></trkpt><trkpt lat="45.675695527073394" lon="8.61787767687193"><ele>292.0</ele><time>2026-04-11T15:48:28Z</time></trkpt><trkpt lat="45.67567575981721" lon="8.618065631172492"><ele>292.5</ele><time>2026-04-11T15:48:30Z</time></trkpt><trkpt lat="45.67565763376307" lon="8.61822440239189"><ele>293.0</ele><time>2026-04-11T15:48:31Z</time></trkpt><trkpt lat="45.67562358556412" lon="8.618374526438583"><ele>293.0</ele><time>2026-04-11T15:48:32Z</time></trkpt><trkpt lat="45.675578743111416" lon="8.61848604903827"><ele>293.0</ele><time>2026-04-11T15:48:33Z</time></trkpt><trkpt lat="45.67552618358204" lon="8.618640411243739"><ele>293.0</ele><time>2026-04-11T15:48:34Z</time></trkpt><trkpt lat="45.675454330346675" lon="8.618769717883653"><ele>293.0</ele><time>2026-04-11T15:48:35Z</time></trkpt><trkpt lat="45.67540740038972" lon="8.61888203544866"><ele>293.0</ele><time>2026-04-11T15:48:36Z</time></trkpt><trkpt lat="45.67534017857648" lon="8.619009274222371"><ele>293.0</ele><time>2026-04-11T15:48:37Z</time></trkpt><trkpt lat="45.67527118253427" lon="8.61910313598649"><ele>293.0</ele><time>2026-04-11T15:48:37.999Z</time></trkpt><trkpt lat="45.67520604095409" lon="8.619192688343457"><ele>293.0</ele><time>2026-04-11T15:48:38.999Z</time></trkpt><trkpt lat="45.67514306151587" lon="8.619253018963969"><ele>293.0</ele><time>2026-04-11T15:48:39.999Z</time></trkpt><trkpt lat="45.675064779719655" lon="8.619286731268097"><ele>293.0</ele><time>2026-04-11T15:48:40.999Z</time></trkpt><trkpt lat="45.67499689805933" lon="8.619314340618205"><ele>293.0</ele><time>2026-04-11T15:48:41.999Z</time></trkpt><trkpt lat="45.674952052125725" lon="8.61947283510043"><ele>292.83333333333337</ele><time>2026-04-11T15:48:43.999Z</time></trkpt><trkpt lat="45.67498162923383" lon="8.61956403718727"><ele>292.6666666666667</ele><time>2026-04-11T15:48:44.999Z</time></trkpt><trkpt lat="45.67501838532872" lon="8.619678254950397"><ele>292.5</ele><time>2026-04-11T15:48:45.999Z</time></trkpt><trkpt lat="45.67504021844193" lon="8.619768512090213"><ele>292.3333333333333</ele><time>2026-04-11T15:48:46.999Z</time></trkpt><trkpt lat="45.67504330088313" lon="8.619961948373756"><ele>292.16666666666663</ele><time>2026-04-11T15:48:48.999Z</time></trkpt><trkpt lat="45.6750389663291" lon="8.620079122577703"><ele>292.0</ele><time>2026-04-11T15:48:49.999Z</time></trkpt><trkpt lat="45.675030233389094" lon="8.62018440626985"><ele>291.5</ele><time>2026-04-11T15:48:50.999Z</time></trkpt><trkpt lat="45.67497821820846" lon="8.620388688317576"><ele>291.0</ele><time>2026-04-11T15:48:51.999Z</time></trkpt><trkpt lat="45.67494370014958" lon="8.620542924409834"><ele>290.5</ele><time>2026-04-11T15:48:52.999Z</time></trkpt><trkpt lat="45.674914190169375" lon="8.62068517818577"><ele>290.0</ele><time>2026-04-11T15:48:53.999Z</time></trkpt><trkpt lat="45.67489219560765" lon="8.620829843819466"><ele>290.0</ele><time>2026-04-11T15:48:54.999Z</time></trkpt><trkpt lat="45.674876403304424" lon="8.620961489131307"><ele>290.0</ele><time>2026-04-11T15:48:55.999Z</time></trkpt><trkpt lat="45.674854628602034" lon="8.621069185868842"><ele>290.0</ele><time>2026-04-11T15:48:56.999Z</time></trkpt><trkpt lat="45.67482222010769" lon="8.62118946663643"><ele>290.0</ele><time>2026-04-11T15:48:57.999Z</time></trkpt><trkpt lat="45.67477855083066" lon="8.621305815346375"><ele>290.0</ele><time>2026-04-11T15:48:58.999Z</time></trkpt><trkpt lat="45.67471858715856" lon="8.621432103994291"><ele>289.4</ele><time>2026-04-11T15:48:59.999Z</time></trkpt><trkpt lat="45.67465300767147" lon="8.621531022141083"><ele>288.8</ele><time>2026-04-11T15:49:00.999Z</time></trkpt><trkpt lat="45.674583918689365" lon="8.621605555114634"><ele>288.2</ele><time>2026-04-11T15:49:01.999Z</time></trkpt><trkpt lat="45.67450116126246" lon="8.621697233455256"><ele>287.6</ele><time>2026-04-11T15:49:02.999Z</time></trkpt><trkpt lat="45.67443910551323" lon="8.621794697491822"><ele>287.0</ele><time>2026-04-11T15:49:03.999Z</time></trkpt><trkpt lat="45.67438720275452" lon="8.621934675586912"><ele>287.75</ele><time>2026-04-11T15:49:04.999Z</time></trkpt><trkpt lat="45.674321238459854" lon="8.622064534513477"><ele>288.5</ele><time>2026-04-11T15:49:05.999Z</time></trkpt><trkpt lat="45.67425592884375" lon="8.622201190900764"><ele>289.25</ele><time>2026-04-11T15:49:06.999Z</time></trkpt><trkpt lat="45.674181605677525" lon="8.622331145505173"><ele>290.0</ele><time>2026-04-11T15:49:07.999Z</time></trkpt><trkpt lat="45.67410586618773" lon="8.622475489929666"><ele>290.0</ele><time>2026-04-11T15:49:08.999Z</time></trkpt><trkpt lat="45.67404071169232" lon="8.622617201982822"><ele>290.0</ele><time>2026-04-11T15:49:09.999Z</time></trkpt><trkpt lat="45.67401101094117" lon="8.622712672977267"><ele>290.0</ele><time>2026-04-11T15:49:10.999Z</time></trkpt><trkpt lat="45.67396202219503" lon="8.622827386494796"><ele>290.0</ele><time>2026-04-11T15:49:11.999Z</time></trkpt><trkpt lat="45.67397741908006" lon="8.62303678357853"><ele>290.0</ele><time>2026-04-11T15:49:13.999Z</time></trkpt><trkpt lat="45.67394332215222" lon="8.623218399377416"><ele>288.8</ele><time>2026-04-11T15:49:14.999Z</time></trkpt><trkpt lat="45.673905249039564" lon="8.62338696684781"><ele>287.6</ele><time>2026-04-11T15:49:15.999Z</time></trkpt><trkpt lat="45.67388603115835" lon="8.62353924392656"><ele>286.4</ele><time>2026-04-11T15:49:16.999Z</time></trkpt><trkpt lat="45.673859396329995" lon="8.623647997025584"><ele>285.2</ele><time>2026-04-11T15:49:17.999Z</time></trkpt><trkpt lat="45.67383513071526" lon="8.623806271775946"><ele>284.0</ele><time>2026-04-11T15:49:18.999Z</time></trkpt><trkpt lat="45.67379817230233" lon="8.624029779219097"><ele>283.25</ele><time>2026-04-11T15:49:19.999Z</time></trkpt><trkpt lat="45.6737680641889" lon="8.624219708886498"><ele>282.5</ele><time>2026-04-11T15:49:20.999Z</time></trkpt><trkpt lat="45.67374599396437" lon="8.624371060888484"><ele>281.75</ele><time>2026-04-11T15:49:21.999Z</time></trkpt><trkpt lat="45.67371937855682" lon="8.62452218746567"><ele>281.0</ele><time>2026-04-11T15:49:22.999Z</time></trkpt><trkpt lat="45.673686486116786" lon="8.624664523104464"><ele>281.0</ele><time>2026-04-11T15:49:23.999Z</time></trkpt><trkpt lat="45.673638882190915" lon="8.62484825040147"><ele>281.0</ele><time>2026-04-11T15:49:24.999Z</time></trkpt><trkpt lat="45.67359219022271" lon="8.625011860328506"><ele>281.0</ele><time>2026-04-11T15:49:25.999Z</time></trkpt><trkpt lat="45.6735456336444" lon="8.625136799500881"><ele>281.0</ele><time>2026-04-11T15:49:26.999Z</time></trkpt><trkpt lat="45.67348906396899" lon="8.625270025847781"><ele>282.75</ele><time>2026-04-11T15:49:27.999Z</time></trkpt><trkpt lat="45.673423468583884" lon="8.625418038224026"><ele>284.5</ele><time>2026-04-11T15:49:28.999Z</time></trkpt><trkpt lat="45.673329511155224" lon="8.625620696061034"><ele>286.25</ele><time>2026-04-11T15:49:29.999Z</time></trkpt><trkpt lat="45.6732591832084" lon="8.625791744471394"><ele>288.0</ele><time>2026-04-11T15:49:30.999Z</time></trkpt><trkpt lat="45.67319073862724" lon="8.625946542443158"><ele>288.0</ele><time>2026-04-11T15:49:31.999Z</time></trkpt><trkpt lat="45.67311914812692" lon="8.626124395926269"><ele>288.0</ele><time>2026-04-11T15:49:32.999Z</time></trkpt><trkpt lat="45.673057738225374" lon="8.626266461584903"><ele>288.0</ele><time>2026-04-11T15:49:33.999Z</time></trkpt><trkpt lat="45.67302297024073" lon="8.626366227119721"><ele>288.0</ele><time>2026-04-11T15:49:34.999Z</time></trkpt><trkpt lat="45.67296454809444" lon="8.626470615874949"><ele>288.0</ele><time>2026-04-11T15:49:35.999Z</time></trkpt><trkpt lat="45.6728870296165" lon="8.626565650353818"><ele>286.25</ele><time>2026-04-11T15:49:36.999Z</time></trkpt><trkpt lat="45.672788294755804" lon="8.626650508397296"><ele>284.5</ele><time>2026-04-11T15:49:37.999Z</time></trkpt><trkpt lat="45.672705109560745" lon="8.626732405360343"><ele>282.75</ele><time>2026-04-11T15:49:38.999Z</time></trkpt><trkpt lat="45.67258382320867" lon="8.626823857444089"><ele>281.0</ele><time>2026-04-11T15:49:39.999Z</time></trkpt><trkpt lat="45.67246565822874" lon="8.626911355910128"><ele>281.6</ele><time>2026-04-11T15:49:40.999Z</time></trkpt><trkpt lat="45.67236553152448" lon="8.627004769562122"><ele>282.20000000000005</ele><time>2026-04-11T15:49:41.999Z</time></trkpt><trkpt lat="45.67228093936188" lon="8.627119596378659"><ele>282.79999999999995</ele><time>2026-04-11T15:49:42.998Z</time></trkpt><trkpt lat="45.6722031457923" lon="8.627197810753037"><ele>283.4</ele><time>2026-04-11T15:49:43.998Z</time></trkpt><trkpt lat="45.67211006720889" lon="8.627271501351157"><ele>284.0</ele><time>2026-04-11T15:49:44.998Z</time></trkpt><trkpt lat="45.6719919104171" lon="8.627336929765496"><ele>284.75</ele><time>2026-04-11T15:49:45.998Z</time></trkpt><trkpt lat="45.67187280229186" lon="8.627419534344174"><ele>285.5</ele><time>2026-04-11T15:49:46.998Z</time></trkpt><trkpt lat="45.67176342811215" lon="8.627484127766783"><ele>286.25</ele><time>2026-04-11T15:49:47.998Z</time></trkpt><trkpt lat="45.671664225470664" lon="8.627555690758358"><ele>287.0</ele><time>2026-04-11T15:49:48.998Z</time></trkpt><trkpt lat="45.671548445246366" lon="8.627639445727818"><ele>287.0</ele><time>2026-04-11T15:49:49.998Z</time></trkpt><trkpt lat="45.671451223192854" lon="8.62773548630893"><ele>287.0</ele><time>2026-04-11T15:49:50.998Z</time></trkpt><trkpt lat="45.67135514796013" lon="8.627838155259509"><ele>287.0</ele><time>2026-04-11T15:49:51.998Z</time></trkpt><trkpt lat="45.671256007083436" lon="8.627963349112763"><ele>287.0</ele><time>2026-04-11T15:49:52.998Z</time></trkpt><trkpt lat="45.67117679965123" lon="8.628075512831952"><ele>286.0</ele><time>2026-04-11T15:49:53.998Z</time></trkpt><trkpt lat="45.6710956780103" lon="8.628207008420285"><ele>285.0</ele><time>2026-04-11T15:49:54.998Z</time></trkpt><trkpt lat="45.67101378500484" lon="8.62837052145354"><ele>284.0</ele><time>2026-04-11T15:49:55.998Z</time></trkpt><trkpt lat="45.67092368197979" lon="8.628569530032285"><ele>283.0</ele><time>2026-04-11T15:49:56.998Z</time></trkpt><trkpt lat="45.67085086350225" lon="8.628737785183194"><ele>282.0</ele><time>2026-04-11T15:49:57.998Z</time></trkpt><trkpt lat="45.67077379198909" lon="8.628896148405982"><ele>281.0</ele><time>2026-04-11T15:49:58.998Z</time></trkpt><trkpt lat="45.67070871531033" lon="8.629037528960302"><ele>280.0</ele><time>2026-04-11T15:49:59.998Z</time></trkpt><trkpt lat="45.6706634645648" lon="8.629166679369085"><ele>279.0</ele><time>2026-04-11T15:50:00.998Z</time></trkpt><trkpt lat="45.670622169498394" lon="8.629276302476844"><ele>278.0</ele><time>2026-04-11T15:50:01.998Z</time></trkpt><trkpt lat="45.67058986941435" lon="8.629378431181598"><ele>278.0</ele><time>2026-04-11T15:50:02.998Z</time></trkpt><trkpt lat="45.6705647584592" lon="8.629470504127834"><ele>278.0</ele><time>2026-04-11T15:50:03.998Z</time></trkpt><trkpt lat="45.67051263230626" lon="8.629630877831318"><ele>278.0</ele><time>2026-04-11T15:50:05.998Z</time></trkpt><trkpt lat="45.67046595261799" lon="8.629786597196128"><ele>278.0</ele><time>2026-04-11T15:50:07.998Z</time></trkpt><trkpt lat="45.670401568974064" lon="8.629934251027986"><ele>278.0</ele><time>2026-04-11T15:50:09.998Z</time></trkpt><trkpt lat="45.67034102793332" lon="8.630085449310654"><ele>277.33333333333337</ele><time>2026-04-11T15:50:11.998Z</time></trkpt><trkpt lat="45.670317369989526" lon="8.630174590715837"><ele>276.6666666666667</ele><time>2026-04-11T15:50:12.998Z</time></trkpt><trkpt lat="45.67029258450546" lon="8.630264654828546"><ele>276.0</ele><time>2026-04-11T15:50:13.998Z</time></trkpt><trkpt lat="45.67024827137104" lon="8.630433914770101"><ele>275.3333333333333</ele><time>2026-04-11T15:50:15.998Z</time></trkpt><trkpt lat="45.670219756868995" lon="8.630531786751938"><ele>274.66666666666663</ele><time>2026-04-11T15:50:16.998Z</time></trkpt><trkpt lat="45.67018351593837" lon="8.630638705565328"><ele>274.0</ele><time>2026-04-11T15:50:17.998Z</time></trkpt><trkpt lat="45.67015201297849" lon="8.630724334838154"><ele>276.0</ele><time>2026-04-11T15:50:18.998Z</time></trkpt><trkpt lat="45.670074527413945" lon="8.63084382936072"><ele>278.0</ele><time>2026-04-11T15:50:21Z</time></trkpt><trkpt lat="45.67000360054094" lon="8.630930124152394"><ele>280.0</ele><time>2026-04-11T15:50:23Z</time></trkpt><trkpt lat="45.669920063226385" lon="8.631008574515192"><ele>282.0</ele><time>2026-04-11T15:50:25Z</time></trkpt><trkpt lat="45.669846237665205" lon="8.631013293161518"><ele>284.0</ele><time>2026-04-11T15:50:26Z</time></trkpt><trkpt lat="45.66975632988802" lon="8.631016607240884"><ele>284.0</ele><time>2026-04-11T15:50:27Z</time></trkpt><trkpt lat="45.669650127292236" lon="8.631018459029999"><ele>284.0</ele><time>2026-04-11T15:50:28Z</time></trkpt><trkpt lat="45.669555720552545" lon="8.631034171944675"><ele>284.0</ele><time>2026-04-11T15:50:29Z</time></trkpt><trkpt lat="45.669484399382995" lon="8.631011881870803"><ele>284.0</ele><time>2026-04-11T15:50:30Z</time></trkpt><trkpt lat="45.669436338207106" lon="8.630846014087092"><ele>284.0</ele><time>2026-04-11T15:50:32Z</time></trkpt><trkpt lat="45.6694464618646" lon="8.630701789344537"><ele>284.0</ele><time>2026-04-11T15:50:33Z</time></trkpt><trkpt lat="45.669476466281" lon="8.63049959711259"><ele>284.0</ele><time>2026-04-11T15:50:34Z</time></trkpt><trkpt lat="45.66947849750401" lon="8.630355553374809"><ele>284.0</ele><time>2026-04-11T15:50:35Z</time></trkpt><trkpt lat="45.669441315894055" lon="8.630224064203489"><ele>284.0</ele><time>2026-04-11T15:50:37Z</time></trkpt><trkpt lat="45.669362255315896" lon="8.630213172750878"><ele>284.0</ele><time>2026-04-11T15:50:38Z</time></trkpt><trkpt lat="45.66921348673574" lon="8.63017699527013"><ele>283.6666666666667</ele><time>2026-04-11T15:50:39Z</time></trkpt><trkpt lat="45.66903430704337" lon="8.630130400462853"><ele>283.3333333333333</ele><time>2026-04-11T15:50:40Z</time></trkpt><trkpt lat="45.66886201951991" lon="8.630108652306493"><ele>283.0</ele><time>2026-04-11T15:50:41Z</time></trkpt><trkpt lat="45.668729811368046" lon="8.630062972334938"><ele>283.0</ele><time>2026-04-11T15:50:42Z</time></trkpt><trkpt lat="45.668617196245904" lon="8.630034788240113"><ele>283.0</ele><time>2026-04-11T15:50:43Z</time></trkpt><trkpt lat="45.66852505946393" lon="8.629958572497122"><ele>283.0</ele><time>2026-04-11T15:50:44Z</time></trkpt><trkpt lat="45.66844374974906" lon="8.62986654371307"><ele>283.0</ele><time>2026-04-11T15:50:45Z</time></trkpt><trkpt lat="45.66838436662617" lon="8.629671782566126"><ele>284.3333333333333</ele><time>2026-04-11T15:50:46Z</time></trkpt><trkpt lat="45.668293006614235" lon="8.629482693491568"><ele>285.6666666666667</ele><time>2026-04-11T15:50:47Z</time></trkpt><trkpt lat="45.66822956450931" lon="8.629315461954608"><ele>287.0</ele><time>2026-04-11T15:50:48Z</time></trkpt><trkpt lat="45.66814545626679" lon="8.629118831388896"><ele>287.75</ele><time>2026-04-11T15:50:49Z</time></trkpt><trkpt lat="45.668060907666664" lon="8.628908789024745"><ele>288.5</ele><time>2026-04-11T15:50:50Z</time></trkpt><trkpt lat="45.66799020700185" lon="8.628742249858568"><ele>289.25</ele><time>2026-04-11T15:50:51Z</time></trkpt><trkpt lat="45.66792389091349" lon="8.628609511468868"><ele>290.0</ele><time>2026-04-11T15:50:52Z</time></trkpt><trkpt lat="45.667861358201726" lon="8.628503418778058"><ele>290.5</ele><time>2026-04-11T15:50:53Z</time></trkpt><trkpt lat="45.66778237172374" lon="8.628424909726013"><ele>291.0</ele><time>2026-04-11T15:50:54Z</time></trkpt><trkpt lat="45.66766422370155" lon="8.628342645121469"><ele>291.5</ele><time>2026-04-11T15:50:55Z</time></trkpt><trkpt lat="45.66752778556856" lon="8.628275708058684"><ele>292.0</ele><time>2026-04-11T15:50:56Z</time></trkpt><trkpt lat="45.66740848262751" lon="8.62822494667373"><ele>293.0</ele><time>2026-04-11T15:50:57Z</time></trkpt><trkpt lat="45.66730228581745" lon="8.628196463272527"><ele>294.0</ele><time>2026-04-11T15:50:58Z</time></trkpt><trkpt lat="45.66722542400605" lon="8.62818174542043"><ele>295.0</ele><time>2026-04-11T15:50:59Z</time></trkpt><trkpt lat="45.667153917345885" lon="8.628179911234687"><ele>296.0</ele><time>2026-04-11T15:51:00Z</time></trkpt><trkpt lat="45.66707756505987" lon="8.628169191882723"><ele>297.0</ele><time>2026-04-11T15:51:01Z</time></trkpt><trkpt lat="45.66701423550746" lon="8.628159716964706"><ele>298.0</ele><time>2026-04-11T15:51:02Z</time></trkpt><trkpt lat="45.66687564325434" lon="8.628175518468923"><ele>298.0</ele><time>2026-04-11T15:51:04Z</time></trkpt><trkpt lat="45.66676430567112" lon="8.628146548017519"><ele>298.0</ele><time>2026-04-11T15:51:05Z</time></trkpt><trkpt lat="45.66666367513625" lon="8.628156417904588"><ele>298.0</ele><time>2026-04-11T15:51:06Z</time></trkpt><trkpt lat="45.666563885428076" lon="8.628178579663658"><ele>298.0</ele><time>2026-04-11T15:51:08Z</time></trkpt><trkpt lat="45.66649732659727" lon="8.628190132998329"><ele>298.0</ele><time>2026-04-11T15:51:10Z</time></trkpt><trkpt lat="45.666424117278915" lon="8.628197812281222"><ele>298.0</ele><time>2026-04-11T15:51:11.999Z</time></trkpt><trkpt lat="45.66628857639725" lon="8.628191941869764"><ele>298.0</ele><time>2026-04-11T15:51:13.999Z</time></trkpt><trkpt lat="45.66618504679604" lon="8.62820052419158"><ele>298.0</ele><time>2026-04-11T15:51:14.999Z</time></trkpt><trkpt lat="45.66605016353083" lon="8.628219795904881"><ele>298.0</ele><time>2026-04-11T15:51:15.999Z</time></trkpt><trkpt lat="45.66593923592139" lon="8.628223488420513"><ele>297.5</ele><time>2026-04-11T15:51:16.999Z</time></trkpt><trkpt lat="45.6658383569077" lon="8.628214969845287"><ele>297.0</ele><time>2026-04-11T15:51:17.999Z</time></trkpt><trkpt lat="45.66574590134076" lon="8.628212020935775"><ele>296.5</ele><time>2026-04-11T15:51:18.999Z</time></trkpt><trkpt lat="45.66565541318825" lon="8.628212125110235"><ele>296.0</ele><time>2026-04-11T15:51:19.999Z</time></trkpt><trkpt lat="45.665575450679846" lon="8.628217354527745"><ele>295.5</ele><time>2026-04-11T15:51:20.999Z</time></trkpt><trkpt lat="45.66550453971996" lon="8.628213669728671"><ele>295.0</ele><time>2026-04-11T15:51:21.999Z</time></trkpt><trkpt lat="45.66540103706069" lon="8.62818908289596"><ele>295.0</ele><time>2026-04-11T15:51:23.999Z</time></trkpt><trkpt lat="45.66533605006166" lon="8.628155232888199"><ele>295.0</ele><time>2026-04-11T15:51:25.999Z</time></trkpt><trkpt lat="45.66535014418146" lon="8.62789149054239"><ele>295.0</ele><time>2026-04-11T15:51:26.999Z</time></trkpt><trkpt lat="45.665346359518644" lon="8.62764061125936"><ele>295.0</ele><time>2026-04-11T15:51:27.999Z</time></trkpt><trkpt lat="45.66536640971448" lon="8.627363155270356"><ele>295.3333333333333</ele><time>2026-04-11T15:51:28.999Z</time></trkpt><trkpt lat="45.665381261031506" lon="8.627081513546226"><ele>295.6666666666667</ele><time>2026-04-11T15:51:29.999Z</time></trkpt><trkpt lat="45.665386512315365" lon="8.626843046675686"><ele>296.0</ele><time>2026-04-11T15:51:30.999Z</time></trkpt><trkpt lat="45.66539370989177" lon="8.626645928818505"><ele>296.25</ele><time>2026-04-11T15:51:31.999Z</time></trkpt><trkpt lat="45.66540427175016" lon="8.62644904457174"><ele>296.5</ele><time>2026-04-11T15:51:32.999Z</time></trkpt><trkpt lat="45.66541156182383" lon="8.626246232864734"><ele>296.75</ele><time>2026-04-11T15:51:33.999Z</time></trkpt><trkpt lat="45.66541819845676" lon="8.62604552063782"><ele>297.0</ele><time>2026-04-11T15:51:34.999Z</time></trkpt><trkpt lat="45.66542860854183" lon="8.625848404545456"><ele>297.0</ele><time>2026-04-11T15:51:35.999Z</time></trkpt><trkpt lat="45.665435906192606" lon="8.625683547275248"><ele>297.0</ele><time>2026-04-11T15:51:36.999Z</time></trkpt><trkpt lat="45.665441874859184" lon="8.62552317860061"><ele>297.0</ele><time>2026-04-11T15:51:37.999Z</time></trkpt><trkpt lat="45.66544710611733" lon="8.62536011281987"><ele>297.0</ele><time>2026-04-11T15:51:38.999Z</time></trkpt><trkpt lat="45.66545237461648" lon="8.62519459474031"><ele>297.0</ele><time>2026-04-11T15:51:39.999Z</time></trkpt><trkpt lat="45.66545825270701" lon="8.625015155023883"><ele>297.0</ele><time>2026-04-11T15:51:40.999Z</time></trkpt><trkpt lat="45.66545092142417" lon="8.624820551249107"><ele>297.0</ele><time>2026-04-11T15:51:41.999Z</time></trkpt><trkpt lat="45.66543037537543" lon="8.624621203835236"><ele>297.0</ele><time>2026-04-11T15:51:42.999Z</time></trkpt><trkpt lat="45.66540524854951" lon="8.624415660217398"><ele>297.0</ele><time>2026-04-11T15:51:43.999Z</time></trkpt><trkpt lat="45.6653781664403" lon="8.624199562853354"><ele>297.0</ele><time>2026-04-11T15:51:44.999Z</time></trkpt><trkpt lat="45.66535042859302" lon="8.623978999626223"><ele>297.0</ele><time>2026-04-11T15:51:45.999Z</time></trkpt><trkpt lat="45.66531964786446" lon="8.623755122041128"><ele>297.3333333333333</ele><time>2026-04-11T15:51:46.999Z</time></trkpt><trkpt lat="45.66528527656379" lon="8.623522799211997"><ele>297.66666666666663</ele><time>2026-04-11T15:51:47.999Z</time></trkpt><trkpt lat="45.66525255604098" lon="8.623290627286487"><ele>298.0</ele><time>2026-04-11T15:51:48.999Z</time></trkpt><trkpt lat="45.66521674027656" lon="8.623051049038656"><ele>297.0</ele><time>2026-04-11T15:51:49.999Z</time></trkpt><trkpt lat="45.66519902949739" lon="8.622809816036368"><ele>296.0</ele><time>2026-04-11T15:51:50.999Z</time></trkpt><trkpt lat="45.66515812572776" lon="8.622625123452716"><ele>295.0</ele><time>2026-04-11T15:51:51.999Z</time></trkpt><trkpt lat="45.66514046245374" lon="8.622480663769126"><ele>294.0</ele><time>2026-04-11T15:51:52.999Z</time></trkpt><trkpt lat="45.66512276863741" lon="8.622343362324942"><ele>294.0</ele><time>2026-04-11T15:51:53.999Z</time></trkpt><trkpt lat="45.66510691777537" lon="8.62220461944306"><ele>294.0</ele><time>2026-04-11T15:51:54.999Z</time></trkpt><trkpt lat="45.66509166041076" lon="8.622050598945025"><ele>294.0</ele><time>2026-04-11T15:51:55.999Z</time></trkpt><trkpt lat="45.6650730831462" lon="8.62189405408764"><ele>294.0</ele><time>2026-04-11T15:51:56.999Z</time></trkpt><trkpt lat="45.665046461588574" lon="8.621705551346285"><ele>293.75</ele><time>2026-04-11T15:51:57.999Z</time></trkpt><trkpt lat="45.66502479876187" lon="8.621536632962513"><ele>293.5</ele><time>2026-04-11T15:51:58.999Z</time></trkpt><trkpt lat="45.665002812804374" lon="8.621375642132458"><ele>293.25</ele><time>2026-04-11T15:51:59.999Z</time></trkpt><trkpt lat="45.66498292714669" lon="8.621218610087617"><ele>293.0</ele><time>2026-04-11T15:52:00.999Z</time></trkpt><trkpt lat="45.66496480782963" lon="8.621064802902099"><ele>293.0</ele><time>2026-04-11T15:52:01.999Z</time></trkpt><trkpt lat="45.66494139921294" lon="8.620887246299091"><ele>293.0</ele><time>2026-04-11T15:52:02.999Z</time></trkpt><trkpt lat="45.66491801068846" lon="8.62068569253014"><ele>293.0</ele><time>2026-04-11T15:52:03.999Z</time></trkpt><trkpt lat="45.66489375861515" lon="8.620472670979854"><ele>293.0</ele><time>2026-04-11T15:52:04.999Z</time></trkpt><trkpt lat="45.664867227293875" lon="8.620272621415415"><ele>293.0</ele><time>2026-04-11T15:52:05.999Z</time></trkpt><trkpt lat="45.66484411767615" lon="8.620089516753115"><ele>293.0</ele><time>2026-04-11T15:52:06.999Z</time></trkpt><trkpt lat="45.664825910798875" lon="8.619925246836303"><ele>293.0</ele><time>2026-04-11T15:52:07.999Z</time></trkpt><trkpt lat="45.664807652503605" lon="8.61976522697595"><ele>293.0</ele><time>2026-04-11T15:52:08.999Z</time></trkpt><trkpt lat="45.66478691771607" lon="8.619622722720077"><ele>293.0</ele><time>2026-04-11T15:52:09.999Z</time></trkpt><trkpt lat="45.66476417838414" lon="8.619489284059899"><ele>293.0</ele><time>2026-04-11T15:52:10.999Z</time></trkpt><trkpt lat="45.66474542828365" lon="8.619364224104963"><ele>293.0</ele><time>2026-04-11T15:52:11.999Z</time></trkpt><trkpt lat="45.66472945546239" lon="8.619256282110742"><ele>293.0</ele><time>2026-04-11T15:52:12.999Z</time></trkpt><trkpt lat="45.664703994189075" lon="8.619154084876488"><ele>293.0</ele><time>2026-04-11T15:52:13.999Z</time></trkpt><trkpt lat="45.66467271209822" lon="8.619041124243646"><ele>293.0</ele><time>2026-04-11T15:52:14.998Z</time></trkpt><trkpt lat="45.664654536330154" lon="8.618930892189873"><ele>293.2</ele><time>2026-04-11T15:52:15.998Z</time></trkpt><trkpt lat="45.66465385293036" lon="8.618820531102283"><ele>293.4</ele><time>2026-04-11T15:52:16.998Z</time></trkpt><trkpt lat="45.66466697003547" lon="8.618709066822909"><ele>293.59999999999997</ele><time>2026-04-11T15:52:17.998Z</time></trkpt><trkpt lat="45.66468506387183" lon="8.618571835425815"><ele>293.8</ele><time>2026-04-11T15:52:18.998Z</time></trkpt><trkpt lat="45.66467137091503" lon="8.618420196241068"><ele>294.0</ele><time>2026-04-11T15:52:19.998Z</time></trkpt><trkpt lat="45.66460336391056" lon="8.618310237292263"><ele>294.25</ele><time>2026-04-11T15:52:20.998Z</time></trkpt><trkpt lat="45.66451089406971" lon="8.61825478168058"><ele>294.5</ele><time>2026-04-11T15:52:21.998Z</time></trkpt><trkpt lat="45.66441703145241" lon="8.618268162687391"><ele>294.75</ele><time>2026-04-11T15:52:22.998Z</time></trkpt><trkpt lat="45.66431613519232" lon="8.6183493313808"><ele>295.0</ele><time>2026-04-11T15:52:23.998Z</time></trkpt><trkpt lat="45.66419719684328" lon="8.61850255025567"><ele>295.0</ele><time>2026-04-11T15:52:24.998Z</time></trkpt><trkpt lat="45.66401345886608" lon="8.618505166966877"><ele>295.0</ele><time>2026-04-11T15:52:25.998Z</time></trkpt><trkpt lat="45.66385426980765" lon="8.618494789351338"><ele>295.0</ele><time>2026-04-11T15:52:27.001Z</time></trkpt><trkpt lat="45.663715361423435" lon="8.618489212889537"><ele>294.75</ele><time>2026-04-11T15:52:28.001Z</time></trkpt><trkpt lat="45.66358998761826" lon="8.61850325314562"><ele>294.5</ele><time>2026-04-11T15:52:29.001Z</time></trkpt><trkpt lat="45.66345432001934" lon="8.618530512404858"><ele>294.25</ele><time>2026-04-11T15:52:30.001Z</time></trkpt><trkpt lat="45.66329969667975" lon="8.618535398195663"><ele>294.0</ele><time>2026-04-11T15:52:31.001Z</time></trkpt><trkpt lat="45.663117849501106" lon="8.61857902139778"><ele>294.0</ele><time>2026-04-11T15:52:32.001Z</time></trkpt><trkpt lat="45.662914559157336" lon="8.618593019886902"><ele>294.0</ele><time>2026-04-11T15:52:33.001Z</time></trkpt><trkpt lat="45.66269200176556" lon="8.618606443517608"><ele>294.0</ele><time>2026-04-11T15:52:34.001Z</time></trkpt><trkpt lat="45.662460921829656" lon="8.618620435336805"><ele>294.5</ele><time>2026-04-11T15:52:35.001Z</time></trkpt><trkpt lat="45.66223064673656" lon="8.618634268678258"><ele>295.0</ele><time>2026-04-11T15:52:36.001Z</time></trkpt><trkpt lat="45.661998000662955" lon="8.618647792816013"><ele>292.5</ele><time>2026-04-11T15:52:37.001Z</time></trkpt><trkpt lat="45.66176873119196" lon="8.61866655152927"><ele>290.0</ele><time>2026-04-11T15:52:38.001Z</time></trkpt><trkpt lat="45.661536891831766" lon="8.61868962851108"><ele>290.0</ele><time>2026-04-11T15:52:39.001Z</time></trkpt><trkpt lat="45.6613033961694" lon="8.618713003834138"><ele>290.0</ele><time>2026-04-11T15:52:40.001Z</time></trkpt><trkpt lat="45.66106802275231" lon="8.6187338503486"><ele>293.0</ele><time>2026-04-11T15:52:41.001Z</time></trkpt><trkpt lat="45.66083887544164" lon="8.618751535884371"><ele>296.0</ele><time>2026-04-11T15:52:42.001Z</time></trkpt><trkpt lat="45.66060404054256" lon="8.618771088641388"><ele>296.0</ele><time>2026-04-11T15:52:43.001Z</time></trkpt><trkpt lat="45.66037072013067" lon="8.61878671758419"><ele>296.0</ele><time>2026-04-11T15:52:44.001Z</time></trkpt><trkpt lat="45.66013904207061" lon="8.618802546946053"><ele>296.33333333333337</ele><time>2026-04-11T15:52:45.001Z</time></trkpt><trkpt lat="45.65991261550066" lon="8.61881445006675"><ele>296.6666666666667</ele><time>2026-04-11T15:52:46.001Z</time></trkpt><trkpt lat="45.65970224441792" lon="8.618830349663174"><ele>297.0</ele><time>2026-04-11T15:52:47Z</time></trkpt><trkpt lat="45.65950202769077" lon="8.618844433345823"><ele>296.6666666666667</ele><time>2026-04-11T15:52:48Z</time></trkpt><trkpt lat="45.65931673204723" lon="8.618862303348184"><ele>296.33333333333337</ele><time>2026-04-11T15:52:49Z</time></trkpt><trkpt lat="45.659138262939194" lon="8.618877356437515"><ele>296.0</ele><time>2026-04-11T15:52:50Z</time></trkpt><trkpt lat="45.65896046779321" lon="8.61889225558041"><ele>296.0</ele><time>2026-04-11T15:52:51Z</time></trkpt><trkpt lat="45.65880213773579" lon="8.618899333157973"><ele>296.0</ele><time>2026-04-11T15:52:52Z</time></trkpt><trkpt lat="45.6586468989438" lon="8.618898151744546"><ele>296.0</ele><time>2026-04-11T15:52:53Z</time></trkpt><trkpt lat="45.65849984900041" lon="8.618887652420982"><ele>295.75</ele><time>2026-04-11T15:52:54Z</time></trkpt><trkpt lat="45.658359704314286" lon="8.61887636444235"><ele>295.5</ele><time>2026-04-11T15:52:55Z</time></trkpt><trkpt lat="45.65822646393959" lon="8.618866063708674"><ele>295.25</ele><time>2026-04-11T15:52:56Z</time></trkpt><trkpt lat="45.65809531327336" lon="8.618850755248697"><ele>295.0</ele><time>2026-04-11T15:52:57Z</time></trkpt><trkpt lat="45.657948502085105" lon="8.618829033330202"><ele>295.0</ele><time>2026-04-11T15:52:58Z</time></trkpt><trkpt lat="45.65778840462021" lon="8.618810321540883"><ele>295.0</ele><time>2026-04-11T15:52:59Z</time></trkpt><trkpt lat="45.65761666978783" lon="8.618792029455648"><ele>295.0</ele><time>2026-04-11T15:53:00Z</time></trkpt><trkpt lat="45.657420624951996" lon="8.618763006144283"><ele>294.3333333333333</ele><time>2026-04-11T15:53:01Z</time></trkpt><trkpt lat="45.65720653735202" lon="8.61873922542976"><ele>293.6666666666667</ele><time>2026-04-11T15:53:02Z</time></trkpt><trkpt lat="45.65698034027366" lon="8.618716349740414"><ele>293.0</ele><time>2026-04-11T15:53:03Z</time></trkpt><trkpt lat="45.65675986794265" lon="8.61869289007495"><ele>292.6666666666667</ele><time>2026-04-11T15:53:04Z</time></trkpt><trkpt lat="45.65655737067131" lon="8.618664510214499"><ele>292.3333333333333</ele><time>2026-04-11T15:53:05Z</time></trkpt><trkpt lat="45.656363734252736" lon="8.618638588607672"><ele>292.0</ele><time>2026-04-11T15:53:06Z</time></trkpt><trkpt lat="45.656181367468726" lon="8.618615969652918"><ele>292.66666666666663</ele><time>2026-04-11T15:53:07Z</time></trkpt><trkpt lat="45.65600622777382" lon="8.61859180172141"><ele>293.3333333333333</ele><time>2026-04-11T15:53:08Z</time></trkpt><trkpt lat="45.655818556141085" lon="8.61856691488466"><ele>294.0</ele><time>2026-04-11T15:53:09Z</time></trkpt><trkpt lat="45.65563226560391" lon="8.618541662124581"><ele>294.0</ele><time>2026-04-11T15:53:10Z</time></trkpt><trkpt lat="45.655447636914914" lon="8.618518114650255"><ele>294.0</ele><time>2026-04-11T15:53:11Z</time></trkpt><trkpt lat="45.65527088674985" lon="8.618495754885126"><ele>294.0</ele><time>2026-04-11T15:53:12Z</time></trkpt><trkpt lat="45.65510736545081" lon="8.618475177087621"><ele>294.0</ele><time>2026-04-11T15:53:13Z</time></trkpt><trkpt lat="45.65495527735441" lon="8.618454128528356"><ele>294.0</ele><time>2026-04-11T15:53:14Z</time></trkpt><trkpt lat="45.654798579994846" lon="8.618440017002145"><ele>294.0</ele><time>2026-04-11T15:53:15Z</time></trkpt><trkpt lat="45.654643615420625" lon="8.618419484494062"><ele>294.0</ele><time>2026-04-11T15:53:16Z</time></trkpt><trkpt lat="45.65449047483769" lon="8.618403170871167"><ele>294.0</ele><time>2026-04-11T15:53:17Z</time></trkpt><trkpt lat="45.65433497327768" lon="8.618390682159916"><ele>294.0</ele><time>2026-04-11T15:53:18Z</time></trkpt><trkpt lat="45.65418424811894" lon="8.618395161948069"><ele>293.75</ele><time>2026-04-11T15:53:19Z</time></trkpt><trkpt lat="45.65403424900572" lon="8.618411143972459"><ele>293.5</ele><time>2026-04-11T15:53:20Z</time></trkpt><trkpt lat="45.6538875103819" lon="8.618428823312216"><ele>293.25</ele><time>2026-04-11T15:53:21Z</time></trkpt><trkpt lat="45.65374293751503" lon="8.618451615960375"><ele>293.0</ele><time>2026-04-11T15:53:22Z</time></trkpt><trkpt lat="45.65360181814822" lon="8.618476402636942"><ele>292.25</ele><time>2026-04-11T15:53:23Z</time></trkpt><trkpt lat="45.65346845225561" lon="8.618503466609702"><ele>291.5</ele><time>2026-04-11T15:53:24Z</time></trkpt><trkpt lat="45.653330695237756" lon="8.618534763904439"><ele>290.75</ele><time>2026-04-11T15:53:25Z</time></trkpt><trkpt lat="45.65318578806767" lon="8.61855729253125"><ele>290.0</ele><time>2026-04-11T15:53:26Z</time></trkpt><trkpt lat="45.653042406128684" lon="8.618586170182043"><ele>290.0</ele><time>2026-04-11T15:53:27Z</time></trkpt><trkpt lat="45.6529171708871" lon="8.618607882450435"><ele>290.0</ele><time>2026-04-11T15:53:28Z</time></trkpt><trkpt lat="45.652799104008906" lon="8.61862508566493"><ele>290.0</ele><time>2026-04-11T15:53:29Z</time></trkpt><trkpt lat="45.65269896080428" lon="8.618631515248664"><ele>290.0</ele><time>2026-04-11T15:53:30Z</time></trkpt><trkpt lat="45.65261187507579" lon="8.618625121975168"><ele>290.0</ele><time>2026-04-11T15:53:31Z</time></trkpt><trkpt lat="45.65255007002482" lon="8.618587945218923"><ele>290.4</ele><time>2026-04-11T15:53:32Z</time></trkpt><trkpt lat="45.65246171796826" lon="8.618488440927445"><ele>290.8</ele><time>2026-04-11T15:53:34Z</time></trkpt><trkpt lat="45.65238558727976" lon="8.618434391719562"><ele>291.2</ele><time>2026-04-11T15:53:36Z</time></trkpt><trkpt lat="45.65231865222181" lon="8.618324971650866"><ele>291.6</ele><time>2026-04-11T15:53:38Z</time></trkpt><trkpt lat="45.65222236704544" lon="8.618233306716286"><ele>292.0</ele><time>2026-04-11T15:53:40Z</time></trkpt><trkpt lat="45.65215885438008" lon="8.6182088761565"><ele>292.0</ele><time>2026-04-11T15:53:41Z</time></trkpt><trkpt lat="45.65208385724254" lon="8.618221108881865"><ele>292.0</ele><time>2026-04-11T15:53:42Z</time></trkpt><trkpt lat="45.65201203735791" lon="8.618275889014713"><ele>292.0</ele><time>2026-04-11T15:53:43Z</time></trkpt><trkpt lat="45.651948855648996" lon="8.618361394379956"><ele>292.0</ele><time>2026-04-11T15:53:43.999Z</time></trkpt><trkpt lat="45.65190209636435" lon="8.618466176951795"><ele>292.0</ele><time>2026-04-11T15:53:44.999Z</time></trkpt><trkpt lat="45.65185599605428" lon="8.61853463672463"><ele>292.0</ele><time>2026-04-11T15:53:45.999Z</time></trkpt><trkpt lat="45.6517968048547" lon="8.618586421424272"><ele>291.8</ele><time>2026-04-11T15:53:46.999Z</time></trkpt><trkpt lat="45.65171965902621" lon="8.618624576188271"><ele>291.6</ele><time>2026-04-11T15:53:47.999Z</time></trkpt><trkpt lat="45.65161560981124" lon="8.618655171994371"><ele>291.40000000000003</ele><time>2026-04-11T15:53:48.999Z</time></trkpt><trkpt lat="45.651503289826756" lon="8.618680275094354"><ele>291.2</ele><time>2026-04-11T15:53:49.999Z</time></trkpt><trkpt lat="45.651361273484454" lon="8.61869946806672"><ele>291.0</ele><time>2026-04-11T15:53:50.999Z</time></trkpt><trkpt lat="45.65118329249088" lon="8.618724067859379"><ele>288.6666666666667</ele><time>2026-04-11T15:53:51.999Z</time></trkpt><trkpt lat="45.650985801529195" lon="8.618752352108359"><ele>286.33333333333337</ele><time>2026-04-11T15:53:52.999Z</time></trkpt><trkpt lat="45.650796586653584" lon="8.618777034182052"><ele>284.0</ele><time>2026-04-11T15:53:53.999Z</time></trkpt><trkpt lat="45.65062459213766" lon="8.618792583975315"><ele>284.0</ele><time>2026-04-11T15:53:54.999Z</time></trkpt><trkpt lat="45.650466867920855" lon="8.618802411750094"><ele>284.0</ele><time>2026-04-11T15:53:55.999Z</time></trkpt><trkpt lat="45.65030301333932" lon="8.618818623097596"><ele>284.0</ele><time>2026-04-11T15:53:56.999Z</time></trkpt><trkpt lat="45.650131997685" lon="8.61883586290928"><ele>284.6666666666667</ele><time>2026-04-11T15:53:57.998Z</time></trkpt><trkpt lat="45.64994954926341" lon="8.618859448310515"><ele>285.3333333333333</ele><time>2026-04-11T15:53:58.998Z</time></trkpt><trkpt lat="45.64977086714049" lon="8.618881070134401"><ele>286.0</ele><time>2026-04-11T15:53:59.998Z</time></trkpt><trkpt lat="45.64959140596124" lon="8.618900270247861"><ele>285.66666666666663</ele><time>2026-04-11T15:54:00.998Z</time></trkpt><trkpt lat="45.64940235883505" lon="8.618921055777438"><ele>285.3333333333333</ele><time>2026-04-11T15:54:01.998Z</time></trkpt><trkpt lat="45.64921508482864" lon="8.618950204601383"><ele>285.0</ele><time>2026-04-11T15:54:02.998Z</time></trkpt><trkpt lat="45.649021223899254" lon="8.618989726659468"><ele>285.0</ele><time>2026-04-11T15:54:03.998Z</time></trkpt><trkpt lat="45.64883278619882" lon="8.619036890433735"><ele>285.0</ele><time>2026-04-11T15:54:04.998Z</time></trkpt><trkpt lat="45.6486671339503" lon="8.619086660213855"><ele>285.0</ele><time>2026-04-11T15:54:05.998Z</time></trkpt><trkpt lat="45.648527626667516" lon="8.619139315536938"><ele>284.0</ele><time>2026-04-11T15:54:06.998Z</time></trkpt><trkpt lat="45.64838650682527" lon="8.619204633683076"><ele>283.0</ele><time>2026-04-11T15:54:07.998Z</time></trkpt><trkpt lat="45.648239977361854" lon="8.619283546470959"><ele>282.0</ele><time>2026-04-11T15:54:08.998Z</time></trkpt><trkpt lat="45.6480870947656" lon="8.619364265641599"><ele>282.0</ele><time>2026-04-11T15:54:09.998Z</time></trkpt><trkpt lat="45.647922799499646" lon="8.619450838659002"><ele>282.0</ele><time>2026-04-11T15:54:10.998Z</time></trkpt><trkpt lat="45.64775179630899" lon="8.619532347093841"><ele>282.0</ele><time>2026-04-11T15:54:11.998Z</time></trkpt><trkpt lat="45.64757650381117" lon="8.619596865327402"><ele>283.5</ele><time>2026-04-11T15:54:12.998Z</time></trkpt><trkpt lat="45.64735222097711" lon="8.619706653918387"><ele>285.0</ele><time>2026-04-11T15:54:13.998Z</time></trkpt><trkpt lat="45.647084919095285" lon="8.619838515826812"><ele>285.0</ele><time>2026-04-11T15:54:14.998Z</time></trkpt><trkpt lat="45.64683477922157" lon="8.619961765555328"><ele>285.0</ele><time>2026-04-11T15:54:15.998Z</time></trkpt><trkpt lat="45.646613369263825" lon="8.620091130396304"><ele>285.0</ele><time>2026-04-11T15:54:16.998Z</time></trkpt><trkpt lat="45.646409279081944" lon="8.62018884418518"><ele>285.0</ele><time>2026-04-11T15:54:17.998Z</time></trkpt><trkpt lat="45.646222159225196" lon="8.620283357461686"><ele>285.0</ele><time>2026-04-11T15:54:18.998Z</time></trkpt><trkpt lat="45.64604529098469" lon="8.620349079241407"><ele>284.3333333333333</ele><time>2026-04-11T15:54:19.998Z</time></trkpt><trkpt lat="45.645884404733536" lon="8.620451189141185"><ele>283.66666666666663</ele><time>2026-04-11T15:54:20.998Z</time></trkpt><trkpt lat="45.645721981839074" lon="8.620528460866101"><ele>283.0</ele><time>2026-04-11T15:54:21.998Z</time></trkpt><trkpt lat="45.64555361722685" lon="8.620585676295052"><ele>283.0</ele><time>2026-04-11T15:54:22.998Z</time></trkpt><trkpt lat="45.645342285176156" lon="8.620684722311294"><ele>283.0</ele><time>2026-04-11T15:54:23.998Z</time></trkpt><trkpt lat="45.64512038935139" lon="8.620784276531639"><ele>281.66666666666663</ele><time>2026-04-11T15:54:24.998Z</time></trkpt><trkpt lat="45.64491144628991" lon="8.620892140474988"><ele>280.3333333333333</ele><time>2026-04-11T15:54:25.998Z</time></trkpt><trkpt lat="45.64471894168251" lon="8.620957266683053"><ele>279.0</ele><time>2026-04-11T15:54:26.998Z</time></trkpt><trkpt lat="45.64453477937968" lon="8.621013577008041"><ele>278.3333333333333</ele><time>2026-04-11T15:54:27.998Z</time></trkpt><trkpt lat="45.644360421409374" lon="8.62105755377617"><ele>277.66666666666663</ele><time>2026-04-11T15:54:28.998Z</time></trkpt><trkpt lat="45.64420708555331" lon="8.621083335906157"><ele>277.0</ele><time>2026-04-11T15:54:29.998Z</time></trkpt><trkpt lat="45.64407718864934" lon="8.621084446886682"><ele>277.0</ele><time>2026-04-11T15:54:30.998Z</time></trkpt><trkpt lat="45.64396927703455" lon="8.62105281004308"><ele>277.0</ele><time>2026-04-11T15:54:31.998Z</time></trkpt><trkpt lat="45.643879204627964" lon="8.620984149487164"><ele>277.0</ele><time>2026-04-11T15:54:33Z</time></trkpt><trkpt lat="45.643803840610815" lon="8.620913058299934"><ele>277.0</ele><time>2026-04-11T15:54:34Z</time></trkpt><trkpt lat="45.64372470531271" lon="8.620882683879872"><ele>277.0</ele><time>2026-04-11T15:54:35Z</time></trkpt><trkpt lat="45.64363295900089" lon="8.62092722887266"><ele>276.5</ele><time>2026-04-11T15:54:36Z</time></trkpt><trkpt lat="45.64354166526674" lon="8.621026011370455"><ele>276.0</ele><time>2026-04-11T15:54:37Z</time></trkpt><trkpt lat="45.64349129869107" lon="8.621151712562742"><ele>275.5</ele><time>2026-04-11T15:54:38Z</time></trkpt><trkpt lat="45.643468273490605" lon="8.621278988998695"><ele>275.0</ele><time>2026-04-11T15:54:39Z</time></trkpt><trkpt lat="45.6435445462872" lon="8.621453626594118"><ele>274.75</ele><time>2026-04-11T15:54:40Z</time></trkpt><trkpt lat="45.643612266119504" lon="8.621626907827732"><ele>274.5</ele><time>2026-04-11T15:54:41Z</time></trkpt><trkpt lat="45.64368916316998" lon="8.621717794045065"><ele>274.25</ele><time>2026-04-11T15:54:42Z</time></trkpt><trkpt lat="45.64358691666984" lon="8.621882636612357"><ele>274.0</ele><time>2026-04-11T15:54:43Z</time></trkpt><trkpt lat="45.64351895386316" lon="8.621969548098523"><ele>274.0</ele><time>2026-04-11T15:54:44Z</time></trkpt><trkpt lat="45.64338902372792" lon="8.62195209590547"><ele>274.0</ele><time>2026-04-11T15:54:45Z</time></trkpt><trkpt lat="45.64325626534414" lon="8.621946158399503"><ele>274.0</ele><time>2026-04-11T15:54:46Z</time></trkpt><trkpt lat="45.64314940018663" lon="8.621885630047247"><ele>274.0</ele><time>2026-04-11T15:54:47Z</time></trkpt><trkpt lat="45.64307806616789" lon="8.621800078239218"><ele>274.0</ele><time>2026-04-11T15:54:48Z</time></trkpt><trkpt lat="45.64300579896438" lon="8.621734144561263"><ele>274.0</ele><time>2026-04-11T15:54:49Z</time></trkpt><trkpt lat="45.64293364139227" lon="8.621751936663134"><ele>274.0</ele><time>2026-04-11T15:54:50Z</time></trkpt><trkpt lat="45.64284785413696" lon="8.62181627739414"><ele>274.0</ele><time>2026-04-11T15:54:51Z</time></trkpt><trkpt lat="45.64278270399798" lon="8.6219795372107"><ele>274.0</ele><time>2026-04-11T15:54:52Z</time></trkpt><trkpt lat="45.64269610228852" lon="8.622057995345305"><ele>273.8</ele><time>2026-04-11T15:54:53Z</time></trkpt><trkpt lat="45.642602652598626" lon="8.622122037921025"><ele>273.59999999999997</ele><time>2026-04-11T15:54:54Z</time></trkpt><trkpt lat="45.642515765485555" lon="8.622203601706472"><ele>273.4</ele><time>2026-04-11T15:54:55Z</time></trkpt><trkpt lat="45.6424420545067" lon="8.622303615880812"><ele>273.2</ele><time>2026-04-11T15:54:56Z</time></trkpt><trkpt lat="45.64237623681692" lon="8.622415073618413"><ele>273.0</ele><time>2026-04-11T15:54:57Z</time></trkpt><trkpt lat="45.64231680732943" lon="8.622531419214507"><ele>273.0</ele><time>2026-04-11T15:54:58Z</time></trkpt><trkpt lat="45.64226660927658" lon="8.622658036423552"><ele>273.0</ele><time>2026-04-11T15:54:59Z</time></trkpt><trkpt lat="45.64221838935137" lon="8.62279256116345"><ele>273.0</ele><time>2026-04-11T15:55:00Z</time></trkpt><trkpt lat="45.64216459702092" lon="8.622932117911153"><ele>273.0</ele><time>2026-04-11T15:55:01Z</time></trkpt><trkpt lat="45.64210822608959" lon="8.62307233407408"><ele>273.0</ele><time>2026-04-11T15:55:02Z</time></trkpt><trkpt lat="45.642051636280534" lon="8.623216126386898"><ele>272.75</ele><time>2026-04-11T15:55:03Z</time></trkpt><trkpt lat="45.6419940560422" lon="8.623363667854944"><ele>272.5</ele><time>2026-04-11T15:55:04Z</time></trkpt><trkpt lat="45.641935450157234" lon="8.623516338335168"><ele>272.25</ele><time>2026-04-11T15:55:05Z</time></trkpt><trkpt lat="45.64186648126782" lon="8.623690613573855"><ele>272.0</ele><time>2026-04-11T15:55:06Z</time></trkpt><trkpt lat="45.641784785105145" lon="8.623902044469235"><ele>270.6666666666667</ele><time>2026-04-11T15:55:07Z</time></trkpt><trkpt lat="45.64169468445597" lon="8.624130111277786"><ele>269.3333333333333</ele><time>2026-04-11T15:55:08Z</time></trkpt><trkpt lat="45.64160338773862" lon="8.624375607134361"><ele>268.0</ele><time>2026-04-11T15:55:08.999Z</time></trkpt><trkpt lat="45.64150923916962" lon="8.624626158821698"><ele>267.66666666666663</ele><time>2026-04-11T15:55:09.999Z</time></trkpt><trkpt lat="45.64140881055784" lon="8.624890001763527"><ele>267.3333333333333</ele><time>2026-04-11T15:55:10.999Z</time></trkpt><trkpt lat="45.641305966150085" lon="8.625173328434185"><ele>267.0</ele><time>2026-04-11T15:55:11.999Z</time></trkpt><trkpt lat="45.64120221255668" lon="8.625458482339832"><ele>265.6666666666667</ele><time>2026-04-11T15:55:12.999Z</time></trkpt><trkpt lat="45.641091134225334" lon="8.625743099070522"><ele>264.33333333333337</ele><time>2026-04-11T15:55:13.999Z</time></trkpt><trkpt lat="45.64098411423408" lon="8.626019719318526"><ele>263.0</ele><time>2026-04-11T15:55:14.999Z</time></trkpt><trkpt lat="45.64088759793479" lon="8.62628039243656"><ele>263.0</ele><time>2026-04-11T15:55:15.999Z</time></trkpt><trkpt lat="45.64079838653627" lon="8.626525207049049"><ele>263.0</ele><time>2026-04-11T15:55:16.999Z</time></trkpt><trkpt lat="45.64065813922743" lon="8.626734975482343"><ele>263.0</ele><time>2026-04-11T15:55:17.999Z</time></trkpt><trkpt lat="45.64050383929035" lon="8.626956174133701"><ele>263.0</ele><time>2026-04-11T15:55:18.999Z</time></trkpt><trkpt lat="45.64030891555206" lon="8.627114233117195"><ele>263.0</ele><time>2026-04-11T15:55:19.999Z</time></trkpt><trkpt lat="45.6401013129995" lon="8.627239382062518"><ele>263.0</ele><time>2026-04-11T15:55:20.999Z</time></trkpt><trkpt lat="45.63988941791184" lon="8.627363717186338"><ele>263.0</ele><time>2026-04-11T15:55:21.999Z</time></trkpt><trkpt lat="45.639673386465326" lon="8.62750277437824"><ele>263.0</ele><time>2026-04-11T15:55:22.999Z</time></trkpt><trkpt lat="45.63945128761135" lon="8.627620069624417"><ele>263.0</ele><time>2026-04-11T15:55:23.999Z</time></trkpt><trkpt lat="45.63922850300066" lon="8.62774970025249"><ele>263.0</ele><time>2026-04-11T15:55:24.999Z</time></trkpt><trkpt lat="45.63902320901476" lon="8.627872832358587"><ele>262.33333333333337</ele><time>2026-04-11T15:55:25.999Z</time></trkpt><trkpt lat="45.63883232014919" lon="8.627981441733445"><ele>261.6666666666667</ele><time>2026-04-11T15:55:26.999Z</time></trkpt><trkpt lat="45.638652231749035" lon="8.62808468403543"><ele>261.0</ele><time>2026-04-11T15:55:27.999Z</time></trkpt><trkpt lat="45.63848445494767" lon="8.628184079393009"><ele>261.0</ele><time>2026-04-11T15:55:28.999Z</time></trkpt><trkpt lat="45.63833167949919" lon="8.628274127197626"><ele>261.0</ele><time>2026-04-11T15:55:29.999Z</time></trkpt><trkpt lat="45.63818418137676" lon="8.62835853137554"><ele>261.0</ele><time>2026-04-11T15:55:30.999Z</time></trkpt><trkpt lat="45.63804451506498" lon="8.628442226243259"><ele>261.0</ele><time>2026-04-11T15:55:31.999Z</time></trkpt><trkpt lat="45.637914069761955" lon="8.628517329254107"><ele>261.0</ele><time>2026-04-11T15:55:32.999Z</time></trkpt><trkpt lat="45.637786924474405" lon="8.628584083720918"><ele>261.0</ele><time>2026-04-11T15:55:33.999Z</time></trkpt><trkpt lat="45.63766124272265" lon="8.62865408308892"><ele>261.0</ele><time>2026-04-11T15:55:34.999Z</time></trkpt><trkpt lat="45.63752951283078" lon="8.628738219541399"><ele>262.0</ele><time>2026-04-11T15:55:35.999Z</time></trkpt><trkpt lat="45.63738649173588" lon="8.628825546831923"><ele>263.0</ele><time>2026-04-11T15:55:36.999Z</time></trkpt><trkpt lat="45.63723564067531" lon="8.628910517726748"><ele>264.0</ele><time>2026-04-11T15:55:37.999Z</time></trkpt><trkpt lat="45.637079695090875" lon="8.62900341027941"><ele>263.0</ele><time>2026-04-11T15:55:38.999Z</time></trkpt><trkpt lat="45.63692019599195" lon="8.629104493704396"><ele>262.0</ele><time>2026-04-11T15:55:39.999Z</time></trkpt><trkpt lat="45.636754620072104" lon="8.629202847626486"><ele>261.0</ele><time>2026-04-11T15:55:40.999Z</time></trkpt><trkpt lat="45.63658733266912" lon="8.629300553009024"><ele>261.0</ele><time>2026-04-11T15:55:41.999Z</time></trkpt><trkpt lat="45.636434272303845" lon="8.6293873721821"><ele>261.0</ele><time>2026-04-11T15:55:42.999Z</time></trkpt><trkpt lat="45.636286851520126" lon="8.629473082879631"><ele>261.0</ele><time>2026-04-11T15:55:43.999Z</time></trkpt><trkpt lat="45.63614180558294" lon="8.629555078472778"><ele>262.3333333333333</ele><time>2026-04-11T15:55:44.999Z</time></trkpt><trkpt lat="45.63599198926453" lon="8.629645838522784"><ele>263.66666666666663</ele><time>2026-04-11T15:55:45.999Z</time></trkpt><trkpt lat="45.63583834486318" lon="8.629742584586856"><ele>265.0</ele><time>2026-04-11T15:55:46.999Z</time></trkpt><trkpt lat="45.6356888017774" lon="8.629832062423127"><ele>265.0</ele><time>2026-04-11T15:55:47.999Z</time></trkpt><trkpt lat="45.63554475370783" lon="8.62991497434191"><ele>265.0</ele><time>2026-04-11T15:55:48.999Z</time></trkpt><trkpt lat="45.63541605849156" lon="8.62998713566488"><ele>265.0</ele><time>2026-04-11T15:55:49.999Z</time></trkpt><trkpt lat="45.635289924227074" lon="8.630053242980726"><ele>265.0</ele><time>2026-04-11T15:55:50.999Z</time></trkpt><trkpt lat="45.63517778032675" lon="8.630118615162573"><ele>263.5</ele><time>2026-04-11T15:55:51.999Z</time></trkpt><trkpt lat="45.63506179822193" lon="8.630186812527377"><ele>262.0</ele><time>2026-04-11T15:55:52.999Z</time></trkpt><trkpt lat="45.634946900060015" lon="8.630245123846429"><ele>260.5</ele><time>2026-04-11T15:55:53.999Z</time></trkpt><trkpt lat="45.634841771320666" lon="8.630284030675051"><ele>259.0</ele><time>2026-04-11T15:55:54.999Z</time></trkpt><trkpt lat="45.63473910498568" lon="8.630304615344487"><ele>259.0</ele><time>2026-04-11T15:55:55.999Z</time></trkpt><trkpt lat="45.63464276771098" lon="8.63028494361142"><ele>259.0</ele><time>2026-04-11T15:55:56.999Z</time></trkpt><trkpt lat="45.634553499144225" lon="8.630236024888111"><ele>259.0</ele><time>2026-04-11T15:55:57.999Z</time></trkpt><trkpt lat="45.63447416834019" lon="8.630188564576974"><ele>259.0</ele><time>2026-04-11T15:55:58.999Z</time></trkpt><trkpt lat="45.634398831929836" lon="8.630166392053283"><ele>259.0</ele><time>2026-04-11T15:55:59.999Z</time></trkpt><trkpt lat="45.634336478065165" lon="8.630275465668005"><ele>259.0</ele><time>2026-04-11T15:56:00.999Z</time></trkpt><trkpt lat="45.63434454250929" lon="8.630411434447577"><ele>259.0</ele><time>2026-04-11T15:56:01.999Z</time></trkpt><trkpt lat="45.63436609870845" lon="8.630538417951083"><ele>259.0</ele><time>2026-04-11T15:56:02.999Z</time></trkpt><trkpt lat="45.634327948495475" lon="8.630645446178608"><ele>259.0</ele><time>2026-04-11T15:56:03.999Z</time></trkpt><trkpt lat="45.63422307642515" lon="8.630709402906081"><ele>259.0</ele><time>2026-04-11T15:56:04.999Z</time></trkpt><trkpt lat="45.63408982663972" lon="8.630766061788952"><ele>259.0</ele><time>2026-04-11T15:56:05.998Z</time></trkpt><trkpt lat="45.63396976112249" lon="8.630826465928646"><ele>259.0</ele><time>2026-04-11T15:56:06.998Z</time></trkpt><trkpt lat="45.63385910175835" lon="8.63089108247217"><ele>259.0</ele><time>2026-04-11T15:56:07.998Z</time></trkpt><trkpt lat="45.63376765853047" lon="8.63094411842925"><ele>259.0</ele><time>2026-04-11T15:56:08.998Z</time></trkpt><trkpt lat="45.63368860838646" lon="8.630981021229044"><ele>259.0</ele><time>2026-04-11T15:56:09.998Z</time></trkpt><trkpt lat="45.633615273206125" lon="8.63100970090438"><ele>258.8</ele><time>2026-04-11T15:56:10.998Z</time></trkpt><trkpt lat="45.63353726507235" lon="8.631044077942859"><ele>258.59999999999997</ele><time>2026-04-11T15:56:11.998Z</time></trkpt><trkpt lat="45.633447682658925" lon="8.631080447898121"><ele>258.4</ele><time>2026-04-11T15:56:12.998Z</time></trkpt><trkpt lat="45.633340802659085" lon="8.631123591606576"><ele>258.2</ele><time>2026-04-11T15:56:13.998Z</time></trkpt><trkpt lat="45.633231305121534" lon="8.631173524609286"><ele>258.0</ele><time>2026-04-11T15:56:14.998Z</time></trkpt><trkpt lat="45.63313298451555" lon="8.631218778651435"><ele>257.8</ele><time>2026-04-11T15:56:15.998Z</time></trkpt><trkpt lat="45.63304412268221" lon="8.631256297883573"><ele>257.6</ele><time>2026-04-11T15:56:16.998Z</time></trkpt><trkpt lat="45.63296313137166" lon="8.631289936329212"><ele>257.4</ele><time>2026-04-11T15:56:17.998Z</time></trkpt><trkpt lat="45.632894022329886" lon="8.631314274014619"><ele>257.2</ele><time>2026-04-11T15:56:18.998Z</time></trkpt><trkpt lat="45.63277550704893" lon="8.631348223905139"><ele>257.0</ele><time>2026-04-11T15:56:20.998Z</time></trkpt><trkpt lat="45.63269368672303" lon="8.631390521458753"><ele>257.5</ele><time>2026-04-11T15:56:21.998Z</time></trkpt><trkpt lat="45.63257464562088" lon="8.631446209174383"><ele>258.0</ele><time>2026-04-11T15:56:22.998Z</time></trkpt><trkpt lat="45.63242655186541" lon="8.631486472401996"><ele>258.5</ele><time>2026-04-11T15:56:23.998Z</time></trkpt><trkpt lat="45.63229352268249" lon="8.631511612642894"><ele>259.0</ele><time>2026-04-11T15:56:24.998Z</time></trkpt><trkpt lat="45.632167724089825" lon="8.63153644214789"><ele>259.0</ele><time>2026-04-11T15:56:25.998Z</time></trkpt><trkpt lat="45.63206327159675" lon="8.631556030092032"><ele>259.0</ele><time>2026-04-11T15:56:26.998Z</time></trkpt><trkpt lat="45.631965972724366" lon="8.63157991549227"><ele>259.0</ele><time>2026-04-11T15:56:27.998Z</time></trkpt><trkpt lat="45.63187694117682" lon="8.631599115299299"><ele>259.0</ele><time>2026-04-11T15:56:28.998Z</time></trkpt><trkpt lat="45.63178730800754" lon="8.631615794619586"><ele>259.0</ele><time>2026-04-11T15:56:29.998Z</time></trkpt><trkpt lat="45.6316998675212" lon="8.631639678796681"><ele>259.2</ele><time>2026-04-11T15:56:30.998Z</time></trkpt><trkpt lat="45.631608625630896" lon="8.631660222510753"><ele>259.4</ele><time>2026-04-11T15:56:31.998Z</time></trkpt><trkpt lat="45.63150167497534" lon="8.631677418811366"><ele>259.6</ele><time>2026-04-11T15:56:32.998Z</time></trkpt><trkpt lat="45.63139279344869" lon="8.631683806368112"><ele>259.8</ele><time>2026-04-11T15:56:33.998Z</time></trkpt><trkpt lat="45.63129553514705" lon="8.631675597896942"><ele>260.0</ele><time>2026-04-11T15:56:34.998Z</time></trkpt><trkpt lat="45.63119951636248" lon="8.63166639835567"><ele>259.8</ele><time>2026-04-11T15:56:35.998Z</time></trkpt><trkpt lat="45.631099376255996" lon="8.631655610475065"><ele>259.6</ele><time>2026-04-11T15:56:36.998Z</time></trkpt><trkpt lat="45.63100717007072" lon="8.631638822653454"><ele>259.4</ele><time>2026-04-11T15:56:37.998Z</time></trkpt><trkpt lat="45.63092024021874" lon="8.631630074014625"><ele>259.2</ele><time>2026-04-11T15:56:39Z</time></trkpt><trkpt lat="45.63083045519592" lon="8.631618288046093"><ele>259.0</ele><time>2026-04-11T15:56:40Z</time></trkpt><trkpt lat="45.63073639301174" lon="8.631608024795465"><ele>259.0</ele><time>2026-04-11T15:56:41Z</time></trkpt><trkpt lat="45.630650993713054" lon="8.631605440258708"><ele>259.0</ele><time>2026-04-11T15:56:42Z</time></trkpt><trkpt lat="45.63056784716698" lon="8.631612051926245"><ele>259.0</ele><time>2026-04-11T15:56:43Z</time></trkpt><trkpt lat="45.63046801253271" lon="8.631617721363686"><ele>259.0</ele><time>2026-04-11T15:56:44Z</time></trkpt><trkpt lat="45.63036556735935" lon="8.63162615453354"><ele>259.0</ele><time>2026-04-11T15:56:45Z</time></trkpt><trkpt lat="45.63026362560574" lon="8.6316497709898"><ele>259.16666666666663</ele><time>2026-04-11T15:56:46Z</time></trkpt><trkpt lat="45.63018271114189" lon="8.631692951382307"><ele>259.3333333333333</ele><time>2026-04-11T15:56:47Z</time></trkpt><trkpt lat="45.630108669912985" lon="8.631722082808105"><ele>259.5</ele><time>2026-04-11T15:56:48Z</time></trkpt><trkpt lat="45.63003148823949" lon="8.631727042647334"><ele>259.6666666666667</ele><time>2026-04-11T15:56:49Z</time></trkpt><trkpt lat="45.629957280525126" lon="8.631761627394237"><ele>259.83333333333337</ele><time>2026-04-11T15:56:50Z</time></trkpt><trkpt lat="45.62988356559443" lon="8.631799585075774"><ele>260.0</ele><time>2026-04-11T15:56:51Z</time></trkpt><trkpt lat="45.62980378978808" lon="8.631829083370796"><ele>260.0</ele><time>2026-04-11T15:56:52Z</time></trkpt><trkpt lat="45.62971431734272" lon="8.631846325754207"><ele>260.0</ele><time>2026-04-11T15:56:53Z</time></trkpt><trkpt lat="45.629620682014064" lon="8.631860299112281"><ele>260.0</ele><time>2026-04-11T15:56:54Z</time></trkpt><trkpt lat="45.629525212895096" lon="8.631872495364668"><ele>260.0</ele><time>2026-04-11T15:56:55Z</time></trkpt><trkpt lat="45.629426284404246" lon="8.631889240295775"><ele>260.0</ele><time>2026-04-11T15:56:56Z</time></trkpt><trkpt lat="45.62932863487899" lon="8.6319066422193"><ele>259.8</ele><time>2026-04-11T15:56:57Z</time></trkpt><trkpt lat="45.629232865138206" lon="8.631920986271632"><ele>259.6</ele><time>2026-04-11T15:56:58Z</time></trkpt><trkpt lat="45.62914582146636" lon="8.631934023319817"><ele>259.4</ele><time>2026-04-11T15:56:59Z</time></trkpt><trkpt lat="45.62905930952502" lon="8.631941803959828"><ele>259.2</ele><time>2026-04-11T15:57:00Z</time></trkpt><trkpt lat="45.628955093874026" lon="8.631950173920824"><ele>259.0</ele><time>2026-04-11T15:57:01Z</time></trkpt><trkpt lat="45.62884702353669" lon="8.631958853464669"><ele>259.0</ele><time>2026-04-11T15:57:02Z</time></trkpt><trkpt lat="45.628739174905434" lon="8.631967515204517"><ele>259.0</ele><time>2026-04-11T15:57:03Z</time></trkpt><trkpt lat="45.628637789911906" lon="8.631998560752104"><ele>259.0</ele><time>2026-04-11T15:57:04Z</time></trkpt><trkpt lat="45.6285434533685" lon="8.631983595936966"><ele>259.0</ele><time>2026-04-11T15:57:05Z</time></trkpt><trkpt lat="45.628459101190195" lon="8.632012181927616"><ele>259.0</ele><time>2026-04-11T15:57:06Z</time></trkpt><trkpt lat="45.62837937807572" lon="8.631997346155613"><ele>258.59999999999997</ele><time>2026-04-11T15:57:07Z</time></trkpt><trkpt lat="45.62830455570232" lon="8.632019895516951"><ele>258.2</ele><time>2026-04-11T15:57:08Z</time></trkpt><trkpt lat="45.62822401788375" lon="8.632012245360793"><ele>257.79999999999995</ele><time>2026-04-11T15:57:09Z</time></trkpt><trkpt lat="45.628147128864526" lon="8.632011865540257"><ele>257.4</ele><time>2026-04-11T15:57:10Z</time></trkpt><trkpt lat="45.62803431156273" lon="8.632027648567464"><ele>257.0</ele><time>2026-04-11T15:57:11Z</time></trkpt><trkpt lat="45.62791361322194" lon="8.63205617003349"><ele>256.25</ele><time>2026-04-11T15:57:12Z</time></trkpt><trkpt lat="45.62780393677852" lon="8.63208345680265"><ele>255.5</ele><time>2026-04-11T15:57:13Z</time></trkpt><trkpt lat="45.627710907802296" lon="8.632109761452437"><ele>254.75</ele><time>2026-04-11T15:57:14Z</time></trkpt><trkpt lat="45.627636982148466" lon="8.632113606117125"><ele>254.0</ele><time>2026-04-11T15:57:15Z</time></trkpt><trkpt lat="45.62757396922226" lon="8.632362140697172"><ele>254.0</ele><time>2026-04-11T15:57:17Z</time></trkpt><trkpt lat="45.62749106735349" lon="8.632507763832173"><ele>254.0</ele><time>2026-04-11T15:57:18Z</time></trkpt><trkpt lat="45.62742344838819" lon="8.632679127132796"><ele>254.0</ele><time>2026-04-11T15:57:19Z</time></trkpt><trkpt lat="45.62733720254464" lon="8.632849747394214"><ele>254.0</ele><time>2026-04-11T15:57:20Z</time></trkpt><trkpt lat="45.62726976415444" lon="8.6330095208929"><ele>253.25</ele><time>2026-04-11T15:57:21Z</time></trkpt><trkpt lat="45.62723007612463" lon="8.633146481825865"><ele>252.5</ele><time>2026-04-11T15:57:22Z</time></trkpt><trkpt lat="45.62717630141163" lon="8.633273618347465"><ele>251.75</ele><time>2026-04-11T15:57:23Z</time></trkpt><trkpt lat="45.62714397743149" lon="8.633461422290333"><ele>251.0</ele><time>2026-04-11T15:57:24Z</time></trkpt><trkpt lat="45.62726987222834" lon="8.633746235869198"><ele>250.75</ele><time>2026-04-11T15:57:25Z</time></trkpt><trkpt lat="45.62728682843424" lon="8.633958823977734"><ele>250.5</ele><time>2026-04-11T15:57:26Z</time></trkpt><trkpt lat="45.627253879340444" lon="8.634168283009151"><ele>250.25</ele><time>2026-04-11T15:57:26.999Z</time></trkpt><trkpt lat="45.62721661203265" lon="8.634345922572239"><ele>250.0</ele><time>2026-04-11T15:57:27.999Z</time></trkpt><trkpt lat="45.62719215573173" lon="8.634531368329537"><ele>248.0</ele><time>2026-04-11T15:57:28.999Z</time></trkpt><trkpt lat="45.627198987662474" lon="8.634756301869157"><ele>246.0</ele><time>2026-04-11T15:57:29.999Z</time></trkpt><trkpt lat="45.62723088597355" lon="8.635013091192745"><ele>244.0</ele><time>2026-04-11T15:57:30.999Z</time></trkpt><trkpt lat="45.62727623945623" lon="8.635278431926956"><ele>242.66666666666666</ele><time>2026-04-11T15:57:31.999Z</time></trkpt><trkpt lat="45.627308055223004" lon="8.635521241480944"><ele>241.33333333333331</ele><time>2026-04-11T15:57:32.999Z</time></trkpt><trkpt lat="45.62731307002158" lon="8.635747485121657"><ele>240.0</ele><time>2026-04-11T15:57:33.999Z</time></trkpt><trkpt lat="45.6273161432564" lon="8.63595615498624"><ele>238.75</ele><time>2026-04-11T15:57:34.999Z</time></trkpt><trkpt lat="45.62730489325288" lon="8.636170337544158"><ele>237.5</ele><time>2026-04-11T15:57:35.999Z</time></trkpt><trkpt lat="45.627314563030716" lon="8.636365003249328"><ele>236.25</ele><time>2026-04-11T15:57:36.999Z</time></trkpt><trkpt lat="45.627334718923365" lon="8.636553498210931"><ele>235.0</ele><time>2026-04-11T15:57:37.999Z</time></trkpt><trkpt lat="45.62734869185724" lon="8.63674337855953"><ele>235.0</ele><time>2026-04-11T15:57:38.999Z</time></trkpt><trkpt lat="45.62738379249854" lon="8.636921709154267"><ele>235.0</ele><time>2026-04-11T15:57:39.999Z</time></trkpt><trkpt lat="45.62739660165275" lon="8.637099256343118"><ele>235.0</ele><time>2026-04-11T15:57:40.999Z</time></trkpt><trkpt lat="45.627393879508524" lon="8.637262174166743"><ele>235.0</ele><time>2026-04-11T15:57:41.999Z</time></trkpt><trkpt lat="45.62735678653775" lon="8.63740953313815"><ele>229.33333333333331</ele><time>2026-04-11T15:57:42.999Z</time></trkpt><trkpt lat="45.627276628732396" lon="8.637568214108546"><ele>223.66666666666669</ele><time>2026-04-11T15:57:43.999Z</time></trkpt><trkpt lat="45.62720208858926" lon="8.63775237209685"><ele>218.0</ele><time>2026-04-11T15:57:44.999Z</time></trkpt><trkpt lat="45.62711893112498" lon="8.637955931575382"><ele>220.66666666666669</ele><time>2026-04-11T15:57:45.999Z</time></trkpt><trkpt lat="45.62703696857591" lon="8.638153881754464"><ele>223.33333333333331</ele><time>2026-04-11T15:57:46.999Z</time></trkpt><trkpt lat="45.626956313358036" lon="8.638342683726066"><ele>226.0</ele><time>2026-04-11T15:57:47.999Z</time></trkpt><trkpt lat="45.62688239661607" lon="8.638519257262198"><ele>222.25</ele><time>2026-04-11T15:57:48.999Z</time></trkpt><trkpt lat="45.62681178362458" lon="8.638702033912661"><ele>218.5</ele><time>2026-04-11T15:57:49.999Z</time></trkpt><trkpt lat="45.62676673535608" lon="8.638903287419083"><ele>214.75</ele><time>2026-04-11T15:57:50.999Z</time></trkpt><trkpt lat="45.62676369963745" lon="8.63909304440666"><ele>211.0</ele><time>2026-04-11T15:57:51.999Z</time></trkpt><trkpt lat="45.62677442499299" lon="8.639273252238823"><ele>211.0</ele><time>2026-04-11T15:57:52.999Z</time></trkpt><trkpt lat="45.62680538206612" lon="8.639438852921387"><ele>211.0</ele><time>2026-04-11T15:57:53.999Z</time></trkpt><trkpt lat="45.62685579196787" lon="8.639557493676643"><ele>211.0</ele><time>2026-04-11T15:57:54.999Z</time></trkpt><trkpt lat="45.62687690751391" lon="8.639671816002085"><ele>211.0</ele><time>2026-04-11T15:57:55.999Z</time></trkpt><trkpt lat="45.62694172834542" lon="8.639771141305786"><ele>211.0</ele><time>2026-04-11T15:57:57.999Z</time></trkpt><trkpt lat="45.62681445789001" lon="8.639999925297106"><ele>209.60000000000002</ele><time>2026-04-11T15:57:58.999Z</time></trkpt><trkpt lat="45.62677368191979" lon="8.640104519152633"><ele>208.2</ele><time>2026-04-11T15:57:59.999Z</time></trkpt><trkpt lat="45.626703254249584" lon="8.640233088463388"><ele>206.8</ele><time>2026-04-11T15:58:00.999Z</time></trkpt><trkpt lat="45.626627650951924" lon="8.640357911079295"><ele>205.39999999999998</ele><time>2026-04-11T15:58:01.999Z</time></trkpt><trkpt lat="45.62655888982794" lon="8.640486170251194"><ele>204.0</ele><time>2026-04-11T15:58:02.999Z</time></trkpt><trkpt lat="45.62650246900811" lon="8.640602913907859"><ele>203.0</ele><time>2026-04-11T15:58:03.999Z</time></trkpt><trkpt lat="45.62644851153765" lon="8.640713632332567"><ele>202.0</ele><time>2026-04-11T15:58:04.999Z</time></trkpt><trkpt lat="45.626398971654396" lon="8.640807069988666"><ele>201.0</ele><time>2026-04-11T15:58:05.999Z</time></trkpt><trkpt lat="45.626359079164295" lon="8.640909140206507"><ele>200.0</ele><time>2026-04-11T15:58:06.999Z</time></trkpt><trkpt lat="45.62632843040044" lon="8.64102769964191"><ele>199.0</ele><time>2026-04-11T15:58:07.999Z</time></trkpt><trkpt lat="45.626315304519395" lon="8.641135585730266"><ele>198.0</ele><time>2026-04-11T15:58:08.999Z</time></trkpt><trkpt lat="45.626296381316855" lon="8.641270040985416"><ele>196.4</ele><time>2026-04-11T15:58:09.999Z</time></trkpt><trkpt lat="45.62627232542733" lon="8.641404349752413"><ele>194.8</ele><time>2026-04-11T15:58:10.999Z</time></trkpt><trkpt lat="45.626250341866275" lon="8.641531506752624"><ele>193.2</ele><time>2026-04-11T15:58:11.999Z</time></trkpt><trkpt lat="45.62622968231708" lon="8.641662697715812"><ele>191.6</ele><time>2026-04-11T15:58:12.999Z</time></trkpt><trkpt lat="45.626218295377015" lon="8.641796521835563"><ele>190.0</ele><time>2026-04-11T15:58:13.999Z</time></trkpt><trkpt lat="45.62620220647662" lon="8.641922067010631"><ele>189.4</ele><time>2026-04-11T15:58:14.999Z</time></trkpt><trkpt lat="45.62618279378262" lon="8.642041880747472"><ele>188.8</ele><time>2026-04-11T15:58:15.999Z</time></trkpt><trkpt lat="45.62619431562233" lon="8.642199129612756"><ele>188.2</ele><time>2026-04-11T15:58:16.999Z</time></trkpt><trkpt lat="45.626179485155696" lon="8.642333199149435"><ele>187.6</ele><time>2026-04-11T15:58:17.999Z</time></trkpt><trkpt lat="45.626161361553216" lon="8.642450708309145"><ele>187.0</ele><time>2026-04-11T15:58:18.999Z</time></trkpt><trkpt lat="45.626120950829446" lon="8.642591484606779"><ele>189.0</ele><time>2026-04-11T15:58:19.999Z</time></trkpt><trkpt lat="45.62608674698675" lon="8.642738759784185"><ele>191.0</ele><time>2026-04-11T15:58:20.999Z</time></trkpt><trkpt lat="45.62605183085485" lon="8.642920582380968"><ele>193.0</ele><time>2026-04-11T15:58:21.999Z</time></trkpt><trkpt lat="45.626030490378206" lon="8.643088815946378"><ele>195.0</ele><time>2026-04-11T15:58:22.998Z</time></trkpt><trkpt lat="45.62602781231287" lon="8.643227603212702"><ele>195.0</ele><time>2026-04-11T15:58:23.998Z</time></trkpt><trkpt lat="45.626033545591085" lon="8.643366638454987"><ele>195.0</ele><time>2026-04-11T15:58:24.998Z</time></trkpt><trkpt lat="45.62604850983065" lon="8.643482752693707"><ele>195.0</ele><time>2026-04-11T15:58:25.998Z</time></trkpt><trkpt lat="45.62606312335667" lon="8.643600074271585"><ele>195.0</ele><time>2026-04-11T15:58:26.998Z</time></trkpt><trkpt lat="45.62609379543331" lon="8.64372099277881"><ele>195.0</ele><time>2026-04-11T15:58:27.998Z</time></trkpt><trkpt lat="45.62611937729786" lon="8.643837219362544"><ele>195.0</ele><time>2026-04-11T15:58:28.998Z</time></trkpt><trkpt lat="45.626154911316654" lon="8.643942703268928"><ele>192.8</ele><time>2026-04-11T15:58:29.998Z</time></trkpt><trkpt lat="45.62619353833573" lon="8.644040764975635"><ele>190.6</ele><time>2026-04-11T15:58:30.998Z</time></trkpt><trkpt lat="45.626222211476374" lon="8.64414022651388"><ele>188.39999999999998</ele><time>2026-04-11T15:58:31.998Z</time></trkpt><trkpt lat="45.62624804346477" lon="8.644253801104549"><ele>186.2</ele><time>2026-04-11T15:58:32.998Z</time></trkpt><trkpt lat="45.6262884646626" lon="8.644424770356004"><ele>184.0</ele><time>2026-04-11T15:58:33.998Z</time></trkpt><trkpt lat="45.626327199839956" lon="8.644590047858614"><ele>184.0</ele><time>2026-04-11T15:58:34.998Z</time></trkpt><trkpt lat="45.6263590265307" lon="8.644761088299449"><ele>184.0</ele><time>2026-04-11T15:58:35.998Z</time></trkpt><trkpt lat="45.62639787940292" lon="8.644942500561031"><ele>184.0</ele><time>2026-04-11T15:58:36.998Z</time></trkpt><trkpt lat="45.62643265881771" lon="8.645102590346923"><ele>184.0</ele><time>2026-04-11T15:58:37.998Z</time></trkpt><trkpt lat="45.626461108161394" lon="8.64525203453122"><ele>183.75</ele><time>2026-04-11T15:58:38.998Z</time></trkpt><trkpt lat="45.626470383769735" lon="8.645422214354301"><ele>183.5</ele><time>2026-04-11T15:58:39.998Z</time></trkpt><trkpt lat="45.626472926771" lon="8.645601623014239"><ele>183.25</ele><time>2026-04-11T15:58:40.998Z</time></trkpt><trkpt lat="45.62647681903533" lon="8.645761519605164"><ele>183.0</ele><time>2026-04-11T15:58:41.998Z</time></trkpt><trkpt lat="45.62647786974735" lon="8.645896347088382"><ele>183.0</ele><time>2026-04-11T15:58:42.998Z</time></trkpt><trkpt lat="45.62646747731066" lon="8.646023877300706"><ele>183.0</ele><time>2026-04-11T15:58:44Z</time></trkpt><trkpt lat="45.62643111128693" lon="8.646144498443384"><ele>183.0</ele><time>2026-04-11T15:58:45Z</time></trkpt><trkpt lat="45.62636687786594" lon="8.646270890936966"><ele>183.0</ele><time>2026-04-11T15:58:46Z</time></trkpt><trkpt lat="45.62626757648215" lon="8.646438748996468"><ele>183.0</ele><time>2026-04-11T15:58:47Z</time></trkpt><trkpt lat="45.62616977687764" lon="8.646611563993748"><ele>183.25</ele><time>2026-04-11T15:58:48Z</time></trkpt><trkpt lat="45.62608628507372" lon="8.64676590862803"><ele>183.5</ele><time>2026-04-11T15:58:49Z</time></trkpt><trkpt lat="45.626001734487126" lon="8.646923827468754"><ele>183.75</ele><time>2026-04-11T15:58:50Z</time></trkpt><trkpt lat="45.62593695806518" lon="8.64706510730802"><ele>184.0</ele><time>2026-04-11T15:58:51Z</time></trkpt><trkpt lat="45.62587820986389" lon="8.647207772324489"><ele>184.0</ele><time>2026-04-11T15:58:52Z</time></trkpt><trkpt lat="45.625811468405495" lon="8.647343895873284"><ele>184.0</ele><time>2026-04-11T15:58:53Z</time></trkpt><trkpt lat="45.62574092223051" lon="8.647463399252347"><ele>184.0</ele><time>2026-04-11T15:58:54Z</time></trkpt><trkpt lat="45.62564881040328" lon="8.6475806963594"><ele>184.0</ele><time>2026-04-11T15:58:55Z</time></trkpt><trkpt lat="45.62555746165026" lon="8.647693834830092"><ele>184.2</ele><time>2026-04-11T15:58:56Z</time></trkpt><trkpt lat="45.62547723669838" lon="8.647800598410727"><ele>184.39999999999998</ele><time>2026-04-11T15:58:57Z</time></trkpt><trkpt lat="45.625398469083336" lon="8.64788134284723"><ele>184.6</ele><time>2026-04-11T15:58:58Z</time></trkpt><trkpt lat="45.62532081482101" lon="8.647968620955156"><ele>184.8</ele><time>2026-04-11T15:58:59Z</time></trkpt><trkpt lat="45.62524922768691" lon="8.64807319508699"><ele>185.0</ele><time>2026-04-11T15:59:00Z</time></trkpt><trkpt lat="45.62518076717546" lon="8.648155626981662"><ele>185.0</ele><time>2026-04-11T15:59:01Z</time></trkpt><trkpt lat="45.62512715923278" lon="8.648223321771592"><ele>185.0</ele><time>2026-04-11T15:59:02Z</time></trkpt><trkpt lat="45.62506753918299" lon="8.648288504301012"><ele>185.0</ele><time>2026-04-11T15:59:03Z</time></trkpt><trkpt lat="45.62497192083737" lon="8.64842434805309"><ele>185.0</ele><time>2026-04-11T15:59:05Z</time></trkpt><trkpt lat="45.62491788558537" lon="8.648551154296417"><ele>185.0</ele><time>2026-04-11T15:59:07Z</time></trkpt><trkpt lat="45.62490230526792" lon="8.648672912796966"><ele>183.83333333333331</ele><time>2026-04-11T15:59:08Z</time></trkpt><trkpt lat="45.62490089459506" lon="8.64884507917718"><ele>182.66666666666666</ele><time>2026-04-11T15:59:10Z</time></trkpt><trkpt lat="45.62488189038908" lon="8.648948010932767"><ele>181.5</ele><time>2026-04-11T15:59:11Z</time></trkpt><trkpt lat="45.62486043048488" lon="8.649034984686283"><ele>180.33333333333334</ele><time>2026-04-11T15:59:12Z</time></trkpt><trkpt lat="45.624879401557415" lon="8.649152100659206"><ele>179.16666666666669</ele><time>2026-04-11T15:59:14Z</time></trkpt><trkpt lat="45.624927083938076" lon="8.649249971896332"><ele>178.0</ele><time>2026-04-11T15:59:15Z</time></trkpt><trkpt lat="45.62493542322745" lon="8.649359044656466"><ele>177.2</ele><time>2026-04-11T15:59:16Z</time></trkpt><trkpt lat="45.62492764291224" lon="8.649490656674931"><ele>176.4</ele><time>2026-04-11T15:59:17Z</time></trkpt><trkpt lat="45.62491702974694" lon="8.649643732945568"><ele>175.6</ele><time>2026-04-11T15:59:18Z</time></trkpt><trkpt lat="45.6249156492125" lon="8.649795763009573"><ele>174.79999999999998</ele><time>2026-04-11T15:59:19Z</time></trkpt><trkpt lat="45.62491473870616" lon="8.649927454864946"><ele>174.0</ele><time>2026-04-11T15:59:20Z</time></trkpt><trkpt lat="45.62489919157697" lon="8.650073549574277"><ele>174.0</ele><time>2026-04-11T15:59:21Z</time></trkpt><trkpt lat="45.62486257873723" lon="8.65019548631283"><ele>174.0</ele><time>2026-04-11T15:59:22Z</time></trkpt><trkpt lat="45.62480847651302" lon="8.650316976037"><ele>174.0</ele><time>2026-04-11T15:59:23Z</time></trkpt><trkpt lat="45.624734673499646" lon="8.650455115370859"><ele>174.0</ele><time>2026-04-11T15:59:24Z</time></trkpt><trkpt lat="45.62467209005816" lon="8.650579404113062"><ele>174.0</ele><time>2026-04-11T15:59:25Z</time></trkpt><trkpt lat="45.62463011951781" lon="8.650753777259498"><ele>172.79999999999998</ele><time>2026-04-11T15:59:26Z</time></trkpt><trkpt lat="45.62460216497128" lon="8.650918885936315"><ele>171.6</ele><time>2026-04-11T15:59:27Z</time></trkpt><trkpt lat="45.62457216116005" lon="8.651060181356726"><ele>170.4</ele><time>2026-04-11T15:59:28Z</time></trkpt><trkpt lat="45.62452876391341" lon="8.651180260476725"><ele>169.2</ele><time>2026-04-11T15:59:29Z</time></trkpt><trkpt lat="45.62445210992505" lon="8.651274549852188"><ele>168.0</ele><time>2026-04-11T15:59:30Z</time></trkpt><trkpt lat="45.624373356014885" lon="8.651371627668675"><ele>170.4</ele><time>2026-04-11T15:59:31Z</time></trkpt><trkpt lat="45.62429181877337" lon="8.651486033354029"><ele>172.8</ele><time>2026-04-11T15:59:32Z</time></trkpt><trkpt lat="45.62423169481088" lon="8.651616551189415"><ele>175.2</ele><time>2026-04-11T15:59:33Z</time></trkpt><trkpt lat="45.62417998447219" lon="8.65174091578208"><ele>177.6</ele><time>2026-04-11T15:59:34Z</time></trkpt><trkpt lat="45.624135967140674" lon="8.651844904421917"><ele>180.0</ele><time>2026-04-11T15:59:35Z</time></trkpt><trkpt lat="45.624086984111926" lon="8.651955325464208"><ele>178.6</ele><time>2026-04-11T15:59:36Z</time></trkpt><trkpt lat="45.62403326770946" lon="8.65207313669478"><ele>177.2</ele><time>2026-04-11T15:59:37Z</time></trkpt><trkpt lat="45.623978717595556" lon="8.652180318351746"><ele>175.8</ele><time>2026-04-11T15:59:38Z</time></trkpt><trkpt lat="45.62393215451384" lon="8.652279910209986"><ele>174.4</ele><time>2026-04-11T15:59:39Z</time></trkpt><trkpt lat="45.62386627081381" lon="8.65237402130866"><ele>173.0</ele><time>2026-04-11T15:59:41Z</time></trkpt><trkpt lat="45.62379686130033" lon="8.652524834938706"><ele>173.0</ele><time>2026-04-11T15:59:42.999Z</time></trkpt><trkpt lat="45.62376021600697" lon="8.65264029546895"><ele>173.0</ele><time>2026-04-11T15:59:43.999Z</time></trkpt><trkpt lat="45.62372723292162" lon="8.652755510726154"><ele>173.0</ele><time>2026-04-11T15:59:44.999Z</time></trkpt><trkpt lat="45.623685096516866" lon="8.652866857447199"><ele>173.0</ele><time>2026-04-11T15:59:45.999Z</time></trkpt><trkpt lat="45.62364728869909" lon="8.652978083285506"><ele>173.0</ele><time>2026-04-11T15:59:46.999Z</time></trkpt><trkpt lat="45.62362357161808" lon="8.653069114798924"><ele>173.0</ele><time>2026-04-11T15:59:47.999Z</time></trkpt><trkpt lat="45.62360745498195" lon="8.653209223643454"><ele>172.33333333333331</ele><time>2026-04-11T15:59:49.999Z</time></trkpt><trkpt lat="45.62352274865223" lon="8.65318893232295"><ele>171.66666666666666</ele><time>2026-04-11T15:59:52.999Z</time></trkpt><trkpt lat="45.623477537526945" lon="8.653074399244643"><ele>171.0</ele><time>2026-04-11T15:59:54.999Z</time></trkpt><trkpt lat="45.62344736758616" lon="8.652967543090181"><ele>170.33333333333334</ele><time>2026-04-11T15:59:55.999Z</time></trkpt><trkpt lat="45.62340411958474" lon="8.652859893904477"><ele>169.66666666666669</ele><time>2026-04-11T15:59:56.999Z</time></trkpt><trkpt lat="45.623343594455214" lon="8.652750439783805"><ele>169.0</ele><time>2026-04-11T15:59:57.999Z</time></trkpt><trkpt lat="45.623282475410946" lon="8.652647389721734"><ele>170.5</ele><time>2026-04-11T15:59:58.999Z</time></trkpt><trkpt lat="45.62323461254312" lon="8.652579771400344"><ele>172.0</ele><time>2026-04-11T15:59:59.999Z</time></trkpt><trkpt lat="45.62316746852682" lon="8.652531935579796"><ele>173.5</ele><time>2026-04-11T16:00:01.999Z</time></trkpt><trkpt lat="45.62308629589274" lon="8.652569518281606"><ele>175.0</ele><time>2026-04-11T16:00:03.999Z</time></trkpt><trkpt lat="45.623032638449516" lon="8.652623423072196"><ele>176.5</ele><time>2026-04-11T16:00:04.999Z</time></trkpt><trkpt lat="45.622967267965144" lon="8.652668774846214"><ele>178.0</ele><time>2026-04-11T16:00:05.999Z</time></trkpt><trkpt lat="45.62288243599" lon="8.652727992708318"><ele>177.2</ele><time>2026-04-11T16:00:06.999Z</time></trkpt><trkpt lat="45.62280072831658" lon="8.652802768788952"><ele>176.4</ele><time>2026-04-11T16:00:07.999Z</time></trkpt><trkpt lat="45.62272600869976" lon="8.652869330943133"><ele>175.6</ele><time>2026-04-11T16:00:08.999Z</time></trkpt><trkpt lat="45.622674482595144" lon="8.652978894768117"><ele>174.79999999999998</ele><time>2026-04-11T16:00:09.999Z</time></trkpt><trkpt lat="45.622608124913704" lon="8.653083631184707"><ele>174.0</ele><time>2026-04-11T16:00:10.999Z</time></trkpt><trkpt lat="45.62254076380651" lon="8.653182196631548"><ele>174.0</ele><time>2026-04-11T16:00:11.999Z</time></trkpt><trkpt lat="45.622471996982824" lon="8.653281767934455"><ele>174.0</ele><time>2026-04-11T16:00:12.999Z</time></trkpt><trkpt lat="45.622407500635276" lon="8.653386963879312"><ele>174.0</ele><time>2026-04-11T16:00:13.999Z</time></trkpt><trkpt lat="45.622342982724675" lon="8.653479252603308"><ele>174.0</ele><time>2026-04-11T16:00:14.999Z</time></trkpt><trkpt lat="45.622276688581096" lon="8.653579457419804"><ele>174.0</ele><time>2026-04-11T16:00:15.999Z</time></trkpt><trkpt lat="45.62219966754244" lon="8.653682076753096"><ele>172.5</ele><time>2026-04-11T16:00:16.999Z</time></trkpt><trkpt lat="45.622116646768376" lon="8.653791765477724"><ele>171.0</ele><time>2026-04-11T16:00:17.999Z</time></trkpt><trkpt lat="45.622052724263085" lon="8.653893495201308"><ele>169.5</ele><time>2026-04-11T16:00:18.999Z</time></trkpt><trkpt lat="45.62200587169845" lon="8.653980793462061"><ele>168.0</ele><time>2026-04-11T16:00:19.999Z</time></trkpt><trkpt lat="45.62195207308967" lon="8.654052255678181"><ele>166.5</ele><time>2026-04-11T16:00:20.999Z</time></trkpt><trkpt lat="45.621912637676914" lon="8.65414425879122"><ele>165.0</ele><time>2026-04-11T16:00:22.999Z</time></trkpt><trkpt lat="45.62194273843061" lon="8.654249309321612"><ele>165.0</ele><time>2026-04-11T16:00:25.999Z</time></trkpt><trkpt lat="45.62200996491909" lon="8.654325454841809"><ele>165.0</ele><time>2026-04-11T16:00:26.999Z</time></trkpt><trkpt lat="45.622081669680284" lon="8.654407069789412"><ele>165.0</ele><time>2026-04-11T16:00:27.999Z</time></trkpt><trkpt lat="45.62215790197269" lon="8.654514116494331"><ele>165.0</ele><time>2026-04-11T16:00:28.999Z</time></trkpt><trkpt lat="45.62224820743347" lon="8.65463142046003"><ele>165.0</ele><time>2026-04-11T16:00:29.999Z</time></trkpt><trkpt lat="45.622348805255164" lon="8.654754732407959"><ele>165.25</ele><time>2026-04-11T16:00:30.999Z</time></trkpt><trkpt lat="45.62244914307533" lon="8.654888624048615"><ele>165.5</ele><time>2026-04-11T16:00:31.999Z</time></trkpt><trkpt lat="45.62255108603027" lon="8.655033102628286"><ele>165.75</ele><time>2026-04-11T16:00:32.999Z</time></trkpt><trkpt lat="45.622653143683145" lon="8.655171734224627"><ele>166.0</ele><time>2026-04-11T16:00:33.999Z</time></trkpt><trkpt lat="45.62275319593685" lon="8.655301343074967"><ele>166.0</ele><time>2026-04-11T16:00:34.999Z</time></trkpt><trkpt lat="45.62285488449028" lon="8.655433363964487"><ele>166.0</ele><time>2026-04-11T16:00:35.999Z</time></trkpt><trkpt lat="45.622956397880074" lon="8.655568074033608"><ele>166.0</ele><time>2026-04-11T16:00:36.999Z</time></trkpt><trkpt lat="45.623062773705534" lon="8.655709543007235"><ele>166.0</ele><time>2026-04-11T16:00:37.998Z</time></trkpt><trkpt lat="45.623171363535405" lon="8.655852514023492"><ele>166.0</ele><time>2026-04-11T16:00:38.998Z</time></trkpt><trkpt lat="45.623284659939365" lon="8.656001747436367"><ele>166.0</ele><time>2026-04-11T16:00:39.998Z</time></trkpt><trkpt lat="45.62339394650399" lon="8.656156137710397"><ele>166.0</ele><time>2026-04-11T16:00:40.998Z</time></trkpt><trkpt lat="45.6235013792521" lon="8.656312623148247"><ele>166.0</ele><time>2026-04-11T16:00:41.998Z</time></trkpt><trkpt lat="45.62361163392075" lon="8.656459229964732"><ele>166.0</ele><time>2026-04-11T16:00:42.998Z</time></trkpt><trkpt lat="45.62371308130494" lon="8.656588383124133"><ele>166.0</ele><time>2026-04-11T16:00:43.998Z</time></trkpt><trkpt lat="45.623808478118995" lon="8.656709780109638"><ele>166.0</ele><time>2026-04-11T16:00:44.998Z</time></trkpt><trkpt lat="45.6239109359284" lon="8.656848132050786"><ele>166.0</ele><time>2026-04-11T16:00:45.998Z</time></trkpt><trkpt lat="45.62401873966005" lon="8.657000590013297"><ele>166.0</ele><time>2026-04-11T16:00:46.998Z</time></trkpt><trkpt lat="45.62411587501351" lon="8.657135048171781"><ele>166.0</ele><time>2026-04-11T16:00:47.998Z</time></trkpt><trkpt lat="45.624205796346814" lon="8.657250982582408"><ele>166.0</ele><time>2026-04-11T16:00:48.998Z</time></trkpt><trkpt lat="45.62428272795378" lon="8.657351222807389"><ele>166.0</ele><time>2026-04-11T16:00:50.001Z</time></trkpt><trkpt lat="45.62435201362064" lon="8.657424041524738"><ele>166.0</ele><time>2026-04-11T16:00:51.001Z</time></trkpt><trkpt lat="45.62441203288145" lon="8.657471810000084"><ele>166.0</ele><time>2026-04-11T16:00:53.001Z</time></trkpt><trkpt lat="45.62430829256365" lon="8.65756489080814"><ele>166.0</ele><time>2026-04-11T16:00:55.001Z</time></trkpt><trkpt lat="45.624249875345065" lon="8.657640739581907"><ele>166.0</ele><time>2026-04-11T16:00:56.001Z</time></trkpt><trkpt lat="45.624168528024875" lon="8.657710219436911"><ele>166.0</ele><time>2026-04-11T16:00:57.001Z</time></trkpt><trkpt lat="45.624089698122745" lon="8.657787649045856"><ele>166.0</ele><time>2026-04-11T16:00:58.001Z</time></trkpt><trkpt lat="45.62399676716733" lon="8.657887864172402"><ele>166.0</ele><time>2026-04-11T16:00:59.001Z</time></trkpt><trkpt lat="45.62389677787066" lon="8.657971715784516"><ele>166.0</ele><time>2026-04-11T16:01:00.001Z</time></trkpt><trkpt lat="45.62381268090819" lon="8.65804393831322"><ele>166.0</ele><time>2026-04-11T16:01:01.001Z</time></trkpt><trkpt lat="45.62373244520322" lon="8.658115703176765"><ele>166.0</ele><time>2026-04-11T16:01:02.001Z</time></trkpt><trkpt lat="45.62366481241468" lon="8.658186321266472"><ele>166.0</ele><time>2026-04-11T16:01:03Z</time></trkpt><trkpt lat="45.62359325100154" lon="8.658256002257296"><ele>166.0</ele><time>2026-04-11T16:01:04Z</time></trkpt><trkpt lat="45.62350425540401" lon="8.658327715992634"><ele>166.0</ele><time>2026-04-11T16:01:05Z</time></trkpt><trkpt lat="45.623429651733865" lon="8.658402095540401"><ele>166.0</ele><time>2026-04-11T16:01:06Z</time></trkpt><trkpt lat="45.62336255919766" lon="8.658463690847803"><ele>166.0</ele><time>2026-04-11T16:01:07Z</time></trkpt><trkpt lat="45.623305576418346" lon="8.658524260170802"><ele>166.16666666666669</ele><time>2026-04-11T16:01:08Z</time></trkpt><trkpt lat="45.623187048728035" lon="8.65859864143189"><ele>166.33333333333334</ele><time>2026-04-11T16:01:10Z</time></trkpt><trkpt lat="45.62313297189748" lon="8.65864889394517"><ele>166.5</ele><time>2026-04-11T16:01:11Z</time></trkpt><trkpt lat="45.62304687086401" lon="8.658736461537547"><ele>166.66666666666666</ele><time>2026-04-11T16:01:12.999Z</time></trkpt><trkpt lat="45.62300525397826" lon="8.658805022527215"><ele>166.83333333333331</ele><time>2026-04-11T16:01:13.999Z</time></trkpt><trkpt lat="45.62294955840892" lon="8.658851067575544"><ele>167.0</ele><time>2026-04-11T16:01:14.999Z</time></trkpt><trkpt lat="45.62289092675258" lon="8.658904471791798"><ele>167.0</ele><time>2026-04-11T16:01:15.999Z</time></trkpt><trkpt lat="45.62283324249625" lon="8.65898403649363"><ele>167.0</ele><time>2026-04-11T16:01:16.999Z</time></trkpt><trkpt lat="45.62276712327971" lon="8.659098087881919"><ele>167.0</ele><time>2026-04-11T16:01:17.999Z</time></trkpt><trkpt lat="45.622714578482665" lon="8.659210904726264"><ele>167.0</ele><time>2026-04-11T16:01:18.999Z</time></trkpt><trkpt lat="45.622647510008704" lon="8.659347658792585"><ele>167.0</ele><time>2026-04-11T16:01:19.999Z</time></trkpt><trkpt lat="45.62259385048505" lon="8.659462349963631"><ele>167.2</ele><time>2026-04-11T16:01:20.999Z</time></trkpt><trkpt lat="45.62255039222227" lon="8.659565539058221"><ele>167.39999999999998</ele><time>2026-04-11T16:01:21.999Z</time></trkpt><trkpt lat="45.62249753431951" lon="8.659680869788373"><ele>167.60000000000002</ele><time>2026-04-11T16:01:22.999Z</time></trkpt><trkpt lat="45.62242700775543" lon="8.659821758321437"><ele>167.8</ele><time>2026-04-11T16:01:23.999Z</time></trkpt><trkpt lat="45.62235785083836" lon="8.659964406407148"><ele>168.0</ele><time>2026-04-11T16:01:24.999Z</time></trkpt><trkpt lat="45.62228753917139" lon="8.66011218863084"><ele>168.0</ele><time>2026-04-11T16:01:25.999Z</time></trkpt><trkpt lat="45.62222308046226" lon="8.660255748223085"><ele>168.0</ele><time>2026-04-11T16:01:26.999Z</time></trkpt><trkpt lat="45.62215693255521" lon="8.6603878219943"><ele>168.0</ele><time>2026-04-11T16:01:27.999Z</time></trkpt><trkpt lat="45.622100140000526" lon="8.660503159827496"><ele>168.0</ele><time>2026-04-11T16:01:28.999Z</time></trkpt><trkpt lat="45.622042528462" lon="8.660628396565732"><ele>168.0</ele><time>2026-04-11T16:01:29.999Z</time></trkpt><trkpt lat="45.62197749897533" lon="8.660761666420061"><ele>168.0</ele><time>2026-04-11T16:01:30.999Z</time></trkpt><trkpt lat="45.621904963142924" lon="8.66090693475704"><ele>168.0</ele><time>2026-04-11T16:01:31.999Z</time></trkpt><trkpt lat="45.62183833832193" lon="8.661056618968972"><ele>168.0</ele><time>2026-04-11T16:01:32.999Z</time></trkpt><trkpt lat="45.62178492883259" lon="8.661184156999266"><ele>168.0</ele><time>2026-04-11T16:01:33.999Z</time></trkpt><trkpt lat="45.62171974287267" lon="8.66132402329233"><ele>167.8</ele><time>2026-04-11T16:01:34.999Z</time></trkpt><trkpt lat="45.621653358269086" lon="8.66147896857283"><ele>167.60000000000002</ele><time>2026-04-11T16:01:35.999Z</time></trkpt><trkpt lat="45.62159436789725" lon="8.66161685272988"><ele>167.39999999999998</ele><time>2026-04-11T16:01:36.999Z</time></trkpt><trkpt lat="45.62154151143309" lon="8.661741727633109"><ele>167.2</ele><time>2026-04-11T16:01:37.999Z</time></trkpt><trkpt lat="45.62148000137849" lon="8.66186513265952"><ele>167.0</ele><time>2026-04-11T16:01:38.999Z</time></trkpt><trkpt lat="45.621409728212015" lon="8.662000150211966"><ele>166.2</ele><time>2026-04-11T16:01:39.999Z</time></trkpt><trkpt lat="45.62135264218292" lon="8.662115628513895"><ele>165.39999999999998</ele><time>2026-04-11T16:01:40.999Z</time></trkpt><trkpt lat="45.62129518493337" lon="8.662216104655993"><ele>164.60000000000002</ele><time>2026-04-11T16:01:41.999Z</time></trkpt><trkpt lat="45.62122661899481" lon="8.662320121353654"><ele>163.8</ele><time>2026-04-11T16:01:42.999Z</time></trkpt><trkpt lat="45.621138673950924" lon="8.662431420322635"><ele>163.0</ele><time>2026-04-11T16:01:43.999Z</time></trkpt><trkpt lat="45.62102123222395" lon="8.662539353405123"><ele>163.0</ele><time>2026-04-11T16:01:44.999Z</time></trkpt><trkpt lat="45.620901887453876" lon="8.662648462133834"><ele>163.0</ele><time>2026-04-11T16:01:45.999Z</time></trkpt><trkpt lat="45.620772525125375" lon="8.662775811382287"><ele>163.0</ele><time>2026-04-11T16:01:46.999Z</time></trkpt><trkpt lat="45.620630658196205" lon="8.662923671296717"><ele>162.33333333333334</ele><time>2026-04-11T16:01:47.999Z</time></trkpt><trkpt lat="45.62046664169216" lon="8.663108404839251"><ele>161.66666666666666</ele><time>2026-04-11T16:01:48.999Z</time></trkpt><trkpt lat="45.62031747179895" lon="8.663268976586808"><ele>161.0</ele><time>2026-04-11T16:01:49.999Z</time></trkpt><trkpt lat="45.62019024785514" lon="8.663408816326466"><ele>161.5</ele><time>2026-04-11T16:01:50.999Z</time></trkpt><trkpt lat="45.620076128855835" lon="8.663533956327782"><ele>162.0</ele><time>2026-04-11T16:01:51.999Z</time></trkpt><trkpt lat="45.61995970238055" lon="8.663638827250766"><ele>162.5</ele><time>2026-04-11T16:01:52.999Z</time></trkpt><trkpt lat="45.61986089432041" lon="8.663735523768601"><ele>163.0</ele><time>2026-04-11T16:01:53.999Z</time></trkpt><trkpt lat="45.61976396278614" lon="8.663836139219898"><ele>163.0</ele><time>2026-04-11T16:01:54.999Z</time></trkpt><trkpt lat="45.61966614648791" lon="8.663941322584337"><ele>163.0</ele><time>2026-04-11T16:01:55.999Z</time></trkpt><trkpt lat="45.61958040987245" lon="8.664039019293053"><ele>163.0</ele><time>2026-04-11T16:01:56.999Z</time></trkpt><trkpt lat="45.61951464519827" lon="8.664139363346"><ele>163.0</ele><time>2026-04-11T16:01:57.999Z</time></trkpt><trkpt lat="45.61945129977551" lon="8.664247183800008"><ele>163.0</ele><time>2026-04-11T16:01:58.999Z</time></trkpt><trkpt lat="45.619404679440436" lon="8.664353301916272"><ele>163.2</ele><time>2026-04-11T16:01:59.999Z</time></trkpt><trkpt lat="45.619356244011165" lon="8.664436631943456"><ele>163.4</ele><time>2026-04-11T16:02:00.999Z</time></trkpt><trkpt lat="45.61926009252073" lon="8.664475701530273"><ele>163.6</ele><time>2026-04-11T16:02:02.999Z</time></trkpt><trkpt lat="45.61920780158843" lon="8.6643556561917"><ele>163.79999999999998</ele><time>2026-04-11T16:02:04.999Z</time></trkpt><trkpt lat="45.61911181986571" lon="8.664213855745668"><ele>164.0</ele><time>2026-04-11T16:02:06.998Z</time></trkpt><trkpt lat="45.61903612515615" lon="8.664133033115077"><ele>164.0</ele><time>2026-04-11T16:02:07.998Z</time></trkpt><trkpt lat="45.618957869626186" lon="8.663979516575345"><ele>164.0</ele><time>2026-04-11T16:02:08.998Z</time></trkpt><trkpt lat="45.6188636768628" lon="8.663840449197226"><ele>164.0</ele><time>2026-04-11T16:02:09.998Z</time></trkpt><trkpt lat="45.61879056009856" lon="8.663763839584956"><ele>164.0</ele><time>2026-04-11T16:02:10.998Z</time></trkpt><trkpt lat="45.618746164559994" lon="8.663689074115748"><ele>164.0</ele><time>2026-04-11T16:02:11.998Z</time></trkpt><trkpt lat="45.61865625130144" lon="8.663700344884457"><ele>164.2</ele><time>2026-04-11T16:02:13.998Z</time></trkpt><trkpt lat="45.61861533806538" lon="8.663797886083458"><ele>164.39999999999998</ele><time>2026-04-11T16:02:15.998Z</time></trkpt><trkpt lat="45.61857820778088" lon="8.663874406075768"><ele>164.6</ele><time>2026-04-11T16:02:16.998Z</time></trkpt><trkpt lat="45.61852502382801" lon="8.663972372947956"><ele>164.8</ele><time>2026-04-11T16:02:17.998Z</time></trkpt><trkpt lat="45.618463414726314" lon="8.664080075932304"><ele>165.0</ele><time>2026-04-11T16:02:18.998Z</time></trkpt><trkpt lat="45.61838179264784" lon="8.664209394724471"><ele>165.0</ele><time>2026-04-11T16:02:19.998Z</time></trkpt><trkpt lat="45.61829925991839" lon="8.664343426004612"><ele>165.0</ele><time>2026-04-11T16:02:20.998Z</time></trkpt><trkpt lat="45.6182172944634" lon="8.664490728446713"><ele>165.0</ele><time>2026-04-11T16:02:21.998Z</time></trkpt><trkpt lat="45.61815204261473" lon="8.664630424797057"><ele>165.0</ele><time>2026-04-11T16:02:22.998Z</time></trkpt><trkpt lat="45.61810819661181" lon="8.664800325843"><ele>165.0</ele><time>2026-04-11T16:02:23.998Z</time></trkpt><trkpt lat="45.61808762334053" lon="8.664963998936825"><ele>165.0</ele><time>2026-04-11T16:02:24.998Z</time></trkpt><trkpt lat="45.61807827561195" lon="8.665181006599859"><ele>165.0</ele><time>2026-04-11T16:02:25.998Z</time></trkpt><trkpt lat="45.61806742313462" lon="8.665389148408266"><ele>165.0</ele><time>2026-04-11T16:02:26.998Z</time></trkpt><trkpt lat="45.618051251725326" lon="8.665574354952772"><ele>165.0</ele><time>2026-04-11T16:02:27.998Z</time></trkpt><trkpt lat="45.61802899059204" lon="8.665727863779662"><ele>165.0</ele><time>2026-04-11T16:02:28.998Z</time></trkpt><trkpt lat="45.61798518847832" lon="8.665860974341893"><ele>165.0</ele><time>2026-04-11T16:02:29.998Z</time></trkpt><trkpt lat="45.61792257813592" lon="8.66600766315363"><ele>165.0</ele><time>2026-04-11T16:02:30.998Z</time></trkpt><trkpt lat="45.617857003998296" lon="8.666142862879123"><ele>165.0</ele><time>2026-04-11T16:02:31.998Z</time></trkpt><trkpt lat="45.61781479049709" lon="8.666240413300999"><ele>165.2</ele><time>2026-04-11T16:02:32.998Z</time></trkpt><trkpt lat="45.61780542319161" lon="8.666411644260169"><ele>165.4</ele><time>2026-04-11T16:02:34.998Z</time></trkpt><trkpt lat="45.61783924483344" lon="8.66649473408378"><ele>165.60000000000002</ele><time>2026-04-11T16:02:35.998Z</time></trkpt><trkpt lat="45.617902619970046" lon="8.666603454579105"><ele>165.8</ele><time>2026-04-11T16:02:36.998Z</time></trkpt><trkpt lat="45.61797978021868" lon="8.66670755650583"><ele>166.0</ele><time>2026-04-11T16:02:37.998Z</time></trkpt><trkpt lat="45.61803510617278" lon="8.666782557499472"><ele>166.0</ele><time>2026-04-11T16:02:38.998Z</time></trkpt><trkpt lat="45.61803166636183" lon="8.66690078445292"><ele>166.0</ele><time>2026-04-11T16:02:40.998Z</time></trkpt><trkpt lat="45.61792644797197" lon="8.66694554631013"><ele>166.0</ele><time>2026-04-11T16:02:42.998Z</time></trkpt><trkpt lat="45.61785481555873" lon="8.666996225360087"><ele>166.0</ele><time>2026-04-11T16:02:43.998Z</time></trkpt><trkpt lat="45.6177538431424" lon="8.667033741357917"><ele>166.0</ele><time>2026-04-11T16:02:44.998Z</time></trkpt><trkpt lat="45.617632411155306" lon="8.667102753277563"><ele>166.5</ele><time>2026-04-11T16:02:45.998Z</time></trkpt><trkpt lat="45.617509871019365" lon="8.667183156015666"><ele>167.0</ele><time>2026-04-11T16:02:46.998Z</time></trkpt><trkpt lat="45.61740099626192" lon="8.667268776431055"><ele>167.5</ele><time>2026-04-11T16:02:47.998Z</time></trkpt><trkpt lat="45.61731267774451" lon="8.667348131048556"><ele>168.0</ele><time>2026-04-11T16:02:48.998Z</time></trkpt><trkpt lat="45.617210040799165" lon="8.667407931928613"><ele>168.0</ele><time>2026-04-11T16:02:49.998Z</time></trkpt><trkpt lat="45.617126348351796" lon="8.667471518547222"><ele>168.0</ele><time>2026-04-11T16:02:50.998Z</time></trkpt><trkpt lat="45.61703171366118" lon="8.667559632516408"><ele>168.0</ele><time>2026-04-11T16:02:51.998Z</time></trkpt><trkpt lat="45.61691230783544" lon="8.667625737985032"><ele>168.0</ele><time>2026-04-11T16:02:52.998Z</time></trkpt><trkpt lat="45.61682473116077" lon="8.66769017146951"><ele>168.0</ele><time>2026-04-11T16:02:53.998Z</time></trkpt><trkpt lat="45.61674443694137" lon="8.667773776649232"><ele>167.5</ele><time>2026-04-11T16:02:54.998Z</time></trkpt><trkpt lat="45.61664484976543" lon="8.667868062514488"><ele>167.0</ele><time>2026-04-11T16:02:56Z</time></trkpt><trkpt lat="45.61655013269994" lon="8.66801130018206"><ele>166.5</ele><time>2026-04-11T16:02:57Z</time></trkpt><trkpt lat="45.61645330197016" lon="8.668153559683839"><ele>166.0</ele><time>2026-04-11T16:02:58Z</time></trkpt><trkpt lat="45.616367324956705" lon="8.668262009771935"><ele>166.0</ele><time>2026-04-11T16:02:59Z</time></trkpt><trkpt lat="45.616271155625085" lon="8.668336776763747"><ele>166.0</ele><time>2026-04-11T16:03:00Z</time></trkpt><trkpt lat="45.616180326228196" lon="8.668434158124532"><ele>166.0</ele><time>2026-04-11T16:03:01Z</time></trkpt><trkpt lat="45.616101110025696" lon="8.668552749270312"><ele>166.0</ele><time>2026-04-11T16:03:02Z</time></trkpt><trkpt lat="45.61604607608495" lon="8.668659978987543"><ele>166.0</ele><time>2026-04-11T16:03:03Z</time></trkpt><trkpt lat="45.61598502055953" lon="8.668806042821476"><ele>165.8</ele><time>2026-04-11T16:03:04Z</time></trkpt><trkpt lat="45.61593442797149" lon="8.668984864806793"><ele>165.60000000000002</ele><time>2026-04-11T16:03:05Z</time></trkpt><trkpt lat="45.615898895116146" lon="8.669160886791744"><ele>165.4</ele><time>2026-04-11T16:03:06Z</time></trkpt><trkpt lat="45.61585781245172" lon="8.669293342085348"><ele>165.2</ele><time>2026-04-11T16:03:07Z</time></trkpt><trkpt lat="45.615821142012884" lon="8.669378174927731"><ele>165.0</ele><time>2026-04-11T16:03:08Z</time></trkpt><trkpt lat="45.61576662119178" lon="8.669441425486355"><ele>165.16666666666666</ele><time>2026-04-11T16:03:09Z</time></trkpt><trkpt lat="45.6156659959014" lon="8.669484377365746"><ele>165.33333333333334</ele><time>2026-04-11T16:03:11Z</time></trkpt><trkpt lat="45.61559190667695" lon="8.669514603844314"><ele>165.5</ele><time>2026-04-11T16:03:12Z</time></trkpt><trkpt lat="45.615506766063454" lon="8.66951662403813"><ele>165.66666666666669</ele><time>2026-04-11T16:03:13Z</time></trkpt><trkpt lat="45.61544370023589" lon="8.669523491278294"><ele>165.83333333333334</ele><time>2026-04-11T16:03:14Z</time></trkpt><trkpt lat="45.615355951858064" lon="8.66953309441684"><ele>166.0</ele><time>2026-04-11T16:03:16Z</time></trkpt><trkpt lat="45.61529772603698" lon="8.66959736810844"><ele>166.0</ele><time>2026-04-11T16:03:41.999Z</time></trkpt><trkpt lat="45.61530938111337" lon="8.669700206511054"><ele>166.0</ele><time>2026-04-11T16:03:44.999Z</time></trkpt><trkpt lat="45.61531596997744" lon="8.6698139918382"><ele>166.0</ele><time>2026-04-11T16:03:46.999Z</time></trkpt><trkpt lat="45.61533117029191" lon="8.669943141264497"><ele>166.0</ele><time>2026-04-11T16:03:49.999Z</time></trkpt><trkpt lat="45.615349213994676" lon="8.670057180657613"><ele>166.0</ele><time>2026-04-11T16:03:51.999Z</time></trkpt><trkpt lat="45.6153650056691" lon="8.67014929935348"><ele>166.0</ele><time>2026-04-11T16:03:52.999Z</time></trkpt><trkpt lat="45.61539673188614" lon="8.670268719421912"><ele>165.5</ele><time>2026-04-11T16:03:53.999Z</time></trkpt><trkpt lat="45.615446155511215" lon="8.67038683752366"><ele>165.0</ele><time>2026-04-11T16:03:54.999Z</time></trkpt><trkpt lat="45.61548413667504" lon="8.670479435166534"><ele>164.5</ele><time>2026-04-11T16:03:55.999Z</time></trkpt><trkpt lat="45.61556638161967" lon="8.670582073220572"><ele>164.0</ele><time>2026-04-11T16:03:57.999Z</time></trkpt><trkpt lat="45.615626722143595" lon="8.670664444537445"><ele>163.5</ele><time>2026-04-11T16:03:59.999Z</time></trkpt><trkpt lat="45.61560802101837" lon="8.670751906985341"><ele>163.0</ele><time>2026-04-11T16:04:00.999Z</time></trkpt><trkpt lat="45.61558869055324" lon="8.670855270741441"><ele>163.0</ele><time>2026-04-11T16:04:01.999Z</time></trkpt><trkpt lat="45.615565784118" lon="8.670963932936697"><ele>163.0</ele><time>2026-04-11T16:04:02.999Z</time></trkpt><trkpt lat="45.61553647910028" lon="8.671105172655649"><ele>163.0</ele><time>2026-04-11T16:04:03.999Z</time></trkpt><trkpt lat="45.61550840552392" lon="8.671238728556744"><ele>163.0</ele><time>2026-04-11T16:04:04.999Z</time></trkpt><trkpt lat="45.61550287137313" lon="8.671342130027156"><ele>163.0</ele><time>2026-04-11T16:04:05.999Z</time></trkpt><trkpt lat="45.61546698047247" lon="8.671476879028187"><ele>162.83333333333334</ele><time>2026-04-11T16:04:07.999Z</time></trkpt><trkpt lat="45.61544553506844" lon="8.671596111578808"><ele>162.66666666666669</ele><time>2026-04-11T16:04:09.999Z</time></trkpt><trkpt lat="45.61540797188147" lon="8.671691867812072"><ele>162.5</ele><time>2026-04-11T16:04:11.999Z</time></trkpt><trkpt lat="45.61539797135154" lon="8.671813723038925"><ele>162.33333333333334</ele><time>2026-04-11T16:04:14.999Z</time></trkpt><trkpt lat="45.6153719308742" lon="8.671914198579932"><ele>162.16666666666666</ele><time>2026-04-11T16:04:16.999Z</time></trkpt><trkpt lat="45.61533705508493" lon="8.67207567976883"><ele>162.0</ele><time>2026-04-11T16:04:18.999Z</time></trkpt><trkpt lat="45.61530189272378" lon="8.672240260032758"><ele>162.5</ele><time>2026-04-11T16:04:20.999Z</time></trkpt><trkpt lat="45.615276754679805" lon="8.672335158812265"><ele>163.0</ele><time>2026-04-11T16:04:21.998Z</time></trkpt><trkpt lat="45.61524194656219" lon="8.672485739446127"><ele>163.5</ele><time>2026-04-11T16:04:23.998Z</time></trkpt><trkpt lat="45.61518917913577" lon="8.672595075507813"><ele>164.0</ele><time>2026-04-11T16:04:25.998Z</time></trkpt><trkpt lat="45.61512787581671" lon="8.672663570660173"><ele>164.5</ele><time>2026-04-11T16:04:26.998Z</time></trkpt><trkpt lat="45.615040086084655" lon="8.672705256508818"><ele>165.0</ele><time>2026-04-11T16:04:27.998Z</time></trkpt><trkpt lat="45.614956946187604" lon="8.672770105894617"><ele>165.0</ele><time>2026-04-11T16:04:28.998Z</time></trkpt><trkpt lat="45.61484794413613" lon="8.672856118303535"><ele>165.0</ele><time>2026-04-11T16:04:29.998Z</time></trkpt><trkpt lat="45.61473268513208" lon="8.672947068025715"><ele>165.0</ele><time>2026-04-11T16:04:30.998Z</time></trkpt><trkpt lat="45.614636493746495" lon="8.673022971711937"><ele>165.0</ele><time>2026-04-11T16:04:31.998Z</time></trkpt><trkpt lat="45.614562130729084" lon="8.673085743577102"><ele>165.0</ele><time>2026-04-11T16:04:32.998Z</time></trkpt><trkpt lat="45.6144941151059" lon="8.673144829695598"><ele>165.0</ele><time>2026-04-11T16:04:33.998Z</time></trkpt><trkpt lat="45.61439776496923" lon="8.673218033603717"><ele>165.0</ele><time>2026-04-11T16:04:35.998Z</time></trkpt><trkpt lat="45.614336038623456" lon="8.673282730456384"><ele>165.0</ele><time>2026-04-11T16:04:37.998Z</time></trkpt><trkpt lat="45.61426426100885" lon="8.673315306323095"><ele>165.0</ele><time>2026-04-11T16:04:40.998Z</time></trkpt><trkpt lat="45.61410474663724" lon="8.673331658939853"><ele>165.0</ele><time>2026-04-11T16:04:41.998Z</time></trkpt><trkpt lat="45.61408149291927" lon="8.673420944968653"><ele>165.0</ele><time>2026-04-11T16:04:44.998Z</time></trkpt><trkpt lat="45.614307649015416" lon="8.67337180926783"><ele>165.0</ele><time>2026-04-11T16:05:16Z</time></trkpt><trkpt lat="45.614367972502585" lon="8.673294052886593"><ele>165.0</ele><time>2026-04-11T16:05:18Z</time></trkpt><trkpt lat="45.614431153910566" lon="8.673425552247968"><ele>165.0</ele><time>2026-04-11T16:05:22Z</time></trkpt><trkpt lat="45.61447194380634" lon="8.67353984405003"><ele>165.0</ele><time>2026-04-11T16:05:23Z</time></trkpt><trkpt lat="45.61452559279295" lon="8.67366850831742"><ele>165.0</ele><time>2026-04-11T16:05:24Z</time></trkpt><trkpt lat="45.61458246953148" lon="8.673789828046054"><ele>165.0</ele><time>2026-04-11T16:05:25Z</time></trkpt><trkpt lat="45.61464079489981" lon="8.673900412123091"><ele>165.0</ele><time>2026-04-11T16:05:26Z</time></trkpt><trkpt lat="45.61468234519521" lon="8.673998924407107"><ele>164.8</ele><time>2026-04-11T16:05:27Z</time></trkpt><trkpt lat="45.614734524182964" lon="8.674130919930118"><ele>164.6</ele><time>2026-04-11T16:05:28.999Z</time></trkpt><trkpt lat="45.61478374856891" lon="8.674233194160644"><ele>164.39999999999998</ele><time>2026-04-11T16:05:30.999Z</time></trkpt><trkpt lat="45.61483511930984" lon="8.674356254176974"><ele>164.2</ele><time>2026-04-11T16:05:32.999Z</time></trkpt><trkpt lat="45.61488922720475" lon="8.674479230261992"><ele>164.0</ele><time>2026-04-11T16:05:34.999Z</time></trkpt><trkpt lat="45.614932222020315" lon="8.67457673283552"><ele>164.0</ele><time>2026-04-11T16:05:36.999Z</time></trkpt><trkpt lat="45.614870422277676" lon="8.674497834309559"><ele>164.0</ele><time>2026-04-11T16:06:04.999Z</time></trkpt><trkpt lat="45.61480543581223" lon="8.674336446948592"><ele>164.0</ele><time>2026-04-11T16:06:06.999Z</time></trkpt><trkpt lat="45.614737803716366" lon="8.67417843515417"><ele>164.0</ele><time>2026-04-11T16:06:07.999Z</time></trkpt><trkpt lat="45.61464996574904" lon="8.673967931597854"><ele>164.0</ele><time>2026-04-11T16:06:08.999Z</time></trkpt><trkpt lat="45.61457643010052" lon="8.673806505432356"><ele>164.0</ele><time>2026-04-11T16:06:09.999Z</time></trkpt><trkpt lat="45.61452701285578" lon="8.673668573535721"><ele>164.0</ele><time>2026-04-11T16:06:10.999Z</time></trkpt><trkpt lat="45.61448178278507" lon="8.673548491396746"><ele>164.0</ele><time>2026-04-11T16:06:11.999Z</time></trkpt><trkpt lat="45.61444004249284" lon="8.673450245919252"><ele>164.0</ele><time>2026-04-11T16:06:12.999Z</time></trkpt><trkpt lat="45.614388991739894" lon="8.673327520100067"><ele>164.33333333333331</ele><time>2026-04-11T16:06:14.999Z</time></trkpt><trkpt lat="45.61427906936065" lon="8.673251524938348"><ele>164.66666666666666</ele><time>2026-04-11T16:06:24.999Z</time></trkpt><trkpt lat="45.61407273009639" lon="8.673450464788475"><ele>165.0</ele><time>2026-04-11T16:06:26.999Z</time></trkpt><trkpt lat="45.6140472808252" lon="8.673558483557372"><ele>165.0</ele><time>2026-04-11T16:06:28.999Z</time></trkpt><trkpt lat="45.614016863819224" lon="8.673681659559355"><ele>165.0</ele><time>2026-04-11T16:06:31.999Z</time></trkpt><trkpt lat="45.613988058150326" lon="8.673802820840782"><ele>165.0</ele><time>2026-04-11T16:06:33.998Z</time></trkpt><trkpt lat="45.613961831996065" lon="8.67391313226798"><ele>165.0</ele><time>2026-04-11T16:06:35.998Z</time></trkpt><trkpt lat="45.613916960869666" lon="8.674101867508632"><ele>165.0</ele><time>2026-04-11T16:06:37.998Z</time></trkpt><trkpt lat="45.61389332201707" lon="8.674201296462346"><ele>165.0</ele><time>2026-04-11T16:06:38.998Z</time></trkpt><trkpt lat="45.61386813692753" lon="8.674310994236416"><ele>165.0</ele><time>2026-04-11T16:06:39.998Z</time></trkpt><trkpt lat="45.613848204706414" lon="8.674397625274874"><ele>165.0</ele><time>2026-04-11T16:06:40.998Z</time></trkpt><trkpt lat="45.6138249340913" lon="8.6744987659052"><ele>165.0</ele><time>2026-04-11T16:06:42.998Z</time></trkpt><trkpt lat="45.61380470583422" lon="8.67458659364091"><ele>165.0</ele><time>2026-04-11T16:06:44.998Z</time></trkpt><trkpt lat="45.61400586324036" lon="8.674423357438597"><ele>165.0</ele><time>2026-04-11T16:07:14Z</time></trkpt><trkpt lat="45.61403326288309" lon="8.674316408506215"><ele>165.0</ele><time>2026-04-11T16:07:15Z</time></trkpt><trkpt lat="45.61407793042322" lon="8.674138481188283"><ele>165.0</ele><time>2026-04-11T16:07:17Z</time></trkpt><trkpt lat="45.61410700020859" lon="8.674054039805235"><ele>165.0</ele><time>2026-04-11T16:07:18Z</time></trkpt><trkpt lat="45.61416780132941" lon="8.673919077147508"><ele>165.0</ele><time>2026-04-11T16:07:20Z</time></trkpt><trkpt lat="45.614179785373516" lon="8.67377655024495"><ele>165.0</ele><time>2026-04-11T16:07:22Z</time></trkpt><trkpt lat="45.61420790621547" lon="8.673649346590993"><ele>165.0</ele><time>2026-04-11T16:07:24Z</time></trkpt><trkpt lat="45.61424610073254" lon="8.673510151580697"><ele>165.0</ele><time>2026-04-11T16:07:26Z</time></trkpt><trkpt lat="45.614280376196255" lon="8.673421774295473"><ele>165.0</ele><time>2026-04-11T16:07:27Z</time></trkpt><trkpt lat="45.61431277234054" lon="8.673335915715032"><ele>165.0</ele><time>2026-04-11T16:07:28Z</time></trkpt><trkpt lat="45.61432618373536" lon="8.673237870665638"><ele>165.0</ele><time>2026-04-11T16:07:30Z</time></trkpt><trkpt lat="45.614264336575424" lon="8.673079096351836"><ele>165.0</ele><time>2026-04-11T16:07:32Z</time></trkpt><trkpt lat="45.61420726635386" lon="8.673033715176356"><ele>165.0</ele><time>2026-04-11T16:07:33Z</time></trkpt><trkpt lat="45.61413700298953" lon="8.673056681184377"><ele>165.0</ele><time>2026-04-11T16:07:35Z</time></trkpt><trkpt lat="45.614122381801884" lon="8.673243942129377"><ele>165.0</ele><time>2026-04-11T16:07:36Z</time></trkpt><trkpt lat="45.6140939105481" lon="8.673387163524842"><ele>165.0</ele><time>2026-04-11T16:07:37Z</time></trkpt><trkpt lat="45.61406186094854" lon="8.673532163738503"><ele>165.0</ele><time>2026-04-11T16:07:38Z</time></trkpt><trkpt lat="45.61402262075278" lon="8.673715514149043"><ele>165.0</ele><time>2026-04-11T16:07:39Z</time></trkpt><trkpt lat="45.61397782877038" lon="8.673891816419006"><ele>165.0</ele><time>2026-04-11T16:07:40Z</time></trkpt><trkpt lat="45.613921597970226" lon="8.674103281407842"><ele>165.0</ele><time>2026-04-11T16:07:41Z</time></trkpt><trkpt lat="45.61387464877362" lon="8.674294199248997"><ele>164.25</ele><time>2026-04-11T16:07:42Z</time></trkpt><trkpt lat="45.61383086687809" lon="8.674477834861245"><ele>163.5</ele><time>2026-04-11T16:07:43Z</time></trkpt><trkpt lat="45.61378106219895" lon="8.6746737993848"><ele>162.75</ele><time>2026-04-11T16:07:44Z</time></trkpt><trkpt lat="45.61374100829771" lon="8.674852190494281"><ele>162.0</ele><time>2026-04-11T16:07:45Z</time></trkpt><trkpt lat="45.6137005295201" lon="8.675019093991608"><ele>162.0</ele><time>2026-04-11T16:07:46Z</time></trkpt><trkpt lat="45.61366834876662" lon="8.67516160289975"><ele>162.0</ele><time>2026-04-11T16:07:47Z</time></trkpt><trkpt lat="45.61363460231853" lon="8.675297633813214"><ele>162.0</ele><time>2026-04-11T16:07:48Z</time></trkpt><trkpt lat="45.61360535979514" lon="8.675434180747539"><ele>162.0</ele><time>2026-04-11T16:07:49Z</time></trkpt><trkpt lat="45.61358499182732" lon="8.675564920487874"><ele>162.0</ele><time>2026-04-11T16:07:50Z</time></trkpt><trkpt lat="45.61357352269852" lon="8.67569453055827"><ele>162.0</ele><time>2026-04-11T16:07:51Z</time></trkpt><trkpt lat="45.61357391083923" lon="8.675812184223183"><ele>162.0</ele><time>2026-04-11T16:07:52Z</time></trkpt><trkpt lat="45.61355461422557" lon="8.675989594610943"><ele>162.0</ele><time>2026-04-11T16:07:54Z</time></trkpt><trkpt lat="45.61347029422051" lon="8.676004012324906"><ele>162.0</ele><time>2026-04-11T16:07:57Z</time></trkpt><trkpt lat="45.61333621566886" lon="8.676076941376826"><ele>162.0</ele><time>2026-04-11T16:07:59Z</time></trkpt><trkpt lat="45.61323600586318" lon="8.676109878664635"><ele>162.0</ele><time>2026-04-11T16:08:00Z</time></trkpt><trkpt lat="45.613122946904646" lon="8.676135843174047"><ele>162.0</ele><time>2026-04-11T16:08:01Z</time></trkpt><trkpt lat="45.61299210685788" lon="8.67618658165209"><ele>162.0</ele><time>2026-04-11T16:08:02Z</time></trkpt><trkpt lat="45.61289346167066" lon="8.676223163265595"><ele>162.0</ele><time>2026-04-11T16:08:03Z</time></trkpt><trkpt lat="45.61279772734674" lon="8.676253401501128"><ele>161.83333333333334</ele><time>2026-04-11T16:08:04Z</time></trkpt><trkpt lat="45.61270763546662" lon="8.676286392605615"><ele>161.66666666666666</ele><time>2026-04-11T16:08:05Z</time></trkpt><trkpt lat="45.61261069215911" lon="8.67632136397338"><ele>161.5</ele><time>2026-04-11T16:08:05.999Z</time></trkpt><trkpt lat="45.61252940679479" lon="8.676350263202005"><ele>161.33333333333331</ele><time>2026-04-11T16:08:06.999Z</time></trkpt><trkpt lat="45.6124511821939" lon="8.676371358402266"><ele>161.16666666666666</ele><time>2026-04-11T16:08:07.999Z</time></trkpt><trkpt lat="45.61238482660588" lon="8.676396580492483"><ele>161.0</ele><time>2026-04-11T16:08:08.998Z</time></trkpt><trkpt lat="45.61231062864957" lon="8.676416452521746"><ele>161.0</ele><time>2026-04-11T16:08:09.998Z</time></trkpt><trkpt lat="45.61224229534468" lon="8.676443551159657"><ele>161.0</ele><time>2026-04-11T16:08:10.998Z</time></trkpt><trkpt lat="45.61216982861647" lon="8.676468247661075"><ele>161.0</ele><time>2026-04-11T16:08:11.998Z</time></trkpt><trkpt lat="45.61210849857349" lon="8.676495314857535"><ele>161.0</ele><time>2026-04-11T16:08:12.998Z</time></trkpt><trkpt lat="45.61203775184775" lon="8.676525025952813"><ele>161.0</ele><time>2026-04-11T16:08:13.998Z</time></trkpt><trkpt lat="45.61196394359635" lon="8.676554785789895"><ele>161.0</ele><time>2026-04-11T16:08:14.998Z</time></trkpt><trkpt lat="45.61189710605797" lon="8.676553558582757"><ele>161.0</ele><time>2026-04-11T16:08:15.998Z</time></trkpt><trkpt lat="45.611834547172236" lon="8.676575108694635"><ele>160.8</ele><time>2026-04-11T16:08:16.998Z</time></trkpt><trkpt lat="45.6117226694481" lon="8.676613647958735"><ele>160.60000000000002</ele><time>2026-04-11T16:08:18.998Z</time></trkpt><trkpt lat="45.61164488968853" lon="8.676663044743517"><ele>160.4</ele><time>2026-04-11T16:08:20.998Z</time></trkpt><trkpt lat="45.6115089221502" lon="8.676686017099337"><ele>160.2</ele><time>2026-04-11T16:08:22.998Z</time></trkpt><trkpt lat="45.611400258734484" lon="8.676721146948761"><ele>160.0</ele><time>2026-04-11T16:08:23.998Z</time></trkpt><trkpt lat="45.611288029404605" lon="8.676760984857033"><ele>160.0</ele><time>2026-04-11T16:08:24.998Z</time></trkpt><trkpt lat="45.61119382282911" lon="8.676797924713734"><ele>160.0</ele><time>2026-04-11T16:08:25.998Z</time></trkpt><trkpt lat="45.61111942584686" lon="8.676850487092365"><ele>160.0</ele><time>2026-04-11T16:08:26.998Z</time></trkpt><trkpt lat="45.611036979931974" lon="8.67688387399761"><ele>160.0</ele><time>2026-04-11T16:08:27.998Z</time></trkpt><trkpt lat="45.61093438508228" lon="8.67691713587062"><ele>160.0</ele><time>2026-04-11T16:08:28.998Z</time></trkpt><trkpt lat="45.610854279071994" lon="8.676919753835675"><ele>160.0</ele><time>2026-04-11T16:08:29.998Z</time></trkpt><trkpt lat="45.61077489046184" lon="8.67694104486004"><ele>160.0</ele><time>2026-04-11T16:08:30.998Z</time></trkpt><trkpt lat="45.610667695623604" lon="8.67696411291213"><ele>160.0</ele><time>2026-04-11T16:08:31.998Z</time></trkpt><trkpt lat="45.61056429526775" lon="8.676981902718065"><ele>160.0</ele><time>2026-04-11T16:08:32.998Z</time></trkpt><trkpt lat="45.61045548661679" lon="8.677001341176362"><ele>160.0</ele><time>2026-04-11T16:08:33.998Z</time></trkpt><trkpt lat="45.61036402553378" lon="8.677020687329053"><ele>161.0</ele><time>2026-04-11T16:08:34.998Z</time></trkpt><trkpt lat="45.610283405243955" lon="8.677038602873871"><ele>162.0</ele><time>2026-04-11T16:08:35.998Z</time></trkpt><trkpt lat="45.61017492239397" lon="8.677063028252405"><ele>163.0</ele><time>2026-04-11T16:08:37.998Z</time></trkpt><trkpt lat="45.61009900399548" lon="8.677097388485942"><ele>164.0</ele><time>2026-04-11T16:08:40.998Z</time></trkpt><trkpt lat="45.60998695203099" lon="8.677132521700479"><ele>165.0</ele><time>2026-04-11T16:09:58.999Z</time></trkpt><trkpt lat="45.60991225438002" lon="8.67715221631619"><ele>165.0</ele><time>2026-04-11T16:09:59.999Z</time></trkpt><trkpt lat="45.60981474682833" lon="8.67714570571744"><ele>165.0</ele><time>2026-04-11T16:10:00.999Z</time></trkpt><trkpt lat="45.60971540217881" lon="8.6771686207011"><ele>165.0</ele><time>2026-04-11T16:10:01.999Z</time></trkpt><trkpt lat="45.60961966092123" lon="8.677190491204804"><ele>165.0</ele><time>2026-04-11T16:10:02.999Z</time></trkpt><trkpt lat="45.609537907672674" lon="8.677209166340724"><ele>165.0</ele><time>2026-04-11T16:10:03.999Z</time></trkpt><trkpt lat="45.60946056440072" lon="8.677226834125745"><ele>165.75</ele><time>2026-04-11T16:10:04.999Z</time></trkpt><trkpt lat="45.60933527145365" lon="8.677255455202303"><ele>166.5</ele><time>2026-04-11T16:10:06.999Z</time></trkpt><trkpt lat="45.609205520239854" lon="8.677284980376541"><ele>167.25</ele><time>2026-04-11T16:10:08.999Z</time></trkpt><trkpt lat="45.60909004566509" lon="8.67731084046057"><ele>168.0</ele><time>2026-04-11T16:10:10.999Z</time></trkpt><trkpt lat="45.6090160010222" lon="8.677327422451167"><ele>168.0</ele><time>2026-04-11T16:10:11.999Z</time></trkpt><trkpt lat="45.608926005173444" lon="8.677345170400386"><ele>168.0</ele><time>2026-04-11T16:10:12.999Z</time></trkpt><trkpt lat="45.60883941246278" lon="8.677383707257842"><ele>168.0</ele><time>2026-04-11T16:10:13.999Z</time></trkpt><trkpt lat="45.60874268307422" lon="8.677398732617181"><ele>168.0</ele><time>2026-04-11T16:10:14.999Z</time></trkpt><trkpt lat="45.60865719746877" lon="8.677414966137151"><ele>168.0</ele><time>2026-04-11T16:10:15.999Z</time></trkpt><trkpt lat="45.60857946804527" lon="8.677428799362962"><ele>168.0</ele><time>2026-04-11T16:10:16.999Z</time></trkpt><trkpt lat="45.608484080403244" lon="8.677447621113245"><ele>168.4</ele><time>2026-04-11T16:10:17.999Z</time></trkpt><trkpt lat="45.60837861723553" lon="8.677475037606001"><ele>168.8</ele><time>2026-04-11T16:10:18.999Z</time></trkpt><trkpt lat="45.608277697435966" lon="8.677482218393527"><ele>169.2</ele><time>2026-04-11T16:10:19.999Z</time></trkpt><trkpt lat="45.60818566342641" lon="8.677501329324361"><ele>169.6</ele><time>2026-04-11T16:10:20.999Z</time></trkpt><trkpt lat="45.60808969970665" lon="8.677545279474806"><ele>170.0</ele><time>2026-04-11T16:10:21.999Z</time></trkpt><trkpt lat="45.60801115446057" lon="8.67756329355983"><ele>170.0</ele><time>2026-04-11T16:10:22.999Z</time></trkpt><trkpt lat="45.60794381588584" lon="8.677571075580941"><ele>170.0</ele><time>2026-04-11T16:10:23.999Z</time></trkpt><trkpt lat="45.60793535295826" lon="8.677797438827033"><ele>170.0</ele><time>2026-04-11T16:10:26.999Z</time></trkpt><trkpt lat="45.607931617042986" lon="8.677922617581475"><ele>170.0</ele><time>2026-04-11T16:10:27.999Z</time></trkpt><trkpt lat="45.607940766961086" lon="8.678048155140564"><ele>170.0</ele><time>2026-04-11T16:10:28.999Z</time></trkpt><trkpt lat="45.60794854516206" lon="8.678185206008695"><ele>168.5</ele><time>2026-04-11T16:10:29.999Z</time></trkpt><trkpt lat="45.60795510668807" lon="8.678339710970178"><ele>167.0</ele><time>2026-04-11T16:10:30.999Z</time></trkpt><trkpt lat="45.607962554319585" lon="8.678512972452381"><ele>165.5</ele><time>2026-04-11T16:10:31.999Z</time></trkpt><trkpt lat="45.60797433628123" lon="8.67867225543305"><ele>164.0</ele><time>2026-04-11T16:10:32.999Z</time></trkpt><trkpt lat="45.607981886122296" lon="8.678850206432623"><ele>164.0</ele><time>2026-04-11T16:10:33.999Z</time></trkpt><trkpt lat="45.607987537425785" lon="8.679006712839973"><ele>164.0</ele><time>2026-04-11T16:10:34.999Z</time></trkpt><trkpt lat="45.60799277726946" lon="8.679132715121911"><ele>164.0</ele><time>2026-04-11T16:10:35.999Z</time></trkpt><trkpt lat="45.60801307808804" lon="8.679286557392844"><ele>164.0</ele><time>2026-04-11T16:10:36.999Z</time></trkpt><trkpt lat="45.60805585256145" lon="8.679441819952899"><ele>164.0</ele><time>2026-04-11T16:10:37.999Z</time></trkpt><trkpt lat="45.60808940010556" lon="8.679594789627462"><ele>163.5</ele><time>2026-04-11T16:10:38.999Z</time></trkpt><trkpt lat="45.608122868792655" lon="8.679718678609646"><ele>163.0</ele><time>2026-04-11T16:10:39.999Z</time></trkpt><trkpt lat="45.60815066277606" lon="8.679823317979979"><ele>162.5</ele><time>2026-04-11T16:10:40.999Z</time></trkpt><trkpt lat="45.60817437720828" lon="8.679925414276807"><ele>162.0</ele><time>2026-04-11T16:10:41.999Z</time></trkpt><trkpt lat="45.608192439849766" lon="8.680018045046253"><ele>161.5</ele><time>2026-04-11T16:10:42.999Z</time></trkpt><trkpt lat="45.60813233210822" lon="8.68011257055147"><ele>161.0</ele><time>2026-04-11T16:10:44.998Z</time></trkpt><trkpt lat="45.60806838191774" lon="8.680094450170163"><ele>161.0</ele><time>2026-04-11T16:10:45.998Z</time></trkpt><trkpt lat="45.60799759197387" lon="8.680122685398366"><ele>161.0</ele><time>2026-04-11T16:10:46.998Z</time></trkpt><trkpt lat="45.60789303993669" lon="8.68016836693976"><ele>161.0</ele><time>2026-04-11T16:10:47.998Z</time></trkpt><trkpt lat="45.60778170325377" lon="8.680203574249614"><ele>161.0</ele><time>2026-04-11T16:10:48.998Z</time></trkpt><trkpt lat="45.607671059275944" lon="8.680250828501306"><ele>161.0</ele><time>2026-04-11T16:10:49.998Z</time></trkpt><trkpt lat="45.60755773385702" lon="8.680300197939399"><ele>160.5</ele><time>2026-04-11T16:10:50.998Z</time></trkpt><trkpt lat="45.60743393543737" lon="8.680353124176204"><ele>160.0</ele><time>2026-04-11T16:10:51.998Z</time></trkpt><trkpt lat="45.60730190921626" lon="8.680407479324769"><ele>159.5</ele><time>2026-04-11T16:10:52.998Z</time></trkpt><trkpt lat="45.60714853603837" lon="8.68044805336969"><ele>159.0</ele><time>2026-04-11T16:10:53.998Z</time></trkpt><trkpt lat="45.60699610544776" lon="8.680512386142738"><ele>159.66666666666666</ele><time>2026-04-11T16:10:54.998Z</time></trkpt><trkpt lat="45.60683397915332" lon="8.680582748037878"><ele>160.33333333333331</ele><time>2026-04-11T16:10:55.998Z</time></trkpt><trkpt lat="45.60666592600638" lon="8.680655613212247"><ele>161.0</ele><time>2026-04-11T16:10:56.998Z</time></trkpt><trkpt lat="45.60651607821322" lon="8.68073890847764"><ele>161.0</ele><time>2026-04-11T16:10:57.998Z</time></trkpt><trkpt lat="45.606370064777536" lon="8.680796938871408"><ele>161.0</ele><time>2026-04-11T16:10:58.998Z</time></trkpt><trkpt lat="45.6062212812216" lon="8.680850379423681"><ele>161.0</ele><time>2026-04-11T16:10:59.998Z</time></trkpt><trkpt lat="45.606085477270085" lon="8.680889895986068"><ele>161.0</ele><time>2026-04-11T16:11:00.998Z</time></trkpt><trkpt lat="45.60595683696237" lon="8.680929787052658"><ele>160.8</ele><time>2026-04-11T16:11:01.998Z</time></trkpt><trkpt lat="45.605834593821406" lon="8.680957421886644"><ele>160.60000000000002</ele><time>2026-04-11T16:11:02.998Z</time></trkpt><trkpt lat="45.60572811210588" lon="8.680978591726333"><ele>160.4</ele><time>2026-04-11T16:11:03.998Z</time></trkpt><trkpt lat="45.605633911871365" lon="8.681009212507824"><ele>160.2</ele><time>2026-04-11T16:11:04.998Z</time></trkpt><trkpt lat="45.60554741693863" lon="8.681051775482006"><ele>160.0</ele><time>2026-04-11T16:11:05.998Z</time></trkpt><trkpt lat="45.60547825196902" lon="8.681120521705033"><ele>159.66666666666669</ele><time>2026-04-11T16:11:06.998Z</time></trkpt><trkpt lat="45.60542099871438" lon="8.681181197317251"><ele>159.33333333333334</ele><time>2026-04-11T16:11:07.998Z</time></trkpt><trkpt lat="45.60535577551965" lon="8.681177814760275"><ele>159.0</ele><time>2026-04-11T16:11:08.998Z</time></trkpt><trkpt lat="45.60528702027072" lon="8.681202747278148"><ele>158.66666666666666</ele><time>2026-04-11T16:11:09.998Z</time></trkpt><trkpt lat="45.60518821503181" lon="8.681209778380037"><ele>158.33333333333331</ele><time>2026-04-11T16:11:10.998Z</time></trkpt><trkpt lat="45.60507353437854" lon="8.681227488508432"><ele>158.0</ele><time>2026-04-11T16:11:11.998Z</time></trkpt><trkpt lat="45.604944293198635" lon="8.681256387557998"><ele>158.0</ele><time>2026-04-11T16:11:12.998Z</time></trkpt><trkpt lat="45.60481200889138" lon="8.681296765161983"><ele>158.0</ele><time>2026-04-11T16:11:13.998Z</time></trkpt><trkpt lat="45.604671510348496" lon="8.681339778272653"><ele>158.0</ele><time>2026-04-11T16:11:14.998Z</time></trkpt><trkpt lat="45.604524476954495" lon="8.6813826691971"><ele>158.0</ele><time>2026-04-11T16:11:15.998Z</time></trkpt><trkpt lat="45.604367402035905" lon="8.681446605303723"><ele>159.0</ele><time>2026-04-11T16:11:16.998Z</time></trkpt><trkpt lat="45.604214556018164" lon="8.681511598226486"><ele>160.0</ele><time>2026-04-11T16:11:17.998Z</time></trkpt><trkpt lat="45.60406105674451" lon="8.681576183209721"><ele>161.0</ele><time>2026-04-11T16:11:19Z</time></trkpt><trkpt lat="45.60390676626667" lon="8.681638853132998"><ele>161.0</ele><time>2026-04-11T16:11:20Z</time></trkpt><trkpt lat="45.603758431626936" lon="8.681705894870914"><ele>161.0</ele><time>2026-04-11T16:11:21Z</time></trkpt><trkpt lat="45.60361290749774" lon="8.681776025051112"><ele>161.0</ele><time>2026-04-11T16:11:22Z</time></trkpt><trkpt lat="45.60346922755314" lon="8.681855947261273"><ele>161.0</ele><time>2026-04-11T16:11:23Z</time></trkpt><trkpt lat="45.60332908638218" lon="8.681929830159865"><ele>161.0</ele><time>2026-04-11T16:11:24Z</time></trkpt><trkpt lat="45.60318876602227" lon="8.682011213365158"><ele>161.0</ele><time>2026-04-11T16:11:25Z</time></trkpt><trkpt lat="45.60305828037626" lon="8.682102317474392"><ele>161.0</ele><time>2026-04-11T16:11:26Z</time></trkpt><trkpt lat="45.60292094434896" lon="8.682192496466344"><ele>160.8</ele><time>2026-04-11T16:11:27Z</time></trkpt><trkpt lat="45.60279851451651" lon="8.682291835523307"><ele>160.60000000000002</ele><time>2026-04-11T16:11:28Z</time></trkpt><trkpt lat="45.602696476657755" lon="8.682373084424434"><ele>160.4</ele><time>2026-04-11T16:11:29Z</time></trkpt><trkpt lat="45.602614928264586" lon="8.682428253173562"><ele>160.2</ele><time>2026-04-11T16:11:30Z</time></trkpt><trkpt lat="45.60253862041717" lon="8.682461400386659"><ele>160.0</ele><time>2026-04-11T16:11:31Z</time></trkpt><trkpt lat="45.60245454478943" lon="8.682460278621965"><ele>160.0</ele><time>2026-04-11T16:11:32Z</time></trkpt><trkpt lat="45.60238950440538" lon="8.682422647209545"><ele>160.0</ele><time>2026-04-11T16:11:33Z</time></trkpt><trkpt lat="45.602303406976155" lon="8.682382421722494"><ele>160.0</ele><time>2026-04-11T16:11:34Z</time></trkpt><trkpt lat="45.60221722926367" lon="8.68237853024887"><ele>160.0</ele><time>2026-04-11T16:11:35Z</time></trkpt><trkpt lat="45.602125383777555" lon="8.682422096674388"><ele>160.0</ele><time>2026-04-11T16:11:36Z</time></trkpt><trkpt lat="45.60204152636833" lon="8.682498879415542"><ele>160.0</ele><time>2026-04-11T16:11:37Z</time></trkpt><trkpt lat="45.60197258566359" lon="8.68259668230539"><ele>159.6</ele><time>2026-04-11T16:11:38Z</time></trkpt><trkpt lat="45.60192191982108" lon="8.682735910115106"><ele>159.2</ele><time>2026-04-11T16:11:39Z</time></trkpt><trkpt lat="45.60185734101613" lon="8.682895743535456"><ele>158.8</ele><time>2026-04-11T16:11:40Z</time></trkpt><trkpt lat="45.60180155200281" lon="8.68301328459595"><ele>158.4</ele><time>2026-04-11T16:11:41Z</time></trkpt><trkpt lat="45.601743258677345" lon="8.683104626671904"><ele>158.0</ele><time>2026-04-11T16:11:42Z</time></trkpt><trkpt lat="45.60167389816818" lon="8.68317591187006"><ele>158.0</ele><time>2026-04-11T16:11:43Z</time></trkpt><trkpt lat="45.60159876808143" lon="8.683227665270678"><ele>158.0</ele><time>2026-04-11T16:11:44Z</time></trkpt><trkpt lat="45.60149899493925" lon="8.683282325825605"><ele>158.0</ele><time>2026-04-11T16:11:45Z</time></trkpt><trkpt lat="45.601384401016084" lon="8.683349644969196"><ele>158.0</ele><time>2026-04-11T16:11:46Z</time></trkpt><trkpt lat="45.60126936540022" lon="8.683422978311052"><ele>158.0</ele><time>2026-04-11T16:11:47Z</time></trkpt><trkpt lat="45.60114235894275" lon="8.683511552322882"><ele>156.75</ele><time>2026-04-11T16:11:48Z</time></trkpt><trkpt lat="45.60101915722444" lon="8.683600542471448"><ele>155.5</ele><time>2026-04-11T16:11:49Z</time></trkpt><trkpt lat="45.60088147737618" lon="8.683688848349217"><ele>154.25</ele><time>2026-04-11T16:11:50Z</time></trkpt><trkpt lat="45.60073548317571" lon="8.683771222578171"><ele>153.0</ele><time>2026-04-11T16:11:51Z</time></trkpt><trkpt lat="45.60055089013207" lon="8.683864231578688"><ele>153.0</ele><time>2026-04-11T16:11:52Z</time></trkpt><trkpt lat="45.60037246998883" lon="8.683956718883463"><ele>153.0</ele><time>2026-04-11T16:11:53Z</time></trkpt><trkpt lat="45.60020644989219" lon="8.684048169453057"><ele>153.0</ele><time>2026-04-11T16:11:54Z</time></trkpt><trkpt lat="45.60003744882057" lon="8.684145226372147"><ele>154.66666666666666</ele><time>2026-04-11T16:11:55Z</time></trkpt><trkpt lat="45.59988309436924" lon="8.68422368996363"><ele>156.33333333333331</ele><time>2026-04-11T16:11:56Z</time></trkpt><trkpt lat="45.599708869567564" lon="8.68431574793918"><ele>158.0</ele><time>2026-04-11T16:11:57Z</time></trkpt><trkpt lat="45.59955440132529" lon="8.684393071078276"><ele>157.5</ele><time>2026-04-11T16:11:58Z</time></trkpt><trkpt lat="45.599417160067006" lon="8.68446529895494"><ele>157.0</ele><time>2026-04-11T16:11:59Z</time></trkpt><trkpt lat="45.5992957354531" lon="8.684537159344995"><ele>156.5</ele><time>2026-04-11T16:12:00Z</time></trkpt><trkpt lat="45.59918109760453" lon="8.684600143454217"><ele>156.0</ele><time>2026-04-11T16:12:01Z</time></trkpt><trkpt lat="45.59907533157585" lon="8.684662301944895"><ele>156.0</ele><time>2026-04-11T16:12:01.999Z</time></trkpt><trkpt lat="45.59899921971931" lon="8.684707848306562"><ele>156.0</ele><time>2026-04-11T16:12:02.999Z</time></trkpt><trkpt lat="45.59890085875533" lon="8.68473144706749"><ele>156.0</ele><time>2026-04-11T16:12:04.999Z</time></trkpt><trkpt lat="45.59884349408183" lon="8.684632116436608"><ele>156.0</ele><time>2026-04-11T16:12:06.999Z</time></trkpt><trkpt lat="45.59887016805216" lon="8.684470636608483"><ele>156.0</ele><time>2026-04-11T16:12:08.999Z</time></trkpt><trkpt lat="45.59885646647749" lon="8.684306396775863"><ele>156.0</ele><time>2026-04-11T16:12:09.999Z</time></trkpt><trkpt lat="45.59884144720227" lon="8.684153796022652"><ele>156.0</ele><time>2026-04-11T16:12:10.999Z</time></trkpt><trkpt lat="45.59881397885556" lon="8.684025951839704"><ele>156.0</ele><time>2026-04-11T16:12:11.999Z</time></trkpt><trkpt lat="45.59878027976147" lon="8.683933249615725"><ele>156.0</ele><time>2026-04-11T16:12:12.999Z</time></trkpt><trkpt lat="45.598714631740236" lon="8.68386518430915"><ele>156.0</ele><time>2026-04-11T16:12:13.999Z</time></trkpt><trkpt lat="45.598645714517545" lon="8.68380358154598"><ele>156.0</ele><time>2026-04-11T16:12:14.999Z</time></trkpt><trkpt lat="45.59856700634717" lon="8.683771626158059"><ele>156.0</ele><time>2026-04-11T16:12:15.999Z</time></trkpt><trkpt lat="45.598449029545435" lon="8.683724349940027"><ele>156.0</ele><time>2026-04-11T16:12:16.999Z</time></trkpt><trkpt lat="45.59833059475223" lon="8.683682833805483"><ele>156.0</ele><time>2026-04-11T16:12:17.999Z</time></trkpt><trkpt lat="45.59819285381851" lon="8.683601440544242"><ele>156.0</ele><time>2026-04-11T16:12:18.999Z</time></trkpt><trkpt lat="45.5980505986724" lon="8.683560765498191"><ele>156.0</ele><time>2026-04-11T16:12:19.999Z</time></trkpt><trkpt lat="45.59790484672342" lon="8.683497574566593"><ele>156.0</ele><time>2026-04-11T16:12:20.999Z</time></trkpt><trkpt lat="45.59776886123225" lon="8.683442501895588"><ele>156.0</ele><time>2026-04-11T16:12:21.999Z</time></trkpt><trkpt lat="45.5976575228428" lon="8.68339015367061"><ele>156.0</ele><time>2026-04-11T16:12:22.999Z</time></trkpt><trkpt lat="45.59755674851776" lon="8.68334587505504"><ele>156.5</ele><time>2026-04-11T16:12:23.999Z</time></trkpt><trkpt lat="45.5974673615051" lon="8.683313934173157"><ele>157.0</ele><time>2026-04-11T16:12:24.999Z</time></trkpt><trkpt lat="45.59738524550049" lon="8.683286024270915"><ele>157.5</ele><time>2026-04-11T16:12:25.999Z</time></trkpt><trkpt lat="45.59731560708043" lon="8.683258416541733"><ele>158.0</ele><time>2026-04-11T16:12:26.999Z</time></trkpt><trkpt lat="45.597248352046684" lon="8.683240405662861"><ele>158.5</ele><time>2026-04-11T16:12:27.999Z</time></trkpt><trkpt lat="45.59716530149277" lon="8.683244159608583"><ele>159.0</ele><time>2026-04-11T16:12:29.999Z</time></trkpt><trkpt lat="45.59710314878602" lon="8.683224253658645"><ele>159.0</ele><time>2026-04-11T16:12:32.999Z</time></trkpt><trkpt lat="45.59705565772782" lon="8.683382856495696"><ele>159.0</ele><time>2026-04-11T16:12:33.999Z</time></trkpt><trkpt lat="45.59701119126628" lon="8.683496202987143"><ele>159.0</ele><time>2026-04-11T16:12:34.999Z</time></trkpt><trkpt lat="45.59696076216727" lon="8.683605824983172"><ele>159.0</ele><time>2026-04-11T16:12:35.999Z</time></trkpt><trkpt lat="45.59691080948425" lon="8.683708610519888"><ele>159.0</ele><time>2026-04-11T16:12:36.999Z</time></trkpt><trkpt lat="45.5968662418287" lon="8.683795756658316"><ele>158.0</ele><time>2026-04-11T16:12:37.999Z</time></trkpt><trkpt lat="45.596823527964645" lon="8.683892929972197"><ele>157.0</ele><time>2026-04-11T16:12:38.999Z</time></trkpt><trkpt lat="45.59677077769426" lon="8.684011189101708"><ele>156.0</ele><time>2026-04-11T16:12:39.999Z</time></trkpt><trkpt lat="45.59670520285701" lon="8.684144615209748"><ele>155.0</ele><time>2026-04-11T16:12:40.999Z</time></trkpt><trkpt lat="45.596633851539075" lon="8.684287818797724"><ele>154.0</ele><time>2026-04-11T16:12:41.999Z</time></trkpt><trkpt lat="45.59656182484111" lon="8.684438984667086"><ele>154.0</ele><time>2026-04-11T16:12:42.999Z</time></trkpt><trkpt lat="45.59649036651997" lon="8.684587335958062"><ele>154.0</ele><time>2026-04-11T16:12:43.999Z</time></trkpt><trkpt lat="45.59641612535729" lon="8.684735377914437"><ele>154.0</ele><time>2026-04-11T16:12:44.999Z</time></trkpt><trkpt lat="45.59633877495714" lon="8.684883733200296"><ele>154.0</ele><time>2026-04-11T16:12:45.999Z</time></trkpt><trkpt lat="45.596264799734215" lon="8.685025840020279"><ele>154.0</ele><time>2026-04-11T16:12:46.999Z</time></trkpt><trkpt lat="45.59619786044969" lon="8.685156797757212"><ele>154.0</ele><time>2026-04-11T16:12:47.999Z</time></trkpt><trkpt lat="45.59612156433473" lon="8.685294771227056"><ele>154.0</ele><time>2026-04-11T16:12:48.999Z</time></trkpt><trkpt lat="45.596034083389156" lon="8.685425814210344"><ele>154.0</ele><time>2026-04-11T16:12:49.999Z</time></trkpt><trkpt lat="45.5959394903009" lon="8.68555554491022"><ele>154.5</ele><time>2026-04-11T16:12:50.999Z</time></trkpt><trkpt lat="45.5958429604194" lon="8.685686977868565"><ele>155.0</ele><time>2026-04-11T16:12:51.999Z</time></trkpt><trkpt lat="45.595750965860454" lon="8.685818186335132"><ele>155.5</ele><time>2026-04-11T16:12:52.999Z</time></trkpt><trkpt lat="45.59566116153444" lon="8.685943078126424"><ele>156.0</ele><time>2026-04-11T16:12:53.999Z</time></trkpt><trkpt lat="45.5955665799794" lon="8.686069125196594"><ele>156.0</ele><time>2026-04-11T16:12:54.999Z</time></trkpt><trkpt lat="45.595471385264155" lon="8.68619955610047"><ele>156.0</ele><time>2026-04-11T16:12:55.999Z</time></trkpt><trkpt lat="45.59537858421586" lon="8.686339407883565"><ele>156.0</ele><time>2026-04-11T16:12:56.999Z</time></trkpt><trkpt lat="45.59528473091634" lon="8.686481824741369"><ele>156.0</ele><time>2026-04-11T16:12:57.999Z</time></trkpt><trkpt lat="45.59518910451273" lon="8.686619509250196"><ele>156.25</ele><time>2026-04-11T16:12:58.999Z</time></trkpt><trkpt lat="45.59509425416371" lon="8.686754154823339"><ele>156.5</ele><time>2026-04-11T16:12:59.999Z</time></trkpt><trkpt lat="45.59500744933512" lon="8.686879151893796"><ele>156.75</ele><time>2026-04-11T16:13:00.999Z</time></trkpt><trkpt lat="45.59492424355517" lon="8.6870009517741"><ele>157.0</ele><time>2026-04-11T16:13:01.999Z</time></trkpt><trkpt lat="45.59485305625412" lon="8.687132649378633"><ele>156.6</ele><time>2026-04-11T16:13:02.998Z</time></trkpt><trkpt lat="45.59480280536832" lon="8.687273624574024"><ele>156.2</ele><time>2026-04-11T16:13:03.998Z</time></trkpt><trkpt lat="45.59476289108834" lon="8.687406963827122"><ele>155.8</ele><time>2026-04-11T16:13:04.998Z</time></trkpt><trkpt lat="45.594716963569354" lon="8.687543544621242"><ele>155.4</ele><time>2026-04-11T16:13:05.998Z</time></trkpt><trkpt lat="45.594668389065816" lon="8.68769208561405"><ele>155.0</ele><time>2026-04-11T16:13:06.998Z</time></trkpt><trkpt lat="45.59461028553204" lon="8.687846439320827"><ele>155.0</ele><time>2026-04-11T16:13:07.998Z</time></trkpt><trkpt lat="45.59454176695593" lon="8.687990998149777"><ele>155.0</ele><time>2026-04-11T16:13:08.998Z</time></trkpt><trkpt lat="45.59447133088232" lon="8.688112057379161"><ele>155.0</ele><time>2026-04-11T16:13:09.998Z</time></trkpt><trkpt lat="45.59440959094435" lon="8.688202383438993"><ele>155.0</ele><time>2026-04-11T16:13:10.998Z</time></trkpt><trkpt lat="45.59434803627127" lon="8.688258979543829"><ele>155.0</ele><time>2026-04-11T16:13:11.998Z</time></trkpt><trkpt lat="45.594274924469346" lon="8.688291393860311"><ele>155.0</ele><time>2026-04-11T16:13:13.998Z</time></trkpt><trkpt lat="45.5942619924902" lon="8.688112728133948"><ele>155.0</ele><time>2026-04-11T16:13:15.998Z</time></trkpt><trkpt lat="45.59425627813291" lon="8.687957071830553"><ele>155.0</ele><time>2026-04-11T16:13:16.998Z</time></trkpt><trkpt lat="45.59424601105201" lon="8.68779716075092"><ele>155.0</ele><time>2026-04-11T16:13:17.998Z</time></trkpt><trkpt lat="45.59422712065818" lon="8.687605886481483"><ele>155.0</ele><time>2026-04-11T16:13:18.998Z</time></trkpt><trkpt lat="45.59419795902116" lon="8.687365042133429"><ele>155.0</ele><time>2026-04-11T16:13:19.998Z</time></trkpt><trkpt lat="45.59416693557742" lon="8.687103247549208"><ele>155.0</ele><time>2026-04-11T16:13:20.998Z</time></trkpt><trkpt lat="45.59413357973087" lon="8.686824665568889"><ele>155.0</ele><time>2026-04-11T16:13:21.998Z</time></trkpt><trkpt lat="45.59409868717391" lon="8.686544505720516"><ele>155.0</ele><time>2026-04-11T16:13:22.998Z</time></trkpt><trkpt lat="45.59406439675029" lon="8.686259276237527"><ele>155.0</ele><time>2026-04-11T16:13:23.998Z</time></trkpt><trkpt lat="45.594034080924125" lon="8.685971053717738"><ele>154.66666666666666</ele><time>2026-04-11T16:13:25Z</time></trkpt><trkpt lat="45.593998612976726" lon="8.685679793891824"><ele>154.33333333333334</ele><time>2026-04-11T16:13:26Z</time></trkpt><trkpt lat="45.593961589048064" lon="8.68538699154375"><ele>154.0</ele><time>2026-04-11T16:13:27Z</time></trkpt><trkpt lat="45.593924699967175" lon="8.685090506835921"><ele>154.0</ele><time>2026-04-11T16:13:28Z</time></trkpt><trkpt lat="45.59388900843708" lon="8.684795680794384"><ele>154.0</ele><time>2026-04-11T16:13:29Z</time></trkpt><trkpt lat="45.59385578253125" lon="8.684495004347903"><ele>154.0</ele><time>2026-04-11T16:13:30Z</time></trkpt><trkpt lat="45.593822820196266" lon="8.684204275417832"><ele>154.0</ele><time>2026-04-11T16:13:31Z</time></trkpt><trkpt lat="45.59378734759759" lon="8.683909727137856"><ele>154.0</ele><time>2026-04-11T16:13:32Z</time></trkpt><trkpt lat="45.59375046938759" lon="8.683609893381297"><ele>154.0</ele><time>2026-04-11T16:13:33Z</time></trkpt><trkpt lat="45.593714564989675" lon="8.683305787416131"><ele>154.0</ele><time>2026-04-11T16:13:34Z</time></trkpt><trkpt lat="45.593679672892335" lon="8.683002759287863"><ele>154.0</ele><time>2026-04-11T16:13:35Z</time></trkpt><trkpt lat="45.59364549339163" lon="8.682698772152133"><ele>154.0</ele><time>2026-04-11T16:13:36Z</time></trkpt><trkpt lat="45.59360664296758" lon="8.6823847084225"><ele>153.66666666666669</ele><time>2026-04-11T16:13:37Z</time></trkpt><trkpt lat="45.59356862974018" lon="8.68207936339334"><ele>153.33333333333334</ele><time>2026-04-11T16:13:38Z</time></trkpt><trkpt lat="45.59352698922167" lon="8.681760146364226"><ele>153.0</ele><time>2026-04-11T16:13:39Z</time></trkpt><trkpt lat="45.59348940329897" lon="8.681452342057069"><ele>153.33333333333334</ele><time>2026-04-11T16:13:40Z</time></trkpt><trkpt lat="45.593453010034224" lon="8.681140422015355"><ele>153.66666666666669</ele><time>2026-04-11T16:13:41Z</time></trkpt><trkpt lat="45.593419192617795" lon="8.680849273123346"><ele>154.0</ele><time>2026-04-11T16:13:42Z</time></trkpt><trkpt lat="45.59338689624486" lon="8.680582238455871"><ele>154.0</ele><time>2026-04-11T16:13:43Z</time></trkpt><trkpt lat="45.593357720827186" lon="8.68032750689823"><ele>154.0</ele><time>2026-04-11T16:13:44Z</time></trkpt><trkpt lat="45.593329185807924" lon="8.680095268211403"><ele>154.0</ele><time>2026-04-11T16:13:45Z</time></trkpt><trkpt lat="45.5932868448863" lon="8.679880391716312"><ele>154.0</ele><time>2026-04-11T16:13:46Z</time></trkpt><trkpt lat="45.5932143647401" lon="8.679680912444367"><ele>154.0</ele><time>2026-04-11T16:13:47Z</time></trkpt><trkpt lat="45.59310692143649" lon="8.679512992142918"><ele>154.0</ele><time>2026-04-11T16:13:48Z</time></trkpt><trkpt lat="45.59297217703673" lon="8.67936544299746"><ele>156.33333333333334</ele><time>2026-04-11T16:13:49Z</time></trkpt><trkpt lat="45.592815077877525" lon="8.679254304548893"><ele>158.66666666666666</ele><time>2026-04-11T16:13:50Z</time></trkpt><trkpt lat="45.592642126255896" lon="8.679187339223578"><ele>161.0</ele><time>2026-04-11T16:13:51Z</time></trkpt><trkpt lat="45.59245215544174" lon="8.67918328784032"><ele>161.0</ele><time>2026-04-11T16:13:52Z</time></trkpt><trkpt lat="45.59227877052864" lon="8.679229556320076"><ele>161.0</ele><time>2026-04-11T16:13:53Z</time></trkpt><trkpt lat="45.59213816125003" lon="8.679299798978425"><ele>161.0</ele><time>2026-04-11T16:13:54Z</time></trkpt><trkpt lat="45.59200430498938" lon="8.679363749025352"><ele>161.5</ele><time>2026-04-11T16:13:55Z</time></trkpt><trkpt lat="45.59186689145055" lon="8.6794237303997"><ele>162.0</ele><time>2026-04-11T16:13:56Z</time></trkpt><trkpt lat="45.59174406318144" lon="8.679472055972472"><ele>162.5</ele><time>2026-04-11T16:13:57Z</time></trkpt><trkpt lat="45.59163122404525" lon="8.679510430304084"><ele>163.0</ele><time>2026-04-11T16:13:58Z</time></trkpt><trkpt lat="45.59152600418988" lon="8.679533075417828"><ele>163.0</ele><time>2026-04-11T16:13:59Z</time></trkpt><trkpt lat="45.591423307801435" lon="8.67954160276792"><ele>163.0</ele><time>2026-04-11T16:14:00Z</time></trkpt><trkpt lat="45.591317227479884" lon="8.67954074438998"><ele>163.0</ele><time>2026-04-11T16:14:01Z</time></trkpt><trkpt lat="45.59121654876497" lon="8.679531733430963"><ele>163.0</ele><time>2026-04-11T16:14:02Z</time></trkpt><trkpt lat="45.5911218898486" lon="8.679513859466867"><ele>163.0</ele><time>2026-04-11T16:14:03Z</time></trkpt><trkpt lat="45.5910285311853" lon="8.679485571381145"><ele>164.4</ele><time>2026-04-11T16:14:04Z</time></trkpt><trkpt lat="45.59094756309332" lon="8.679448209699515"><ele>165.8</ele><time>2026-04-11T16:14:05Z</time></trkpt><trkpt lat="45.59086515798913" lon="8.67940863729035"><ele>167.2</ele><time>2026-04-11T16:14:05.999Z</time></trkpt><trkpt lat="45.59077411256043" lon="8.679367519435846"><ele>168.6</ele><time>2026-04-11T16:14:06.999Z</time></trkpt><trkpt lat="45.59068080699373" lon="8.679325387195089"><ele>170.0</ele><time>2026-04-11T16:14:07.999Z</time></trkpt><trkpt lat="45.59058153951889" lon="8.679275275020899"><ele>170.33333333333331</ele><time>2026-04-11T16:14:08.999Z</time></trkpt><trkpt lat="45.59048139286371" lon="8.679212579489283"><ele>170.66666666666666</ele><time>2026-04-11T16:14:09.999Z</time></trkpt><trkpt lat="45.59039237855563" lon="8.67915751366627"><ele>171.0</ele><time>2026-04-11T16:14:10.999Z</time></trkpt><trkpt lat="45.59032233787451" lon="8.679117066955707"><ele>171.33333333333334</ele><time>2026-04-11T16:14:11.999Z</time></trkpt><trkpt lat="45.59025977362636" lon="8.67912748386098"><ele>171.66666666666669</ele><time>2026-04-11T16:14:13.999Z</time></trkpt><trkpt lat="45.590358865182786" lon="8.679165139476126"><ele>172.0</ele><time>2026-04-11T16:14:16.999Z</time></trkpt><trkpt lat="45.590473681865646" lon="8.679258372729471"><ele>172.5</ele><time>2026-04-11T16:14:17.999Z</time></trkpt><trkpt lat="45.59058803119312" lon="8.679316323968392"><ele>173.0</ele><time>2026-04-11T16:14:18.999Z</time></trkpt><trkpt lat="45.590714562547866" lon="8.679384110535937"><ele>173.5</ele><time>2026-04-11T16:14:19.999Z</time></trkpt><trkpt lat="45.59083623212911" lon="8.67945109052366"><ele>174.0</ele><time>2026-04-11T16:14:20.999Z</time></trkpt><trkpt lat="45.59093811929596" lon="8.679499040854243"><ele>174.0</ele><time>2026-04-11T16:14:21.999Z</time></trkpt><trkpt lat="45.59103189335319" lon="8.679540773849585"><ele>174.0</ele><time>2026-04-11T16:14:22.999Z</time></trkpt><trkpt lat="45.59110148433256" lon="8.679564608108027"><ele>174.0</ele><time>2026-04-11T16:14:23.999Z</time></trkpt><trkpt lat="45.591104812635805" lon="8.679437404203632"><ele>174.0</ele><time>2026-04-11T16:14:50.999Z</time></trkpt><trkpt lat="45.59114164631175" lon="8.679259190300037"><ele>174.0</ele><time>2026-04-11T16:14:52.999Z</time></trkpt><trkpt lat="45.591177426977396" lon="8.679124496094863"><ele>173.0</ele><time>2026-04-11T16:14:54.999Z</time></trkpt><trkpt lat="45.59120978065295" lon="8.67903272028269"><ele>172.0</ele><time>2026-04-11T16:14:55.999Z</time></trkpt><trkpt lat="45.59123549727706" lon="8.67894887856404"><ele>171.0</ele><time>2026-04-11T16:14:56.999Z</time></trkpt><trkpt lat="45.591278118023254" lon="8.678824622663072"><ele>170.0</ele><time>2026-04-11T16:14:58.999Z</time></trkpt><trkpt lat="45.59132638269153" lon="8.678650905003762"><ele>169.0</ele><time>2026-04-11T16:14:59.999Z</time></trkpt><trkpt lat="45.59135288833027" lon="8.6785291420304"><ele>169.0</ele><time>2026-04-11T16:15:00.999Z</time></trkpt><trkpt lat="45.59136370051997" lon="8.678400896465961"><ele>169.0</ele><time>2026-04-11T16:15:01.999Z</time></trkpt><trkpt lat="45.59137387661557" lon="8.678277796554752"><ele>169.0</ele><time>2026-04-11T16:15:02.999Z</time></trkpt><trkpt lat="45.59137384833623" lon="8.67816773385151"><ele>169.0</ele><time>2026-04-11T16:15:03.999Z</time></trkpt><trkpt lat="45.59136421373336" lon="8.678047189482568"><ele>169.0</ele><time>2026-04-11T16:15:04.999Z</time></trkpt><trkpt lat="45.591360248778955" lon="8.677920078284705"><ele>169.0</ele><time>2026-04-11T16:15:05.999Z</time></trkpt><trkpt lat="45.59135263170807" lon="8.67781088496094"><ele>169.39999999999998</ele><time>2026-04-11T16:15:06.999Z</time></trkpt><trkpt lat="45.591354098005354" lon="8.677683435753758"><ele>169.8</ele><time>2026-04-11T16:15:07.999Z</time></trkpt><trkpt lat="45.59135349644279" lon="8.677562332641047"><ele>170.2</ele><time>2026-04-11T16:15:08.999Z</time></trkpt><trkpt lat="45.591347370590604" lon="8.677461834253101"><ele>170.60000000000002</ele><time>2026-04-11T16:15:09.999Z</time></trkpt><trkpt lat="45.59134272377869" lon="8.677332471406029"><ele>171.0</ele><time>2026-04-11T16:15:11.999Z</time></trkpt><trkpt lat="45.59131281734862" lon="8.677172155104254"><ele>171.0</ele><time>2026-04-11T16:15:13.998Z</time></trkpt><trkpt lat="45.591292809684624" lon="8.67706562028843"><ele>171.0</ele><time>2026-04-11T16:15:14.998Z</time></trkpt><trkpt lat="45.591264997565226" lon="8.676948020103005"><ele>171.0</ele><time>2026-04-11T16:15:15.997Z</time></trkpt><trkpt lat="45.59123253864932" lon="8.67682903627898"><ele>171.0</ele><time>2026-04-11T16:15:16.997Z</time></trkpt><trkpt lat="45.59120848598772" lon="8.67671981436538"><ele>171.0</ele><time>2026-04-11T16:15:17.997Z</time></trkpt><trkpt lat="45.59119034662326" lon="8.676586513904377"><ele>171.0</ele><time>2026-04-11T16:15:18.997Z</time></trkpt><trkpt lat="45.591181555741635" lon="8.676427616234994"><ele>172.8</ele><time>2026-04-11T16:15:19.997Z</time></trkpt><trkpt lat="45.59116642725354" lon="8.676272177076651"><ele>174.60000000000002</ele><time>2026-04-11T16:15:20.997Z</time></trkpt><trkpt lat="45.59114679070408" lon="8.676113241379857"><ele>176.4</ele><time>2026-04-11T16:15:21.997Z</time></trkpt><trkpt lat="45.59113300202506" lon="8.675958817567809"><ele>178.2</ele><time>2026-04-11T16:15:22.997Z</time></trkpt><trkpt lat="45.591118241217266" lon="8.675831355689441"><ele>180.0</ele><time>2026-04-11T16:15:23.997Z</time></trkpt><trkpt lat="45.591108191777344" lon="8.67569106443892"><ele>180.83333333333334</ele><time>2026-04-11T16:15:24.997Z</time></trkpt><trkpt lat="45.59110355384923" lon="8.675563416061806"><ele>181.66666666666666</ele><time>2026-04-11T16:15:25.997Z</time></trkpt><trkpt lat="45.59110050886211" lon="8.675428699938376"><ele>182.5</ele><time>2026-04-11T16:15:26.997Z</time></trkpt><trkpt lat="45.59109950838367" lon="8.6753166689873"><ele>183.33333333333331</ele><time>2026-04-11T16:15:27.997Z</time></trkpt><trkpt lat="45.591092588225685" lon="8.67519707308909"><ele>184.16666666666666</ele><time>2026-04-11T16:15:28.997Z</time></trkpt><trkpt lat="45.59110061036749" lon="8.675056711074944"><ele>185.0</ele><time>2026-04-11T16:15:29.997Z</time></trkpt><trkpt lat="45.59111090955834" lon="8.674913768935626"><ele>185.6</ele><time>2026-04-11T16:15:30.998Z</time></trkpt><trkpt lat="45.591104820581556" lon="8.674794020482036"><ele>186.2</ele><time>2026-04-11T16:15:31.998Z</time></trkpt><trkpt lat="45.59110253500293" lon="8.674700867193069"><ele>186.8</ele><time>2026-04-11T16:15:32.998Z</time></trkpt><trkpt lat="45.59110658837349" lon="8.67456248603686"><ele>187.4</ele><time>2026-04-11T16:15:34.998Z</time></trkpt><trkpt lat="45.59111106876364" lon="8.67441535367436"><ele>188.0</ele><time>2026-04-11T16:15:36.998Z</time></trkpt><trkpt lat="45.591091087361974" lon="8.674234570569388"><ele>188.60000000000002</ele><time>2026-04-11T16:15:38.998Z</time></trkpt><trkpt lat="45.59111817253613" lon="8.67412229805303"><ele>189.20000000000002</ele><time>2026-04-11T16:15:39.998Z</time></trkpt><trkpt lat="45.59113663729812" lon="8.673996762613516"><ele>189.8</ele><time>2026-04-11T16:15:40.998Z</time></trkpt><trkpt lat="45.59114661052908" lon="8.673833453092193"><ele>190.4</ele><time>2026-04-11T16:15:41.998Z</time></trkpt><trkpt lat="45.591166374503004" lon="8.673677534625657"><ele>191.0</ele><time>2026-04-11T16:15:42.999Z</time></trkpt><trkpt lat="45.591206115914446" lon="8.673516208339992"><ele>188.75</ele><time>2026-04-11T16:15:43.999Z</time></trkpt><trkpt lat="45.59123345783047" lon="8.673324790683514"><ele>186.5</ele><time>2026-04-11T16:15:44.999Z</time></trkpt><trkpt lat="45.591247627827755" lon="8.673119054086367"><ele>184.25</ele><time>2026-04-11T16:15:45.999Z</time></trkpt><trkpt lat="45.59128368567455" lon="8.672909187824501"><ele>182.0</ele><time>2026-04-11T16:15:46.999Z</time></trkpt><trkpt lat="45.59131614152774" lon="8.672686058848853"><ele>181.5</ele><time>2026-04-11T16:15:47.999Z</time></trkpt><trkpt lat="45.59134114243046" lon="8.672481042719605"><ele>181.0</ele><time>2026-04-11T16:15:48.999Z</time></trkpt><trkpt lat="45.59136385905991" lon="8.672308398735272"><ele>180.5</ele><time>2026-04-11T16:15:49.999Z</time></trkpt><trkpt lat="45.59138158863836" lon="8.672160422444643"><ele>180.0</ele><time>2026-04-11T16:15:50.999Z</time></trkpt><trkpt lat="45.5914006450096" lon="8.67202073821811"><ele>180.83333333333334</ele><time>2026-04-11T16:15:51.999Z</time></trkpt><trkpt lat="45.59142087110714" lon="8.671896905566927"><ele>181.66666666666666</ele><time>2026-04-11T16:15:52.999Z</time></trkpt><trkpt lat="45.591458724385824" lon="8.671794943513284"><ele>182.5</ele><time>2026-04-11T16:15:53.999Z</time></trkpt><trkpt lat="45.5914598455562" lon="8.671693414720771"><ele>183.33333333333331</ele><time>2026-04-11T16:15:54.999Z</time></trkpt><trkpt lat="45.591476806994955" lon="8.671588488537806"><ele>184.16666666666666</ele><time>2026-04-11T16:15:55.999Z</time></trkpt><trkpt lat="45.59149525337977" lon="8.671463827376426"><ele>185.0</ele><time>2026-04-11T16:15:56.999Z</time></trkpt><trkpt lat="45.59151870250102" lon="8.671303626776048"><ele>185.0</ele><time>2026-04-11T16:15:57.999Z</time></trkpt><trkpt lat="45.591544028028245" lon="8.67111866849188"><ele>185.0</ele><time>2026-04-11T16:15:58.999Z</time></trkpt><trkpt lat="45.59157159400436" lon="8.670916685358405"><ele>185.0</ele><time>2026-04-11T16:15:59.999Z</time></trkpt><trkpt lat="45.59160112835651" lon="8.67072193475267"><ele>185.0</ele><time>2026-04-11T16:16:00.999Z</time></trkpt><trkpt lat="45.591626181979336" lon="8.670544622312066"><ele>185.5</ele><time>2026-04-11T16:16:01.999Z</time></trkpt><trkpt lat="45.591650253326335" lon="8.670385495162371"><ele>186.0</ele><time>2026-04-11T16:16:02.999Z</time></trkpt><trkpt lat="45.59167275404433" lon="8.670231805015263"><ele>186.5</ele><time>2026-04-11T16:16:03.999Z</time></trkpt><trkpt lat="45.59169802258396" lon="8.670056688556278"><ele>187.0</ele><time>2026-04-11T16:16:04.999Z</time></trkpt><trkpt lat="45.59172147453743" lon="8.669885930694672"><ele>187.25</ele><time>2026-04-11T16:16:05.999Z</time></trkpt><trkpt lat="45.591740841989015" lon="8.669730605617362"><ele>187.5</ele><time>2026-04-11T16:16:06.999Z</time></trkpt><trkpt lat="45.5917649085551" lon="8.669596815842295"><ele>187.75</ele><time>2026-04-11T16:16:07.999Z</time></trkpt><trkpt lat="45.59178112453759" lon="8.669487070639924"><ele>188.0</ele><time>2026-04-11T16:16:08.999Z</time></trkpt><trkpt lat="45.59155761566992" lon="8.669331627640496"><ele>188.33333333333331</ele><time>2026-04-11T16:16:11.999Z</time></trkpt><trkpt lat="45.591399638427724" lon="8.669290209558886"><ele>188.66666666666666</ele><time>2026-04-11T16:16:12.998Z</time></trkpt><trkpt lat="45.591217419199765" lon="8.669247596566798"><ele>189.0</ele><time>2026-04-11T16:16:13.998Z</time></trkpt><trkpt lat="45.59102020554838" lon="8.669197128022706"><ele>189.33333333333334</ele><time>2026-04-11T16:16:14.998Z</time></trkpt><trkpt lat="45.5908138392751" lon="8.669143800386175"><ele>189.66666666666669</ele><time>2026-04-11T16:16:15.998Z</time></trkpt><trkpt lat="45.59059620771303" lon="8.669099114255046"><ele>190.0</ele><time>2026-04-11T16:16:16.998Z</time></trkpt><trkpt lat="45.59040417198179" lon="8.669079092226228"><ele>188.66666666666669</ele><time>2026-04-11T16:16:17.998Z</time></trkpt><trkpt lat="45.590230213780366" lon="8.669066700930555"><ele>187.33333333333334</ele><time>2026-04-11T16:16:18.998Z</time></trkpt><trkpt lat="45.59006773286839" lon="8.66905687588758"><ele>186.0</ele><time>2026-04-11T16:16:19.998Z</time></trkpt><trkpt lat="45.58992111474506" lon="8.669045246270363"><ele>186.0</ele><time>2026-04-11T16:16:20.998Z</time></trkpt><trkpt lat="45.58978969442064" lon="8.669036928059842"><ele>186.0</ele><time>2026-04-11T16:16:21.998Z</time></trkpt><trkpt lat="45.589665188830786" lon="8.66903276820702"><ele>186.0</ele><time>2026-04-11T16:16:22.998Z</time></trkpt><trkpt lat="45.58954933078957" lon="8.669034215445283"><ele>186.0</ele><time>2026-04-11T16:16:23.998Z</time></trkpt><trkpt lat="45.58944582130572" lon="8.669034202683639"><ele>185.75</ele><time>2026-04-11T16:16:24.998Z</time></trkpt><trkpt lat="45.58935474836631" lon="8.669054401575293"><ele>185.5</ele><time>2026-04-11T16:16:25.998Z</time></trkpt><trkpt lat="45.58925973664591" lon="8.66907366296959"><ele>185.25</ele><time>2026-04-11T16:16:26.998Z</time></trkpt><trkpt lat="45.589137175921095" lon="8.669094343072615"><ele>185.0</ele><time>2026-04-11T16:16:27.998Z</time></trkpt><trkpt lat="45.58898542450689" lon="8.669122836624277"><ele>185.0</ele><time>2026-04-11T16:16:28.998Z</time></trkpt><trkpt lat="45.58881910880845" lon="8.669154643444594"><ele>185.0</ele><time>2026-04-11T16:16:29.998Z</time></trkpt><trkpt lat="45.58861292922983" lon="8.669199851705994"><ele>185.0</ele><time>2026-04-11T16:16:30.998Z</time></trkpt><trkpt lat="45.58842716060126" lon="8.669239360312016"><ele>185.0</ele><time>2026-04-11T16:16:31.998Z</time></trkpt><trkpt lat="45.58825300703798" lon="8.669271458963125"><ele>185.0</ele><time>2026-04-11T16:16:32.998Z</time></trkpt><trkpt lat="45.58809052582955" lon="8.669302410836039"><ele>185.0</ele><time>2026-04-11T16:16:33.998Z</time></trkpt><trkpt lat="45.58792971176442" lon="8.669338107528104"><ele>185.0</ele><time>2026-04-11T16:16:34.998Z</time></trkpt><trkpt lat="45.58777808757941" lon="8.669373040154268"><ele>185.0</ele><time>2026-04-11T16:16:35.998Z</time></trkpt><trkpt lat="45.58763739582702" lon="8.669401690655882"><ele>185.0</ele><time>2026-04-11T16:16:36.998Z</time></trkpt><trkpt lat="45.587507903578036" lon="8.669433831569926"><ele>185.0</ele><time>2026-04-11T16:16:37.998Z</time></trkpt><trkpt lat="45.587359859968075" lon="8.669467679122823"><ele>185.0</ele><time>2026-04-11T16:16:38.998Z</time></trkpt><trkpt lat="45.58720486883648" lon="8.669508007329503"><ele>185.0</ele><time>2026-04-11T16:16:39.998Z</time></trkpt><trkpt lat="45.58705245241096" lon="8.669579216372316"><ele>185.0</ele><time>2026-04-11T16:16:40.998Z</time></trkpt><trkpt lat="45.58689422308039" lon="8.669672304165127"><ele>184.66666666666666</ele><time>2026-04-11T16:16:41.998Z</time></trkpt><trkpt lat="45.586730084300235" lon="8.669779089290385"><ele>184.33333333333334</ele><time>2026-04-11T16:16:42.998Z</time></trkpt><trkpt lat="45.586573842517105" lon="8.669879168185085"><ele>184.0</ele><time>2026-04-11T16:16:43.998Z</time></trkpt><trkpt lat="45.58640444385608" lon="8.669987701234428"><ele>184.0</ele><time>2026-04-11T16:16:44.998Z</time></trkpt><trkpt lat="45.58625180707281" lon="8.670085439193036"><ele>184.0</ele><time>2026-04-11T16:16:45.998Z</time></trkpt><trkpt lat="45.58609863702617" lon="8.670174629251042"><ele>184.0</ele><time>2026-04-11T16:16:46.998Z</time></trkpt><trkpt lat="45.58594186464056" lon="8.670267720326798"><ele>181.33333333333334</ele><time>2026-04-11T16:16:47.998Z</time></trkpt><trkpt lat="45.58578856802219" lon="8.670366009173717"><ele>178.66666666666666</ele><time>2026-04-11T16:16:48.998Z</time></trkpt><trkpt lat="45.58562778435095" lon="8.670471432282529"><ele>176.0</ele><time>2026-04-11T16:16:49.998Z</time></trkpt><trkpt lat="45.585476945169496" lon="8.670563046024307"><ele>178.33333333333331</ele><time>2026-04-11T16:16:50.998Z</time></trkpt><trkpt lat="45.585329937247025" lon="8.670648120258459"><ele>180.66666666666666</ele><time>2026-04-11T16:16:51.998Z</time></trkpt><trkpt lat="45.58519632708713" lon="8.670736641334083"><ele>183.0</ele><time>2026-04-11T16:16:52.998Z</time></trkpt><trkpt lat="45.5850518720668" lon="8.670831700726845"><ele>183.0</ele><time>2026-04-11T16:16:53.998Z</time></trkpt><trkpt lat="45.58489956728717" lon="8.670922009965787"><ele>183.0</ele><time>2026-04-11T16:16:54.998Z</time></trkpt><trkpt lat="45.58474606517273" lon="8.671013694813533"><ele>183.0</ele><time>2026-04-11T16:16:55.998Z</time></trkpt><trkpt lat="45.58458614782974" lon="8.671114781787313"><ele>182.33333333333334</ele><time>2026-04-11T16:16:56.998Z</time></trkpt><trkpt lat="45.58442715093972" lon="8.671206693199514"><ele>181.66666666666669</ele><time>2026-04-11T16:16:57.998Z</time></trkpt><trkpt lat="45.58426584252855" lon="8.671298305759622"><ele>181.0</ele><time>2026-04-11T16:16:58.998Z</time></trkpt><trkpt lat="45.58410760454937" lon="8.671392217212938"><ele>181.0</ele><time>2026-04-11T16:16:59.998Z</time></trkpt><trkpt lat="45.58394124845744" lon="8.67148584616174"><ele>181.0</ele><time>2026-04-11T16:17:00.998Z</time></trkpt><trkpt lat="45.58378143235375" lon="8.67156774678339"><ele>181.0</ele><time>2026-04-11T16:17:01.998Z</time></trkpt><trkpt lat="45.58361999049328" lon="8.671641957593296"><ele>181.0</ele><time>2026-04-11T16:17:02.998Z</time></trkpt><trkpt lat="45.58348879489746" lon="8.67170066031792"><ele>181.0</ele><time>2026-04-11T16:17:03.998Z</time></trkpt><trkpt lat="45.583365005206794" lon="8.671757666511061"><ele>181.0</ele><time>2026-04-11T16:17:04.998Z</time></trkpt><trkpt lat="45.583243303683474" lon="8.671820538692467"><ele>181.0</ele><time>2026-04-11T16:17:05.998Z</time></trkpt><trkpt lat="45.58313951317876" lon="8.671869604516925"><ele>181.0</ele><time>2026-04-11T16:17:06.998Z</time></trkpt><trkpt lat="45.58306272161569" lon="8.671901979727902"><ele>181.0</ele><time>2026-04-11T16:17:07.998Z</time></trkpt><trkpt lat="45.583004767899546" lon="8.671942750497669"><ele>181.0</ele><time>2026-04-11T16:17:08.998Z</time></trkpt><trkpt lat="45.58292815901759" lon="8.671932549542214"><ele>181.0</ele><time>2026-04-11T16:17:09.998Z</time></trkpt><trkpt lat="45.582857749972725" lon="8.671947722918505"><ele>181.0</ele><time>2026-04-11T16:17:10.998Z</time></trkpt><trkpt lat="45.582754992008574" lon="8.671976833489293"><ele>181.0</ele><time>2026-04-11T16:17:11.998Z</time></trkpt><trkpt lat="45.58263465006124" lon="8.672008493516664"><ele>183.0</ele><time>2026-04-11T16:17:12.998Z</time></trkpt><trkpt lat="45.58249567247524" lon="8.67202868614669"><ele>185.0</ele><time>2026-04-11T16:17:13.998Z</time></trkpt><trkpt lat="45.58233408438806" lon="8.672050234048955"><ele>187.0</ele><time>2026-04-11T16:17:14.998Z</time></trkpt><trkpt lat="45.582194880316734" lon="8.672073329969823"><ele>189.0</ele><time>2026-04-11T16:17:15.998Z</time></trkpt><trkpt lat="45.58205078100737" lon="8.672097285533628"><ele>189.0</ele><time>2026-04-11T16:17:16.998Z</time></trkpt><trkpt lat="45.58190002768193" lon="8.67212809992212"><ele>189.0</ele><time>2026-04-11T16:17:17.998Z</time></trkpt><trkpt lat="45.58173470981175" lon="8.67218457567348"><ele>189.0</ele><time>2026-04-11T16:17:18.998Z</time></trkpt><trkpt lat="45.58162088310373" lon="8.6722341875477"><ele>189.0</ele><time>2026-04-11T16:17:19.998Z</time></trkpt><trkpt lat="45.58145242765012" lon="8.672289590532934"><ele>189.0</ele><time>2026-04-11T16:17:20.998Z</time></trkpt><trkpt lat="45.58128288118805" lon="8.672354350006476"><ele>189.0</ele><time>2026-04-11T16:17:21.998Z</time></trkpt><trkpt lat="45.581115983321226" lon="8.672424118087788"><ele>189.0</ele><time>2026-04-11T16:17:22.998Z</time></trkpt><trkpt lat="45.58096785447233" lon="8.672479263714385"><ele>188.75</ele><time>2026-04-11T16:17:23.998Z</time></trkpt><trkpt lat="45.58084171746256" lon="8.672535538817375"><ele>188.5</ele><time>2026-04-11T16:17:24.998Z</time></trkpt><trkpt lat="45.58072021621164" lon="8.672593382573728"><ele>188.25</ele><time>2026-04-11T16:17:25.998Z</time></trkpt><trkpt lat="45.58060227654609" lon="8.672646624371236"><ele>188.0</ele><time>2026-04-11T16:17:26.998Z</time></trkpt><trkpt lat="45.58047632638133" lon="8.672691479369748"><ele>187.25</ele><time>2026-04-11T16:17:27.998Z</time></trkpt><trkpt lat="45.5803469603931" lon="8.672745382214078"><ele>186.5</ele><time>2026-04-11T16:17:28.998Z</time></trkpt><trkpt lat="45.58021928810371" lon="8.672804648612992"><ele>185.75</ele><time>2026-04-11T16:17:29.998Z</time></trkpt><trkpt lat="45.58010289405447" lon="8.672867416685193"><ele>185.0</ele><time>2026-04-11T16:17:30.998Z</time></trkpt><trkpt lat="45.57998003659953" lon="8.672945540258265"><ele>185.0</ele><time>2026-04-11T16:17:31.998Z</time></trkpt><trkpt lat="45.57986593414196" lon="8.673029837974793"><ele>185.0</ele><time>2026-04-11T16:17:32.997Z</time></trkpt><trkpt lat="45.57975513278846" lon="8.673124325701103"><ele>185.0</ele><time>2026-04-11T16:17:33.997Z</time></trkpt><trkpt lat="45.57964201213517" lon="8.673213606933242"><ele>185.0</ele><time>2026-04-11T16:17:34.997Z</time></trkpt><trkpt lat="45.579522943210094" lon="8.673312043875942"><ele>184.0</ele><time>2026-04-11T16:17:35.997Z</time></trkpt><trkpt lat="45.579402541930975" lon="8.67341416869565"><ele>183.0</ele><time>2026-04-11T16:17:36.999Z</time></trkpt><trkpt lat="45.57928121975509" lon="8.673524619674664"><ele>182.0</ele><time>2026-04-11T16:17:37.999Z</time></trkpt><trkpt lat="45.57916006090563" lon="8.673634105233122"><ele>181.0</ele><time>2026-04-11T16:17:38.999Z</time></trkpt><trkpt lat="45.57904195471256" lon="8.673744311471056"><ele>181.0</ele><time>2026-04-11T16:17:39.999Z</time></trkpt><trkpt lat="45.57892069528847" lon="8.67385667727143"><ele>181.0</ele><time>2026-04-11T16:17:40.999Z</time></trkpt><trkpt lat="45.57879750710519" lon="8.673959934464797"><ele>181.0</ele><time>2026-04-11T16:17:41.999Z</time></trkpt><trkpt lat="45.57867635536561" lon="8.674073415798127"><ele>181.0</ele><time>2026-04-11T16:17:42.999Z</time></trkpt><trkpt lat="45.57856175670831" lon="8.674171830984102"><ele>181.33333333333334</ele><time>2026-04-11T16:17:43.999Z</time></trkpt><trkpt lat="45.578432531530034" lon="8.674268018285408"><ele>181.66666666666666</ele><time>2026-04-11T16:17:44.999Z</time></trkpt><trkpt lat="45.578288974363865" lon="8.67436120204861"><ele>182.0</ele><time>2026-04-11T16:17:45.999Z</time></trkpt><trkpt lat="45.578154214097125" lon="8.674447318912776"><ele>182.0</ele><time>2026-04-11T16:17:46.999Z</time></trkpt><trkpt lat="45.57800790294147" lon="8.674539469809877"><ele>182.0</ele><time>2026-04-11T16:17:47.999Z</time></trkpt><trkpt lat="45.57787765570539" lon="8.674634592099027"><ele>182.0</ele><time>2026-04-11T16:17:48.999Z</time></trkpt><trkpt lat="45.57775592497376" lon="8.674712283118646"><ele>182.0</ele><time>2026-04-11T16:17:49.999Z</time></trkpt><trkpt lat="45.577620215771965" lon="8.67479920952574"><ele>181.66666666666666</ele><time>2026-04-11T16:17:50.999Z</time></trkpt><trkpt lat="45.57747648613169" lon="8.674897312510716"><ele>181.33333333333334</ele><time>2026-04-11T16:17:51.999Z</time></trkpt><trkpt lat="45.577333929893875" lon="8.6749953940498"><ele>181.0</ele><time>2026-04-11T16:17:52.999Z</time></trkpt><trkpt lat="45.57718396143596" lon="8.675083436352926"><ele>181.0</ele><time>2026-04-11T16:17:53.999Z</time></trkpt><trkpt lat="45.577039014756856" lon="8.675175242431305"><ele>181.0</ele><time>2026-04-11T16:17:54.999Z</time></trkpt><trkpt lat="45.57690173124123" lon="8.67526810527329"><ele>181.0</ele><time>2026-04-11T16:17:55.999Z</time></trkpt><trkpt lat="45.576758400006405" lon="8.675369901163245"><ele>182.0</ele><time>2026-04-11T16:17:56.999Z</time></trkpt><trkpt lat="45.57660743818055" lon="8.67546993544037"><ele>183.0</ele><time>2026-04-11T16:17:57.999Z</time></trkpt><trkpt lat="45.57646165591767" lon="8.675577040356439"><ele>184.0</ele><time>2026-04-11T16:17:58.999Z</time></trkpt><trkpt lat="45.57631980379219" lon="8.675676334296481"><ele>184.0</ele><time>2026-04-11T16:17:59.999Z</time></trkpt><trkpt lat="45.57619509212721" lon="8.675760552042101"><ele>184.0</ele><time>2026-04-11T16:18:00.999Z</time></trkpt><trkpt lat="45.57607081593353" lon="8.675839977700328"><ele>184.0</ele><time>2026-04-11T16:18:01.999Z</time></trkpt><trkpt lat="45.57592843425261" lon="8.675927006299645"><ele>184.0</ele><time>2026-04-11T16:18:02.999Z</time></trkpt><trkpt lat="45.575786336250765" lon="8.676016571306103"><ele>184.25</ele><time>2026-04-11T16:18:03.999Z</time></trkpt><trkpt lat="45.575657157760055" lon="8.67610545319558"><ele>184.5</ele><time>2026-04-11T16:18:04.999Z</time></trkpt><trkpt lat="45.575532946270556" lon="8.676186120010296"><ele>184.75</ele><time>2026-04-11T16:18:05.999Z</time></trkpt><trkpt lat="45.5754086889739" lon="8.676268091183134"><ele>185.0</ele><time>2026-04-11T16:18:06.999Z</time></trkpt><trkpt lat="45.57527824366493" lon="8.676356852412322"><ele>185.0</ele><time>2026-04-11T16:18:07.999Z</time></trkpt><trkpt lat="45.575145548749674" lon="8.676450098077018"><ele>185.0</ele><time>2026-04-11T16:18:08.999Z</time></trkpt><trkpt lat="45.57499712971589" lon="8.676552709183142"><ele>185.0</ele><time>2026-04-11T16:18:09.999Z</time></trkpt><trkpt lat="45.57490183665512" lon="8.67661660190339"><ele>185.0</ele><time>2026-04-11T16:18:10.999Z</time></trkpt><trkpt lat="45.57477814557984" lon="8.676695006650144"><ele>185.0</ele><time>2026-04-11T16:18:11.999Z</time></trkpt><trkpt lat="45.57463922965484" lon="8.676792256829998"><ele>185.0</ele><time>2026-04-11T16:18:12.999Z</time></trkpt><trkpt lat="45.57450286029748" lon="8.676856628769343"><ele>185.0</ele><time>2026-04-11T16:18:13.999Z</time></trkpt><trkpt lat="45.5743925648254" lon="8.676949449686433"><ele>185.0</ele><time>2026-04-11T16:18:14.999Z</time></trkpt><trkpt lat="45.574277407137814" lon="8.67701587554973"><ele>184.75</ele><time>2026-04-11T16:18:15.999Z</time></trkpt><trkpt lat="45.5741570748258" lon="8.677090048844954"><ele>184.5</ele><time>2026-04-11T16:18:16.999Z</time></trkpt><trkpt lat="45.5740411567861" lon="8.677163244007884"><ele>184.25</ele><time>2026-04-11T16:18:17.999Z</time></trkpt><trkpt lat="45.57392881729426" lon="8.677239270733489"><ele>184.0</ele><time>2026-04-11T16:18:18.999Z</time></trkpt><trkpt lat="45.57382239527509" lon="8.677302287037612"><ele>184.0</ele><time>2026-04-11T16:18:19.999Z</time></trkpt><trkpt lat="45.573728238330496" lon="8.677350839351993"><ele>184.0</ele><time>2026-04-11T16:18:20.999Z</time></trkpt><trkpt lat="45.57364241423321" lon="8.67733369681935"><ele>184.0</ele><time>2026-04-11T16:18:21.999Z</time></trkpt><trkpt lat="45.573568203591776" lon="8.677323162861496"><ele>184.0</ele><time>2026-04-11T16:18:22.999Z</time></trkpt><trkpt lat="45.573461882754856" lon="8.677302928691034"><ele>184.0</ele><time>2026-04-11T16:18:24.999Z</time></trkpt><trkpt lat="45.57343652154153" lon="8.677532866058527"><ele>184.0</ele><time>2026-04-11T16:18:27.999Z</time></trkpt><trkpt lat="45.573433556842396" lon="8.677677114160074"><ele>184.0</ele><time>2026-04-11T16:18:29.999Z</time></trkpt><trkpt lat="45.5733455889404" lon="8.677722995294719"><ele>184.0</ele><time>2026-04-11T16:18:31.999Z</time></trkpt><trkpt lat="45.573270859341385" lon="8.67769353160853"><ele>184.0</ele><time>2026-04-11T16:18:32.999Z</time></trkpt><trkpt lat="45.57316771913548" lon="8.67770657998803"><ele>184.0</ele><time>2026-04-11T16:18:33.999Z</time></trkpt><trkpt lat="45.573053804558704" lon="8.677710042062214"><ele>184.0</ele><time>2026-04-11T16:18:34.999Z</time></trkpt><trkpt lat="45.5729501283795" lon="8.677736337958823"><ele>184.0</ele><time>2026-04-11T16:18:35.999Z</time></trkpt><trkpt lat="45.57284994279635" lon="8.67779045263126"><ele>184.0</ele><time>2026-04-11T16:18:36.999Z</time></trkpt><trkpt lat="45.57273624796536" lon="8.677894646011678"><ele>184.0</ele><time>2026-04-11T16:18:37.999Z</time></trkpt><trkpt lat="45.572624406285044" lon="8.677974679062144"><ele>184.5</ele><time>2026-04-11T16:18:38.999Z</time></trkpt><trkpt lat="45.57251565297242" lon="8.678062718939023"><ele>185.0</ele><time>2026-04-11T16:18:39.999Z</time></trkpt><trkpt lat="45.572399654535914" lon="8.678141606785294"><ele>185.5</ele><time>2026-04-11T16:18:40.999Z</time></trkpt><trkpt lat="45.57229587120324" lon="8.678200592147544"><ele>186.0</ele><time>2026-04-11T16:18:41.999Z</time></trkpt><trkpt lat="45.57218304495169" lon="8.678226266931578"><ele>186.0</ele><time>2026-04-11T16:18:42.999Z</time></trkpt><trkpt lat="45.572057923475626" lon="8.678248409519224"><ele>186.0</ele><time>2026-04-11T16:18:43.999Z</time></trkpt><trkpt lat="45.57192637242943" lon="8.678278694033004"><ele>186.0</ele><time>2026-04-11T16:18:44.999Z</time></trkpt><trkpt lat="45.571797851456225" lon="8.678330638438402"><ele>186.0</ele><time>2026-04-11T16:18:45.999Z</time></trkpt><trkpt lat="45.57168911208455" lon="8.678381305723681"><ele>185.25</ele><time>2026-04-11T16:18:46.999Z</time></trkpt><trkpt lat="45.571561848638034" lon="8.678424028892977"><ele>184.5</ele><time>2026-04-11T16:18:47.999Z</time></trkpt><trkpt lat="45.571424966418455" lon="8.678457657372917"><ele>183.75</ele><time>2026-04-11T16:18:48.999Z</time></trkpt><trkpt lat="45.57128136081924" lon="8.678485494543585"><ele>183.0</ele><time>2026-04-11T16:18:49.999Z</time></trkpt><trkpt lat="45.57115626586872" lon="8.678520483773108"><ele>182.75</ele><time>2026-04-11T16:18:50.999Z</time></trkpt><trkpt lat="45.57103911561844" lon="8.678561133780828"><ele>182.5</ele><time>2026-04-11T16:18:51.999Z</time></trkpt><trkpt lat="45.570901259060136" lon="8.678620487302656"><ele>182.25</ele><time>2026-04-11T16:18:52.999Z</time></trkpt><trkpt lat="45.570763856182715" lon="8.678673284576119"><ele>182.0</ele><time>2026-04-11T16:18:53.999Z</time></trkpt><trkpt lat="45.57062611874207" lon="8.678712878675558"><ele>182.0</ele><time>2026-04-11T16:18:54.999Z</time></trkpt><trkpt lat="45.570488694406734" lon="8.678737348615709"><ele>182.0</ele><time>2026-04-11T16:18:55.999Z</time></trkpt><trkpt lat="45.57036002829917" lon="8.67872442237244"><ele>182.0</ele><time>2026-04-11T16:18:56.999Z</time></trkpt><trkpt lat="45.570241112305396" lon="8.678742460263493"><ele>182.0</ele><time>2026-04-11T16:18:57.999Z</time></trkpt><trkpt lat="45.570142258631975" lon="8.678788957203729"><ele>182.0</ele><time>2026-04-11T16:18:58.999Z</time></trkpt><trkpt lat="45.57004468748477" lon="8.678776945785444"><ele>182.0</ele><time>2026-04-11T16:18:59.999Z</time></trkpt><trkpt lat="45.56995821561115" lon="8.67877849952532"><ele>182.0</ele><time>2026-04-11T16:19:00.999Z</time></trkpt><trkpt lat="45.569880751470514" lon="8.678796902740086"><ele>182.0</ele><time>2026-04-11T16:19:02.999Z</time></trkpt><trkpt lat="45.56981642869364" lon="8.678778499525503"><ele>182.0</ele><time>2026-04-11T16:19:04.999Z</time></trkpt><trkpt lat="45.56967849507766" lon="8.678778499517835"><ele>182.0</ele><time>2026-04-11T16:19:06.999Z</time></trkpt><trkpt lat="45.56960185533335" lon="8.678948681025915"><ele>182.0</ele><time>2026-04-11T16:19:07.999Z</time></trkpt><trkpt lat="45.56953826377442" lon="8.67893103381465"><ele>182.0</ele><time>2026-04-11T16:19:08.999Z</time></trkpt><trkpt lat="45.56944746627896" lon="8.678953181722758"><ele>182.0</ele><time>2026-04-11T16:19:09.999Z</time></trkpt><trkpt lat="45.569365009050564" lon="8.678980557849933"><ele>182.0</ele><time>2026-04-11T16:19:10.999Z</time></trkpt><trkpt lat="45.56929486793621" lon="8.678993658100792"><ele>182.14285714285714</ele><time>2026-04-11T16:19:11.999Z</time></trkpt><trkpt lat="45.56921693186518" lon="8.679007266608359"><ele>182.28571428571428</ele><time>2026-04-11T16:19:12.999Z</time></trkpt><trkpt lat="45.56914953996661" lon="8.679018849836208"><ele>182.42857142857144</ele><time>2026-04-11T16:19:13.999Z</time></trkpt><trkpt lat="45.56907398233411" lon="8.679034426909983"><ele>182.57142857142856</ele><time>2026-04-11T16:19:14.999Z</time></trkpt><trkpt lat="45.56900925046442" lon="8.679051559391336"><ele>182.71428571428572</ele><time>2026-04-11T16:19:15.999Z</time></trkpt><trkpt lat="45.56893472542891" lon="8.679057459470446"><ele>182.85714285714286</ele><time>2026-04-11T16:19:16.999Z</time></trkpt><trkpt lat="45.568864708803254" lon="8.679061533817725"><ele>183.0</ele><time>2026-04-11T16:19:17.999Z</time></trkpt><trkpt lat="45.56879507814637" lon="8.679058408736696"><ele>183.0</ele><time>2026-04-11T16:19:18.999Z</time></trkpt><trkpt lat="45.56872203297566" lon="8.679067776168505"><ele>183.0</ele><time>2026-04-11T16:19:19.999Z</time></trkpt><trkpt lat="45.56862997329875" lon="8.679079778151278"><ele>183.0</ele><time>2026-04-11T16:19:20.999Z</time></trkpt><trkpt lat="45.56854145891526" lon="8.679088394593194"><ele>183.0</ele><time>2026-04-11T16:19:21.999Z</time></trkpt><trkpt lat="45.56845581170633" lon="8.67909319847569"><ele>183.0</ele><time>2026-04-11T16:19:22.999Z</time></trkpt><trkpt lat="45.56836121666153" lon="8.679098089049354"><ele>183.0</ele><time>2026-04-11T16:19:23.998Z</time></trkpt><trkpt lat="45.56828647150968" lon="8.679121435059352"><ele>183.0</ele><time>2026-04-11T16:19:24.998Z</time></trkpt><trkpt lat="45.56821803267928" lon="8.679172430524572"><ele>183.0</ele><time>2026-04-11T16:19:25.998Z</time></trkpt><trkpt lat="45.568123018793884" lon="8.679243601925329"><ele>183.0</ele><time>2026-04-11T16:19:26.998Z</time></trkpt><trkpt lat="45.56801399012653" lon="8.679320809633293"><ele>183.0</ele><time>2026-04-11T16:19:27.998Z</time></trkpt><trkpt lat="45.567915393218684" lon="8.679378641033066"><ele>183.0</ele><time>2026-04-11T16:19:28.998Z</time></trkpt><trkpt lat="45.56778992937465" lon="8.67943239176123"><ele>183.0</ele><time>2026-04-11T16:19:30.998Z</time></trkpt><trkpt lat="45.56770357118502" lon="8.679447874672691"><ele>183.0</ele><time>2026-04-11T16:19:31.998Z</time></trkpt><trkpt lat="45.56761299230731" lon="8.679452834679156"><ele>183.0</ele><time>2026-04-11T16:19:32.998Z</time></trkpt><trkpt lat="45.56753051158469" lon="8.679454078522713"><ele>183.0</ele><time>2026-04-11T16:19:33.998Z</time></trkpt><trkpt lat="45.56742592812204" lon="8.67943624953161"><ele>183.0</ele><time>2026-04-11T16:19:34.998Z</time></trkpt><trkpt lat="45.567333472000776" lon="8.679410722340023"><ele>183.0</ele><time>2026-04-11T16:19:35.998Z</time></trkpt><trkpt lat="45.56723544958571" lon="8.679410294322121"><ele>183.0</ele><time>2026-04-11T16:19:36.998Z</time></trkpt><trkpt lat="45.56715657041489" lon="8.67943846119552"><ele>183.0</ele><time>2026-04-11T16:19:37.998Z</time></trkpt><trkpt lat="45.56707206108422" lon="8.67945429329659"><ele>183.0</ele><time>2026-04-11T16:19:38.998Z</time></trkpt><trkpt lat="45.567001625337035" lon="8.679481053505178"><ele>183.0</ele><time>2026-04-11T16:19:39.998Z</time></trkpt><trkpt lat="45.56693319944596" lon="8.679496123519757"><ele>183.0</ele><time>2026-04-11T16:19:40.998Z</time></trkpt><trkpt lat="45.56680209955789" lon="8.679455318862214"><ele>183.0</ele><time>2026-04-11T16:19:43.001Z</time></trkpt><trkpt lat="45.56672909134728" lon="8.679490050711498"><ele>183.0</ele><time>2026-04-11T16:19:44.001Z</time></trkpt><trkpt lat="45.56661091322722" lon="8.679507039480788"><ele>183.0</ele><time>2026-04-11T16:19:45Z</time></trkpt><trkpt lat="45.56653569986401" lon="8.679521805424562"><ele>183.0</ele><time>2026-04-11T16:19:46.001Z</time></trkpt><trkpt lat="45.56646316627105" lon="8.679514468713675"><ele>183.0</ele><time>2026-04-11T16:19:47.001Z</time></trkpt><trkpt lat="45.56638084676652" lon="8.67948871063827"><ele>183.0</ele><time>2026-04-11T16:19:48.001Z</time></trkpt><trkpt lat="45.5662906266563" lon="8.679479443133197"><ele>183.0</ele><time>2026-04-11T16:19:49.001Z</time></trkpt><trkpt lat="45.56620694540689" lon="8.679446648255729"><ele>183.0</ele><time>2026-04-11T16:19:50.001Z</time></trkpt><trkpt lat="45.56612532812957" lon="8.679417612820133"><ele>183.0</ele><time>2026-04-11T16:19:51.001Z</time></trkpt><trkpt lat="45.56604765775126" lon="8.67939416054416"><ele>183.0</ele><time>2026-04-11T16:19:52.001Z</time></trkpt><trkpt lat="45.565951014055365" lon="8.679366476100013"><ele>183.0</ele><time>2026-04-11T16:19:54.001Z</time></trkpt><trkpt lat="45.5659037977721" lon="8.67947386589213"><ele>183.0</ele><time>2026-04-11T16:19:56.001Z</time></trkpt><trkpt lat="45.56588229789196" lon="8.679574168970454"><ele>183.0</ele><time>2026-04-11T16:19:57.001Z</time></trkpt><trkpt lat="45.56586457899888" lon="8.679702977570262"><ele>183.0</ele><time>2026-04-11T16:19:58Z</time></trkpt><trkpt lat="45.56583850974887" lon="8.679806115658737"><ele>183.0</ele><time>2026-04-11T16:19:59Z</time></trkpt><trkpt lat="45.56580549009269" lon="8.679907225360537"><ele>183.0</ele><time>2026-04-11T16:20:00Z</time></trkpt><trkpt lat="45.565766827350934" lon="8.680031503607074"><ele>183.0</ele><time>2026-04-11T16:20:01Z</time></trkpt><trkpt lat="45.56572491596623" lon="8.680171179746678"><ele>183.0</ele><time>2026-04-11T16:20:02Z</time></trkpt><trkpt lat="45.56567936483577" lon="8.680317815913062"><ele>183.0</ele><time>2026-04-11T16:20:03Z</time></trkpt><trkpt lat="45.5656355910564" lon="8.680431878163859"><ele>183.0</ele><time>2026-04-11T16:20:04Z</time></trkpt><trkpt lat="45.56558560049547" lon="8.680567708643993"><ele>183.0</ele><time>2026-04-11T16:20:05Z</time></trkpt><trkpt lat="45.56553042977395" lon="8.680711844567007"><ele>183.0</ele><time>2026-04-11T16:20:06Z</time></trkpt><trkpt lat="45.56547473289753" lon="8.680866871610222"><ele>183.0</ele><time>2026-04-11T16:20:07Z</time></trkpt><trkpt lat="45.56541823099335" lon="8.681027549887865"><ele>183.75</ele><time>2026-04-11T16:20:08Z</time></trkpt><trkpt lat="45.56536651388851" lon="8.681207016569081"><ele>184.5</ele><time>2026-04-11T16:20:09Z</time></trkpt><trkpt lat="45.56531309680118" lon="8.681397499820894"><ele>185.25</ele><time>2026-04-11T16:20:10Z</time></trkpt><trkpt lat="45.5652686917889" lon="8.681567561062428"><ele>186.0</ele><time>2026-04-11T16:20:11Z</time></trkpt><trkpt lat="45.56523452864083" lon="8.681734385515758"><ele>186.0</ele><time>2026-04-11T16:20:12Z</time></trkpt><trkpt lat="45.56519541823685" lon="8.681887486788217"><ele>186.0</ele><time>2026-04-11T16:20:13Z</time></trkpt><trkpt lat="45.565146887486804" lon="8.682020972491257"><ele>186.0</ele><time>2026-04-11T16:20:14Z</time></trkpt><trkpt lat="45.565093042122285" lon="8.682152938589939"><ele>186.0</ele><time>2026-04-11T16:20:15Z</time></trkpt><trkpt lat="45.56500792043871" lon="8.682243441167243"><ele>186.0</ele><time>2026-04-11T16:20:16Z</time></trkpt><trkpt lat="45.56492896760564" lon="8.682339030687137"><ele>184.0</ele><time>2026-04-11T16:20:17Z</time></trkpt><trkpt lat="45.564837276646095" lon="8.682439781865332"><ele>182.0</ele><time>2026-04-11T16:20:18Z</time></trkpt><trkpt lat="45.564751621414686" lon="8.682517331463268"><ele>180.0</ele><time>2026-04-11T16:20:19Z</time></trkpt><trkpt lat="45.564651601432104" lon="8.682600531015675"><ele>178.0</ele><time>2026-04-11T16:20:20Z</time></trkpt><trkpt lat="45.564538138590066" lon="8.682687839095847"><ele>176.25</ele><time>2026-04-11T16:20:21Z</time></trkpt><trkpt lat="45.56441105676196" lon="8.682777255877726"><ele>174.5</ele><time>2026-04-11T16:20:22Z</time></trkpt><trkpt lat="45.564286488280416" lon="8.6828695140123"><ele>172.75</ele><time>2026-04-11T16:20:23Z</time></trkpt><trkpt lat="45.56416572907073" lon="8.682986666428814"><ele>171.0</ele><time>2026-04-11T16:20:24Z</time></trkpt><trkpt lat="45.564031316595305" lon="8.68309429346944"><ele>171.0</ele><time>2026-04-11T16:20:25Z</time></trkpt><trkpt lat="45.563888246333285" lon="8.683218953004646"><ele>171.0</ele><time>2026-04-11T16:20:26Z</time></trkpt><trkpt lat="45.563737945827015" lon="8.683338626490023"><ele>171.0</ele><time>2026-04-11T16:20:27Z</time></trkpt><trkpt lat="45.56359255225079" lon="8.683465788430144"><ele>170.33333333333334</ele><time>2026-04-11T16:20:28Z</time></trkpt><trkpt lat="45.56344645612441" lon="8.683593241378768"><ele>169.66666666666669</ele><time>2026-04-11T16:20:29Z</time></trkpt><trkpt lat="45.56330706348921" lon="8.683721040858448"><ele>169.0</ele><time>2026-04-11T16:20:30Z</time></trkpt><trkpt lat="45.5631870093689" lon="8.68382702360244"><ele>169.0</ele><time>2026-04-11T16:20:31Z</time></trkpt><trkpt lat="45.56306124072003" lon="8.683937431198563"><ele>169.0</ele><time>2026-04-11T16:20:32Z</time></trkpt><trkpt lat="45.56293109678837" lon="8.68404417757373"><ele>169.0</ele><time>2026-04-11T16:20:33Z</time></trkpt><trkpt lat="45.56280788415298" lon="8.684152897065992"><ele>169.0</ele><time>2026-04-11T16:20:34Z</time></trkpt><trkpt lat="45.562702503346294" lon="8.684248811548064"><ele>169.25</ele><time>2026-04-11T16:20:35Z</time></trkpt><trkpt lat="45.562602503167525" lon="8.684341827701733"><ele>169.5</ele><time>2026-04-11T16:20:36Z</time></trkpt><trkpt lat="45.56250360147243" lon="8.684432946404238"><ele>169.75</ele><time>2026-04-11T16:20:37Z</time></trkpt><trkpt lat="45.56239044641471" lon="8.684494320133501"><ele>170.0</ele><time>2026-04-11T16:20:38Z</time></trkpt><trkpt lat="45.56228795413056" lon="8.684532685264632"><ele>170.0</ele><time>2026-04-11T16:20:39Z</time></trkpt><trkpt lat="45.5621819198631" lon="8.684560467312973"><ele>170.0</ele><time>2026-04-11T16:20:40Z</time></trkpt><trkpt lat="45.56208026505164" lon="8.684577908492853"><ele>170.0</ele><time>2026-04-11T16:20:41Z</time></trkpt><trkpt lat="45.56195481235483" lon="8.6846132584574"><ele>170.0</ele><time>2026-04-11T16:20:42Z</time></trkpt><trkpt lat="45.561825935314864" lon="8.684623526333661"><ele>170.75</ele><time>2026-04-11T16:20:43Z</time></trkpt><trkpt lat="45.561694164051474" lon="8.684644091249076"><ele>171.5</ele><time>2026-04-11T16:20:44Z</time></trkpt><trkpt lat="45.561593461611004" lon="8.68467540981667"><ele>172.25</ele><time>2026-04-11T16:20:45Z</time></trkpt><trkpt lat="45.561484601815245" lon="8.684718231207208"><ele>173.0</ele><time>2026-04-11T16:20:46Z</time></trkpt><trkpt lat="45.56136592904602" lon="8.684785230402566"><ele>173.0</ele><time>2026-04-11T16:20:47Z</time></trkpt><trkpt lat="45.56124045154871" lon="8.684863219264216"><ele>173.0</ele><time>2026-04-11T16:20:48Z</time></trkpt><trkpt lat="45.5611129929168" lon="8.68492250109157"><ele>173.0</ele><time>2026-04-11T16:20:49Z</time></trkpt><trkpt lat="45.56099164527196" lon="8.684992982454258"><ele>173.0</ele><time>2026-04-11T16:20:50Z</time></trkpt><trkpt lat="45.560861943087396" lon="8.6850705254148"><ele>173.60000000000002</ele><time>2026-04-11T16:20:51Z</time></trkpt><trkpt lat="45.56075582120193" lon="8.685149559690473"><ele>174.20000000000002</ele><time>2026-04-11T16:20:52Z</time></trkpt><trkpt lat="45.560646250361444" lon="8.685196156018343"><ele>174.8</ele><time>2026-04-11T16:20:53Z</time></trkpt><trkpt lat="45.56054596435524" lon="8.685270419753035"><ele>175.4</ele><time>2026-04-11T16:20:54Z</time></trkpt><trkpt lat="45.56046363449307" lon="8.685350683460696"><ele>176.0</ele><time>2026-04-11T16:20:55Z</time></trkpt><trkpt lat="45.56038836432886" lon="8.68545923157216"><ele>175.0</ele><time>2026-04-11T16:20:56Z</time></trkpt><trkpt lat="45.56031558569228" lon="8.685544716449671"><ele>174.0</ele><time>2026-04-11T16:20:57Z</time></trkpt><trkpt lat="45.56024640699574" lon="8.685651610484612"><ele>173.0</ele><time>2026-04-11T16:20:58Z</time></trkpt><trkpt lat="45.5601933540201" lon="8.685773788690963"><ele>172.0</ele><time>2026-04-11T16:20:59Z</time></trkpt><trkpt lat="45.560150070916826" lon="8.68590936174063"><ele>171.0</ele><time>2026-04-11T16:21:00Z</time></trkpt><trkpt lat="45.56012055527916" lon="8.686053164125859"><ele>169.5</ele><time>2026-04-11T16:21:01Z</time></trkpt><trkpt lat="45.560108260927464" lon="8.686188517366787"><ele>168.0</ele><time>2026-04-11T16:21:02Z</time></trkpt><trkpt lat="45.560108134162526" lon="8.68632980700593"><ele>166.5</ele><time>2026-04-11T16:21:03Z</time></trkpt><trkpt lat="45.560115928322006" lon="8.686461220778389"><ele>165.0</ele><time>2026-04-11T16:21:04Z</time></trkpt><trkpt lat="45.56013374515258" lon="8.686575670897637"><ele>163.5</ele><time>2026-04-11T16:21:05Z</time></trkpt><trkpt lat="45.560158486692956" lon="8.68667890959094"><ele>162.0</ele><time>2026-04-11T16:21:06Z</time></trkpt><trkpt lat="45.56019383733765" lon="8.686762538510436"><ele>162.0</ele><time>2026-04-11T16:21:06.999Z</time></trkpt><trkpt lat="45.560204281546824" lon="8.686870017983887"><ele>162.0</ele><time>2026-04-11T16:21:08.999Z</time></trkpt><trkpt lat="45.56021600182634" lon="8.686980715495716"><ele>162.0</ele><time>2026-04-11T16:21:10.999Z</time></trkpt><trkpt lat="45.56022320719323" lon="8.687098189248713"><ele>162.0</ele><time>2026-04-11T16:21:12.999Z</time></trkpt><trkpt lat="45.56000759969732" lon="8.687303311097281"><ele>161.33333333333334</ele><time>2026-04-11T16:21:13.999Z</time></trkpt><trkpt lat="45.559956456267514" lon="8.687386406177788"><ele>160.66666666666666</ele><time>2026-04-11T16:21:14.999Z</time></trkpt><trkpt lat="45.5598945394971" lon="8.687459711770863"><ele>160.0</ele><time>2026-04-11T16:21:15.999Z</time></trkpt><trkpt lat="45.55983655360523" lon="8.687550263799235"><ele>159.33333333333331</ele><time>2026-04-11T16:21:16.999Z</time></trkpt><trkpt lat="45.55977784830097" lon="8.687646663794656"><ele>158.66666666666666</ele><time>2026-04-11T16:21:17.999Z</time></trkpt><trkpt lat="45.559741028023595" lon="8.68773206587232"><ele>158.0</ele><time>2026-04-11T16:21:18.999Z</time></trkpt><trkpt lat="45.559713930830284" lon="8.687849799075646"><ele>157.66666666666666</ele><time>2026-04-11T16:21:19.999Z</time></trkpt><trkpt lat="45.55966944896843" lon="8.687953667279837"><ele>157.33333333333331</ele><time>2026-04-11T16:21:20.999Z</time></trkpt><trkpt lat="45.55961632102996" lon="8.68806702356761"><ele>157.0</ele><time>2026-04-11T16:21:21.999Z</time></trkpt><trkpt lat="45.55957627890836" lon="8.688158535670272"><ele>156.66666666666666</ele><time>2026-04-11T16:21:22.999Z</time></trkpt><trkpt lat="45.55953825431991" lon="8.688256930889409"><ele>156.33333333333334</ele><time>2026-04-11T16:21:23.999Z</time></trkpt><trkpt lat="45.55948542742463" lon="8.68832795029753"><ele>156.0</ele><time>2026-04-11T16:21:24.999Z</time></trkpt><trkpt lat="45.55939493954994" lon="8.688424461120366"><ele>156.0</ele><time>2026-04-11T16:21:25.999Z</time></trkpt><trkpt lat="45.5593149496888" lon="8.688506919172417"><ele>156.0</ele><time>2026-04-11T16:21:26.999Z</time></trkpt><trkpt lat="45.55921768213528" lon="8.688577377984979"><ele>156.0</ele><time>2026-04-11T16:21:27.999Z</time></trkpt><trkpt lat="45.559112635564716" lon="8.68864006978218"><ele>156.0</ele><time>2026-04-11T16:21:28.999Z</time></trkpt><trkpt lat="45.55902290369455" lon="8.688708509674"><ele>156.0</ele><time>2026-04-11T16:21:29.999Z</time></trkpt><trkpt lat="45.55894444338598" lon="8.688779033387892"><ele>155.8</ele><time>2026-04-11T16:21:30.999Z</time></trkpt><trkpt lat="45.55886669728276" lon="8.68881603423757"><ele>155.6</ele><time>2026-04-11T16:21:31.999Z</time></trkpt><trkpt lat="45.558762870224214" lon="8.688880054360151"><ele>155.4</ele><time>2026-04-11T16:21:32.999Z</time></trkpt><trkpt lat="45.55865182486031" lon="8.688926356094719"><ele>155.2</ele><time>2026-04-11T16:21:33.999Z</time></trkpt><trkpt lat="45.558540303360225" lon="8.688991068027532"><ele>155.0</ele><time>2026-04-11T16:21:34.999Z</time></trkpt><trkpt lat="45.55844516483856" lon="8.689054533416385"><ele>155.0</ele><time>2026-04-11T16:21:35.999Z</time></trkpt><trkpt lat="45.5583522414243" lon="8.689118090706605"><ele>155.0</ele><time>2026-04-11T16:21:36.999Z</time></trkpt><trkpt lat="45.55824986084907" lon="8.68919740435886"><ele>155.0</ele><time>2026-04-11T16:21:37.999Z</time></trkpt><trkpt lat="45.558132349753606" lon="8.689296574826965"><ele>155.0</ele><time>2026-04-11T16:21:38.999Z</time></trkpt><trkpt lat="45.55803763309157" lon="8.689380366335552"><ele>154.25</ele><time>2026-04-11T16:21:39.999Z</time></trkpt><trkpt lat="45.55794324083216" lon="8.689465092460473"><ele>153.5</ele><time>2026-04-11T16:21:40.999Z</time></trkpt><trkpt lat="45.55785145728103" lon="8.6895444248458"><ele>152.75</ele><time>2026-04-11T16:21:41.999Z</time></trkpt><trkpt lat="45.557750569556994" lon="8.689644758906757"><ele>152.0</ele><time>2026-04-11T16:21:42.999Z</time></trkpt><trkpt lat="45.55765671968821" lon="8.689769979564026"><ele>152.0</ele><time>2026-04-11T16:21:43.999Z</time></trkpt><trkpt lat="45.5575854273675" lon="8.68988947400115"><ele>152.0</ele><time>2026-04-11T16:21:44.999Z</time></trkpt><trkpt lat="45.55751643741835" lon="8.69001800441321"><ele>152.0</ele><time>2026-04-11T16:21:45.999Z</time></trkpt><trkpt lat="45.557438256770425" lon="8.69016036286032"><ele>152.0</ele><time>2026-04-11T16:21:46.999Z</time></trkpt><trkpt lat="45.557361792427024" lon="8.690312436136908"><ele>151.75</ele><time>2026-04-11T16:21:47.999Z</time></trkpt><trkpt lat="45.55731897652573" lon="8.69044468987136"><ele>151.5</ele><time>2026-04-11T16:21:49.001Z</time></trkpt><trkpt lat="45.55724937533976" lon="8.690590425210496"><ele>151.25</ele><time>2026-04-11T16:21:50.001Z</time></trkpt><trkpt lat="45.557160543867965" lon="8.690731269580219"><ele>151.0</ele><time>2026-04-11T16:21:51.001Z</time></trkpt><trkpt lat="45.55708520661875" lon="8.690865079052102"><ele>152.0</ele><time>2026-04-11T16:21:52.001Z</time></trkpt><trkpt lat="45.55701088271569" lon="8.69097162915685"><ele>153.0</ele><time>2026-04-11T16:21:53.001Z</time></trkpt><trkpt lat="45.55696360997866" lon="8.691081601878471"><ele>154.0</ele><time>2026-04-11T16:21:54.001Z</time></trkpt><trkpt lat="45.5568825939638" lon="8.691212985459487"><ele>155.0</ele><time>2026-04-11T16:21:55.001Z</time></trkpt><trkpt lat="45.55679816615877" lon="8.69132983142395"><ele>156.0</ele><time>2026-04-11T16:21:56.001Z</time></trkpt><trkpt lat="45.556734704630365" lon="8.691428957507654"><ele>156.2</ele><time>2026-04-11T16:21:57.001Z</time></trkpt><trkpt lat="45.55666680340687" lon="8.691529172598598"><ele>156.39999999999998</ele><time>2026-04-11T16:21:58.001Z</time></trkpt><trkpt lat="45.55662154946197" lon="8.6916142638219"><ele>156.6</ele><time>2026-04-11T16:21:59.001Z</time></trkpt><trkpt lat="45.55654867084444" lon="8.691764194531487"><ele>156.79999999999998</ele><time>2026-04-11T16:22:01.001Z</time></trkpt><trkpt lat="45.55652335809105" lon="8.69185725943461"><ele>157.0</ele><time>2026-04-11T16:22:02.001Z</time></trkpt><trkpt lat="45.556487232913504" lon="8.691963945434281"><ele>156.7142857142857</ele><time>2026-04-11T16:22:04.001Z</time></trkpt><trkpt lat="45.556425349996225" lon="8.692013445796386"><ele>156.42857142857142</ele><time>2026-04-11T16:22:06.001Z</time></trkpt><trkpt lat="45.556361496499726" lon="8.692029874675027"><ele>156.14285714285714</ele><time>2026-04-11T16:22:08.001Z</time></trkpt><trkpt lat="45.55628231054905" lon="8.692028231150774"><ele>155.85714285714283</ele><time>2026-04-11T16:22:16.001Z</time></trkpt><trkpt lat="45.556218573207765" lon="8.691991815540751"><ele>155.57142857142856</ele><time>2026-04-11T16:22:18.001Z</time></trkpt><trkpt lat="45.556139399618935" lon="8.691990071853402"><ele>155.28571428571428</ele><time>2026-04-11T16:22:19.001Z</time></trkpt><trkpt lat="45.556062946261115" lon="8.691959636954014"><ele>155.0</ele><time>2026-04-11T16:22:20.001Z</time></trkpt><trkpt lat="45.55597922849752" lon="8.69195677693645"><ele>155.0</ele><time>2026-04-11T16:22:21.999Z</time></trkpt><trkpt lat="45.55591357143272" lon="8.691997530548083"><ele>155.0</ele><time>2026-04-11T16:22:22.999Z</time></trkpt><trkpt lat="45.55585211539204" lon="8.69203029111272"><ele>155.0</ele><time>2026-04-11T16:22:23.999Z</time></trkpt><trkpt lat="45.55578717069539" lon="8.69203896215353"><ele>155.0</ele><time>2026-04-11T16:22:24.999Z</time></trkpt><trkpt lat="45.55565631627658" lon="8.692030858791119"><ele>155.0</ele><time>2026-04-11T16:22:27.999Z</time></trkpt><trkpt lat="45.55556167633706" lon="8.692045883418563"><ele>155.0</ele><time>2026-04-11T16:22:29.999Z</time></trkpt><trkpt lat="45.55546000209541" lon="8.692051706174446"><ele>155.0</ele><time>2026-04-11T16:22:31.999Z</time></trkpt><trkpt lat="45.555378942134446" lon="8.692045195892302"><ele>155.0</ele><time>2026-04-11T16:22:33.999Z</time></trkpt><trkpt lat="45.55529563182829" lon="8.692036289949879"><ele>155.0</ele><time>2026-04-11T16:22:35.999Z</time></trkpt><trkpt lat="45.55522534564456" lon="8.692028851537803"><ele>155.0</ele><time>2026-04-11T16:22:36.999Z</time></trkpt><trkpt lat="45.55511825880506" lon="8.692004152101356"><ele>155.0</ele><time>2026-04-11T16:22:38.999Z</time></trkpt><trkpt lat="45.55499313331142" lon="8.691994968566261"><ele>155.83333333333331</ele><time>2026-04-11T16:22:40.999Z</time></trkpt><trkpt lat="45.55492314485421" lon="8.692015556761302"><ele>156.66666666666666</ele><time>2026-04-11T16:22:41.999Z</time></trkpt><trkpt lat="45.554848146330336" lon="8.691968459710322"><ele>157.5</ele><time>2026-04-11T16:22:43.999Z</time></trkpt><trkpt lat="45.55483355427089" lon="8.691865475908358"><ele>158.33333333333334</ele><time>2026-04-11T16:22:44.999Z</time></trkpt><trkpt lat="45.554755768841716" lon="8.691764769111426"><ele>159.16666666666669</ele><time>2026-04-11T16:22:46.999Z</time></trkpt><trkpt lat="45.554682688032344" lon="8.691741635483574"><ele>160.0</ele><time>2026-04-11T16:22:48.999Z</time></trkpt><trkpt lat="45.55460606990943" lon="8.69170422330661"><ele>162.8</ele><time>2026-04-11T16:22:51.999Z</time></trkpt><trkpt lat="45.55451560012292" lon="8.691723888108973"><ele>165.6</ele><time>2026-04-11T16:22:53.999Z</time></trkpt><trkpt lat="45.55444253564248" lon="8.691703369249005"><ele>168.39999999999998</ele><time>2026-04-11T16:22:55.999Z</time></trkpt><trkpt lat="45.554333324572724" lon="8.691736282081887"><ele>171.2</ele><time>2026-04-11T16:22:58.999Z</time></trkpt><trkpt lat="45.55426557118259" lon="8.691829709230204"><ele>174.0</ele><time>2026-04-11T16:22:59.999Z</time></trkpt><trkpt lat="45.55412991040019" lon="8.69180677528249"><ele>174.0</ele><time>2026-04-11T16:23:01.999Z</time></trkpt><trkpt lat="45.55406157331296" lon="8.69168474224974"><ele>174.0</ele><time>2026-04-11T16:23:03.999Z</time></trkpt><trkpt lat="45.5540176948677" lon="8.691540701150593"><ele>174.0</ele><time>2026-04-11T16:23:05.999Z</time></trkpt><trkpt lat="45.553986995375894" lon="8.691350809058106"><ele>174.0</ele><time>2026-04-11T16:23:07.999Z</time></trkpt><trkpt lat="45.55396702176327" lon="8.69122924146553"><ele>174.0</ele><time>2026-04-11T16:23:08.999Z</time></trkpt><trkpt lat="45.55395750406931" lon="8.6911145861544"><ele>174.0</ele><time>2026-04-11T16:23:09.999Z</time></trkpt><trkpt lat="45.55394950983379" lon="8.69101874498075"><ele>174.0</ele><time>2026-04-11T16:23:10.999Z</time></trkpt><trkpt lat="45.5539474768369" lon="8.69090988492652"><ele>174.0</ele><time>2026-04-11T16:23:12.999Z</time></trkpt><trkpt lat="45.55393862152552" lon="8.690785287656793"><ele>174.0</ele><time>2026-04-11T16:23:14.999Z</time></trkpt><trkpt lat="45.55392916897493" lon="8.690635291242677"><ele>174.0</ele><time>2026-04-11T16:23:16.999Z</time></trkpt><trkpt lat="45.553923901375995" lon="8.690515849156416"><ele>174.0</ele><time>2026-04-11T16:23:18.999Z</time></trkpt><trkpt lat="45.553913898846446" lon="8.690377444677013"><ele>174.5</ele><time>2026-04-11T16:23:20.999Z</time></trkpt><trkpt lat="45.55389626912347" lon="8.690213052067936"><ele>175.0</ele><time>2026-04-11T16:23:22.999Z</time></trkpt><trkpt lat="45.55385206435798" lon="8.69014371149414"><ele>175.5</ele><time>2026-04-11T16:23:23.999Z</time></trkpt><trkpt lat="45.55376832625865" lon="8.689960038054684"><ele>176.0</ele><time>2026-04-11T16:23:25.999Z</time></trkpt><trkpt lat="45.55369376733508" lon="8.689825348219673"><ele>176.83333333333331</ele><time>2026-04-11T16:23:27.999Z</time></trkpt><trkpt lat="45.55367773050104" lon="8.6897030259042"><ele>177.66666666666666</ele><time>2026-04-11T16:23:29.999Z</time></trkpt><trkpt lat="45.55368685640126" lon="8.689608908302883"><ele>178.5</ele><time>2026-04-11T16:23:30.998Z</time></trkpt><trkpt lat="45.55364178639935" lon="8.68945532077383"><ele>179.33333333333334</ele><time>2026-04-11T16:23:32.998Z</time></trkpt><trkpt lat="45.55361285536843" lon="8.68936660446448"><ele>180.16666666666669</ele><time>2026-04-11T16:23:33.998Z</time></trkpt><trkpt lat="45.553598208466646" lon="8.689261298688733"><ele>181.0</ele><time>2026-04-11T16:23:34.998Z</time></trkpt><trkpt lat="45.5535867867692" lon="8.689163537322388"><ele>181.0</ele><time>2026-04-11T16:23:35.998Z</time></trkpt><trkpt lat="45.55357874434181" lon="8.689072650388036"><ele>181.0</ele><time>2026-04-11T16:23:36.998Z</time></trkpt><trkpt lat="45.5535597342433" lon="8.688956151600683"><ele>181.0</ele><time>2026-04-11T16:23:37.998Z</time></trkpt><trkpt lat="45.55354554585284" lon="8.68885777083466"><ele>181.0</ele><time>2026-04-11T16:23:38.998Z</time></trkpt><trkpt lat="45.553521494280716" lon="8.68873095298713"><ele>181.0</ele><time>2026-04-11T16:23:39.998Z</time></trkpt><trkpt lat="45.553507204720425" lon="8.688592480886324"><ele>181.0</ele><time>2026-04-11T16:23:41.998Z</time></trkpt><trkpt lat="45.553530512019535" lon="8.688508786862883"><ele>181.33333333333334</ele><time>2026-04-11T16:23:42.998Z</time></trkpt><trkpt lat="45.553558041485644" lon="8.68840761383638"><ele>181.66666666666669</ele><time>2026-04-11T16:23:43.998Z</time></trkpt><trkpt lat="45.553557316384214" lon="8.68828539606211"><ele>182.0</ele><time>2026-04-11T16:23:44.998Z</time></trkpt><trkpt lat="45.55353966207985" lon="8.688114016225745"><ele>182.33333333333334</ele><time>2026-04-11T16:23:45.998Z</time></trkpt><trkpt lat="45.553524321448826" lon="8.68799012612146"><ele>182.66666666666666</ele><time>2026-04-11T16:23:46.998Z</time></trkpt><trkpt lat="45.553523235824166" lon="8.687899723340724"><ele>183.0</ele><time>2026-04-11T16:23:47.998Z</time></trkpt><trkpt lat="45.55351746288929" lon="8.687790581645427"><ele>183.2</ele><time>2026-04-11T16:23:48.998Z</time></trkpt><trkpt lat="45.55349537601595" lon="8.68770244172916"><ele>183.4</ele><time>2026-04-11T16:23:49.998Z</time></trkpt><trkpt lat="45.5534622301756" lon="8.687500998640507"><ele>183.6</ele><time>2026-04-11T16:23:51.998Z</time></trkpt><trkpt lat="45.55345221874163" lon="8.68738264984847"><ele>183.79999999999998</ele><time>2026-04-11T16:23:52.998Z</time></trkpt><trkpt lat="45.553448012152316" lon="8.687251536450924"><ele>184.0</ele><time>2026-04-11T16:23:53.998Z</time></trkpt><trkpt lat="45.55343131975182" lon="8.687138251725507"><ele>184.0</ele><time>2026-04-11T16:23:54.999Z</time></trkpt><trkpt lat="45.55342160250814" lon="8.687027328681513"><ele>184.0</ele><time>2026-04-11T16:23:55.999Z</time></trkpt><trkpt lat="45.55342127574656" lon="8.686911357652674"><ele>184.0</ele><time>2026-04-11T16:23:56.999Z</time></trkpt><trkpt lat="45.553434279793606" lon="8.68680751522781"><ele>184.0</ele><time>2026-04-11T16:23:57.999Z</time></trkpt><trkpt lat="45.553434243550875" lon="8.686713579459497"><ele>184.0</ele><time>2026-04-11T16:23:58.999Z</time></trkpt><trkpt lat="45.55342217485063" lon="8.686583118646668"><ele>184.0</ele><time>2026-04-11T16:24:00.999Z</time></trkpt><trkpt lat="45.55345012088696" lon="8.686390209185145"><ele>183.83333333333334</ele><time>2026-04-11T16:24:02.999Z</time></trkpt><trkpt lat="45.553447766773985" lon="8.686286933231353"><ele>183.66666666666669</ele><time>2026-04-11T16:24:03.999Z</time></trkpt><trkpt lat="45.55344129582922" lon="8.68617968921335"><ele>183.5</ele><time>2026-04-11T16:24:05.999Z</time></trkpt><trkpt lat="45.55349848670319" lon="8.686081422247"><ele>183.33333333333334</ele><time>2026-04-11T16:24:08.999Z</time></trkpt><trkpt lat="45.55346579709927" lon="8.68597060904504"><ele>183.16666666666666</ele><time>2026-04-11T16:24:10.999Z</time></trkpt><trkpt lat="45.553412811811015" lon="8.685888141654292"><ele>183.0</ele><time>2026-04-11T16:24:11.999Z</time></trkpt><trkpt lat="45.55340153113832" lon="8.685659173571185"><ele>183.0</ele><time>2026-04-11T16:24:13.999Z</time></trkpt><trkpt lat="45.55339496164785" lon="8.685559402255288"><ele>183.0</ele><time>2026-04-11T16:24:14.999Z</time></trkpt><trkpt lat="45.55341203325465" lon="8.68546578821681"><ele>183.0</ele><time>2026-04-11T16:24:15.999Z</time></trkpt><trkpt lat="45.5534282977743" lon="8.685343834136395"><ele>183.0</ele><time>2026-04-11T16:24:16.999Z</time></trkpt><trkpt lat="45.55340859427376" lon="8.685204166402416"><ele>183.0</ele><time>2026-04-11T16:24:17.999Z</time></trkpt><trkpt lat="45.553387851519126" lon="8.685110548051435"><ele>183.0</ele><time>2026-04-11T16:24:18.999Z</time></trkpt><trkpt lat="45.55334917595739" lon="8.68494070192217"><ele>183.5</ele><time>2026-04-11T16:24:19.999Z</time></trkpt><trkpt lat="45.553336529309995" lon="8.684806606347614"><ele>184.0</ele><time>2026-04-11T16:24:20.999Z</time></trkpt><trkpt lat="45.55328612072738" lon="8.684613740889752"><ele>184.5</ele><time>2026-04-11T16:24:22.999Z</time></trkpt><trkpt lat="45.55325655672162" lon="8.68449471566584"><ele>185.0</ele><time>2026-04-11T16:24:23.999Z</time></trkpt><trkpt lat="45.55324862865153" lon="8.684318283067391"><ele>185.33333333333331</ele><time>2026-04-11T16:24:25.999Z</time></trkpt><trkpt lat="45.553237124119285" lon="8.684196215437941"><ele>185.66666666666666</ele><time>2026-04-11T16:24:26.999Z</time></trkpt><trkpt lat="45.553240302872084" lon="8.684042087856833"><ele>186.0</ele><time>2026-04-11T16:24:27.999Z</time></trkpt><trkpt lat="45.55324792844076" lon="8.683932460823765"><ele>186.33333333333334</ele><time>2026-04-11T16:24:28.999Z</time></trkpt><trkpt lat="45.55325507339131" lon="8.683838452032358"><ele>186.66666666666669</ele><time>2026-04-11T16:24:29.999Z</time></trkpt><trkpt lat="45.553239634683905" lon="8.6837286445603"><ele>187.0</ele><time>2026-04-11T16:24:30.999Z</time></trkpt><trkpt lat="45.55326947204165" lon="8.683577729696244"><ele>187.8</ele><time>2026-04-11T16:24:32.999Z</time></trkpt><trkpt lat="45.55330102184473" lon="8.683431708637615"><ele>188.6</ele><time>2026-04-11T16:24:33.999Z</time></trkpt><trkpt lat="45.55328954249941" lon="8.683316219447732"><ele>189.4</ele><time>2026-04-11T16:24:34.999Z</time></trkpt><trkpt lat="45.553277468519" lon="8.683158064571339"><ele>190.20000000000002</ele><time>2026-04-11T16:24:35.999Z</time></trkpt><trkpt lat="45.553276527902206" lon="8.683036804271817"><ele>191.0</ele><time>2026-04-11T16:24:36.999Z</time></trkpt><trkpt lat="45.55329376476065" lon="8.682909238196066"><ele>191.0</ele><time>2026-04-11T16:24:37.999Z</time></trkpt><trkpt lat="45.55330832214875" lon="8.682799533512107"><ele>191.0</ele><time>2026-04-11T16:24:38.999Z</time></trkpt><trkpt lat="45.5533100606369" lon="8.682644601470535"><ele>191.0</ele><time>2026-04-11T16:24:40.999Z</time></trkpt><trkpt lat="45.55326682437099" lon="8.682494730842986"><ele>191.0</ele><time>2026-04-11T16:24:42.999Z</time></trkpt><trkpt lat="45.55321197417501" lon="8.682408063894504"><ele>191.0</ele><time>2026-04-11T16:24:43.999Z</time></trkpt><trkpt lat="45.55313737857292" lon="8.682314767610412"><ele>191.0</ele><time>2026-04-11T16:24:44.999Z</time></trkpt><trkpt lat="45.55307530691381" lon="8.682205180413302"><ele>191.0</ele><time>2026-04-11T16:24:45.999Z</time></trkpt><trkpt lat="45.55305306705804" lon="8.682108932024788"><ele>191.0</ele><time>2026-04-11T16:24:46.999Z</time></trkpt><trkpt lat="45.552988232281855" lon="8.68205905378088"><ele>191.0</ele><time>2026-04-11T16:24:48.999Z</time></trkpt><trkpt lat="45.55293472758605" lon="8.68214282621134"><ele>191.0</ele><time>2026-04-11T16:24:50.999Z</time></trkpt><trkpt lat="45.55290169872852" lon="8.682268077960135"><ele>191.0</ele><time>2026-04-11T16:24:52.999Z</time></trkpt><trkpt lat="45.55286859356506" lon="8.682352614972329"><ele>191.0</ele><time>2026-04-11T16:24:54.999Z</time></trkpt><trkpt lat="45.55283606905367" lon="8.68246583640565"><ele>191.0</ele><time>2026-04-11T16:24:57.999Z</time></trkpt><trkpt lat="45.55278435931736" lon="8.682547341941504"><ele>191.0</ele><time>2026-04-11T16:24:59.999Z</time></trkpt><trkpt lat="45.552724674757265" lon="8.682635032303418"><ele>191.0</ele><time>2026-04-11T16:25:01.999Z</time></trkpt><trkpt lat="45.55267649590914" lon="8.682733028524115"><ele>191.0</ele><time>2026-04-11T16:25:04.999Z</time></trkpt><trkpt lat="45.5526177479976" lon="8.682811598968039"><ele>191.0</ele><time>2026-04-11T16:25:07.999Z</time></trkpt><trkpt lat="45.55258143980195" lon="8.682903536331638"><ele>191.0</ele><time>2026-04-11T16:25:09.999Z</time></trkpt><trkpt lat="45.552643196432356" lon="8.68275740992324"><ele>191.0</ele><time>2026-04-11T16:25:18.999Z</time></trkpt><trkpt lat="45.552691140039705" lon="8.682684545437855"><ele>191.0</ele><time>2026-04-11T16:25:19.999Z</time></trkpt><trkpt lat="45.552732253881956" lon="8.682613487740754"><ele>191.0</ele><time>2026-04-11T16:25:20.999Z</time></trkpt><trkpt lat="45.552785392540876" lon="8.682527145670907"><ele>191.0</ele><time>2026-04-11T16:25:22.998Z</time></trkpt><trkpt lat="45.55284726885523" lon="8.682408330534239"><ele>191.0</ele><time>2026-04-11T16:25:24.998Z</time></trkpt><trkpt lat="45.5528871285304" lon="8.682306143474321"><ele>191.0</ele><time>2026-04-11T16:25:26.998Z</time></trkpt><trkpt lat="45.552927492595245" lon="8.68220154263069"><ele>191.0</ele><time>2026-04-11T16:25:28.998Z</time></trkpt><trkpt lat="45.552933294660924" lon="8.682106755103753"><ele>191.0</ele><time>2026-04-11T16:25:31.998Z</time></trkpt><trkpt lat="45.55284892910168" lon="8.68206673232712"><ele>191.0</ele><time>2026-04-11T16:25:34.998Z</time></trkpt><trkpt lat="45.55280712495196" lon="8.681989395204402"><ele>191.0</ele><time>2026-04-11T16:25:38.998Z</time></trkpt><trkpt lat="45.55273080683271" lon="8.681957613532731"><ele>191.0</ele><time>2026-04-11T16:25:40.998Z</time></trkpt><trkpt lat="45.55264852200502" lon="8.682055414004758"><ele>191.0</ele><time>2026-04-11T16:25:42.998Z</time></trkpt><trkpt lat="45.552545147738385" lon="8.682089419217954"><ele>191.0</ele><time>2026-04-11T16:25:44.998Z</time></trkpt><trkpt lat="45.55246497928415" lon="8.68206343733009"><ele>191.0</ele><time>2026-04-11T16:25:46.998Z</time></trkpt><trkpt lat="45.55239631005898" lon="8.682111208563047"><ele>191.0</ele><time>2026-04-11T16:25:48.998Z</time></trkpt><trkpt lat="45.55231077910463" lon="8.682100772653737"><ele>191.0</ele><time>2026-04-11T16:25:49.998Z</time></trkpt><trkpt lat="45.55224941973084" lon="8.682178715042008"><ele>191.0</ele><time>2026-04-11T16:25:51.998Z</time></trkpt><trkpt lat="45.55214074743037" lon="8.682185613738563"><ele>191.0</ele><time>2026-04-11T16:25:53.998Z</time></trkpt><trkpt lat="45.55207396811052" lon="8.682176249171597"><ele>191.0</ele><time>2026-04-11T16:25:54.998Z</time></trkpt><trkpt lat="45.551994802282984" lon="8.682171082124405"><ele>191.0</ele><time>2026-04-11T16:25:55.998Z</time></trkpt><trkpt lat="45.5519211079996" lon="8.682187896402937"><ele>191.0</ele><time>2026-04-11T16:25:56.998Z</time></trkpt><trkpt lat="45.55182862095038" lon="8.682163501625231"><ele>191.0</ele><time>2026-04-11T16:25:57.998Z</time></trkpt><trkpt lat="45.551737802509706" lon="8.682179441459526"><ele>191.0</ele><time>2026-04-11T16:25:58.998Z</time></trkpt><trkpt lat="45.55166877693775" lon="8.682202750888814"><ele>190.0</ele><time>2026-04-11T16:25:59.998Z</time></trkpt><trkpt lat="45.551604125512455" lon="8.682231987847503"><ele>189.0</ele><time>2026-04-11T16:26:01Z</time></trkpt><trkpt lat="45.551479903456936" lon="8.682312647060241"><ele>188.0</ele><time>2026-04-11T16:26:03Z</time></trkpt><trkpt lat="45.55138021813951" lon="8.682373782610687"><ele>187.0</ele><time>2026-04-11T16:26:05Z</time></trkpt><trkpt lat="45.55130394202918" lon="8.682376463517537"><ele>186.0</ele><time>2026-04-11T16:26:07Z</time></trkpt><trkpt lat="45.551179944396516" lon="8.682354744622105"><ele>186.0</ele><time>2026-04-11T16:26:09Z</time></trkpt><trkpt lat="45.551112274482456" lon="8.682378452467418"><ele>186.0</ele><time>2026-04-11T16:26:11Z</time></trkpt><trkpt lat="45.55109712574679" lon="8.682467931705327"><ele>186.0</ele><time>2026-04-11T16:26:13Z</time></trkpt><trkpt lat="45.55106185496673" lon="8.682639957693935"><ele>186.0</ele><time>2026-04-11T16:26:15Z</time></trkpt><trkpt lat="45.55103919790847" lon="8.68274540188349"><ele>186.0</ele><time>2026-04-11T16:26:18Z</time></trkpt><trkpt lat="45.55101218196411" lon="8.682857281850376"><ele>186.0</ele><time>2026-04-11T16:26:21Z</time></trkpt><trkpt lat="45.55107940333199" lon="8.682892038408534"><ele>186.0</ele><time>2026-04-11T16:26:24Z</time></trkpt><trkpt lat="45.551161834070946" lon="8.682852355837264"><ele>186.0</ele><time>2026-04-11T16:26:26Z</time></trkpt><trkpt lat="45.551270357913516" lon="8.682822694307351"><ele>186.0</ele><time>2026-04-11T16:26:28Z</time></trkpt><trkpt lat="45.5513451051486" lon="8.682855564462573"><ele>186.0</ele><time>2026-04-11T16:26:30Z</time></trkpt><trkpt lat="45.55141350761543" lon="8.682916334556623"><ele>186.0</ele><time>2026-04-11T16:26:32Z</time></trkpt><trkpt lat="45.551475876488155" lon="8.682994227709456"><ele>186.0</ele><time>2026-04-11T16:26:34Z</time></trkpt><trkpt lat="45.55156006353769" lon="8.682995832350636"><ele>185.83333333333334</ele><time>2026-04-11T16:26:36Z</time></trkpt><trkpt lat="45.551653680948796" lon="8.682919995043969"><ele>185.66666666666666</ele><time>2026-04-11T16:26:38Z</time></trkpt><trkpt lat="45.55173333604048" lon="8.682895642618435"><ele>185.5</ele><time>2026-04-11T16:26:40Z</time></trkpt><trkpt lat="45.55175090813424" lon="8.682996451740086"><ele>185.33333333333331</ele><time>2026-04-11T16:26:44Z</time></trkpt><trkpt lat="45.55170670732822" lon="8.683064612086758"><ele>185.16666666666666</ele><time>2026-04-11T16:26:49.999Z</time></trkpt><trkpt lat="45.55168014276697" lon="8.68321784517087"><ele>185.0</ele><time>2026-04-11T16:26:51.999Z</time></trkpt><trkpt lat="45.55165540552616" lon="8.68332862132613"><ele>185.0</ele><time>2026-04-11T16:26:53.999Z</time></trkpt><trkpt lat="45.55174717200784" lon="8.683418434747317"><ele>185.0</ele><time>2026-04-11T16:26:56.999Z</time></trkpt><trkpt lat="45.551830249983574" lon="8.683381960261926"><ele>185.0</ele><time>2026-04-11T16:26:58.999Z</time></trkpt><trkpt lat="45.55183634357261" lon="8.68327750993144"><ele>185.0</ele><time>2026-04-11T16:27:00.999Z</time></trkpt><trkpt lat="45.55179296828366" lon="8.68314199513621"><ele>185.0</ele><time>2026-04-11T16:27:02.999Z</time></trkpt><trkpt lat="45.55178487816804" lon="8.683048499329724"><ele>185.0</ele><time>2026-04-11T16:27:03.999Z</time></trkpt><trkpt lat="45.5517626714495" lon="8.682964207062236"><ele>185.0</ele><time>2026-04-11T16:27:04.999Z</time></trkpt><trkpt lat="45.55168981301332" lon="8.682899284667458"><ele>185.0</ele><time>2026-04-11T16:27:06.999Z</time></trkpt><trkpt lat="45.55161706525584" lon="8.682949588076161"><ele>185.0</ele><time>2026-04-11T16:27:08.999Z</time></trkpt><trkpt lat="45.55149844853117" lon="8.683023280438242"><ele>185.0</ele><time>2026-04-11T16:27:10.999Z</time></trkpt><trkpt lat="45.55141068055996" lon="8.682972189075235"><ele>185.0</ele><time>2026-04-11T16:27:12.999Z</time></trkpt><trkpt lat="45.55134376647241" lon="8.682861444428765"><ele>185.0</ele><time>2026-04-11T16:27:14.999Z</time></trkpt><trkpt lat="45.55126951019593" lon="8.682846012545465"><ele>185.0</ele><time>2026-04-11T16:27:16.999Z</time></trkpt><trkpt lat="45.551184605154575" lon="8.682832060109732"><ele>185.0</ele><time>2026-04-11T16:27:18.999Z</time></trkpt><trkpt lat="45.55109854836342" lon="8.682856994686723"><ele>185.0</ele><time>2026-04-11T16:27:20.999Z</time></trkpt><trkpt lat="45.551003348773556" lon="8.68289602351366"><ele>185.0</ele><time>2026-04-11T16:27:23.999Z</time></trkpt><trkpt lat="45.550978855697906" lon="8.682993544534495"><ele>185.0</ele><time>2026-04-11T16:27:25.999Z</time></trkpt><trkpt lat="45.550955804745165" lon="8.683132136066781"><ele>185.25</ele><time>2026-04-11T16:27:27.999Z</time></trkpt><trkpt lat="45.55092470863266" lon="8.683259844872202"><ele>185.5</ele><time>2026-04-11T16:27:28.999Z</time></trkpt><trkpt lat="45.55088881335562" lon="8.683411221853909"><ele>185.75</ele><time>2026-04-11T16:27:29.999Z</time></trkpt><trkpt lat="45.55085995124798" lon="8.683598171236463"><ele>186.0</ele><time>2026-04-11T16:27:30.999Z</time></trkpt><trkpt lat="45.550840693427574" lon="8.68383409930624"><ele>186.75</ele><time>2026-04-11T16:27:31.999Z</time></trkpt><trkpt lat="45.550821003725694" lon="8.684080501602201"><ele>187.5</ele><time>2026-04-11T16:27:32.999Z</time></trkpt><trkpt lat="45.55082454395239" lon="8.684264843909117"><ele>188.25</ele><time>2026-04-11T16:27:33.999Z</time></trkpt><trkpt lat="45.550817394833985" lon="8.684420395018021"><ele>189.0</ele><time>2026-04-11T16:27:34.999Z</time></trkpt><trkpt lat="45.55081023988118" lon="8.684545469657843"><ele>189.0</ele><time>2026-04-11T16:27:35.999Z</time></trkpt><trkpt lat="45.55080071840711" lon="8.68469945531908"><ele>189.0</ele><time>2026-04-11T16:27:37.999Z</time></trkpt><trkpt lat="45.55078603518911" lon="8.684820302365196"><ele>189.0</ele><time>2026-04-11T16:27:39.999Z</time></trkpt><trkpt lat="45.55075486923989" lon="8.684903829358557"><ele>189.0</ele><time>2026-04-11T16:27:41.999Z</time></trkpt><trkpt lat="45.55080974529533" lon="8.684761674840061"><ele>189.0</ele><time>2026-04-11T16:27:47.999Z</time></trkpt><trkpt lat="45.55080383864687" lon="8.684621892538512"><ele>189.0</ele><time>2026-04-11T16:27:48.999Z</time></trkpt><trkpt lat="45.550806844707104" lon="8.684516845348446"><ele>189.0</ele><time>2026-04-11T16:27:49.999Z</time></trkpt><trkpt lat="45.55081299383265" lon="8.684416756742703"><ele>189.0</ele><time>2026-04-11T16:27:50.999Z</time></trkpt><trkpt lat="45.55082156147762" lon="8.684306661221338"><ele>189.0</ele><time>2026-04-11T16:27:51.999Z</time></trkpt><trkpt lat="45.55082256979621" lon="8.684197683332568"><ele>189.0</ele><time>2026-04-11T16:27:52.999Z</time></trkpt><trkpt lat="45.55082273309649" lon="8.684101008080166"><ele>189.0</ele><time>2026-04-11T16:27:53.999Z</time></trkpt><trkpt lat="45.550833329762575" lon="8.683920040718773"><ele>189.0</ele><time>2026-04-11T16:27:55.999Z</time></trkpt><trkpt lat="45.55083861727196" lon="8.683816185653965"><ele>189.0</ele><time>2026-04-11T16:27:56.999Z</time></trkpt><trkpt lat="45.55084285293736" lon="8.683680390856857"><ele>189.0</ele><time>2026-04-11T16:27:57.999Z</time></trkpt><trkpt lat="45.55085864106493" lon="8.683535694785359"><ele>189.0</ele><time>2026-04-11T16:27:58.999Z</time></trkpt><trkpt lat="45.55087487269366" lon="8.683396373277965"><ele>189.0</ele><time>2026-04-11T16:27:59.999Z</time></trkpt><trkpt lat="45.550906721321304" lon="8.68327142526355"><ele>188.5</ele><time>2026-04-11T16:28:00.999Z</time></trkpt><trkpt lat="45.550945077279" lon="8.683137106705853"><ele>188.0</ele><time>2026-04-11T16:28:01.999Z</time></trkpt><trkpt lat="45.55086520259223" lon="8.683113803758102"><ele>187.5</ele><time>2026-04-11T16:28:26Z</time></trkpt><trkpt lat="45.550798637443314" lon="8.683137754981225"><ele>187.0</ele><time>2026-04-11T16:28:27Z</time></trkpt><trkpt lat="45.55070784373312" lon="8.68317328885405"><ele>186.5</ele><time>2026-04-11T16:28:28Z</time></trkpt><trkpt lat="45.55062702989916" lon="8.6832109654577"><ele>186.0</ele><time>2026-04-11T16:28:29Z</time></trkpt><trkpt lat="45.550558218991824" lon="8.68324769096921"><ele>186.0</ele><time>2026-04-11T16:28:30Z</time></trkpt><trkpt lat="45.55049414120207" lon="8.683286629659904"><ele>186.0</ele><time>2026-04-11T16:28:31Z</time></trkpt><trkpt lat="45.55036219939198" lon="8.68331671651405"><ele>186.0</ele><time>2026-04-11T16:28:33Z</time></trkpt><trkpt lat="45.55012829984936" lon="8.683542782489017"><ele>186.20000000000002</ele><time>2026-04-11T16:28:35Z</time></trkpt><trkpt lat="45.55004672811191" lon="8.683603820364127"><ele>186.4</ele><time>2026-04-11T16:28:36Z</time></trkpt><trkpt lat="45.54996023556184" lon="8.683645182679507"><ele>186.6</ele><time>2026-04-11T16:28:37Z</time></trkpt><trkpt lat="45.549880078831364" lon="8.683643929491884"><ele>186.8</ele><time>2026-04-11T16:28:38Z</time></trkpt><trkpt lat="45.549782281305575" lon="8.683623324869682"><ele>187.0</ele><time>2026-04-11T16:28:39Z</time></trkpt><trkpt lat="45.54967292854255" lon="8.683582987451315"><ele>187.0</ele><time>2026-04-11T16:28:40Z</time></trkpt><trkpt lat="45.54955977201998" lon="8.683541605024715"><ele>187.0</ele><time>2026-04-11T16:28:41Z</time></trkpt><trkpt lat="45.54942325309902" lon="8.683489669228534"><ele>187.0</ele><time>2026-04-11T16:28:42Z</time></trkpt><trkpt lat="45.54930971930037" lon="8.683448057002932"><ele>187.0</ele><time>2026-04-11T16:28:43Z</time></trkpt><trkpt lat="45.54922367920942" lon="8.683443082935211"><ele>187.2</ele><time>2026-04-11T16:28:44Z</time></trkpt><trkpt lat="45.549144202366634" lon="8.683464573975293"><ele>187.39999999999998</ele><time>2026-04-11T16:28:45Z</time></trkpt><trkpt lat="45.54902687409972" lon="8.683521493865571"><ele>187.60000000000002</ele><time>2026-04-11T16:28:46Z</time></trkpt><trkpt lat="45.548900209264296" lon="8.683581845883063"><ele>187.8</ele><time>2026-04-11T16:28:47Z</time></trkpt><trkpt lat="45.54880859201622" lon="8.683620195204725"><ele>188.0</ele><time>2026-04-11T16:28:48Z</time></trkpt><trkpt lat="45.54871848393236" lon="8.683630924315665"><ele>188.0</ele><time>2026-04-11T16:28:49Z</time></trkpt><trkpt lat="45.54861111982588" lon="8.683599961665497"><ele>188.0</ele><time>2026-04-11T16:28:50Z</time></trkpt><trkpt lat="45.54847796851829" lon="8.683561427707541"><ele>188.0</ele><time>2026-04-11T16:28:51Z</time></trkpt><trkpt lat="45.548381871210125" lon="8.683547450054006"><ele>188.0</ele><time>2026-04-11T16:28:52Z</time></trkpt><trkpt lat="45.54828535970792" lon="8.683556518885936"><ele>188.0</ele><time>2026-04-11T16:28:53Z</time></trkpt><trkpt lat="45.548207492005204" lon="8.683579223373767"><ele>188.0</ele><time>2026-04-11T16:28:54Z</time></trkpt><trkpt lat="45.54812397727751" lon="8.683623538337535"><ele>188.0</ele><time>2026-04-11T16:28:55Z</time></trkpt><trkpt lat="45.54802963208638" lon="8.683690248139538"><ele>188.0</ele><time>2026-04-11T16:28:56Z</time></trkpt><trkpt lat="45.547917668153055" lon="8.683752114927982"><ele>188.0</ele><time>2026-04-11T16:28:57Z</time></trkpt><trkpt lat="45.54780552181971" lon="8.68377884055035"><ele>188.0</ele><time>2026-04-11T16:28:58Z</time></trkpt><trkpt lat="45.547667600805426" lon="8.683792587143877"><ele>187.33333333333331</ele><time>2026-04-11T16:28:59Z</time></trkpt><trkpt lat="45.54750066260682" lon="8.683804208592353"><ele>186.66666666666666</ele><time>2026-04-11T16:29:00Z</time></trkpt><trkpt lat="45.54731552909266" lon="8.68381778472166"><ele>186.0</ele><time>2026-04-11T16:29:01Z</time></trkpt><trkpt lat="45.54712397202765" lon="8.68384129637885"><ele>185.33333333333334</ele><time>2026-04-11T16:29:02Z</time></trkpt><trkpt lat="45.54694854131221" lon="8.683860807308422"><ele>184.66666666666669</ele><time>2026-04-11T16:29:03Z</time></trkpt><trkpt lat="45.54678855931766" lon="8.683881724088012"><ele>184.0</ele><time>2026-04-11T16:29:04Z</time></trkpt><trkpt lat="45.54663170150945" lon="8.683901733030478"><ele>184.0</ele><time>2026-04-11T16:29:05Z</time></trkpt><trkpt lat="45.54647248448903" lon="8.683925513773088"><ele>184.0</ele><time>2026-04-11T16:29:06Z</time></trkpt><trkpt lat="45.54632231106891" lon="8.683945881707142"><ele>184.0</ele><time>2026-04-11T16:29:07Z</time></trkpt><trkpt lat="45.54616635053953" lon="8.683962328384816"><ele>184.0</ele><time>2026-04-11T16:29:08Z</time></trkpt><trkpt lat="45.54603817939483" lon="8.683970506638012"><ele>184.0</ele><time>2026-04-11T16:29:09Z</time></trkpt><trkpt lat="45.54591302604124" lon="8.683986009224139"><ele>184.0</ele><time>2026-04-11T16:29:10Z</time></trkpt><trkpt lat="45.54579817451816" lon="8.683992968668065"><ele>184.0</ele><time>2026-04-11T16:29:11Z</time></trkpt><trkpt lat="45.54568740693545" lon="8.684000371692983"><ele>184.0</ele><time>2026-04-11T16:29:12Z</time></trkpt><trkpt lat="45.54557318341354" lon="8.683989965514854"><ele>184.0</ele><time>2026-04-11T16:29:13Z</time></trkpt><trkpt lat="45.54543944805159" lon="8.683993792961363"><ele>184.0</ele><time>2026-04-11T16:29:14Z</time></trkpt><trkpt lat="45.545313204885694" lon="8.684007750290188"><ele>184.0</ele><time>2026-04-11T16:29:15Z</time></trkpt><trkpt lat="45.54518886449847" lon="8.684043281047426"><ele>184.5</ele><time>2026-04-11T16:29:16Z</time></trkpt><trkpt lat="45.5450605310721" lon="8.684075506311123"><ele>185.0</ele><time>2026-04-11T16:29:17Z</time></trkpt><trkpt lat="45.54494750016682" lon="8.684085772918458"><ele>185.5</ele><time>2026-04-11T16:29:18Z</time></trkpt><trkpt lat="45.54484094689975" lon="8.684080179993149"><ele>186.0</ele><time>2026-04-11T16:29:19Z</time></trkpt><trkpt lat="45.5447420025505" lon="8.68405512529551"><ele>186.0</ele><time>2026-04-11T16:29:20Z</time></trkpt><trkpt lat="45.54465285116708" lon="8.684010821135002"><ele>186.0</ele><time>2026-04-11T16:29:21Z</time></trkpt><trkpt lat="45.54458818927856" lon="8.683929190488593"><ele>186.0</ele><time>2026-04-11T16:29:22Z</time></trkpt><trkpt lat="45.54451602925601" lon="8.683815649258772"><ele>186.0</ele><time>2026-04-11T16:29:23Z</time></trkpt><trkpt lat="45.54444141891559" lon="8.68368770563889"><ele>186.0</ele><time>2026-04-11T16:29:24Z</time></trkpt><trkpt lat="45.54435337336471" lon="8.683586708298279"><ele>186.0</ele><time>2026-04-11T16:29:25Z</time></trkpt><trkpt lat="45.54423434015091" lon="8.683490373027148"><ele>186.0</ele><time>2026-04-11T16:29:25.999Z</time></trkpt><trkpt lat="45.54410277099757" lon="8.68338010517531"><ele>186.0</ele><time>2026-04-11T16:29:26.999Z</time></trkpt><trkpt lat="45.543977653918226" lon="8.683287493198224"><ele>186.0</ele><time>2026-04-11T16:29:27.998Z</time></trkpt><trkpt lat="45.54387317822368" lon="8.683204702170972"><ele>186.0</ele><time>2026-04-11T16:29:28.998Z</time></trkpt><trkpt lat="45.543787817219375" lon="8.68311237903817"><ele>186.0</ele><time>2026-04-11T16:29:29.998Z</time></trkpt><trkpt lat="45.54372178927422" lon="8.683007482455947"><ele>186.0</ele><time>2026-04-11T16:29:30.998Z</time></trkpt><trkpt lat="45.54367277400092" lon="8.682890540385618"><ele>186.0</ele><time>2026-04-11T16:29:31.998Z</time></trkpt><trkpt lat="45.543615663487806" lon="8.68274151310318"><ele>186.0</ele><time>2026-04-11T16:29:32.998Z</time></trkpt><trkpt lat="45.54354704174618" lon="8.682619441114232"><ele>185.75</ele><time>2026-04-11T16:29:33.998Z</time></trkpt><trkpt lat="45.54345649319908" lon="8.682508764496"><ele>185.5</ele><time>2026-04-11T16:29:34.998Z</time></trkpt><trkpt lat="45.54333665914163" lon="8.682379569666407"><ele>185.25</ele><time>2026-04-11T16:29:35.998Z</time></trkpt><trkpt lat="45.54324356903949" lon="8.682258606676726"><ele>185.0</ele><time>2026-04-11T16:29:36.998Z</time></trkpt><trkpt lat="45.543169034290514" lon="8.682154253679775"><ele>185.0</ele><time>2026-04-11T16:29:37.998Z</time></trkpt><trkpt lat="45.54308637021294" lon="8.682048585367953"><ele>185.0</ele><time>2026-04-11T16:29:38.998Z</time></trkpt><trkpt lat="45.54300136948847" lon="8.68194558561691"><ele>185.0</ele><time>2026-04-11T16:29:39.998Z</time></trkpt><trkpt lat="45.542925052870984" lon="8.681832686604151"><ele>185.0</ele><time>2026-04-11T16:29:40.998Z</time></trkpt><trkpt lat="45.542846171998505" lon="8.68172547496425"><ele>185.0</ele><time>2026-04-11T16:29:41.998Z</time></trkpt><trkpt lat="45.54276223773081" lon="8.681635404847858"><ele>185.25</ele><time>2026-04-11T16:29:42.998Z</time></trkpt><trkpt lat="45.542670855312124" lon="8.68154752502841"><ele>185.5</ele><time>2026-04-11T16:29:43.998Z</time></trkpt><trkpt lat="45.54258016504559" lon="8.681450906858814"><ele>185.75</ele><time>2026-04-11T16:29:44.998Z</time></trkpt><trkpt lat="45.542488743957776" lon="8.681332339135265"><ele>186.0</ele><time>2026-04-11T16:29:45.998Z</time></trkpt><trkpt lat="45.54241199143481" lon="8.681214321042532"><ele>186.0</ele><time>2026-04-11T16:29:46.998Z</time></trkpt><trkpt lat="45.54232731179542" lon="8.68110155848857"><ele>186.0</ele><time>2026-04-11T16:29:47.998Z</time></trkpt><trkpt lat="45.542242253309084" lon="8.680992369508832"><ele>186.0</ele><time>2026-04-11T16:29:48.998Z</time></trkpt><trkpt lat="45.5421697890264" lon="8.68090066002004"><ele>186.0</ele><time>2026-04-11T16:29:49.998Z</time></trkpt><trkpt lat="45.5421159605303" lon="8.680806654443705"><ele>186.0</ele><time>2026-04-11T16:29:50.998Z</time></trkpt><trkpt lat="45.542071098910064" lon="8.680712029960608"><ele>185.16666666666666</ele><time>2026-04-11T16:29:51.998Z</time></trkpt><trkpt lat="45.54202372887982" lon="8.680642057320874"><ele>184.33333333333334</ele><time>2026-04-11T16:29:52.998Z</time></trkpt><trkpt lat="45.54196548348334" lon="8.6805943398965"><ele>183.5</ele><time>2026-04-11T16:29:53.998Z</time></trkpt><trkpt lat="45.54189721572468" lon="8.680578970530762"><ele>182.66666666666669</ele><time>2026-04-11T16:29:54.998Z</time></trkpt><trkpt lat="45.541834181231685" lon="8.680579582689067"><ele>181.83333333333334</ele><time>2026-04-11T16:29:55.998Z</time></trkpt><trkpt lat="45.541727782700114" lon="8.680637955188898"><ele>181.0</ele><time>2026-04-11T16:29:57.998Z</time></trkpt><trkpt lat="45.541602795449364" lon="8.680683933702248"><ele>181.0</ele><time>2026-04-11T16:29:59.998Z</time></trkpt><trkpt lat="45.54153188444561" lon="8.680726090426539"><ele>181.0</ele><time>2026-04-11T16:30:00.998Z</time></trkpt><trkpt lat="45.54145406688663" lon="8.680763164255685"><ele>181.0</ele><time>2026-04-11T16:30:01.998Z</time></trkpt><trkpt lat="45.54137694047587" lon="8.680800459465983"><ele>181.0</ele><time>2026-04-11T16:30:02.998Z</time></trkpt><trkpt lat="45.54130799352318" lon="8.680829810521287"><ele>181.0</ele><time>2026-04-11T16:30:03.998Z</time></trkpt><trkpt lat="45.54119038689777" lon="8.680878217221245"><ele>181.0</ele><time>2026-04-11T16:30:05.998Z</time></trkpt><trkpt lat="45.541090459707696" lon="8.680937899702341"><ele>180.8</ele><time>2026-04-11T16:30:07.998Z</time></trkpt><trkpt lat="45.54101676435247" lon="8.68099964033986"><ele>180.60000000000002</ele><time>2026-04-11T16:30:09.998Z</time></trkpt><trkpt lat="45.54092887091223" lon="8.681077560076252"><ele>180.4</ele><time>2026-04-11T16:30:11.998Z</time></trkpt><trkpt lat="45.540856386400144" lon="8.681102878924817"><ele>180.2</ele><time>2026-04-11T16:30:13Z</time></trkpt><trkpt lat="45.54075414017931" lon="8.681133497080534"><ele>180.0</ele><time>2026-04-11T16:30:14Z</time></trkpt><trkpt lat="45.54064221206448" lon="8.681157159967688"><ele>180.0</ele><time>2026-04-11T16:30:15Z</time></trkpt><trkpt lat="45.540511601789106" lon="8.681176246300081"><ele>180.0</ele><time>2026-04-11T16:30:16Z</time></trkpt><trkpt lat="45.54035032687677" lon="8.68118951542409"><ele>180.0</ele><time>2026-04-11T16:30:17Z</time></trkpt><trkpt lat="45.54019394052163" lon="8.681199221357396"><ele>180.0</ele><time>2026-04-11T16:30:18Z</time></trkpt><trkpt lat="45.54005059584367" lon="8.681174692438484"><ele>180.0</ele><time>2026-04-11T16:30:19Z</time></trkpt><trkpt lat="45.539917182487" lon="8.681125849328753"><ele>180.0</ele><time>2026-04-11T16:30:20Z</time></trkpt><trkpt lat="45.539788294777466" lon="8.681102945692764"><ele>180.0</ele><time>2026-04-11T16:30:21Z</time></trkpt><trkpt lat="45.539671674466305" lon="8.681072455374801"><ele>180.0</ele><time>2026-04-11T16:30:22Z</time></trkpt><trkpt lat="45.53956546379375" lon="8.681054577517507"><ele>180.0</ele><time>2026-04-11T16:30:23Z</time></trkpt><trkpt lat="45.539431510136126" lon="8.681086055960884"><ele>180.0</ele><time>2026-04-11T16:30:24Z</time></trkpt><trkpt lat="45.539254978722724" lon="8.681143848430226"><ele>180.0</ele><time>2026-04-11T16:30:25Z</time></trkpt><trkpt lat="45.539074456606166" lon="8.681198428881082"><ele>180.33333333333334</ele><time>2026-04-11T16:30:26Z</time></trkpt><trkpt lat="45.53889635660234" lon="8.6812343511618"><ele>180.66666666666669</ele><time>2026-04-11T16:30:27Z</time></trkpt><trkpt lat="45.538753586508946" lon="8.681253844041334"><ele>181.0</ele><time>2026-04-11T16:30:28Z</time></trkpt><trkpt lat="45.53861572339353" lon="8.681270197316914"><ele>180.0</ele><time>2026-04-11T16:30:29Z</time></trkpt><trkpt lat="45.53846759104217" lon="8.681273025192954"><ele>179.0</ele><time>2026-04-11T16:30:30Z</time></trkpt><trkpt lat="45.538295951015066" lon="8.681288646226458"><ele>178.0</ele><time>2026-04-11T16:30:31Z</time></trkpt><trkpt lat="45.53812569213119" lon="8.68131790268485"><ele>178.0</ele><time>2026-04-11T16:30:32Z</time></trkpt><trkpt lat="45.53793753324072" lon="8.68134337653421"><ele>178.0</ele><time>2026-04-11T16:30:33Z</time></trkpt><trkpt lat="45.53772084708341" lon="8.68136732813665"><ele>178.0</ele><time>2026-04-11T16:30:34Z</time></trkpt><trkpt lat="45.53750009358825" lon="8.681397515922907"><ele>177.66666666666669</ele><time>2026-04-11T16:30:35Z</time></trkpt><trkpt lat="45.537278711472354" lon="8.681429856071704"><ele>177.33333333333334</ele><time>2026-04-11T16:30:36Z</time></trkpt><trkpt lat="45.53709237482628" lon="8.681465642891844"><ele>177.0</ele><time>2026-04-11T16:30:37Z</time></trkpt><trkpt lat="45.53693843916291" lon="8.681490673678967"><ele>177.0</ele><time>2026-04-11T16:30:38Z</time></trkpt><trkpt lat="45.536770896427434" lon="8.681515200241323"><ele>177.0</ele><time>2026-04-11T16:30:39Z</time></trkpt><trkpt lat="45.536614554805126" lon="8.681551053252594"><ele>177.0</ele><time>2026-04-11T16:30:40Z</time></trkpt><trkpt lat="45.53642093895415" lon="8.681594602849676"><ele>177.0</ele><time>2026-04-11T16:30:41Z</time></trkpt><trkpt lat="45.53622200544806" lon="8.681642260905127"><ele>177.0</ele><time>2026-04-11T16:30:42Z</time></trkpt><trkpt lat="45.53604514897305" lon="8.68170191628885"><ele>177.0</ele><time>2026-04-11T16:30:43Z</time></trkpt><trkpt lat="45.535889970387295" lon="8.681761952467216"><ele>176.25</ele><time>2026-04-11T16:30:44Z</time></trkpt><trkpt lat="45.5357548629081" lon="8.681823770189308"><ele>175.5</ele><time>2026-04-11T16:30:45Z</time></trkpt><trkpt lat="45.53562865021255" lon="8.681872466921776"><ele>174.75</ele><time>2026-04-11T16:30:46Z</time></trkpt><trkpt lat="45.53549214369179" lon="8.681906901359769"><ele>174.0</ele><time>2026-04-11T16:30:47Z</time></trkpt><trkpt lat="45.535338263883446" lon="8.681926638471804"><ele>173.79999999999998</ele><time>2026-04-11T16:30:48Z</time></trkpt><trkpt lat="45.53521822255777" lon="8.681931539972256"><ele>173.6</ele><time>2026-04-11T16:30:49Z</time></trkpt><trkpt lat="45.53510785841785" lon="8.681924409870675"><ele>173.4</ele><time>2026-04-11T16:30:50Z</time></trkpt><trkpt lat="45.53500709310332" lon="8.6818932722155"><ele>173.2</ele><time>2026-04-11T16:30:51Z</time></trkpt><trkpt lat="45.534912433742726" lon="8.681831068103453"><ele>173.0</ele><time>2026-04-11T16:30:52Z</time></trkpt><trkpt lat="45.53480890553824" lon="8.681739818480132"><ele>173.0</ele><time>2026-04-11T16:30:53Z</time></trkpt><trkpt lat="45.534688641192886" lon="8.681625946115643"><ele>173.0</ele><time>2026-04-11T16:30:54Z</time></trkpt><trkpt lat="45.53457388742021" lon="8.681532883132101"><ele>173.0</ele><time>2026-04-11T16:30:55Z</time></trkpt><trkpt lat="45.534448539964366" lon="8.681457285271426"><ele>173.0</ele><time>2026-04-11T16:30:56Z</time></trkpt><trkpt lat="45.534291948323364" lon="8.681359350025286"><ele>173.33333333333331</ele><time>2026-04-11T16:30:57Z</time></trkpt><trkpt lat="45.53412328171736" lon="8.68124811404781"><ele>173.66666666666666</ele><time>2026-04-11T16:30:58Z</time></trkpt><trkpt lat="45.53394722878575" lon="8.681144718839205"><ele>174.0</ele><time>2026-04-11T16:30:59Z</time></trkpt><trkpt lat="45.53379120893955" lon="8.681059647321776"><ele>174.33333333333334</ele><time>2026-04-11T16:31:00Z</time></trkpt><trkpt lat="45.533647112809454" lon="8.6809800115312"><ele>174.66666666666669</ele><time>2026-04-11T16:31:01Z</time></trkpt><trkpt lat="45.53349291156074" lon="8.680899997149787"><ele>175.0</ele><time>2026-04-11T16:31:02Z</time></trkpt><trkpt lat="45.53331143846459" lon="8.680831813909847"><ele>175.0</ele><time>2026-04-11T16:31:03Z</time></trkpt><trkpt lat="45.53314320217098" lon="8.680762603698735"><ele>175.0</ele><time>2026-04-11T16:31:03.999Z</time></trkpt><trkpt lat="45.532955442959846" lon="8.680666527419655"><ele>175.0</ele><time>2026-04-11T16:31:04.999Z</time></trkpt><trkpt lat="45.532757380782215" lon="8.68055799983744"><ele>175.33333333333334</ele><time>2026-04-11T16:31:05.999Z</time></trkpt><trkpt lat="45.53260083555127" lon="8.680472136944761"><ele>175.66666666666666</ele><time>2026-04-11T16:31:06.999Z</time></trkpt><trkpt lat="45.53246099654543" lon="8.680393096009373"><ele>176.0</ele><time>2026-04-11T16:31:07.999Z</time></trkpt><trkpt lat="45.532329161092754" lon="8.680317679767683"><ele>175.25</ele><time>2026-04-11T16:31:08.999Z</time></trkpt><trkpt lat="45.53221192697818" lon="8.680254826045203"><ele>174.5</ele><time>2026-04-11T16:31:09.999Z</time></trkpt><trkpt lat="45.53209700459192" lon="8.68021277266077"><ele>173.75</ele><time>2026-04-11T16:31:10.999Z</time></trkpt><trkpt lat="45.53198482008392" lon="8.680178980201784"><ele>173.0</ele><time>2026-04-11T16:31:11.999Z</time></trkpt><trkpt lat="45.53188816321883" lon="8.680153650132166"><ele>173.0</ele><time>2026-04-11T16:31:12.999Z</time></trkpt><trkpt lat="45.5318029279556" lon="8.680137357652315"><ele>173.0</ele><time>2026-04-11T16:31:13.999Z</time></trkpt><trkpt lat="45.53172576486751" lon="8.68013095567522"><ele>173.0</ele><time>2026-04-11T16:31:14.999Z</time></trkpt><trkpt lat="45.53165330437861" lon="8.680121619279614"><ele>173.0</ele><time>2026-04-11T16:31:15.999Z</time></trkpt><trkpt lat="45.53158197479916" lon="8.680091152272334"><ele>173.0</ele><time>2026-04-11T16:31:16.999Z</time></trkpt><trkpt lat="45.531503587091144" lon="8.68005750250633"><ele>173.0</ele><time>2026-04-11T16:31:17.999Z</time></trkpt><trkpt lat="45.53143166371027" lon="8.680050938810338"><ele>173.0</ele><time>2026-04-11T16:31:18.999Z</time></trkpt><trkpt lat="45.53136399326294" lon="8.680048137500508"><ele>173.0</ele><time>2026-04-11T16:31:19.999Z</time></trkpt><trkpt lat="45.53129884465394" lon="8.680044750227514"><ele>173.0</ele><time>2026-04-11T16:31:20.999Z</time></trkpt><trkpt lat="45.53123259694953" lon="8.680050360646833"><ele>173.0</ele><time>2026-04-11T16:31:21.999Z</time></trkpt><trkpt lat="45.53116238177074" lon="8.680077025438512"><ele>173.0</ele><time>2026-04-11T16:31:22.999Z</time></trkpt><trkpt lat="45.53109988526435" lon="8.680094250019208"><ele>173.0</ele><time>2026-04-11T16:31:23.999Z</time></trkpt><trkpt lat="45.53098513594298" lon="8.680101082340022"><ele>173.33333333333331</ele><time>2026-04-11T16:31:25.999Z</time></trkpt><trkpt lat="45.5309206164194" lon="8.680099107416373"><ele>173.66666666666666</ele><time>2026-04-11T16:31:26.999Z</time></trkpt><trkpt lat="45.53079420776764" lon="8.680094025643076"><ele>174.0</ele><time>2026-04-11T16:31:28.999Z</time></trkpt><trkpt lat="45.53073011648319" lon="8.680074310699226"><ele>174.33333333333334</ele><time>2026-04-11T16:31:29.999Z</time></trkpt><trkpt lat="45.53060492731695" lon="8.680040819212733"><ele>174.66666666666669</ele><time>2026-04-11T16:31:31.999Z</time></trkpt><trkpt lat="45.530539742448944" lon="8.68003147684275"><ele>175.0</ele><time>2026-04-11T16:31:32.999Z</time></trkpt><trkpt lat="45.53047045312013" lon="8.680031487035109"><ele>175.0</ele><time>2026-04-11T16:31:33.999Z</time></trkpt><trkpt lat="45.53040607344888" lon="8.680022247679762"><ele>175.0</ele><time>2026-04-11T16:31:34.999Z</time></trkpt><trkpt lat="45.530337524334186" lon="8.68001399586189"><ele>175.0</ele><time>2026-04-11T16:31:35.999Z</time></trkpt><trkpt lat="45.53027173677159" lon="8.680007237795998"><ele>175.0</ele><time>2026-04-11T16:31:36.999Z</time></trkpt><trkpt lat="45.530149001641114" lon="8.679977192339091"><ele>175.0</ele><time>2026-04-11T16:31:38.999Z</time></trkpt><trkpt lat="45.530046065987584" lon="8.679967872588014"><ele>175.0</ele><time>2026-04-11T16:31:40.999Z</time></trkpt><trkpt lat="45.52996659480192" lon="8.67999217326419"><ele>175.0</ele><time>2026-04-11T16:31:42.999Z</time></trkpt><trkpt lat="45.52984874060586" lon="8.67998505652554"><ele>175.0</ele><time>2026-04-11T16:31:44.999Z</time></trkpt><trkpt lat="45.52977327667337" lon="8.679987287232247"><ele>175.0</ele><time>2026-04-11T16:31:45.999Z</time></trkpt><trkpt lat="45.52969678780268" lon="8.679978718926801"><ele>175.0</ele><time>2026-04-11T16:31:46.999Z</time></trkpt><trkpt lat="45.52959838020823" lon="8.679969831885787"><ele>175.0</ele><time>2026-04-11T16:31:47.999Z</time></trkpt><trkpt lat="45.52949670714724" lon="8.679967953951973"><ele>174.6</ele><time>2026-04-11T16:31:48.999Z</time></trkpt><trkpt lat="45.52939053190688" lon="8.67996296637954"><ele>174.2</ele><time>2026-04-11T16:31:49.999Z</time></trkpt><trkpt lat="45.52929323703413" lon="8.679959149270204"><ele>173.8</ele><time>2026-04-11T16:31:50.999Z</time></trkpt><trkpt lat="45.52919292118199" lon="8.679967454403629"><ele>173.4</ele><time>2026-04-11T16:31:51.999Z</time></trkpt><trkpt lat="45.52907476203614" lon="8.67998236681099"><ele>173.0</ele><time>2026-04-11T16:31:52.999Z</time></trkpt><trkpt lat="45.52894970731257" lon="8.67999234412853"><ele>173.0</ele><time>2026-04-11T16:31:53.999Z</time></trkpt><trkpt lat="45.52882317423619" lon="8.680001572877687"><ele>173.0</ele><time>2026-04-11T16:31:54.999Z</time></trkpt><trkpt lat="45.52869889518689" lon="8.680015680326582"><ele>173.0</ele><time>2026-04-11T16:31:55.999Z</time></trkpt><trkpt lat="45.52857988291091" lon="8.680028686687857"><ele>173.0</ele><time>2026-04-11T16:31:56.999Z</time></trkpt><trkpt lat="45.528462282316426" lon="8.680034896970719"><ele>172.8</ele><time>2026-04-11T16:31:57.999Z</time></trkpt><trkpt lat="45.528357208350435" lon="8.680034968516427"><ele>172.60000000000002</ele><time>2026-04-11T16:31:58.999Z</time></trkpt><trkpt lat="45.52825238526314" lon="8.680029322366613"><ele>172.39999999999998</ele><time>2026-04-11T16:31:59.999Z</time></trkpt><trkpt lat="45.52813570358303" lon="8.680015704089008"><ele>172.2</ele><time>2026-04-11T16:32:00.999Z</time></trkpt><trkpt lat="45.528037717998345" lon="8.68000059327717"><ele>172.0</ele><time>2026-04-11T16:32:01.999Z</time></trkpt><trkpt lat="45.527940898797496" lon="8.679981818577678"><ele>172.66666666666669</ele><time>2026-04-11T16:32:02.999Z</time></trkpt><trkpt lat="45.52786201825604" lon="8.679965999349154"><ele>173.33333333333334</ele><time>2026-04-11T16:32:03.999Z</time></trkpt><trkpt lat="45.52778509724901" lon="8.679944567855722"><ele>174.0</ele><time>2026-04-11T16:32:04.999Z</time></trkpt><trkpt lat="45.52772272574432" lon="8.679931426084119"><ele>174.66666666666666</ele><time>2026-04-11T16:32:05.999Z</time></trkpt><trkpt lat="45.527642613432164" lon="8.679906141724336"><ele>175.33333333333331</ele><time>2026-04-11T16:32:06.999Z</time></trkpt><trkpt lat="45.52754597068403" lon="8.679921539156217"><ele>176.0</ele><time>2026-04-11T16:32:07.999Z</time></trkpt><trkpt lat="45.52744245369954" lon="8.679969614317963"><ele>176.0</ele><time>2026-04-11T16:32:08.999Z</time></trkpt><trkpt lat="45.52735397134738" lon="8.680009765013343"><ele>176.0</ele><time>2026-04-11T16:32:09.999Z</time></trkpt><trkpt lat="45.527237940887844" lon="8.680046845321746"><ele>176.0</ele><time>2026-04-11T16:32:10.999Z</time></trkpt><trkpt lat="45.527132846992" lon="8.680066527982204"><ele>176.0</ele><time>2026-04-11T16:32:11.999Z</time></trkpt><trkpt lat="45.52703240224329" lon="8.680070810359153"><ele>176.0</ele><time>2026-04-11T16:32:12.999Z</time></trkpt><trkpt lat="45.52694294493343" lon="8.680078189622183"><ele>175.8</ele><time>2026-04-11T16:32:13.999Z</time></trkpt><trkpt lat="45.526846529598004" lon="8.680098773956152"><ele>175.60000000000002</ele><time>2026-04-11T16:32:14.999Z</time></trkpt><trkpt lat="45.526743731339266" lon="8.680139659961402"><ele>175.4</ele><time>2026-04-11T16:32:15.998Z</time></trkpt><trkpt lat="45.52664746464645" lon="8.6802054285902"><ele>175.2</ele><time>2026-04-11T16:32:16.998Z</time></trkpt><trkpt lat="45.526537998686436" lon="8.680313615792103"><ele>175.0</ele><time>2026-04-11T16:32:17.998Z</time></trkpt><trkpt lat="45.52640944612753" lon="8.68043144521747"><ele>175.0</ele><time>2026-04-11T16:32:19.001Z</time></trkpt><trkpt lat="45.52624898736034" lon="8.680552117279943"><ele>175.0</ele><time>2026-04-11T16:32:20.001Z</time></trkpt><trkpt lat="45.52609460301032" lon="8.680670440604654"><ele>175.0</ele><time>2026-04-11T16:32:21.001Z</time></trkpt><trkpt lat="45.52595793612699" lon="8.680761460219225"><ele>175.0</ele><time>2026-04-11T16:32:22.001Z</time></trkpt><trkpt lat="45.52584257356493" lon="8.6808425445954"><ele>175.0</ele><time>2026-04-11T16:32:23.001Z</time></trkpt><trkpt lat="45.52573884370719" lon="8.680923779044535"><ele>175.0</ele><time>2026-04-11T16:32:24.001Z</time></trkpt><trkpt lat="45.52563875054467" lon="8.681007622739948"><ele>175.0</ele><time>2026-04-11T16:32:25.001Z</time></trkpt><trkpt lat="45.52555915571935" lon="8.68108912701372"><ele>174.75</ele><time>2026-04-11T16:32:26.001Z</time></trkpt><trkpt lat="45.525489413877956" lon="8.681178313702063"><ele>174.5</ele><time>2026-04-11T16:32:27.001Z</time></trkpt><trkpt lat="45.52543084699043" lon="8.681292356615575"><ele>174.25</ele><time>2026-04-11T16:32:28.001Z</time></trkpt><trkpt lat="45.525384740565556" lon="8.681458735058708"><ele>174.0</ele><time>2026-04-11T16:32:29.001Z</time></trkpt><trkpt lat="45.52533042352663" lon="8.681673756948937"><ele>174.39999999999998</ele><time>2026-04-11T16:32:30.001Z</time></trkpt><trkpt lat="45.525276280659156" lon="8.681844715056055"><ele>174.8</ele><time>2026-04-11T16:32:31.001Z</time></trkpt><trkpt lat="45.52522144866278" lon="8.681983928214331"><ele>175.2</ele><time>2026-04-11T16:32:32.001Z</time></trkpt><trkpt lat="45.52517364781131" lon="8.682105521789255"><ele>175.60000000000002</ele><time>2026-04-11T16:32:33.001Z</time></trkpt><trkpt lat="45.525112631679484" lon="8.682228558935204"><ele>176.0</ele><time>2026-04-11T16:32:34.001Z</time></trkpt><trkpt lat="45.52504887569962" lon="8.682340084921664"><ele>176.0</ele><time>2026-04-11T16:32:35.001Z</time></trkpt><trkpt lat="45.52500840957495" lon="8.682435552092118"><ele>176.0</ele><time>2026-04-11T16:32:36.001Z</time></trkpt><trkpt lat="45.52498610477452" lon="8.682559532183495"><ele>176.0</ele><time>2026-04-11T16:32:37.001Z</time></trkpt><trkpt lat="45.52499957543865" lon="8.682665735015847"><ele>176.0</ele><time>2026-04-11T16:32:38.001Z</time></trkpt><trkpt lat="45.52501609240324" lon="8.682759416141252"><ele>176.0</ele><time>2026-04-11T16:32:39.001Z</time></trkpt><trkpt lat="45.525036056965426" lon="8.682907467757948"><ele>176.0</ele><time>2026-04-11T16:32:41.001Z</time></trkpt><trkpt lat="45.52507063844096" lon="8.683047701328785"><ele>176.0</ele><time>2026-04-11T16:32:43Z</time></trkpt><trkpt lat="45.52503287444879" lon="8.683212062818964"><ele>176.0</ele><time>2026-04-11T16:32:45Z</time></trkpt><trkpt lat="45.524985579090654" lon="8.6832815044155"><ele>176.0</ele><time>2026-04-11T16:32:46Z</time></trkpt><trkpt lat="45.52483375632067" lon="8.683383792127755"><ele>176.0</ele><time>2026-04-11T16:32:48Z</time></trkpt><trkpt lat="45.52472218486806" lon="8.683445865681579"><ele>176.0</ele><time>2026-04-11T16:32:49Z</time></trkpt><trkpt lat="45.52461745048282" lon="8.683532920065504"><ele>176.0</ele><time>2026-04-11T16:32:50Z</time></trkpt><trkpt lat="45.52453745893349" lon="8.683610610783967"><ele>176.0</ele><time>2026-04-11T16:32:51Z</time></trkpt><trkpt lat="45.524467009557405" lon="8.683686419057366"><ele>176.0</ele><time>2026-04-11T16:32:52Z</time></trkpt><trkpt lat="45.524408508364665" lon="8.683780236283326"><ele>176.0</ele><time>2026-04-11T16:32:53Z</time></trkpt><trkpt lat="45.52436151382647" lon="8.683906350077093"><ele>176.8</ele><time>2026-04-11T16:32:54Z</time></trkpt><trkpt lat="45.52433045232723" lon="8.684036247360396"><ele>177.60000000000002</ele><time>2026-04-11T16:32:55Z</time></trkpt><trkpt lat="45.524314922252756" lon="8.684155983260611"><ele>178.4</ele><time>2026-04-11T16:32:56Z</time></trkpt><trkpt lat="45.52430753446926" lon="8.684256792871224"><ele>179.2</ele><time>2026-04-11T16:32:57Z</time></trkpt><trkpt lat="45.52431272136527" lon="8.6844143097564"><ele>180.0</ele><time>2026-04-11T16:32:59Z</time></trkpt><trkpt lat="45.524283545385494" lon="8.684567617926566"><ele>180.33333333333334</ele><time>2026-04-11T16:33:01Z</time></trkpt><trkpt lat="45.524288194911726" lon="8.684731107739282"><ele>180.66666666666666</ele><time>2026-04-11T16:33:03Z</time></trkpt><trkpt lat="45.52429347428079" lon="8.684826227711719"><ele>181.0</ele><time>2026-04-11T16:33:04Z</time></trkpt><trkpt lat="45.52428770584681" lon="8.684929687329817"><ele>181.33333333333331</ele><time>2026-04-11T16:33:05Z</time></trkpt><trkpt lat="45.52426984413081" lon="8.685047233714178"><ele>181.66666666666666</ele><time>2026-04-11T16:33:06Z</time></trkpt><trkpt lat="45.52424782620132" lon="8.68519141466335"><ele>182.0</ele><time>2026-04-11T16:33:07Z</time></trkpt><trkpt lat="45.52422935285024" lon="8.6853428143376"><ele>182.0</ele><time>2026-04-11T16:33:08Z</time></trkpt><trkpt lat="45.52423105892168" lon="8.685501760490524"><ele>182.0</ele><time>2026-04-11T16:33:09Z</time></trkpt><trkpt lat="45.52422995343449" lon="8.685683995706263"><ele>182.0</ele><time>2026-04-11T16:33:10Z</time></trkpt><trkpt lat="45.5242222156628" lon="8.68583512022925"><ele>182.0</ele><time>2026-04-11T16:33:11Z</time></trkpt><trkpt lat="45.5242133762815" lon="8.685965978612046"><ele>182.0</ele><time>2026-04-11T16:33:12Z</time></trkpt><trkpt lat="45.524202385170206" lon="8.686082698188182"><ele>181.6</ele><time>2026-04-11T16:33:13Z</time></trkpt><trkpt lat="45.524194686022454" lon="8.686202459046173"><ele>181.2</ele><time>2026-04-11T16:33:14Z</time></trkpt><trkpt lat="45.52418648870749" lon="8.686318875169778"><ele>180.8</ele><time>2026-04-11T16:33:15Z</time></trkpt><trkpt lat="45.52419678718128" lon="8.686456791547974"><ele>180.4</ele><time>2026-04-11T16:33:16Z</time></trkpt><trkpt lat="45.52419246803568" lon="8.686612782146883"><ele>180.0</ele><time>2026-04-11T16:33:17Z</time></trkpt><trkpt lat="45.524184198369746" lon="8.686760092770458"><ele>180.0</ele><time>2026-04-11T16:33:18Z</time></trkpt><trkpt lat="45.524172732126445" lon="8.686909538617968"><ele>180.0</ele><time>2026-04-11T16:33:19Z</time></trkpt><trkpt lat="45.524162581773204" lon="8.687084919814305"><ele>180.0</ele><time>2026-04-11T16:33:20Z</time></trkpt><trkpt lat="45.524150983248546" lon="8.687252571213584"><ele>180.0</ele><time>2026-04-11T16:33:21Z</time></trkpt><trkpt lat="45.524137733672745" lon="8.68738253066825"><ele>180.0</ele><time>2026-04-11T16:33:22Z</time></trkpt><trkpt lat="45.52412402884766" lon="8.687534074413543"><ele>180.0</ele><time>2026-04-11T16:33:23Z</time></trkpt><trkpt lat="45.5240993551852" lon="8.687702342788375"><ele>180.0</ele><time>2026-04-11T16:33:24Z</time></trkpt><trkpt lat="45.52407348747204" lon="8.687853856803494"><ele>180.0</ele><time>2026-04-11T16:33:25Z</time></trkpt><trkpt lat="45.524064964087245" lon="8.68796729349625"><ele>180.0</ele><time>2026-04-11T16:33:26Z</time></trkpt><trkpt lat="45.52406987864782" lon="8.688067525074034"><ele>180.0</ele><time>2026-04-11T16:33:27Z</time></trkpt><trkpt lat="45.52405593513243" lon="8.688172986072278"><ele>176.0</ele><time>2026-04-11T16:33:29Z</time></trkpt><trkpt lat="45.52401610670647" lon="8.688273759254606"><ele>176.0</ele><time>2026-04-11T16:33:46.999Z</time></trkpt></trkseg></trk></gpx>